<?xml version="1.0" encoding="UTF-8" standalone="no" ?>
<gpx xmlns="http://www.topografix.com/GPX/1/1" xmlns:xsi="http://www.w3.org/2001/XMLSchema-instance" xsi:schemaLocation="http://www.topografix.com/GPX/1/1 http://www.topografix.com/GPX/1/1/gpx.xsd" version="1.1" creator="VisuGPX - https://www.visugpx.com">
  <metadata>
    <name>Rando de Bethoncourt 2014</name>
    <desc><![CDATA[Rando de Bethoncourt 2014]]></desc>
  </metadata>
  <trk>
    <name><![CDATA[Path Segment 1]]></name>
    <trkseg>
      <trkpt lat="47.51805" lon="6.7748">
        <ele>442</ele>
        <time>2014-04-13T06:19:25.873Z</time>
      </trkpt>
      <trkpt lat="47.51806" lon="6.77484">
        <ele>442</ele>
        <time>2014-04-13T06:19:30.938Z</time>
      </trkpt>
      <trkpt lat="47.51807" lon="6.77482">
        <ele>440</ele>
        <time>2014-04-13T06:19:35.870Z</time>
      </trkpt>
      <trkpt lat="47.51807" lon="6.77481">
        <ele>440</ele>
        <time>2014-04-13T06:19:40.906Z</time>
      </trkpt>
      <trkpt lat="47.51804" lon="6.7748">
        <ele>438</ele>
        <time>2014-04-13T06:19:45.855Z</time>
      </trkpt>
      <trkpt lat="47.51801" lon="6.77482">
        <ele>438</ele>
        <time>2014-04-13T06:19:50.912Z</time>
      </trkpt>
      <trkpt lat="47.51801" lon="6.77486">
        <ele>439</ele>
        <time>2014-04-13T06:19:55.881Z</time>
      </trkpt>
      <trkpt lat="47.51804" lon="6.7749">
        <ele>441</ele>
        <time>2014-04-13T06:20:00.950Z</time>
      </trkpt>
      <trkpt lat="47.51802" lon="6.7749">
        <ele>440</ele>
        <time>2014-04-13T06:20:05.867Z</time>
      </trkpt>
      <trkpt lat="47.51803" lon="6.77495">
        <ele>440</ele>
        <time>2014-04-13T06:20:10.937Z</time>
      </trkpt>
      <trkpt lat="47.51802" lon="6.77495">
        <ele>438</ele>
        <time>2014-04-13T06:20:15.869Z</time>
      </trkpt>
      <trkpt lat="47.51799" lon="6.77491">
        <ele>438</ele>
        <time>2014-04-13T06:20:20.939Z</time>
      </trkpt>
      <trkpt lat="47.51798" lon="6.77489">
        <ele>438</ele>
        <time>2014-04-13T06:20:25.861Z</time>
      </trkpt>
      <trkpt lat="47.51808" lon="6.77493">
        <ele>441</ele>
        <time>2014-04-13T06:20:30.905Z</time>
      </trkpt>
      <trkpt lat="47.5182" lon="6.77502">
        <ele>440</ele>
        <time>2014-04-13T06:20:35.878Z</time>
      </trkpt>
      <trkpt lat="47.51839" lon="6.77505">
        <ele>441</ele>
        <time>2014-04-13T06:20:40.949Z</time>
      </trkpt>
      <trkpt lat="47.51859" lon="6.77505">
        <ele>441</ele>
        <time>2014-04-13T06:20:45.861Z</time>
      </trkpt>
      <trkpt lat="47.51881" lon="6.77507">
        <ele>441</ele>
        <time>2014-04-13T06:20:50.938Z</time>
      </trkpt>
      <trkpt lat="47.51903" lon="6.77512">
        <ele>440</ele>
        <time>2014-04-13T06:20:55.869Z</time>
      </trkpt>
      <trkpt lat="47.51959" lon="6.77578">
        <ele>439</ele>
        <time>2014-04-13T06:21:20.937Z</time>
      </trkpt>
      <trkpt lat="47.51948" lon="6.77604">
        <ele>439</ele>
        <time>2014-04-13T06:21:25.869Z</time>
      </trkpt>
      <trkpt lat="47.51946" lon="6.77632">
        <ele>440</ele>
        <time>2014-04-13T06:21:30.938Z</time>
      </trkpt>
      <trkpt lat="47.51959" lon="6.77659">
        <ele>440</ele>
        <time>2014-04-13T06:21:35.864Z</time>
      </trkpt>
      <trkpt lat="47.51968" lon="6.77691">
        <ele>440</ele>
        <time>2014-04-13T06:21:40.927Z</time>
      </trkpt>
      <trkpt lat="47.51979" lon="6.77718">
        <ele>442</ele>
        <time>2014-04-13T06:21:45.874Z</time>
      </trkpt>
      <trkpt lat="47.51988" lon="6.77749">
        <ele>442</ele>
        <time>2014-04-13T06:21:50.956Z</time>
      </trkpt>
      <trkpt lat="47.5199" lon="6.7778">
        <ele>442</ele>
        <time>2014-04-13T06:21:55.872Z</time>
      </trkpt>
      <trkpt lat="47.51958" lon="6.77838">
        <ele>443</ele>
        <time>2014-04-13T06:22:07.332Z</time>
      </trkpt>
      <trkpt lat="47.51972" lon="6.77872">
        <ele>442</ele>
        <time>2014-04-13T06:22:10.945Z</time>
      </trkpt>
      <trkpt lat="47.51987" lon="6.77899">
        <ele>442</ele>
        <time>2014-04-13T06:22:15.872Z</time>
      </trkpt>
      <trkpt lat="47.52006" lon="6.77925">
        <ele>444</ele>
        <time>2014-04-13T06:22:21.108Z</time>
      </trkpt>
      <trkpt lat="47.52019" lon="6.77954">
        <ele>445</ele>
        <time>2014-04-13T06:22:25.862Z</time>
      </trkpt>
      <trkpt lat="47.52024" lon="6.7799">
        <ele>445</ele>
        <time>2014-04-13T06:22:30.939Z</time>
      </trkpt>
      <trkpt lat="47.5202" lon="6.78027">
        <ele>445</ele>
        <time>2014-04-13T06:22:35.861Z</time>
      </trkpt>
      <trkpt lat="47.51996" lon="6.78055">
        <ele>446</ele>
        <time>2014-04-13T06:22:40.942Z</time>
      </trkpt>
      <trkpt lat="47.51972" lon="6.78091">
        <ele>445</ele>
        <time>2014-04-13T06:22:46.039Z</time>
      </trkpt>
      <trkpt lat="47.51956" lon="6.7813">
        <ele>444</ele>
        <time>2014-04-13T06:22:50.870Z</time>
      </trkpt>
      <trkpt lat="47.51968" lon="6.78171">
        <ele>444</ele>
        <time>2014-04-13T06:22:55.947Z</time>
      </trkpt>
      <trkpt lat="47.51983" lon="6.78213">
        <ele>444</ele>
        <time>2014-04-13T06:23:00.865Z</time>
      </trkpt>
      <trkpt lat="47.51995" lon="6.78258">
        <ele>444</ele>
        <time>2014-04-13T06:23:05.930Z</time>
      </trkpt>
      <trkpt lat="47.52009" lon="6.78306">
        <ele>443</ele>
        <time>2014-04-13T06:23:10.886Z</time>
      </trkpt>
      <trkpt lat="47.52025" lon="6.78362">
        <ele>443</ele>
        <time>2014-04-13T06:23:15.835Z</time>
      </trkpt>
      <trkpt lat="47.52038" lon="6.78425">
        <ele>443</ele>
        <time>2014-04-13T06:23:20.943Z</time>
      </trkpt>
      <trkpt lat="47.52054" lon="6.78482">
        <ele>442</ele>
        <time>2014-04-13T06:23:25.872Z</time>
      </trkpt>
      <trkpt lat="47.52074" lon="6.78532">
        <ele>437</ele>
        <time>2014-04-13T06:23:30.942Z</time>
      </trkpt>
      <trkpt lat="47.52091" lon="6.78587">
        <ele>433</ele>
        <time>2014-04-13T06:23:35.877Z</time>
      </trkpt>
      <trkpt lat="47.52105" lon="6.78652">
        <ele>431</ele>
        <time>2014-04-13T06:23:40.939Z</time>
      </trkpt>
      <trkpt lat="47.52097" lon="6.78728">
        <ele>427</ele>
        <time>2014-04-13T06:23:45.860Z</time>
      </trkpt>
      <trkpt lat="47.52084" lon="6.78808">
        <ele>423</ele>
        <time>2014-04-13T06:23:50.936Z</time>
      </trkpt>
      <trkpt lat="47.52169" lon="6.79235">
        <ele>408</ele>
        <time>2014-04-13T06:24:20.936Z</time>
      </trkpt>
      <trkpt lat="47.52208" lon="6.79213">
        <ele>407</ele>
        <time>2014-04-13T06:24:25.955Z</time>
      </trkpt>
      <trkpt lat="47.5225" lon="6.7922">
        <ele>407</ele>
        <time>2014-04-13T06:24:30.873Z</time>
      </trkpt>
      <trkpt lat="47.52297" lon="6.79229">
        <ele>405</ele>
        <time>2014-04-13T06:24:35.938Z</time>
      </trkpt>
      <trkpt lat="47.52326" lon="6.79281">
        <ele>402</ele>
        <time>2014-04-13T06:24:40.869Z</time>
      </trkpt>
      <trkpt lat="47.52351" lon="6.79332">
        <ele>402</ele>
        <time>2014-04-13T06:24:45.941Z</time>
      </trkpt>
      <trkpt lat="47.52375" lon="6.79379">
        <ele>403</ele>
        <time>2014-04-13T06:24:50.861Z</time>
      </trkpt>
      <trkpt lat="47.52399" lon="6.79424">
        <ele>403</ele>
        <time>2014-04-13T06:24:55.918Z</time>
      </trkpt>
      <trkpt lat="47.52471" lon="6.79502">
        <ele>402</ele>
        <time>2014-04-13T06:25:05.937Z</time>
      </trkpt>
      <trkpt lat="47.52517" lon="6.7954">
        <ele>397</ele>
        <time>2014-04-13T06:25:10.867Z</time>
      </trkpt>
      <trkpt lat="47.52558" lon="6.79604">
        <ele>392</ele>
        <time>2014-04-13T06:25:15.940Z</time>
      </trkpt>
      <trkpt lat="47.52586" lon="6.79638">
        <ele>385</ele>
        <time>2014-04-13T06:25:20.868Z</time>
      </trkpt>
      <trkpt lat="47.52585" lon="6.79654">
        <ele>382</ele>
        <time>2014-04-13T06:25:25.861Z</time>
      </trkpt>
      <trkpt lat="47.52608" lon="6.79656">
        <ele>382</ele>
        <time>2014-04-13T06:25:30.924Z</time>
      </trkpt>
      <trkpt lat="47.5264" lon="6.79656">
        <ele>382</ele>
        <time>2014-04-13T06:25:35.867Z</time>
      </trkpt>
      <trkpt lat="47.52676" lon="6.79662">
        <ele>379</ele>
        <time>2014-04-13T06:25:40.939Z</time>
      </trkpt>
      <trkpt lat="47.52712" lon="6.79674">
        <ele>380</ele>
        <time>2014-04-13T06:25:45.862Z</time>
      </trkpt>
      <trkpt lat="47.52751" lon="6.79688">
        <ele>380</ele>
        <time>2014-04-13T06:25:50.909Z</time>
      </trkpt>
      <trkpt lat="47.52789" lon="6.79698">
        <ele>380</ele>
        <time>2014-04-13T06:25:55.869Z</time>
      </trkpt>
      <trkpt lat="47.52958" lon="6.79652">
        <ele>383</ele>
        <time>2014-04-13T06:26:20.910Z</time>
      </trkpt>
      <trkpt lat="47.52993" lon="6.79635">
        <ele>383</ele>
        <time>2014-04-13T06:26:25.861Z</time>
      </trkpt>
      <trkpt lat="47.53011" lon="6.79602">
        <ele>383</ele>
        <time>2014-04-13T06:26:31.054Z</time>
      </trkpt>
      <trkpt lat="47.53012" lon="6.79564">
        <ele>382</ele>
        <time>2014-04-13T06:26:35.948Z</time>
      </trkpt>
      <trkpt lat="47.53023" lon="6.79555">
        <ele>380</ele>
        <time>2014-04-13T06:26:40.860Z</time>
      </trkpt>
      <trkpt lat="47.53018" lon="6.79557">
        <ele>380</ele>
        <time>2014-04-13T06:26:45.936Z</time>
      </trkpt>
      <trkpt lat="47.53024" lon="6.79547">
        <ele>379</ele>
        <time>2014-04-13T06:26:50.869Z</time>
      </trkpt>
      <trkpt lat="47.53026" lon="6.7953">
        <ele>380</ele>
        <time>2014-04-13T06:26:55.935Z</time>
      </trkpt>
      <trkpt lat="47.53054" lon="6.79456">
        <ele>383</ele>
        <time>2014-04-13T06:27:10.870Z</time>
      </trkpt>
      <trkpt lat="47.5306" lon="6.7944">
        <ele>384</ele>
        <time>2014-04-13T06:27:15.940Z</time>
      </trkpt>
      <trkpt lat="47.53075" lon="6.79441">
        <ele>382</ele>
        <time>2014-04-13T06:27:20.863Z</time>
      </trkpt>
      <trkpt lat="47.53088" lon="6.79437">
        <ele>382</ele>
        <time>2014-04-13T06:27:25.933Z</time>
      </trkpt>
      <trkpt lat="47.53091" lon="6.79417">
        <ele>380</ele>
        <time>2014-04-13T06:27:30.864Z</time>
      </trkpt>
      <trkpt lat="47.5309" lon="6.79398">
        <ele>378</ele>
        <time>2014-04-13T06:27:35.910Z</time>
      </trkpt>
      <trkpt lat="47.53091" lon="6.79373">
        <ele>377</ele>
        <time>2014-04-13T06:27:40.872Z</time>
      </trkpt>
      <trkpt lat="47.53092" lon="6.79344">
        <ele>377</ele>
        <time>2014-04-13T06:27:45.944Z</time>
      </trkpt>
      <trkpt lat="47.53092" lon="6.79322">
        <ele>377</ele>
        <time>2014-04-13T06:27:50.876Z</time>
      </trkpt>
      <trkpt lat="47.53092" lon="6.79306">
        <ele>377</ele>
        <time>2014-04-13T06:27:55.942Z</time>
      </trkpt>
      <trkpt lat="47.53093" lon="6.79287">
        <ele>377</ele>
        <time>2014-04-13T06:28:05.922Z</time>
      </trkpt>
      <trkpt lat="47.53095" lon="6.79282">
        <ele>376</ele>
        <time>2014-04-13T06:28:10.875Z</time>
      </trkpt>
      <trkpt lat="47.53098" lon="6.79278">
        <ele>376</ele>
        <time>2014-04-13T06:28:15.947Z</time>
      </trkpt>
      <trkpt lat="47.53103" lon="6.79275">
        <ele>377</ele>
        <time>2014-04-13T06:28:20.897Z</time>
      </trkpt>
      <trkpt lat="47.53105" lon="6.79277">
        <ele>377</ele>
        <time>2014-04-13T06:28:25.939Z</time>
      </trkpt>
      <trkpt lat="47.53106" lon="6.79276">
        <ele>378</ele>
        <time>2014-04-13T06:28:30.873Z</time>
      </trkpt>
      <trkpt lat="47.53103" lon="6.79275">
        <ele>378</ele>
        <time>2014-04-13T06:28:35.928Z</time>
      </trkpt>
      <trkpt lat="47.53099" lon="6.79273">
        <ele>378</ele>
        <time>2014-04-13T06:28:40.852Z</time>
      </trkpt>
      <trkpt lat="47.53095" lon="6.79271">
        <ele>378</ele>
        <time>2014-04-13T06:28:45.950Z</time>
      </trkpt>
      <trkpt lat="47.53094" lon="6.7927">
        <ele>378</ele>
        <time>2014-04-13T06:28:50.864Z</time>
      </trkpt>
      <trkpt lat="47.53094" lon="6.79269">
        <ele>378</ele>
        <time>2014-04-13T06:28:55.937Z</time>
      </trkpt>
      <trkpt lat="47.53095" lon="6.7927">
        <ele>378</ele>
        <time>2014-04-13T06:29:00.850Z</time>
      </trkpt>
      <trkpt lat="47.53096" lon="6.79271">
        <ele>378</ele>
        <time>2014-04-13T06:29:05.904Z</time>
      </trkpt>
      <trkpt lat="47.53096" lon="6.79272">
        <ele>378</ele>
        <time>2014-04-13T06:29:10.867Z</time>
      </trkpt>
      <trkpt lat="47.53096" lon="6.79274">
        <ele>379</ele>
        <time>2014-04-13T06:29:15.923Z</time>
      </trkpt>
      <trkpt lat="47.53097" lon="6.79276">
        <ele>380</ele>
        <time>2014-04-13T06:29:20.869Z</time>
      </trkpt>
      <trkpt lat="47.53097" lon="6.79276">
        <ele>380</ele>
        <time>2014-04-13T06:29:25.940Z</time>
      </trkpt>
      <trkpt lat="47.53096" lon="6.79277">
        <ele>380</ele>
        <time>2014-04-13T06:29:30.879Z</time>
      </trkpt>
      <trkpt lat="47.53096" lon="6.79277">
        <ele>380</ele>
        <time>2014-04-13T06:29:35.927Z</time>
      </trkpt>
      <trkpt lat="47.53096" lon="6.79277">
        <ele>380</ele>
        <time>2014-04-13T06:29:40.867Z</time>
      </trkpt>
      <trkpt lat="47.53096" lon="6.79278">
        <ele>381</ele>
        <time>2014-04-13T06:29:45.941Z</time>
      </trkpt>
      <trkpt lat="47.53096" lon="6.79278">
        <ele>381</ele>
        <time>2014-04-13T06:29:50.862Z</time>
      </trkpt>
      <trkpt lat="47.53096" lon="6.79278">
        <ele>381</ele>
        <time>2014-04-13T06:29:55.940Z</time>
      </trkpt>
      <trkpt lat="47.53098" lon="6.79281">
        <ele>380</ele>
        <time>2014-04-13T06:30:20.860Z</time>
      </trkpt>
      <trkpt lat="47.53098" lon="6.7928">
        <ele>379</ele>
        <time>2014-04-13T06:30:25.951Z</time>
      </trkpt>
      <trkpt lat="47.53101" lon="6.79281">
        <ele>380</ele>
        <time>2014-04-13T06:30:30.861Z</time>
      </trkpt>
      <trkpt lat="47.53105" lon="6.7928">
        <ele>380</ele>
        <time>2014-04-13T06:30:35.947Z</time>
      </trkpt>
      <trkpt lat="47.53106" lon="6.79281">
        <ele>379</ele>
        <time>2014-04-13T06:30:40.875Z</time>
      </trkpt>
      <trkpt lat="47.53107" lon="6.79281">
        <ele>379</ele>
        <time>2014-04-13T06:30:45.863Z</time>
      </trkpt>
      <trkpt lat="47.53107" lon="6.79281">
        <ele>379</ele>
        <time>2014-04-13T06:30:50.939Z</time>
      </trkpt>
      <trkpt lat="47.53107" lon="6.79281">
        <ele>379</ele>
        <time>2014-04-13T06:30:55.865Z</time>
      </trkpt>
      <trkpt lat="47.53107" lon="6.79281">
        <ele>379</ele>
        <time>2014-04-13T06:31:05.873Z</time>
      </trkpt>
      <trkpt lat="47.53106" lon="6.7928">
        <ele>379</ele>
        <time>2014-04-13T06:31:10.938Z</time>
      </trkpt>
      <trkpt lat="47.53106" lon="6.7928">
        <ele>379</ele>
        <time>2014-04-13T06:31:15.864Z</time>
      </trkpt>
      <trkpt lat="47.53105" lon="6.79279">
        <ele>379</ele>
        <time>2014-04-13T06:31:20.939Z</time>
      </trkpt>
      <trkpt lat="47.53106" lon="6.79278">
        <ele>379</ele>
        <time>2014-04-13T06:31:25.861Z</time>
      </trkpt>
      <trkpt lat="47.53106" lon="6.79278">
        <ele>379</ele>
        <time>2014-04-13T06:31:30.939Z</time>
      </trkpt>
      <trkpt lat="47.53106" lon="6.79276">
        <ele>379</ele>
        <time>2014-04-13T06:31:35.876Z</time>
      </trkpt>
      <trkpt lat="47.53106" lon="6.79276">
        <ele>379</ele>
        <time>2014-04-13T06:31:40.873Z</time>
      </trkpt>
      <trkpt lat="47.53106" lon="6.79276">
        <ele>379</ele>
        <time>2014-04-13T06:31:45.907Z</time>
      </trkpt>
      <trkpt lat="47.53108" lon="6.79276">
        <ele>378</ele>
        <time>2014-04-13T06:31:50.879Z</time>
      </trkpt>
      <trkpt lat="47.53106" lon="6.79275">
        <ele>377</ele>
        <time>2014-04-13T06:31:55.948Z</time>
      </trkpt>
      <trkpt lat="47.53105" lon="6.79272">
        <ele>377</ele>
        <time>2014-04-13T06:32:20.861Z</time>
      </trkpt>
      <trkpt lat="47.53105" lon="6.79272">
        <ele>377</ele>
        <time>2014-04-13T06:32:25.906Z</time>
      </trkpt>
      <trkpt lat="47.53107" lon="6.79274">
        <ele>377</ele>
        <time>2014-04-13T06:32:30.860Z</time>
      </trkpt>
      <trkpt lat="47.53107" lon="6.79274">
        <ele>377</ele>
        <time>2014-04-13T06:32:35.942Z</time>
      </trkpt>
      <trkpt lat="47.53106" lon="6.79274">
        <ele>377</ele>
        <time>2014-04-13T06:32:40.869Z</time>
      </trkpt>
      <trkpt lat="47.53106" lon="6.79274">
        <ele>377</ele>
        <time>2014-04-13T06:32:46.155Z</time>
      </trkpt>
      <trkpt lat="47.53107" lon="6.79274">
        <ele>377</ele>
        <time>2014-04-13T06:32:50.865Z</time>
      </trkpt>
      <trkpt lat="47.53105" lon="6.79275">
        <ele>377</ele>
        <time>2014-04-13T06:32:55.923Z</time>
      </trkpt>
      <trkpt lat="47.53106" lon="6.79275">
        <ele>378</ele>
        <time>2014-04-13T06:33:02.233Z</time>
      </trkpt>
      <trkpt lat="47.53106" lon="6.79275">
        <ele>378</ele>
        <time>2014-04-13T06:33:05.950Z</time>
      </trkpt>
      <trkpt lat="47.53107" lon="6.79275">
        <ele>377</ele>
        <time>2014-04-13T06:33:10.865Z</time>
      </trkpt>
      <trkpt lat="47.53104" lon="6.79272">
        <ele>377</ele>
        <time>2014-04-13T06:33:15.942Z</time>
      </trkpt>
      <trkpt lat="47.53101" lon="6.79269">
        <ele>377</ele>
        <time>2014-04-13T06:33:20.894Z</time>
      </trkpt>
      <trkpt lat="47.531" lon="6.79268">
        <ele>376</ele>
        <time>2014-04-13T06:33:25.939Z</time>
      </trkpt>
      <trkpt lat="47.53099" lon="6.79268">
        <ele>377</ele>
        <time>2014-04-13T06:33:30.891Z</time>
      </trkpt>
      <trkpt lat="47.53097" lon="6.79271">
        <ele>376</ele>
        <time>2014-04-13T06:33:35.951Z</time>
      </trkpt>
      <trkpt lat="47.53097" lon="6.79275">
        <ele>376</ele>
        <time>2014-04-13T06:33:40.868Z</time>
      </trkpt>
      <trkpt lat="47.53097" lon="6.79275">
        <ele>377</ele>
        <time>2014-04-13T06:33:45.942Z</time>
      </trkpt>
      <trkpt lat="47.53097" lon="6.79275">
        <ele>377</ele>
        <time>2014-04-13T06:33:50.837Z</time>
      </trkpt>
      <trkpt lat="47.531" lon="6.79277">
        <ele>377</ele>
        <time>2014-04-13T06:33:55.940Z</time>
      </trkpt>
      <trkpt lat="47.53097" lon="6.79271">
        <ele>375</ele>
        <time>2014-04-13T06:34:20.869Z</time>
      </trkpt>
      <trkpt lat="47.53096" lon="6.79271">
        <ele>375</ele>
        <time>2014-04-13T06:34:25.939Z</time>
      </trkpt>
      <trkpt lat="47.53096" lon="6.7927">
        <ele>375</ele>
        <time>2014-04-13T06:34:30.874Z</time>
      </trkpt>
      <trkpt lat="47.53094" lon="6.7927">
        <ele>375</ele>
        <time>2014-04-13T06:34:35.928Z</time>
      </trkpt>
      <trkpt lat="47.53094" lon="6.79269">
        <ele>375</ele>
        <time>2014-04-13T06:34:40.877Z</time>
      </trkpt>
      <trkpt lat="47.53097" lon="6.79273">
        <ele>375</ele>
        <time>2014-04-13T06:34:45.930Z</time>
      </trkpt>
      <trkpt lat="47.53102" lon="6.79276">
        <ele>376</ele>
        <time>2014-04-13T06:34:50.866Z</time>
      </trkpt>
      <trkpt lat="47.53105" lon="6.79276">
        <ele>376</ele>
        <time>2014-04-13T06:34:55.879Z</time>
      </trkpt>
      <trkpt lat="47.53101" lon="6.79273">
        <ele>375</ele>
        <time>2014-04-13T06:35:01.921Z</time>
      </trkpt>
      <trkpt lat="47.53097" lon="6.79271">
        <ele>375</ele>
        <time>2014-04-13T06:35:05.871Z</time>
      </trkpt>
      <trkpt lat="47.53095" lon="6.7927">
        <ele>374</ele>
        <time>2014-04-13T06:35:10.939Z</time>
      </trkpt>
      <trkpt lat="47.53095" lon="6.7927">
        <ele>374</ele>
        <time>2014-04-13T06:35:15.867Z</time>
      </trkpt>
      <trkpt lat="47.53095" lon="6.7927">
        <ele>375</ele>
        <time>2014-04-13T06:35:20.936Z</time>
      </trkpt>
      <trkpt lat="47.53095" lon="6.7927">
        <ele>375</ele>
        <time>2014-04-13T06:35:25.877Z</time>
      </trkpt>
      <trkpt lat="47.53095" lon="6.7927">
        <ele>375</ele>
        <time>2014-04-13T06:35:30.952Z</time>
      </trkpt>
      <trkpt lat="47.53095" lon="6.7927">
        <ele>375</ele>
        <time>2014-04-13T06:35:35.866Z</time>
      </trkpt>
      <trkpt lat="47.53095" lon="6.7927">
        <ele>374</ele>
        <time>2014-04-13T06:35:40.940Z</time>
      </trkpt>
      <trkpt lat="47.53095" lon="6.7927">
        <ele>374</ele>
        <time>2014-04-13T06:35:45.872Z</time>
      </trkpt>
      <trkpt lat="47.53094" lon="6.7927">
        <ele>374</ele>
        <time>2014-04-13T06:35:50.941Z</time>
      </trkpt>
      <trkpt lat="47.53094" lon="6.7927">
        <ele>374</ele>
        <time>2014-04-13T06:35:55.875Z</time>
      </trkpt>
      <trkpt lat="47.53094" lon="6.79269">
        <ele>375</ele>
        <time>2014-04-13T06:36:00.865Z</time>
      </trkpt>
      <trkpt lat="47.53094" lon="6.79269">
        <ele>375</ele>
        <time>2014-04-13T06:36:05.935Z</time>
      </trkpt>
      <trkpt lat="47.53094" lon="6.79269">
        <ele>375</ele>
        <time>2014-04-13T06:36:10.877Z</time>
      </trkpt>
      <trkpt lat="47.53095" lon="6.79269">
        <ele>375</ele>
        <time>2014-04-13T06:36:15.952Z</time>
      </trkpt>
      <trkpt lat="47.53094" lon="6.79269">
        <ele>375</ele>
        <time>2014-04-13T06:36:20.865Z</time>
      </trkpt>
      <trkpt lat="47.53094" lon="6.79269">
        <ele>375</ele>
        <time>2014-04-13T06:36:25.943Z</time>
      </trkpt>
      <trkpt lat="47.53094" lon="6.79269">
        <ele>375</ele>
        <time>2014-04-13T06:36:30.873Z</time>
      </trkpt>
      <trkpt lat="47.53094" lon="6.79269">
        <ele>375</ele>
        <time>2014-04-13T06:36:35.927Z</time>
      </trkpt>
      <trkpt lat="47.53094" lon="6.79269">
        <ele>375</ele>
        <time>2014-04-13T06:36:40.862Z</time>
      </trkpt>
      <trkpt lat="47.53094" lon="6.79269">
        <ele>375</ele>
        <time>2014-04-13T06:36:45.939Z</time>
      </trkpt>
      <trkpt lat="47.53094" lon="6.79268">
        <ele>374</ele>
        <time>2014-04-13T06:36:50.878Z</time>
      </trkpt>
      <trkpt lat="47.53093" lon="6.79268">
        <ele>374</ele>
        <time>2014-04-13T06:36:55.953Z</time>
      </trkpt>
      <trkpt lat="47.53093" lon="6.79267">
        <ele>373</ele>
        <time>2014-04-13T06:37:00.874Z</time>
      </trkpt>
      <trkpt lat="47.53094" lon="6.79268">
        <ele>374</ele>
        <time>2014-04-13T06:37:05.937Z</time>
      </trkpt>
      <trkpt lat="47.531" lon="6.7927">
        <ele>373</ele>
        <time>2014-04-13T06:37:10.865Z</time>
      </trkpt>
      <trkpt lat="47.53101" lon="6.79271">
        <ele>374</ele>
        <time>2014-04-13T06:37:15.930Z</time>
      </trkpt>
      <trkpt lat="47.53098" lon="6.79271">
        <ele>374</ele>
        <time>2014-04-13T06:37:20.878Z</time>
      </trkpt>
      <trkpt lat="47.53096" lon="6.79271">
        <ele>374</ele>
        <time>2014-04-13T06:37:25.950Z</time>
      </trkpt>
      <trkpt lat="47.53094" lon="6.79269">
        <ele>373</ele>
        <time>2014-04-13T06:37:30.871Z</time>
      </trkpt>
      <trkpt lat="47.53093" lon="6.79263">
        <ele>372</ele>
        <time>2014-04-13T06:37:35.940Z</time>
      </trkpt>
      <trkpt lat="47.53093" lon="6.79246">
        <ele>373</ele>
        <time>2014-04-13T06:37:40.864Z</time>
      </trkpt>
      <trkpt lat="47.53093" lon="6.79223">
        <ele>373</ele>
        <time>2014-04-13T06:37:45.936Z</time>
      </trkpt>
      <trkpt lat="47.53093" lon="6.79199">
        <ele>373</ele>
        <time>2014-04-13T06:37:50.874Z</time>
      </trkpt>
      <trkpt lat="47.53089" lon="6.79178">
        <ele>373</ele>
        <time>2014-04-13T06:37:55.942Z</time>
      </trkpt>
      <trkpt lat="47.53034" lon="6.79145">
        <ele>376</ele>
        <time>2014-04-13T06:38:20.947Z</time>
      </trkpt>
      <trkpt lat="47.53039" lon="6.79124">
        <ele>377</ele>
        <time>2014-04-13T06:38:25.875Z</time>
      </trkpt>
      <trkpt lat="47.53042" lon="6.79108">
        <ele>377</ele>
        <time>2014-04-13T06:38:30.943Z</time>
      </trkpt>
      <trkpt lat="47.5305" lon="6.79091">
        <ele>377</ele>
        <time>2014-04-13T06:38:35.878Z</time>
      </trkpt>
      <trkpt lat="47.53061" lon="6.79074">
        <ele>378</ele>
        <time>2014-04-13T06:38:40.925Z</time>
      </trkpt>
      <trkpt lat="47.53077" lon="6.79058">
        <ele>375</ele>
        <time>2014-04-13T06:38:45.875Z</time>
      </trkpt>
      <trkpt lat="47.53094" lon="6.79044">
        <ele>374</ele>
        <time>2014-04-13T06:38:50.924Z</time>
      </trkpt>
      <trkpt lat="47.53111" lon="6.79027">
        <ele>376</ele>
        <time>2014-04-13T06:38:55.876Z</time>
      </trkpt>
      <trkpt lat="47.53146" lon="6.78988">
        <ele>379</ele>
        <time>2014-04-13T06:39:05.868Z</time>
      </trkpt>
      <trkpt lat="47.53165" lon="6.7897">
        <ele>379</ele>
        <time>2014-04-13T06:39:10.940Z</time>
      </trkpt>
      <trkpt lat="47.53182" lon="6.78956">
        <ele>380</ele>
        <time>2014-04-13T06:39:15.872Z</time>
      </trkpt>
      <trkpt lat="47.53199" lon="6.78942">
        <ele>380</ele>
        <time>2014-04-13T06:39:20.942Z</time>
      </trkpt>
      <trkpt lat="47.53216" lon="6.78928">
        <ele>381</ele>
        <time>2014-04-13T06:39:25.877Z</time>
      </trkpt>
      <trkpt lat="47.53234" lon="6.78912">
        <ele>381</ele>
        <time>2014-04-13T06:39:30.941Z</time>
      </trkpt>
      <trkpt lat="47.53252" lon="6.78897">
        <ele>380</ele>
        <time>2014-04-13T06:39:35.885Z</time>
      </trkpt>
      <trkpt lat="47.53273" lon="6.78881">
        <ele>381</ele>
        <time>2014-04-13T06:39:40.959Z</time>
      </trkpt>
      <trkpt lat="47.53296" lon="6.78872">
        <ele>381</ele>
        <time>2014-04-13T06:39:45.876Z</time>
      </trkpt>
      <trkpt lat="47.5332" lon="6.78865">
        <ele>382</ele>
        <time>2014-04-13T06:39:50.948Z</time>
      </trkpt>
      <trkpt lat="47.53345" lon="6.78858">
        <ele>382</ele>
        <time>2014-04-13T06:39:55.878Z</time>
      </trkpt>
      <trkpt lat="47.53368" lon="6.78849">
        <ele>382</ele>
        <time>2014-04-13T06:40:00.922Z</time>
      </trkpt>
      <trkpt lat="47.53392" lon="6.78839">
        <ele>381</ele>
        <time>2014-04-13T06:40:05.886Z</time>
      </trkpt>
      <trkpt lat="47.53414" lon="6.7883">
        <ele>382</ele>
        <time>2014-04-13T06:40:10.928Z</time>
      </trkpt>
      <trkpt lat="47.53435" lon="6.78821">
        <ele>383</ele>
        <time>2014-04-13T06:40:15.879Z</time>
      </trkpt>
      <trkpt lat="47.53454" lon="6.78812">
        <ele>383</ele>
        <time>2014-04-13T06:40:20.935Z</time>
      </trkpt>
      <trkpt lat="47.53471" lon="6.788">
        <ele>382</ele>
        <time>2014-04-13T06:40:25.876Z</time>
      </trkpt>
      <trkpt lat="47.53485" lon="6.78781">
        <ele>383</ele>
        <time>2014-04-13T06:40:30.947Z</time>
      </trkpt>
      <trkpt lat="47.53498" lon="6.78756">
        <ele>385</ele>
        <time>2014-04-13T06:40:35.869Z</time>
      </trkpt>
      <trkpt lat="47.53506" lon="6.78725">
        <ele>386</ele>
        <time>2014-04-13T06:40:40.941Z</time>
      </trkpt>
      <trkpt lat="47.53509" lon="6.7869">
        <ele>386</ele>
        <time>2014-04-13T06:40:45.867Z</time>
      </trkpt>
      <trkpt lat="47.53509" lon="6.78651">
        <ele>387</ele>
        <time>2014-04-13T06:40:50.923Z</time>
      </trkpt>
      <trkpt lat="47.53508" lon="6.78613">
        <ele>387</ele>
        <time>2014-04-13T06:40:55.884Z</time>
      </trkpt>
      <trkpt lat="47.53507" lon="6.78576">
        <ele>386</ele>
        <time>2014-04-13T06:41:00.944Z</time>
      </trkpt>
      <trkpt lat="47.53506" lon="6.7854">
        <ele>387</ele>
        <time>2014-04-13T06:41:05.877Z</time>
      </trkpt>
      <trkpt lat="47.53505" lon="6.78502">
        <ele>387</ele>
        <time>2014-04-13T06:41:11.124Z</time>
      </trkpt>
      <trkpt lat="47.53507" lon="6.78463">
        <ele>387</ele>
        <time>2014-04-13T06:41:15.953Z</time>
      </trkpt>
      <trkpt lat="47.53514" lon="6.78423">
        <ele>387</ele>
        <time>2014-04-13T06:41:20.873Z</time>
      </trkpt>
      <trkpt lat="47.53524" lon="6.78382">
        <ele>387</ele>
        <time>2014-04-13T06:41:25.943Z</time>
      </trkpt>
      <trkpt lat="47.53536" lon="6.78341">
        <ele>387</ele>
        <time>2014-04-13T06:41:30.869Z</time>
      </trkpt>
      <trkpt lat="47.5355" lon="6.783">
        <ele>387</ele>
        <time>2014-04-13T06:41:35.938Z</time>
      </trkpt>
      <trkpt lat="47.53564" lon="6.78261">
        <ele>387</ele>
        <time>2014-04-13T06:41:40.882Z</time>
      </trkpt>
      <trkpt lat="47.53583" lon="6.78224">
        <ele>387</ele>
        <time>2014-04-13T06:41:45.956Z</time>
      </trkpt>
      <trkpt lat="47.53596" lon="6.78187">
        <ele>388</ele>
        <time>2014-04-13T06:41:50.866Z</time>
      </trkpt>
      <trkpt lat="47.53623" lon="6.7816">
        <ele>387</ele>
        <time>2014-04-13T06:41:55.941Z</time>
      </trkpt>
      <trkpt lat="47.53653" lon="6.78133">
        <ele>387</ele>
        <time>2014-04-13T06:42:00.867Z</time>
      </trkpt>
      <trkpt lat="47.53682" lon="6.78107">
        <ele>386</ele>
        <time>2014-04-13T06:42:05.943Z</time>
      </trkpt>
      <trkpt lat="47.53705" lon="6.78086">
        <ele>386</ele>
        <time>2014-04-13T06:42:10.866Z</time>
      </trkpt>
      <trkpt lat="47.53705" lon="6.78061">
        <ele>383</ele>
        <time>2014-04-13T06:42:15.839Z</time>
      </trkpt>
      <trkpt lat="47.53698" lon="6.78044">
        <ele>383</ele>
        <time>2014-04-13T06:42:20.940Z</time>
      </trkpt>
      <trkpt lat="47.53696" lon="6.78025">
        <ele>384</ele>
        <time>2014-04-13T06:42:25.873Z</time>
      </trkpt>
      <trkpt lat="47.53692" lon="6.78001">
        <ele>384</ele>
        <time>2014-04-13T06:42:30.922Z</time>
      </trkpt>
      <trkpt lat="47.53691" lon="6.77977">
        <ele>385</ele>
        <time>2014-04-13T06:42:35.876Z</time>
      </trkpt>
      <trkpt lat="47.53689" lon="6.7795">
        <ele>387</ele>
        <time>2014-04-13T06:42:40.934Z</time>
      </trkpt>
      <trkpt lat="47.53687" lon="6.77929">
        <ele>390</ele>
        <time>2014-04-13T06:42:45.873Z</time>
      </trkpt>
      <trkpt lat="47.53678" lon="6.77904">
        <ele>391</ele>
        <time>2014-04-13T06:42:50.865Z</time>
      </trkpt>
      <trkpt lat="47.53674" lon="6.77884">
        <ele>391</ele>
        <time>2014-04-13T06:42:55.952Z</time>
      </trkpt>
      <trkpt lat="47.53671" lon="6.7786">
        <ele>393</ele>
        <time>2014-04-13T06:43:00.880Z</time>
      </trkpt>
      <trkpt lat="47.53668" lon="6.77811">
        <ele>396</ele>
        <time>2014-04-13T06:43:10.874Z</time>
      </trkpt>
      <trkpt lat="47.53662" lon="6.77791">
        <ele>397</ele>
        <time>2014-04-13T06:43:15.943Z</time>
      </trkpt>
      <trkpt lat="47.53654" lon="6.7777">
        <ele>400</ele>
        <time>2014-04-13T06:43:20.866Z</time>
      </trkpt>
      <trkpt lat="47.53644" lon="6.77749">
        <ele>401</ele>
        <time>2014-04-13T06:43:25.921Z</time>
      </trkpt>
      <trkpt lat="47.53631" lon="6.77734">
        <ele>399</ele>
        <time>2014-04-13T06:43:30.909Z</time>
      </trkpt>
      <trkpt lat="47.53614" lon="6.77715">
        <ele>395</ele>
        <time>2014-04-13T06:43:35.952Z</time>
      </trkpt>
      <trkpt lat="47.536" lon="6.77691">
        <ele>398</ele>
        <time>2014-04-13T06:43:40.871Z</time>
      </trkpt>
      <trkpt lat="47.53591" lon="6.77669">
        <ele>402</ele>
        <time>2014-04-13T06:43:45.941Z</time>
      </trkpt>
      <trkpt lat="47.5358" lon="6.77651">
        <ele>405</ele>
        <time>2014-04-13T06:43:50.883Z</time>
      </trkpt>
      <trkpt lat="47.5357" lon="6.77634">
        <ele>407</ele>
        <time>2014-04-13T06:43:55.938Z</time>
      </trkpt>
      <trkpt lat="47.53558" lon="6.77618">
        <ele>407</ele>
        <time>2014-04-13T06:44:00.859Z</time>
      </trkpt>
      <trkpt lat="47.53547" lon="6.77596">
        <ele>408</ele>
        <time>2014-04-13T06:44:05.975Z</time>
      </trkpt>
      <trkpt lat="47.53539" lon="6.77575">
        <ele>411</ele>
        <time>2014-04-13T06:44:10.862Z</time>
      </trkpt>
      <trkpt lat="47.53535" lon="6.77556">
        <ele>413</ele>
        <time>2014-04-13T06:44:15.960Z</time>
      </trkpt>
      <trkpt lat="47.53524" lon="6.77533">
        <ele>414</ele>
        <time>2014-04-13T06:44:21.028Z</time>
      </trkpt>
      <trkpt lat="47.53515" lon="6.77509">
        <ele>414</ele>
        <time>2014-04-13T06:44:25.969Z</time>
      </trkpt>
      <trkpt lat="47.53507" lon="6.77488">
        <ele>416</ele>
        <time>2014-04-13T06:44:31.024Z</time>
      </trkpt>
      <trkpt lat="47.53497" lon="6.77475">
        <ele>417</ele>
        <time>2014-04-13T06:44:35.961Z</time>
      </trkpt>
      <trkpt lat="47.53485" lon="6.77457">
        <ele>417</ele>
        <time>2014-04-13T06:44:41.051Z</time>
      </trkpt>
      <trkpt lat="47.53477" lon="6.77437">
        <ele>418</ele>
        <time>2014-04-13T06:44:45.965Z</time>
      </trkpt>
      <trkpt lat="47.53466" lon="6.77414">
        <ele>417</ele>
        <time>2014-04-13T06:44:51.039Z</time>
      </trkpt>
      <trkpt lat="47.53458" lon="6.77391">
        <ele>418</ele>
        <time>2014-04-13T06:44:55.964Z</time>
      </trkpt>
      <trkpt lat="47.53448" lon="6.77373">
        <ele>419</ele>
        <time>2014-04-13T06:45:01.042Z</time>
      </trkpt>
      <trkpt lat="47.53439" lon="6.77355">
        <ele>421</ele>
        <time>2014-04-13T06:45:05.969Z</time>
      </trkpt>
      <trkpt lat="47.53433" lon="6.77337">
        <ele>424</ele>
        <time>2014-04-13T06:45:11.028Z</time>
      </trkpt>
      <trkpt lat="47.53423" lon="6.77317">
        <ele>425</ele>
        <time>2014-04-13T06:45:15.983Z</time>
      </trkpt>
      <trkpt lat="47.53412" lon="6.77289">
        <ele>425</ele>
        <time>2014-04-13T06:45:20.963Z</time>
      </trkpt>
      <trkpt lat="47.534" lon="6.77258">
        <ele>424</ele>
        <time>2014-04-13T06:45:26.038Z</time>
      </trkpt>
      <trkpt lat="47.53395" lon="6.77227">
        <ele>425</ele>
        <time>2014-04-13T06:45:30.976Z</time>
      </trkpt>
      <trkpt lat="47.53387" lon="6.77196">
        <ele>428</ele>
        <time>2014-04-13T06:45:36.054Z</time>
      </trkpt>
      <trkpt lat="47.53391" lon="6.77174">
        <ele>426</ele>
        <time>2014-04-13T06:45:40.976Z</time>
      </trkpt>
      <trkpt lat="47.53388" lon="6.77147">
        <ele>424</ele>
        <time>2014-04-13T06:45:46.038Z</time>
      </trkpt>
      <trkpt lat="47.53389" lon="6.77126">
        <ele>424</ele>
        <time>2014-04-13T06:45:50.968Z</time>
      </trkpt>
      <trkpt lat="47.53386" lon="6.771">
        <ele>425</ele>
        <time>2014-04-13T06:45:56.028Z</time>
      </trkpt>
      <trkpt lat="47.53384" lon="6.7699">
        <ele>426</ele>
        <time>2014-04-13T06:46:20.978Z</time>
      </trkpt>
      <trkpt lat="47.5338" lon="6.76969">
        <ele>427</ele>
        <time>2014-04-13T06:46:26.042Z</time>
      </trkpt>
      <trkpt lat="47.53378" lon="6.76957">
        <ele>430</ele>
        <time>2014-04-13T06:46:30.977Z</time>
      </trkpt>
      <trkpt lat="47.53376" lon="6.76944">
        <ele>431</ele>
        <time>2014-04-13T06:46:36.043Z</time>
      </trkpt>
      <trkpt lat="47.53372" lon="6.76932">
        <ele>433</ele>
        <time>2014-04-13T06:46:40.981Z</time>
      </trkpt>
      <trkpt lat="47.53368" lon="6.76921">
        <ele>433</ele>
        <time>2014-04-13T06:46:46.050Z</time>
      </trkpt>
      <trkpt lat="47.53365" lon="6.7691">
        <ele>433</ele>
        <time>2014-04-13T06:46:50.978Z</time>
      </trkpt>
      <trkpt lat="47.53366" lon="6.76895">
        <ele>434</ele>
        <time>2014-04-13T06:46:56.043Z</time>
      </trkpt>
      <trkpt lat="47.53362" lon="6.76856">
        <ele>433</ele>
        <time>2014-04-13T06:47:06.688Z</time>
      </trkpt>
      <trkpt lat="47.5336" lon="6.76841">
        <ele>434</ele>
        <time>2014-04-13T06:47:11.037Z</time>
      </trkpt>
      <trkpt lat="47.53352" lon="6.76825">
        <ele>435</ele>
        <time>2014-04-13T06:47:16.028Z</time>
      </trkpt>
      <trkpt lat="47.53335" lon="6.76807">
        <ele>435</ele>
        <time>2014-04-13T06:47:20.978Z</time>
      </trkpt>
      <trkpt lat="47.53312" lon="6.76781">
        <ele>434</ele>
        <time>2014-04-13T06:47:26.035Z</time>
      </trkpt>
      <trkpt lat="47.53291" lon="6.76764">
        <ele>435</ele>
        <time>2014-04-13T06:47:30.987Z</time>
      </trkpt>
      <trkpt lat="47.53267" lon="6.7675">
        <ele>436</ele>
        <time>2014-04-13T06:47:36.056Z</time>
      </trkpt>
      <trkpt lat="47.53244" lon="6.76737">
        <ele>436</ele>
        <time>2014-04-13T06:47:40.972Z</time>
      </trkpt>
      <trkpt lat="47.53216" lon="6.76716">
        <ele>434</ele>
        <time>2014-04-13T06:47:46.044Z</time>
      </trkpt>
      <trkpt lat="47.53191" lon="6.76693">
        <ele>432</ele>
        <time>2014-04-13T06:47:50.968Z</time>
      </trkpt>
      <trkpt lat="47.5317" lon="6.76672">
        <ele>430</ele>
        <time>2014-04-13T06:47:56.031Z</time>
      </trkpt>
      <trkpt lat="47.53149" lon="6.7665">
        <ele>431</ele>
        <time>2014-04-13T06:48:00.952Z</time>
      </trkpt>
      <trkpt lat="47.53136" lon="6.76625">
        <ele>431</ele>
        <time>2014-04-13T06:48:06.044Z</time>
      </trkpt>
      <trkpt lat="47.5314" lon="6.76594">
        <ele>429</ele>
        <time>2014-04-13T06:48:10.969Z</time>
      </trkpt>
      <trkpt lat="47.53143" lon="6.76561">
        <ele>430</ele>
        <time>2014-04-13T06:48:16.045Z</time>
      </trkpt>
      <trkpt lat="47.53149" lon="6.76541">
        <ele>430</ele>
        <time>2014-04-13T06:48:20.971Z</time>
      </trkpt>
      <trkpt lat="47.53155" lon="6.76518">
        <ele>431</ele>
        <time>2014-04-13T06:48:26.046Z</time>
      </trkpt>
      <trkpt lat="47.53162" lon="6.7649">
        <ele>432</ele>
        <time>2014-04-13T06:48:30.988Z</time>
      </trkpt>
      <trkpt lat="47.53167" lon="6.76458">
        <ele>432</ele>
        <time>2014-04-13T06:48:36.055Z</time>
      </trkpt>
      <trkpt lat="47.5317" lon="6.76426">
        <ele>432</ele>
        <time>2014-04-13T06:48:40.978Z</time>
      </trkpt>
      <trkpt lat="47.53179" lon="6.76401">
        <ele>434</ele>
        <time>2014-04-13T06:48:46.046Z</time>
      </trkpt>
      <trkpt lat="47.53187" lon="6.76374">
        <ele>435</ele>
        <time>2014-04-13T06:48:50.979Z</time>
      </trkpt>
      <trkpt lat="47.53195" lon="6.76343">
        <ele>436</ele>
        <time>2014-04-13T06:48:56.036Z</time>
      </trkpt>
      <trkpt lat="47.53215" lon="6.76196">
        <ele>437</ele>
        <time>2014-04-13T06:49:16.021Z</time>
      </trkpt>
      <trkpt lat="47.53212" lon="6.76154">
        <ele>438</ele>
        <time>2014-04-13T06:49:20.977Z</time>
      </trkpt>
      <trkpt lat="47.53211" lon="6.76117">
        <ele>439</ele>
        <time>2014-04-13T06:49:26.051Z</time>
      </trkpt>
      <trkpt lat="47.53212" lon="6.76096">
        <ele>439</ele>
        <time>2014-04-13T06:49:30.971Z</time>
      </trkpt>
      <trkpt lat="47.53215" lon="6.76078">
        <ele>440</ele>
        <time>2014-04-13T06:49:36.031Z</time>
      </trkpt>
      <trkpt lat="47.5321" lon="6.76054">
        <ele>441</ele>
        <time>2014-04-13T06:49:40.989Z</time>
      </trkpt>
      <trkpt lat="47.53209" lon="6.76028">
        <ele>441</ele>
        <time>2014-04-13T06:49:46.058Z</time>
      </trkpt>
      <trkpt lat="47.5321" lon="6.75993">
        <ele>442</ele>
        <time>2014-04-13T06:49:50.971Z</time>
      </trkpt>
      <trkpt lat="47.53193" lon="6.75883">
        <ele>439</ele>
        <time>2014-04-13T06:50:06.041Z</time>
      </trkpt>
      <trkpt lat="47.53201" lon="6.75856">
        <ele>439</ele>
        <time>2014-04-13T06:50:10.975Z</time>
      </trkpt>
      <trkpt lat="47.53205" lon="6.7581">
        <ele>439</ele>
        <time>2014-04-13T06:50:16.047Z</time>
      </trkpt>
      <trkpt lat="47.53211" lon="6.75768">
        <ele>438</ele>
        <time>2014-04-13T06:50:20.969Z</time>
      </trkpt>
      <trkpt lat="47.53217" lon="6.75732">
        <ele>436</ele>
        <time>2014-04-13T06:50:26.114Z</time>
      </trkpt>
      <trkpt lat="47.5322" lon="6.75708">
        <ele>434</ele>
        <time>2014-04-13T06:50:31.332Z</time>
      </trkpt>
      <trkpt lat="47.53212" lon="6.75681">
        <ele>433</ele>
        <time>2014-04-13T06:50:35.977Z</time>
      </trkpt>
      <trkpt lat="47.5319" lon="6.75676">
        <ele>433</ele>
        <time>2014-04-13T06:50:41.046Z</time>
      </trkpt>
      <trkpt lat="47.53168" lon="6.75672">
        <ele>433</ele>
        <time>2014-04-13T06:50:45.978Z</time>
      </trkpt>
      <trkpt lat="47.53145" lon="6.75666">
        <ele>432</ele>
        <time>2014-04-13T06:50:51.038Z</time>
      </trkpt>
      <trkpt lat="47.53123" lon="6.75649">
        <ele>432</ele>
        <time>2014-04-13T06:50:55.975Z</time>
      </trkpt>
      <trkpt lat="47.53105" lon="6.75635">
        <ele>434</ele>
        <time>2014-04-13T06:51:01.039Z</time>
      </trkpt>
      <trkpt lat="47.53082" lon="6.75613">
        <ele>434</ele>
        <time>2014-04-13T06:51:05.983Z</time>
      </trkpt>
      <trkpt lat="47.53053" lon="6.75594">
        <ele>434</ele>
        <time>2014-04-13T06:51:11.039Z</time>
      </trkpt>
      <trkpt lat="47.53011" lon="6.75583">
        <ele>430</ele>
        <time>2014-04-13T06:51:15.995Z</time>
      </trkpt>
      <trkpt lat="47.52987" lon="6.7557">
        <ele>429</ele>
        <time>2014-04-13T06:51:21.042Z</time>
      </trkpt>
      <trkpt lat="47.5299" lon="6.75554">
        <ele>428</ele>
        <time>2014-04-13T06:51:25.973Z</time>
      </trkpt>
      <trkpt lat="47.53003" lon="6.75552">
        <ele>427</ele>
        <time>2014-04-13T06:51:31.055Z</time>
      </trkpt>
      <trkpt lat="47.53009" lon="6.75546">
        <ele>427</ele>
        <time>2014-04-13T06:51:35.974Z</time>
      </trkpt>
      <trkpt lat="47.53018" lon="6.75542">
        <ele>430</ele>
        <time>2014-04-13T06:51:41.042Z</time>
      </trkpt>
      <trkpt lat="47.53025" lon="6.75544">
        <ele>431</ele>
        <time>2014-04-13T06:51:46.015Z</time>
      </trkpt>
      <trkpt lat="47.53033" lon="6.75542">
        <ele>433</ele>
        <time>2014-04-13T06:51:51.053Z</time>
      </trkpt>
      <trkpt lat="47.53041" lon="6.75532">
        <ele>434</ele>
        <time>2014-04-13T06:51:56.022Z</time>
      </trkpt>
      <trkpt lat="47.53049" lon="6.75522">
        <ele>434</ele>
        <time>2014-04-13T06:52:01.705Z</time>
      </trkpt>
      <trkpt lat="47.53058" lon="6.75512">
        <ele>434</ele>
        <time>2014-04-13T06:52:06.049Z</time>
      </trkpt>
      <trkpt lat="47.53067" lon="6.75503">
        <ele>433</ele>
        <time>2014-04-13T06:52:10.984Z</time>
      </trkpt>
      <trkpt lat="47.53075" lon="6.75494">
        <ele>434</ele>
        <time>2014-04-13T06:52:16.043Z</time>
      </trkpt>
      <trkpt lat="47.53084" lon="6.7549">
        <ele>434</ele>
        <time>2014-04-13T06:52:20.976Z</time>
      </trkpt>
      <trkpt lat="47.53093" lon="6.75483">
        <ele>435</ele>
        <time>2014-04-13T06:52:26.046Z</time>
      </trkpt>
      <trkpt lat="47.53099" lon="6.75477">
        <ele>437</ele>
        <time>2014-04-13T06:52:31.043Z</time>
      </trkpt>
      <trkpt lat="47.53105" lon="6.75472">
        <ele>437</ele>
        <time>2014-04-13T06:52:35.980Z</time>
      </trkpt>
      <trkpt lat="47.5311" lon="6.75469">
        <ele>439</ele>
        <time>2014-04-13T06:52:41.021Z</time>
      </trkpt>
      <trkpt lat="47.53115" lon="6.75464">
        <ele>440</ele>
        <time>2014-04-13T06:52:45.972Z</time>
      </trkpt>
      <trkpt lat="47.53123" lon="6.7546">
        <ele>440</ele>
        <time>2014-04-13T06:52:51.031Z</time>
      </trkpt>
      <trkpt lat="47.5313" lon="6.75457">
        <ele>440</ele>
        <time>2014-04-13T06:52:55.981Z</time>
      </trkpt>
      <trkpt lat="47.53137" lon="6.75452">
        <ele>440</ele>
        <time>2014-04-13T06:53:01.039Z</time>
      </trkpt>
      <trkpt lat="47.53143" lon="6.75446">
        <ele>440</ele>
        <time>2014-04-13T06:53:05.974Z</time>
      </trkpt>
      <trkpt lat="47.53152" lon="6.75437">
        <ele>441</ele>
        <time>2014-04-13T06:53:11.035Z</time>
      </trkpt>
      <trkpt lat="47.53159" lon="6.75428">
        <ele>442</ele>
        <time>2014-04-13T06:53:15.974Z</time>
      </trkpt>
      <trkpt lat="47.53167" lon="6.75415">
        <ele>442</ele>
        <time>2014-04-13T06:53:21.043Z</time>
      </trkpt>
      <trkpt lat="47.53175" lon="6.75406">
        <ele>443</ele>
        <time>2014-04-13T06:53:25.972Z</time>
      </trkpt>
      <trkpt lat="47.53181" lon="6.75394">
        <ele>445</ele>
        <time>2014-04-13T06:53:31.045Z</time>
      </trkpt>
      <trkpt lat="47.53188" lon="6.75385">
        <ele>448</ele>
        <time>2014-04-13T06:53:35.988Z</time>
      </trkpt>
      <trkpt lat="47.53198" lon="6.75386">
        <ele>447</ele>
        <time>2014-04-13T06:53:41.055Z</time>
      </trkpt>
      <trkpt lat="47.53204" lon="6.7539">
        <ele>447</ele>
        <time>2014-04-13T06:53:45.975Z</time>
      </trkpt>
      <trkpt lat="47.53211" lon="6.75395">
        <ele>449</ele>
        <time>2014-04-13T06:53:51.045Z</time>
      </trkpt>
      <trkpt lat="47.53219" lon="6.754">
        <ele>450</ele>
        <time>2014-04-13T06:53:55.972Z</time>
      </trkpt>
      <trkpt lat="47.53227" lon="6.75399">
        <ele>450</ele>
        <time>2014-04-13T06:54:01.044Z</time>
      </trkpt>
      <trkpt lat="47.53234" lon="6.75387">
        <ele>450</ele>
        <time>2014-04-13T06:54:05.971Z</time>
      </trkpt>
      <trkpt lat="47.53239" lon="6.75378">
        <ele>451</ele>
        <time>2014-04-13T06:54:11.030Z</time>
      </trkpt>
      <trkpt lat="47.53245" lon="6.75371">
        <ele>453</ele>
        <time>2014-04-13T06:54:15.980Z</time>
      </trkpt>
      <trkpt lat="47.53249" lon="6.75363">
        <ele>455</ele>
        <time>2014-04-13T06:54:21.047Z</time>
      </trkpt>
      <trkpt lat="47.53257" lon="6.75357">
        <ele>456</ele>
        <time>2014-04-13T06:54:25.975Z</time>
      </trkpt>
      <trkpt lat="47.53264" lon="6.75353">
        <ele>457</ele>
        <time>2014-04-13T06:54:30.986Z</time>
      </trkpt>
      <trkpt lat="47.53274" lon="6.75348">
        <ele>457</ele>
        <time>2014-04-13T06:54:36.058Z</time>
      </trkpt>
      <trkpt lat="47.53282" lon="6.75344">
        <ele>458</ele>
        <time>2014-04-13T06:54:40.974Z</time>
      </trkpt>
      <trkpt lat="47.53289" lon="6.75339">
        <ele>459</ele>
        <time>2014-04-13T06:54:46.055Z</time>
      </trkpt>
      <trkpt lat="47.53295" lon="6.75331">
        <ele>460</ele>
        <time>2014-04-13T06:54:50.971Z</time>
      </trkpt>
      <trkpt lat="47.53302" lon="6.75326">
        <ele>461</ele>
        <time>2014-04-13T06:54:56.046Z</time>
      </trkpt>
      <trkpt lat="47.53309" lon="6.75323">
        <ele>462</ele>
        <time>2014-04-13T06:55:00.984Z</time>
      </trkpt>
      <trkpt lat="47.53318" lon="6.75318">
        <ele>463</ele>
        <time>2014-04-13T06:55:06.025Z</time>
      </trkpt>
      <trkpt lat="47.53327" lon="6.75317">
        <ele>464</ele>
        <time>2014-04-13T06:55:10.996Z</time>
      </trkpt>
      <trkpt lat="47.53337" lon="6.75314">
        <ele>465</ele>
        <time>2014-04-13T06:55:16.044Z</time>
      </trkpt>
      <trkpt lat="47.53344" lon="6.75311">
        <ele>465</ele>
        <time>2014-04-13T06:55:20.978Z</time>
      </trkpt>
      <trkpt lat="47.53354" lon="6.75306">
        <ele>465</ele>
        <time>2014-04-13T06:55:26.045Z</time>
      </trkpt>
      <trkpt lat="47.53364" lon="6.753">
        <ele>465</ele>
        <time>2014-04-13T06:55:30.972Z</time>
      </trkpt>
      <trkpt lat="47.53372" lon="6.75297">
        <ele>466</ele>
        <time>2014-04-13T06:55:36.038Z</time>
      </trkpt>
      <trkpt lat="47.53378" lon="6.75292">
        <ele>467</ele>
        <time>2014-04-13T06:55:40.944Z</time>
      </trkpt>
      <trkpt lat="47.53383" lon="6.75288">
        <ele>468</ele>
        <time>2014-04-13T06:55:46.045Z</time>
      </trkpt>
      <trkpt lat="47.53392" lon="6.75282">
        <ele>469</ele>
        <time>2014-04-13T06:55:50.972Z</time>
      </trkpt>
      <trkpt lat="47.53404" lon="6.75275">
        <ele>468</ele>
        <time>2014-04-13T06:55:56.042Z</time>
      </trkpt>
      <trkpt lat="47.53414" lon="6.75271">
        <ele>469</ele>
        <time>2014-04-13T06:56:00.964Z</time>
      </trkpt>
      <trkpt lat="47.53422" lon="6.75268">
        <ele>470</ele>
        <time>2014-04-13T06:56:06.042Z</time>
      </trkpt>
      <trkpt lat="47.53434" lon="6.75267">
        <ele>468</ele>
        <time>2014-04-13T06:56:11.055Z</time>
      </trkpt>
      <trkpt lat="47.53445" lon="6.75265">
        <ele>469</ele>
        <time>2014-04-13T06:56:15.988Z</time>
      </trkpt>
      <trkpt lat="47.53463" lon="6.75267">
        <ele>470</ele>
        <time>2014-04-13T06:56:25.971Z</time>
      </trkpt>
      <trkpt lat="47.53475" lon="6.75266">
        <ele>469</ele>
        <time>2014-04-13T06:56:31.044Z</time>
      </trkpt>
      <trkpt lat="47.53486" lon="6.75266">
        <ele>471</ele>
        <time>2014-04-13T06:56:35.993Z</time>
      </trkpt>
      <trkpt lat="47.53496" lon="6.75265">
        <ele>473</ele>
        <time>2014-04-13T06:56:41.027Z</time>
      </trkpt>
      <trkpt lat="47.53507" lon="6.75265">
        <ele>472</ele>
        <time>2014-04-13T06:56:45.990Z</time>
      </trkpt>
      <trkpt lat="47.53515" lon="6.75266">
        <ele>473</ele>
        <time>2014-04-13T06:56:51.059Z</time>
      </trkpt>
      <trkpt lat="47.53526" lon="6.75266">
        <ele>473</ele>
        <time>2014-04-13T06:56:55.972Z</time>
      </trkpt>
      <trkpt lat="47.53557" lon="6.75263">
        <ele>473</ele>
        <time>2014-04-13T06:57:11.036Z</time>
      </trkpt>
      <trkpt lat="47.53572" lon="6.75259">
        <ele>473</ele>
        <time>2014-04-13T06:57:15.980Z</time>
      </trkpt>
      <trkpt lat="47.53582" lon="6.75253">
        <ele>473</ele>
        <time>2014-04-13T06:57:21.050Z</time>
      </trkpt>
      <trkpt lat="47.53596" lon="6.75248">
        <ele>475</ele>
        <time>2014-04-13T06:57:25.982Z</time>
      </trkpt>
      <trkpt lat="47.53605" lon="6.75239">
        <ele>475</ele>
        <time>2014-04-13T06:57:31.046Z</time>
      </trkpt>
      <trkpt lat="47.53614" lon="6.75233">
        <ele>475</ele>
        <time>2014-04-13T06:57:35.974Z</time>
      </trkpt>
      <trkpt lat="47.53625" lon="6.75227">
        <ele>476</ele>
        <time>2014-04-13T06:57:41.047Z</time>
      </trkpt>
      <trkpt lat="47.53634" lon="6.75223">
        <ele>476</ele>
        <time>2014-04-13T06:57:45.971Z</time>
      </trkpt>
      <trkpt lat="47.53642" lon="6.75221">
        <ele>477</ele>
        <time>2014-04-13T06:57:51.042Z</time>
      </trkpt>
      <trkpt lat="47.53649" lon="6.75221">
        <ele>480</ele>
        <time>2014-04-13T06:57:55.983Z</time>
      </trkpt>
      <trkpt lat="47.53654" lon="6.75221">
        <ele>481</ele>
        <time>2014-04-13T06:58:01.054Z</time>
      </trkpt>
      <trkpt lat="47.5366" lon="6.75217">
        <ele>482</ele>
        <time>2014-04-13T06:58:05.981Z</time>
      </trkpt>
      <trkpt lat="47.53665" lon="6.75205">
        <ele>483</ele>
        <time>2014-04-13T06:58:11.051Z</time>
      </trkpt>
      <trkpt lat="47.5367" lon="6.75192">
        <ele>485</ele>
        <time>2014-04-13T06:58:15.986Z</time>
      </trkpt>
      <trkpt lat="47.53677" lon="6.75178">
        <ele>484</ele>
        <time>2014-04-13T06:58:21.044Z</time>
      </trkpt>
      <trkpt lat="47.53682" lon="6.75165">
        <ele>486</ele>
        <time>2014-04-13T06:58:25.978Z</time>
      </trkpt>
      <trkpt lat="47.53687" lon="6.75151">
        <ele>486</ele>
        <time>2014-04-13T06:58:31.027Z</time>
      </trkpt>
      <trkpt lat="47.53692" lon="6.7514">
        <ele>486</ele>
        <time>2014-04-13T06:58:35.996Z</time>
      </trkpt>
      <trkpt lat="47.53696" lon="6.75129">
        <ele>487</ele>
        <time>2014-04-13T06:58:41.057Z</time>
      </trkpt>
      <trkpt lat="47.537" lon="6.75117">
        <ele>488</ele>
        <time>2014-04-13T06:58:45.981Z</time>
      </trkpt>
      <trkpt lat="47.53704" lon="6.75106">
        <ele>489</ele>
        <time>2014-04-13T06:58:51.047Z</time>
      </trkpt>
      <trkpt lat="47.53705" lon="6.75107">
        <ele>489</ele>
        <time>2014-04-13T06:58:55.976Z</time>
      </trkpt>
      <trkpt lat="47.53704" lon="6.75106">
        <ele>489</ele>
        <time>2014-04-13T06:59:01.027Z</time>
      </trkpt>
      <trkpt lat="47.53705" lon="6.75105">
        <ele>490</ele>
        <time>2014-04-13T06:59:05.969Z</time>
      </trkpt>
      <trkpt lat="47.53703" lon="6.75104">
        <ele>490</ele>
        <time>2014-04-13T06:59:11.067Z</time>
      </trkpt>
      <trkpt lat="47.53704" lon="6.75104">
        <ele>490</ele>
        <time>2014-04-13T06:59:15.955Z</time>
      </trkpt>
      <trkpt lat="47.5371" lon="6.75092">
        <ele>489</ele>
        <time>2014-04-13T06:59:21.009Z</time>
      </trkpt>
      <trkpt lat="47.53721" lon="6.75076">
        <ele>488</ele>
        <time>2014-04-13T06:59:26.014Z</time>
      </trkpt>
      <trkpt lat="47.53732" lon="6.7505">
        <ele>488</ele>
        <time>2014-04-13T06:59:31.050Z</time>
      </trkpt>
      <trkpt lat="47.53726" lon="6.7502">
        <ele>488</ele>
        <time>2014-04-13T06:59:35.969Z</time>
      </trkpt>
      <trkpt lat="47.53719" lon="6.74986">
        <ele>487</ele>
        <time>2014-04-13T06:59:41.042Z</time>
      </trkpt>
      <trkpt lat="47.53706" lon="6.74942">
        <ele>487</ele>
        <time>2014-04-13T06:59:45.977Z</time>
      </trkpt>
      <trkpt lat="47.53691" lon="6.74889">
        <ele>487</ele>
        <time>2014-04-13T06:59:51.024Z</time>
      </trkpt>
      <trkpt lat="47.53688" lon="6.74843">
        <ele>487</ele>
        <time>2014-04-13T06:59:55.978Z</time>
      </trkpt>
      <trkpt lat="47.5373" lon="6.74713">
        <ele>485</ele>
        <time>2014-04-13T07:00:21.047Z</time>
      </trkpt>
      <trkpt lat="47.53739" lon="6.74708">
        <ele>484</ele>
        <time>2014-04-13T07:00:25.972Z</time>
      </trkpt>
      <trkpt lat="47.53747" lon="6.74694">
        <ele>484</ele>
        <time>2014-04-13T07:00:31.054Z</time>
      </trkpt>
      <trkpt lat="47.53749" lon="6.74671">
        <ele>483</ele>
        <time>2014-04-13T07:00:35.958Z</time>
      </trkpt>
      <trkpt lat="47.5375" lon="6.74641">
        <ele>483</ele>
        <time>2014-04-13T07:00:41.042Z</time>
      </trkpt>
      <trkpt lat="47.53752" lon="6.74605">
        <ele>483</ele>
        <time>2014-04-13T07:00:45.960Z</time>
      </trkpt>
      <trkpt lat="47.53751" lon="6.74562">
        <ele>481</ele>
        <time>2014-04-13T07:00:51.048Z</time>
      </trkpt>
      <trkpt lat="47.53748" lon="6.74521">
        <ele>481</ele>
        <time>2014-04-13T07:00:55.988Z</time>
      </trkpt>
      <trkpt lat="47.5373" lon="6.74357">
        <ele>475</ele>
        <time>2014-04-13T07:01:15.964Z</time>
      </trkpt>
      <trkpt lat="47.53726" lon="6.74322">
        <ele>474</ele>
        <time>2014-04-13T07:01:21.032Z</time>
      </trkpt>
      <trkpt lat="47.53724" lon="6.7429">
        <ele>472</ele>
        <time>2014-04-13T07:01:25.978Z</time>
      </trkpt>
      <trkpt lat="47.53719" lon="6.74246">
        <ele>470</ele>
        <time>2014-04-13T07:01:31.053Z</time>
      </trkpt>
      <trkpt lat="47.53711" lon="6.74195">
        <ele>469</ele>
        <time>2014-04-13T07:01:35.965Z</time>
      </trkpt>
      <trkpt lat="47.53694" lon="6.74136">
        <ele>465</ele>
        <time>2014-04-13T07:01:41.039Z</time>
      </trkpt>
      <trkpt lat="47.53674" lon="6.74099">
        <ele>460</ele>
        <time>2014-04-13T07:01:45.944Z</time>
      </trkpt>
      <trkpt lat="47.53666" lon="6.74067">
        <ele>456</ele>
        <time>2014-04-13T07:01:51.045Z</time>
      </trkpt>
      <trkpt lat="47.53663" lon="6.74043">
        <ele>455</ele>
        <time>2014-04-13T07:01:55.965Z</time>
      </trkpt>
      <trkpt lat="47.53632" lon="6.73886">
        <ele>446</ele>
        <time>2014-04-13T07:02:20.963Z</time>
      </trkpt>
      <trkpt lat="47.53619" lon="6.73853">
        <ele>446</ele>
        <time>2014-04-13T07:02:26.044Z</time>
      </trkpt>
      <trkpt lat="47.53602" lon="6.73808">
        <ele>445</ele>
        <time>2014-04-13T07:02:30.991Z</time>
      </trkpt>
      <trkpt lat="47.53592" lon="6.73755">
        <ele>442</ele>
        <time>2014-04-13T07:02:36.051Z</time>
      </trkpt>
      <trkpt lat="47.53591" lon="6.73705">
        <ele>439</ele>
        <time>2014-04-13T07:02:40.967Z</time>
      </trkpt>
      <trkpt lat="47.53591" lon="6.73655">
        <ele>438</ele>
        <time>2014-04-13T07:02:46.039Z</time>
      </trkpt>
      <trkpt lat="47.53594" lon="6.73604">
        <ele>436</ele>
        <time>2014-04-13T07:02:50.954Z</time>
      </trkpt>
      <trkpt lat="47.53593" lon="6.7355">
        <ele>436</ele>
        <time>2014-04-13T07:02:56.032Z</time>
      </trkpt>
      <trkpt lat="47.53575" lon="6.73457">
        <ele>431</ele>
        <time>2014-04-13T07:03:06.039Z</time>
      </trkpt>
      <trkpt lat="47.5357" lon="6.73405">
        <ele>429</ele>
        <time>2014-04-13T07:03:10.978Z</time>
      </trkpt>
      <trkpt lat="47.53568" lon="6.73351">
        <ele>426</ele>
        <time>2014-04-13T07:03:16.042Z</time>
      </trkpt>
      <trkpt lat="47.53567" lon="6.73303">
        <ele>424</ele>
        <time>2014-04-13T07:03:20.967Z</time>
      </trkpt>
      <trkpt lat="47.53564" lon="6.73251">
        <ele>424</ele>
        <time>2014-04-13T07:03:26.025Z</time>
      </trkpt>
      <trkpt lat="47.53562" lon="6.73203">
        <ele>423</ele>
        <time>2014-04-13T07:03:30.967Z</time>
      </trkpt>
      <trkpt lat="47.5356" lon="6.73154">
        <ele>423</ele>
        <time>2014-04-13T07:03:36.012Z</time>
      </trkpt>
      <trkpt lat="47.53557" lon="6.73097">
        <ele>423</ele>
        <time>2014-04-13T07:03:40.983Z</time>
      </trkpt>
      <trkpt lat="47.53553" lon="6.73043">
        <ele>422</ele>
        <time>2014-04-13T07:03:46.060Z</time>
      </trkpt>
      <trkpt lat="47.53541" lon="6.72993">
        <ele>421</ele>
        <time>2014-04-13T07:03:50.966Z</time>
      </trkpt>
      <trkpt lat="47.53529" lon="6.72942">
        <ele>418</ele>
        <time>2014-04-13T07:03:55.993Z</time>
      </trkpt>
      <trkpt lat="47.5349" lon="6.72738">
        <ele>408</ele>
        <time>2014-04-13T07:04:20.964Z</time>
      </trkpt>
      <trkpt lat="47.53467" lon="6.72754">
        <ele>407</ele>
        <time>2014-04-13T07:04:26.045Z</time>
      </trkpt>
      <trkpt lat="47.53448" lon="6.72771">
        <ele>407</ele>
        <time>2014-04-13T07:04:30.968Z</time>
      </trkpt>
      <trkpt lat="47.53438" lon="6.72783">
        <ele>408</ele>
        <time>2014-04-13T07:04:36.028Z</time>
      </trkpt>
      <trkpt lat="47.53431" lon="6.72789">
        <ele>408</ele>
        <time>2014-04-13T07:04:40.981Z</time>
      </trkpt>
      <trkpt lat="47.53424" lon="6.72797">
        <ele>409</ele>
        <time>2014-04-13T07:04:46.058Z</time>
      </trkpt>
      <trkpt lat="47.53417" lon="6.72808">
        <ele>409</ele>
        <time>2014-04-13T07:04:50.971Z</time>
      </trkpt>
      <trkpt lat="47.53411" lon="6.7282">
        <ele>411</ele>
        <time>2014-04-13T07:04:56.039Z</time>
      </trkpt>
      <trkpt lat="47.53397" lon="6.72845">
        <ele>413</ele>
        <time>2014-04-13T07:05:06.045Z</time>
      </trkpt>
      <trkpt lat="47.53387" lon="6.72858">
        <ele>416</ele>
        <time>2014-04-13T07:05:10.966Z</time>
      </trkpt>
      <trkpt lat="47.53381" lon="6.7287">
        <ele>417</ele>
        <time>2014-04-13T07:05:16.020Z</time>
      </trkpt>
      <trkpt lat="47.53373" lon="6.72885">
        <ele>417</ele>
        <time>2014-04-13T07:05:20.969Z</time>
      </trkpt>
      <trkpt lat="47.5336" lon="6.72898">
        <ele>418</ele>
        <time>2014-04-13T07:05:26.035Z</time>
      </trkpt>
      <trkpt lat="47.53346" lon="6.72909">
        <ele>418</ele>
        <time>2014-04-13T07:05:30.993Z</time>
      </trkpt>
      <trkpt lat="47.53332" lon="6.7292">
        <ele>419</ele>
        <time>2014-04-13T07:05:36.044Z</time>
      </trkpt>
      <trkpt lat="47.53317" lon="6.72936">
        <ele>419</ele>
        <time>2014-04-13T07:05:40.970Z</time>
      </trkpt>
      <trkpt lat="47.53302" lon="6.7295">
        <ele>419</ele>
        <time>2014-04-13T07:05:46.048Z</time>
      </trkpt>
      <trkpt lat="47.5329" lon="6.72965">
        <ele>419</ele>
        <time>2014-04-13T07:05:50.968Z</time>
      </trkpt>
      <trkpt lat="47.53279" lon="6.72973">
        <ele>418</ele>
        <time>2014-04-13T07:05:56.034Z</time>
      </trkpt>
      <trkpt lat="47.53224" lon="6.7301">
        <ele>425</ele>
        <time>2014-04-13T07:06:16.484Z</time>
      </trkpt>
      <trkpt lat="47.53213" lon="6.73019">
        <ele>426</ele>
        <time>2014-04-13T07:06:20.970Z</time>
      </trkpt>
      <trkpt lat="47.53189" lon="6.73038">
        <ele>426</ele>
        <time>2014-04-13T07:06:30.969Z</time>
      </trkpt>
      <trkpt lat="47.5318" lon="6.73052">
        <ele>426</ele>
        <time>2014-04-13T07:06:36.042Z</time>
      </trkpt>
      <trkpt lat="47.53169" lon="6.73065">
        <ele>427</ele>
        <time>2014-04-13T07:06:40.979Z</time>
      </trkpt>
      <trkpt lat="47.53159" lon="6.73079">
        <ele>428</ele>
        <time>2014-04-13T07:06:46.041Z</time>
      </trkpt>
      <trkpt lat="47.53149" lon="6.73095">
        <ele>430</ele>
        <time>2014-04-13T07:06:50.965Z</time>
      </trkpt>
      <trkpt lat="47.53137" lon="6.73113">
        <ele>431</ele>
        <time>2014-04-13T07:06:56.028Z</time>
      </trkpt>
      <trkpt lat="47.53125" lon="6.7313">
        <ele>432</ele>
        <time>2014-04-13T07:07:00.988Z</time>
      </trkpt>
      <trkpt lat="47.53116" lon="6.73149">
        <ele>432</ele>
        <time>2014-04-13T07:07:06.050Z</time>
      </trkpt>
      <trkpt lat="47.53106" lon="6.73168">
        <ele>432</ele>
        <time>2014-04-13T07:07:10.970Z</time>
      </trkpt>
      <trkpt lat="47.53093" lon="6.73192">
        <ele>432</ele>
        <time>2014-04-13T07:07:16.045Z</time>
      </trkpt>
      <trkpt lat="47.53079" lon="6.73219">
        <ele>432</ele>
        <time>2014-04-13T07:07:20.978Z</time>
      </trkpt>
      <trkpt lat="47.53063" lon="6.7325">
        <ele>432</ele>
        <time>2014-04-13T07:07:26.030Z</time>
      </trkpt>
      <trkpt lat="47.53046" lon="6.73279">
        <ele>435</ele>
        <time>2014-04-13T07:07:30.994Z</time>
      </trkpt>
      <trkpt lat="47.53027" lon="6.7331">
        <ele>434</ele>
        <time>2014-04-13T07:07:36.054Z</time>
      </trkpt>
      <trkpt lat="47.53009" lon="6.73338">
        <ele>437</ele>
        <time>2014-04-13T07:07:40.974Z</time>
      </trkpt>
      <trkpt lat="47.52994" lon="6.73361">
        <ele>437</ele>
        <time>2014-04-13T07:07:46.049Z</time>
      </trkpt>
      <trkpt lat="47.52978" lon="6.73385">
        <ele>436</ele>
        <time>2014-04-13T07:07:50.973Z</time>
      </trkpt>
      <trkpt lat="47.52959" lon="6.7337">
        <ele>435</ele>
        <time>2014-04-13T07:07:56.040Z</time>
      </trkpt>
      <trkpt lat="47.52927" lon="6.73288">
        <ele>433</ele>
        <time>2014-04-13T07:08:06.010Z</time>
      </trkpt>
      <trkpt lat="47.52912" lon="6.73231">
        <ele>430</ele>
        <time>2014-04-13T07:08:10.966Z</time>
      </trkpt>
      <trkpt lat="47.52895" lon="6.73171">
        <ele>426</ele>
        <time>2014-04-13T07:08:16.057Z</time>
      </trkpt>
      <trkpt lat="47.52877" lon="6.73109">
        <ele>421</ele>
        <time>2014-04-13T07:08:20.986Z</time>
      </trkpt>
      <trkpt lat="47.5286" lon="6.73063">
        <ele>417</ele>
        <time>2014-04-13T07:08:26.033Z</time>
      </trkpt>
      <trkpt lat="47.52834" lon="6.73074">
        <ele>415</ele>
        <time>2014-04-13T07:08:30.969Z</time>
      </trkpt>
      <trkpt lat="47.52803" lon="6.73086">
        <ele>415</ele>
        <time>2014-04-13T07:08:36.057Z</time>
      </trkpt>
      <trkpt lat="47.52771" lon="6.73088">
        <ele>414</ele>
        <time>2014-04-13T07:08:40.982Z</time>
      </trkpt>
      <trkpt lat="47.52732" lon="6.73088">
        <ele>412</ele>
        <time>2014-04-13T07:08:46.061Z</time>
      </trkpt>
      <trkpt lat="47.52691" lon="6.73088">
        <ele>409</ele>
        <time>2014-04-13T07:08:50.955Z</time>
      </trkpt>
      <trkpt lat="47.52656" lon="6.73088">
        <ele>404</ele>
        <time>2014-04-13T07:08:56.045Z</time>
      </trkpt>
      <trkpt lat="47.52659" lon="6.73009">
        <ele>402</ele>
        <time>2014-04-13T07:09:06.010Z</time>
      </trkpt>
      <trkpt lat="47.52667" lon="6.72984">
        <ele>402</ele>
        <time>2014-04-13T07:09:10.977Z</time>
      </trkpt>
      <trkpt lat="47.52684" lon="6.72973">
        <ele>401</ele>
        <time>2014-04-13T07:09:16.038Z</time>
      </trkpt>
      <trkpt lat="47.52716" lon="6.72959">
        <ele>397</ele>
        <time>2014-04-13T07:09:20.963Z</time>
      </trkpt>
      <trkpt lat="47.52717" lon="6.72923">
        <ele>394</ele>
        <time>2014-04-13T07:09:26.020Z</time>
      </trkpt>
      <trkpt lat="47.52705" lon="6.72888">
        <ele>393</ele>
        <time>2014-04-13T07:09:30.939Z</time>
      </trkpt>
      <trkpt lat="47.527" lon="6.72854">
        <ele>394</ele>
        <time>2014-04-13T07:09:36.011Z</time>
      </trkpt>
      <trkpt lat="47.52683" lon="6.72836">
        <ele>394</ele>
        <time>2014-04-13T07:09:40.989Z</time>
      </trkpt>
      <trkpt lat="47.52658" lon="6.72787">
        <ele>396</ele>
        <time>2014-04-13T07:09:50.977Z</time>
      </trkpt>
      <trkpt lat="47.52648" lon="6.72773">
        <ele>397</ele>
        <time>2014-04-13T07:09:56.020Z</time>
      </trkpt>
      <trkpt lat="47.52597" lon="6.72767">
        <ele>401</ele>
        <time>2014-04-13T07:10:20.984Z</time>
      </trkpt>
      <trkpt lat="47.52586" lon="6.72767">
        <ele>401</ele>
        <time>2014-04-13T07:10:26.038Z</time>
      </trkpt>
      <trkpt lat="47.52576" lon="6.7277">
        <ele>402</ele>
        <time>2014-04-13T07:10:30.966Z</time>
      </trkpt>
      <trkpt lat="47.52564" lon="6.72773">
        <ele>403</ele>
        <time>2014-04-13T07:10:36.046Z</time>
      </trkpt>
      <trkpt lat="47.52552" lon="6.72778">
        <ele>404</ele>
        <time>2014-04-13T07:10:40.966Z</time>
      </trkpt>
      <trkpt lat="47.52541" lon="6.72789">
        <ele>404</ele>
        <time>2014-04-13T07:10:46.042Z</time>
      </trkpt>
      <trkpt lat="47.52531" lon="6.72801">
        <ele>405</ele>
        <time>2014-04-13T07:10:50.974Z</time>
      </trkpt>
      <trkpt lat="47.52522" lon="6.72815">
        <ele>406</ele>
        <time>2014-04-13T07:10:56.044Z</time>
      </trkpt>
      <trkpt lat="47.52498" lon="6.72841">
        <ele>406</ele>
        <time>2014-04-13T07:11:06.040Z</time>
      </trkpt>
      <trkpt lat="47.52484" lon="6.72848">
        <ele>406</ele>
        <time>2014-04-13T07:11:10.971Z</time>
      </trkpt>
      <trkpt lat="47.52469" lon="6.7285">
        <ele>407</ele>
        <time>2014-04-13T07:11:16.034Z</time>
      </trkpt>
      <trkpt lat="47.52454" lon="6.72853">
        <ele>408</ele>
        <time>2014-04-13T07:11:20.980Z</time>
      </trkpt>
      <trkpt lat="47.52437" lon="6.72852">
        <ele>409</ele>
        <time>2014-04-13T07:11:26.046Z</time>
      </trkpt>
      <trkpt lat="47.5242" lon="6.72852">
        <ele>410</ele>
        <time>2014-04-13T07:11:30.964Z</time>
      </trkpt>
      <trkpt lat="47.52405" lon="6.72851">
        <ele>410</ele>
        <time>2014-04-13T07:11:36.030Z</time>
      </trkpt>
      <trkpt lat="47.52392" lon="6.7285">
        <ele>411</ele>
        <time>2014-04-13T07:11:40.969Z</time>
      </trkpt>
      <trkpt lat="47.52384" lon="6.7285">
        <ele>411</ele>
        <time>2014-04-13T07:11:46.040Z</time>
      </trkpt>
      <trkpt lat="47.52378" lon="6.72847">
        <ele>412</ele>
        <time>2014-04-13T07:11:50.963Z</time>
      </trkpt>
      <trkpt lat="47.52374" lon="6.72847">
        <ele>411</ele>
        <time>2014-04-13T07:11:56.028Z</time>
      </trkpt>
      <trkpt lat="47.52369" lon="6.72849">
        <ele>411</ele>
        <time>2014-04-13T07:12:21.011Z</time>
      </trkpt>
      <trkpt lat="47.52369" lon="6.72849">
        <ele>411</ele>
        <time>2014-04-13T07:12:25.965Z</time>
      </trkpt>
      <trkpt lat="47.52369" lon="6.72849">
        <ele>412</ele>
        <time>2014-04-13T07:12:31.043Z</time>
      </trkpt>
      <trkpt lat="47.52369" lon="6.72849">
        <ele>412</ele>
        <time>2014-04-13T07:12:36.029Z</time>
      </trkpt>
      <trkpt lat="47.52369" lon="6.72849">
        <ele>412</ele>
        <time>2014-04-13T07:12:40.965Z</time>
      </trkpt>
      <trkpt lat="47.52369" lon="6.7285">
        <ele>412</ele>
        <time>2014-04-13T07:12:46.021Z</time>
      </trkpt>
      <trkpt lat="47.5237" lon="6.72853">
        <ele>413</ele>
        <time>2014-04-13T07:12:50.965Z</time>
      </trkpt>
      <trkpt lat="47.5237" lon="6.72853">
        <ele>414</ele>
        <time>2014-04-13T07:12:56.082Z</time>
      </trkpt>
      <trkpt lat="47.52369" lon="6.72851">
        <ele>414</ele>
        <time>2014-04-13T07:13:01.895Z</time>
      </trkpt>
      <trkpt lat="47.52369" lon="6.72853">
        <ele>414</ele>
        <time>2014-04-13T07:13:05.970Z</time>
      </trkpt>
      <trkpt lat="47.52368" lon="6.72855">
        <ele>413</ele>
        <time>2014-04-13T07:13:11.020Z</time>
      </trkpt>
      <trkpt lat="47.52369" lon="6.72859">
        <ele>414</ele>
        <time>2014-04-13T07:13:15.987Z</time>
      </trkpt>
      <trkpt lat="47.5237" lon="6.72856">
        <ele>412</ele>
        <time>2014-04-13T07:13:21.045Z</time>
      </trkpt>
      <trkpt lat="47.52367" lon="6.72853">
        <ele>412</ele>
        <time>2014-04-13T07:13:25.951Z</time>
      </trkpt>
      <trkpt lat="47.52367" lon="6.72854">
        <ele>411</ele>
        <time>2014-04-13T07:13:31.025Z</time>
      </trkpt>
      <trkpt lat="47.52367" lon="6.72854">
        <ele>411</ele>
        <time>2014-04-13T07:13:36.009Z</time>
      </trkpt>
      <trkpt lat="47.52366" lon="6.72854">
        <ele>411</ele>
        <time>2014-04-13T07:13:41.039Z</time>
      </trkpt>
      <trkpt lat="47.52366" lon="6.72849">
        <ele>411</ele>
        <time>2014-04-13T07:13:45.965Z</time>
      </trkpt>
      <trkpt lat="47.52367" lon="6.72848">
        <ele>411</ele>
        <time>2014-04-13T07:13:51.039Z</time>
      </trkpt>
      <trkpt lat="47.52367" lon="6.72847">
        <ele>412</ele>
        <time>2014-04-13T07:13:55.966Z</time>
      </trkpt>
      <trkpt lat="47.52372" lon="6.72852">
        <ele>411</ele>
        <time>2014-04-13T07:14:16.106Z</time>
      </trkpt>
      <trkpt lat="47.52374" lon="6.72852">
        <ele>411</ele>
        <time>2014-04-13T07:14:21.048Z</time>
      </trkpt>
      <trkpt lat="47.52374" lon="6.72853">
        <ele>412</ele>
        <time>2014-04-13T07:14:25.937Z</time>
      </trkpt>
      <trkpt lat="47.52374" lon="6.72853">
        <ele>412</ele>
        <time>2014-04-13T07:14:31.035Z</time>
      </trkpt>
      <trkpt lat="47.52374" lon="6.72856">
        <ele>411</ele>
        <time>2014-04-13T07:14:41.047Z</time>
      </trkpt>
      <trkpt lat="47.52374" lon="6.72854">
        <ele>411</ele>
        <time>2014-04-13T07:14:45.950Z</time>
      </trkpt>
      <trkpt lat="47.52374" lon="6.72853">
        <ele>411</ele>
        <time>2014-04-13T07:14:51.026Z</time>
      </trkpt>
      <trkpt lat="47.52374" lon="6.72855">
        <ele>411</ele>
        <time>2014-04-13T07:14:55.972Z</time>
      </trkpt>
      <trkpt lat="47.52372" lon="6.72854">
        <ele>410</ele>
        <time>2014-04-13T07:15:01.038Z</time>
      </trkpt>
      <trkpt lat="47.52371" lon="6.72854">
        <ele>410</ele>
        <time>2014-04-13T07:15:05.974Z</time>
      </trkpt>
      <trkpt lat="47.5237" lon="6.72855">
        <ele>411</ele>
        <time>2014-04-13T07:15:11.044Z</time>
      </trkpt>
      <trkpt lat="47.52369" lon="6.72855">
        <ele>412</ele>
        <time>2014-04-13T07:15:15.964Z</time>
      </trkpt>
      <trkpt lat="47.52373" lon="6.7286">
        <ele>412</ele>
        <time>2014-04-13T07:15:21.043Z</time>
      </trkpt>
      <trkpt lat="47.52377" lon="6.72865">
        <ele>412</ele>
        <time>2014-04-13T07:15:25.975Z</time>
      </trkpt>
      <trkpt lat="47.5238" lon="6.72868">
        <ele>412</ele>
        <time>2014-04-13T07:15:31.030Z</time>
      </trkpt>
      <trkpt lat="47.5238" lon="6.72867">
        <ele>412</ele>
        <time>2014-04-13T07:15:35.971Z</time>
      </trkpt>
      <trkpt lat="47.52377" lon="6.72864">
        <ele>411</ele>
        <time>2014-04-13T07:15:41.042Z</time>
      </trkpt>
      <trkpt lat="47.52377" lon="6.72864">
        <ele>412</ele>
        <time>2014-04-13T07:15:45.978Z</time>
      </trkpt>
      <trkpt lat="47.52374" lon="6.72862">
        <ele>414</ele>
        <time>2014-04-13T07:15:51.024Z</time>
      </trkpt>
      <trkpt lat="47.52368" lon="6.72857">
        <ele>416</ele>
        <time>2014-04-13T07:15:55.965Z</time>
      </trkpt>
      <trkpt lat="47.52361" lon="6.7285">
        <ele>415</ele>
        <time>2014-04-13T07:16:01.038Z</time>
      </trkpt>
      <trkpt lat="47.52356" lon="6.72846">
        <ele>416</ele>
        <time>2014-04-13T07:16:06.117Z</time>
      </trkpt>
      <trkpt lat="47.52344" lon="6.72844">
        <ele>417</ele>
        <time>2014-04-13T07:16:11.030Z</time>
      </trkpt>
      <trkpt lat="47.52331" lon="6.72837">
        <ele>419</ele>
        <time>2014-04-13T07:16:15.967Z</time>
      </trkpt>
      <trkpt lat="47.52319" lon="6.72827">
        <ele>421</ele>
        <time>2014-04-13T07:16:21.027Z</time>
      </trkpt>
      <trkpt lat="47.52315" lon="6.72811">
        <ele>424</ele>
        <time>2014-04-13T07:16:25.970Z</time>
      </trkpt>
      <trkpt lat="47.52314" lon="6.72794">
        <ele>427</ele>
        <time>2014-04-13T07:16:31.026Z</time>
      </trkpt>
      <trkpt lat="47.52318" lon="6.72785">
        <ele>429</ele>
        <time>2014-04-13T07:16:35.977Z</time>
      </trkpt>
      <trkpt lat="47.52321" lon="6.72773">
        <ele>431</ele>
        <time>2014-04-13T07:16:41.064Z</time>
      </trkpt>
      <trkpt lat="47.52326" lon="6.7276">
        <ele>431</ele>
        <time>2014-04-13T07:16:45.982Z</time>
      </trkpt>
      <trkpt lat="47.5233" lon="6.7275">
        <ele>432</ele>
        <time>2014-04-13T07:16:51.050Z</time>
      </trkpt>
      <trkpt lat="47.52333" lon="6.72742">
        <ele>433</ele>
        <time>2014-04-13T07:16:55.981Z</time>
      </trkpt>
      <trkpt lat="47.5234" lon="6.72723">
        <ele>435</ele>
        <time>2014-04-13T07:17:06.046Z</time>
      </trkpt>
      <trkpt lat="47.52343" lon="6.72709">
        <ele>435</ele>
        <time>2014-04-13T07:17:10.973Z</time>
      </trkpt>
      <trkpt lat="47.52345" lon="6.72693">
        <ele>436</ele>
        <time>2014-04-13T07:17:16.041Z</time>
      </trkpt>
      <trkpt lat="47.52344" lon="6.7268">
        <ele>438</ele>
        <time>2014-04-13T07:17:20.973Z</time>
      </trkpt>
      <trkpt lat="47.52343" lon="6.7267">
        <ele>438</ele>
        <time>2014-04-13T07:17:26.042Z</time>
      </trkpt>
      <trkpt lat="47.52343" lon="6.72658">
        <ele>441</ele>
        <time>2014-04-13T07:17:30.968Z</time>
      </trkpt>
      <trkpt lat="47.52344" lon="6.7265">
        <ele>441</ele>
        <time>2014-04-13T07:17:36.038Z</time>
      </trkpt>
      <trkpt lat="47.52347" lon="6.72642">
        <ele>441</ele>
        <time>2014-04-13T07:17:40.944Z</time>
      </trkpt>
      <trkpt lat="47.52353" lon="6.72633">
        <ele>440</ele>
        <time>2014-04-13T07:17:46.044Z</time>
      </trkpt>
      <trkpt lat="47.5236" lon="6.72625">
        <ele>439</ele>
        <time>2014-04-13T07:17:50.969Z</time>
      </trkpt>
      <trkpt lat="47.52369" lon="6.72617">
        <ele>439</ele>
        <time>2014-04-13T07:17:56.021Z</time>
      </trkpt>
      <trkpt lat="47.52396" lon="6.72589">
        <ele>441</ele>
        <time>2014-04-13T07:18:16.043Z</time>
      </trkpt>
      <trkpt lat="47.52402" lon="6.72581">
        <ele>442</ele>
        <time>2014-04-13T07:18:20.968Z</time>
      </trkpt>
      <trkpt lat="47.52408" lon="6.72574">
        <ele>445</ele>
        <time>2014-04-13T07:18:26.046Z</time>
      </trkpt>
      <trkpt lat="47.52418" lon="6.72563">
        <ele>446</ele>
        <time>2014-04-13T07:18:30.969Z</time>
      </trkpt>
      <trkpt lat="47.52427" lon="6.72555">
        <ele>448</ele>
        <time>2014-04-13T07:18:36.043Z</time>
      </trkpt>
      <trkpt lat="47.52438" lon="6.72549">
        <ele>447</ele>
        <time>2014-04-13T07:18:40.992Z</time>
      </trkpt>
      <trkpt lat="47.5245" lon="6.72543">
        <ele>446</ele>
        <time>2014-04-13T07:18:46.023Z</time>
      </trkpt>
      <trkpt lat="47.52462" lon="6.72536">
        <ele>446</ele>
        <time>2014-04-13T07:18:50.970Z</time>
      </trkpt>
      <trkpt lat="47.52478" lon="6.72527">
        <ele>445</ele>
        <time>2014-04-13T07:18:56.042Z</time>
      </trkpt>
      <trkpt lat="47.52493" lon="6.72514">
        <ele>447</ele>
        <time>2014-04-13T07:19:02.509Z</time>
      </trkpt>
      <trkpt lat="47.52509" lon="6.72491">
        <ele>450</ele>
        <time>2014-04-13T07:19:06.026Z</time>
      </trkpt>
      <trkpt lat="47.52533" lon="6.72465">
        <ele>451</ele>
        <time>2014-04-13T07:19:10.980Z</time>
      </trkpt>
      <trkpt lat="47.52562" lon="6.72444">
        <ele>451</ele>
        <time>2014-04-13T07:19:16.050Z</time>
      </trkpt>
      <trkpt lat="47.52591" lon="6.72428">
        <ele>450</ele>
        <time>2014-04-13T07:19:20.973Z</time>
      </trkpt>
      <trkpt lat="47.52595" lon="6.72414">
        <ele>447</ele>
        <time>2014-04-13T07:19:26.048Z</time>
      </trkpt>
      <trkpt lat="47.52588" lon="6.72403">
        <ele>445</ele>
        <time>2014-04-13T07:19:30.969Z</time>
      </trkpt>
      <trkpt lat="47.52579" lon="6.72395">
        <ele>444</ele>
        <time>2014-04-13T07:19:36.042Z</time>
      </trkpt>
      <trkpt lat="47.52572" lon="6.72388">
        <ele>444</ele>
        <time>2014-04-13T07:19:40.974Z</time>
      </trkpt>
      <trkpt lat="47.52565" lon="6.7238">
        <ele>445</ele>
        <time>2014-04-13T07:19:46.124Z</time>
      </trkpt>
      <trkpt lat="47.52558" lon="6.72371">
        <ele>445</ele>
        <time>2014-04-13T07:19:50.977Z</time>
      </trkpt>
      <trkpt lat="47.52561" lon="6.72292">
        <ele>447</ele>
        <time>2014-04-13T07:20:15.989Z</time>
      </trkpt>
      <trkpt lat="47.52575" lon="6.72268">
        <ele>446</ele>
        <time>2014-04-13T07:20:21.055Z</time>
      </trkpt>
      <trkpt lat="47.5259" lon="6.72244">
        <ele>446</ele>
        <time>2014-04-13T07:20:25.969Z</time>
      </trkpt>
      <trkpt lat="47.52607" lon="6.72219">
        <ele>445</ele>
        <time>2014-04-13T07:20:31.044Z</time>
      </trkpt>
      <trkpt lat="47.52622" lon="6.72193">
        <ele>444</ele>
        <time>2014-04-13T07:20:35.981Z</time>
      </trkpt>
      <trkpt lat="47.52638" lon="6.72165">
        <ele>444</ele>
        <time>2014-04-13T07:20:41.043Z</time>
      </trkpt>
      <trkpt lat="47.52651" lon="6.7214">
        <ele>443</ele>
        <time>2014-04-13T07:20:45.969Z</time>
      </trkpt>
      <trkpt lat="47.52663" lon="6.72119">
        <ele>444</ele>
        <time>2014-04-13T07:20:51.023Z</time>
      </trkpt>
      <trkpt lat="47.52674" lon="6.721">
        <ele>444</ele>
        <time>2014-04-13T07:20:55.992Z</time>
      </trkpt>
      <trkpt lat="47.52683" lon="6.72083">
        <ele>445</ele>
        <time>2014-04-13T07:21:02.307Z</time>
      </trkpt>
      <trkpt lat="47.52694" lon="6.72064">
        <ele>445</ele>
        <time>2014-04-13T07:21:05.980Z</time>
      </trkpt>
      <trkpt lat="47.52706" lon="6.72047">
        <ele>446</ele>
        <time>2014-04-13T07:21:11.046Z</time>
      </trkpt>
      <trkpt lat="47.52719" lon="6.72031">
        <ele>446</ele>
        <time>2014-04-13T07:21:15.971Z</time>
      </trkpt>
      <trkpt lat="47.52736" lon="6.72019">
        <ele>445</ele>
        <time>2014-04-13T07:21:21.044Z</time>
      </trkpt>
      <trkpt lat="47.52756" lon="6.72004">
        <ele>445</ele>
        <time>2014-04-13T07:21:25.989Z</time>
      </trkpt>
      <trkpt lat="47.52777" lon="6.71989">
        <ele>444</ele>
        <time>2014-04-13T07:21:31.064Z</time>
      </trkpt>
      <trkpt lat="47.52797" lon="6.71972">
        <ele>444</ele>
        <time>2014-04-13T07:21:35.975Z</time>
      </trkpt>
      <trkpt lat="47.52818" lon="6.71957">
        <ele>444</ele>
        <time>2014-04-13T07:21:40.988Z</time>
      </trkpt>
      <trkpt lat="47.52834" lon="6.71938">
        <ele>444</ele>
        <time>2014-04-13T07:21:46.056Z</time>
      </trkpt>
      <trkpt lat="47.52849" lon="6.71923">
        <ele>445</ele>
        <time>2014-04-13T07:21:50.972Z</time>
      </trkpt>
      <trkpt lat="47.52863" lon="6.71907">
        <ele>446</ele>
        <time>2014-04-13T07:21:55.986Z</time>
      </trkpt>
      <trkpt lat="47.52875" lon="6.71883">
        <ele>446</ele>
        <time>2014-04-13T07:22:01.056Z</time>
      </trkpt>
      <trkpt lat="47.52893" lon="6.71864">
        <ele>446</ele>
        <time>2014-04-13T07:22:05.972Z</time>
      </trkpt>
      <trkpt lat="47.52916" lon="6.71858">
        <ele>445</ele>
        <time>2014-04-13T07:22:11.049Z</time>
      </trkpt>
      <trkpt lat="47.52945" lon="6.71843">
        <ele>444</ele>
        <time>2014-04-13T07:22:15.973Z</time>
      </trkpt>
      <trkpt lat="47.52965" lon="6.71831">
        <ele>444</ele>
        <time>2014-04-13T07:22:21.040Z</time>
      </trkpt>
      <trkpt lat="47.52977" lon="6.71802">
        <ele>444</ele>
        <time>2014-04-13T07:22:25.972Z</time>
      </trkpt>
      <trkpt lat="47.52989" lon="6.71767">
        <ele>442</ele>
        <time>2014-04-13T07:22:30.967Z</time>
      </trkpt>
      <trkpt lat="47.53012" lon="6.71748">
        <ele>441</ele>
        <time>2014-04-13T07:22:36.042Z</time>
      </trkpt>
      <trkpt lat="47.53038" lon="6.71743">
        <ele>439</ele>
        <time>2014-04-13T07:22:40.966Z</time>
      </trkpt>
      <trkpt lat="47.53071" lon="6.71753">
        <ele>436</ele>
        <time>2014-04-13T07:22:46.044Z</time>
      </trkpt>
      <trkpt lat="47.5314" lon="6.71817">
        <ele>424</ele>
        <time>2014-04-13T07:22:56.049Z</time>
      </trkpt>
      <trkpt lat="47.5314" lon="6.71817">
        <ele>424</ele>
        <time>2014-04-13T07:22:56.049Z</time>
      </trkpt>
      <trkpt lat="47.53199" lon="6.71837">
        <ele>412</ele>
        <time>2014-04-13T07:23:06.050Z</time>
      </trkpt>
      <trkpt lat="47.53215" lon="6.71833">
        <ele>409</ele>
        <time>2014-04-13T07:23:10.964Z</time>
      </trkpt>
      <trkpt lat="47.53226" lon="6.71829">
        <ele>409</ele>
        <time>2014-04-13T07:23:16.044Z</time>
      </trkpt>
      <trkpt lat="47.53235" lon="6.71807">
        <ele>409</ele>
        <time>2014-04-13T07:23:20.982Z</time>
      </trkpt>
      <trkpt lat="47.53219" lon="6.71781">
        <ele>409</ele>
        <time>2014-04-13T07:23:26.054Z</time>
      </trkpt>
      <trkpt lat="47.53195" lon="6.7176">
        <ele>409</ele>
        <time>2014-04-13T07:23:30.966Z</time>
      </trkpt>
      <trkpt lat="47.53175" lon="6.71729">
        <ele>410</ele>
        <time>2014-04-13T07:23:36.045Z</time>
      </trkpt>
      <trkpt lat="47.53141" lon="6.71668">
        <ele>412</ele>
        <time>2014-04-13T07:23:46.057Z</time>
      </trkpt>
      <trkpt lat="47.53128" lon="6.71643">
        <ele>412</ele>
        <time>2014-04-13T07:23:50.963Z</time>
      </trkpt>
      <trkpt lat="47.53126" lon="6.71623">
        <ele>412</ele>
        <time>2014-04-13T07:23:56.107Z</time>
      </trkpt>
      <trkpt lat="47.53116" lon="6.7155">
        <ele>417</ele>
        <time>2014-04-13T07:24:20.972Z</time>
      </trkpt>
      <trkpt lat="47.53113" lon="6.71539">
        <ele>419</ele>
        <time>2014-04-13T07:24:26.026Z</time>
      </trkpt>
      <trkpt lat="47.53111" lon="6.71526">
        <ele>419</ele>
        <time>2014-04-13T07:24:30.982Z</time>
      </trkpt>
      <trkpt lat="47.5311" lon="6.71515">
        <ele>420</ele>
        <time>2014-04-13T07:24:36.044Z</time>
      </trkpt>
      <trkpt lat="47.53106" lon="6.71502">
        <ele>421</ele>
        <time>2014-04-13T07:24:40.971Z</time>
      </trkpt>
      <trkpt lat="47.53105" lon="6.71488">
        <ele>423</ele>
        <time>2014-04-13T07:24:46.043Z</time>
      </trkpt>
      <trkpt lat="47.53103" lon="6.71475">
        <ele>423</ele>
        <time>2014-04-13T07:24:50.964Z</time>
      </trkpt>
      <trkpt lat="47.531" lon="6.71459">
        <ele>424</ele>
        <time>2014-04-13T07:24:56.354Z</time>
      </trkpt>
      <trkpt lat="47.53099" lon="6.71447">
        <ele>424</ele>
        <time>2014-04-13T07:25:01.034Z</time>
      </trkpt>
      <trkpt lat="47.53095" lon="6.71431">
        <ele>425</ele>
        <time>2014-04-13T07:25:05.964Z</time>
      </trkpt>
      <trkpt lat="47.5309" lon="6.71414">
        <ele>425</ele>
        <time>2014-04-13T07:25:11.031Z</time>
      </trkpt>
      <trkpt lat="47.53089" lon="6.71394">
        <ele>423</ele>
        <time>2014-04-13T07:25:15.975Z</time>
      </trkpt>
      <trkpt lat="47.53081" lon="6.71374">
        <ele>423</ele>
        <time>2014-04-13T07:25:21.054Z</time>
      </trkpt>
      <trkpt lat="47.53075" lon="6.71353">
        <ele>423</ele>
        <time>2014-04-13T07:25:25.968Z</time>
      </trkpt>
      <trkpt lat="47.5307" lon="6.71334">
        <ele>423</ele>
        <time>2014-04-13T07:25:31.044Z</time>
      </trkpt>
      <trkpt lat="47.53067" lon="6.71316">
        <ele>423</ele>
        <time>2014-04-13T07:25:35.958Z</time>
      </trkpt>
      <trkpt lat="47.53057" lon="6.71299">
        <ele>425</ele>
        <time>2014-04-13T07:25:41.048Z</time>
      </trkpt>
      <trkpt lat="47.53053" lon="6.71285">
        <ele>426</ele>
        <time>2014-04-13T07:25:45.962Z</time>
      </trkpt>
      <trkpt lat="47.53057" lon="6.7128">
        <ele>426</ele>
        <time>2014-04-13T07:25:51.020Z</time>
      </trkpt>
      <trkpt lat="47.53071" lon="6.71284">
        <ele>426</ele>
        <time>2014-04-13T07:25:55.981Z</time>
      </trkpt>
      <trkpt lat="47.53087" lon="6.71282">
        <ele>425</ele>
        <time>2014-04-13T07:26:01.045Z</time>
      </trkpt>
      <trkpt lat="47.53103" lon="6.71277">
        <ele>425</ele>
        <time>2014-04-13T07:26:05.972Z</time>
      </trkpt>
      <trkpt lat="47.5312" lon="6.71271">
        <ele>425</ele>
        <time>2014-04-13T07:26:11.042Z</time>
      </trkpt>
      <trkpt lat="47.53136" lon="6.71266">
        <ele>425</ele>
        <time>2014-04-13T07:26:15.971Z</time>
      </trkpt>
      <trkpt lat="47.53152" lon="6.71262">
        <ele>425</ele>
        <time>2014-04-13T07:26:21.037Z</time>
      </trkpt>
      <trkpt lat="47.53167" lon="6.71258">
        <ele>426</ele>
        <time>2014-04-13T07:26:25.975Z</time>
      </trkpt>
      <trkpt lat="47.53182" lon="6.71254">
        <ele>426</ele>
        <time>2014-04-13T07:26:31.030Z</time>
      </trkpt>
      <trkpt lat="47.53197" lon="6.7125">
        <ele>426</ele>
        <time>2014-04-13T07:26:35.996Z</time>
      </trkpt>
      <trkpt lat="47.53214" lon="6.71246">
        <ele>427</ele>
        <time>2014-04-13T07:26:41.055Z</time>
      </trkpt>
      <trkpt lat="47.5323" lon="6.71234">
        <ele>427</ele>
        <time>2014-04-13T07:26:45.984Z</time>
      </trkpt>
      <trkpt lat="47.53235" lon="6.71205">
        <ele>428</ele>
        <time>2014-04-13T07:26:51.036Z</time>
      </trkpt>
      <trkpt lat="47.5325" lon="6.71129">
        <ele>430</ele>
        <time>2014-04-13T07:27:07.080Z</time>
      </trkpt>
      <trkpt lat="47.53253" lon="6.71107">
        <ele>431</ele>
        <time>2014-04-13T07:27:11.038Z</time>
      </trkpt>
      <trkpt lat="47.53257" lon="6.71087">
        <ele>432</ele>
        <time>2014-04-13T07:27:15.979Z</time>
      </trkpt>
      <trkpt lat="47.53261" lon="6.71068">
        <ele>433</ele>
        <time>2014-04-13T07:27:21.051Z</time>
      </trkpt>
      <trkpt lat="47.53266" lon="6.71049">
        <ele>435</ele>
        <time>2014-04-13T07:27:25.982Z</time>
      </trkpt>
      <trkpt lat="47.5327" lon="6.71033">
        <ele>436</ele>
        <time>2014-04-13T07:27:31.064Z</time>
      </trkpt>
      <trkpt lat="47.53275" lon="6.71017">
        <ele>437</ele>
        <time>2014-04-13T07:27:35.970Z</time>
      </trkpt>
      <trkpt lat="47.53279" lon="6.71002">
        <ele>439</ele>
        <time>2014-04-13T07:27:41.041Z</time>
      </trkpt>
      <trkpt lat="47.53283" lon="6.70988">
        <ele>440</ele>
        <time>2014-04-13T07:27:45.977Z</time>
      </trkpt>
      <trkpt lat="47.53289" lon="6.70971">
        <ele>440</ele>
        <time>2014-04-13T07:27:51.044Z</time>
      </trkpt>
      <trkpt lat="47.53294" lon="6.70956">
        <ele>440</ele>
        <time>2014-04-13T07:27:55.971Z</time>
      </trkpt>
      <trkpt lat="47.533" lon="6.70934">
        <ele>441</ele>
        <time>2014-04-13T07:28:01.032Z</time>
      </trkpt>
      <trkpt lat="47.53304" lon="6.70913">
        <ele>442</ele>
        <time>2014-04-13T07:28:06.352Z</time>
      </trkpt>
      <trkpt lat="47.53314" lon="6.70895">
        <ele>444</ele>
        <time>2014-04-13T07:28:11.056Z</time>
      </trkpt>
      <trkpt lat="47.53331" lon="6.70879">
        <ele>447</ele>
        <time>2014-04-13T07:28:15.981Z</time>
      </trkpt>
      <trkpt lat="47.53359" lon="6.70877">
        <ele>447</ele>
        <time>2014-04-13T07:28:21.033Z</time>
      </trkpt>
      <trkpt lat="47.53394" lon="6.70904">
        <ele>447</ele>
        <time>2014-04-13T07:28:25.962Z</time>
      </trkpt>
      <trkpt lat="47.53416" lon="6.70905">
        <ele>449</ele>
        <time>2014-04-13T07:28:31.033Z</time>
      </trkpt>
      <trkpt lat="47.53439" lon="6.70894">
        <ele>450</ele>
        <time>2014-04-13T07:28:35.970Z</time>
      </trkpt>
      <trkpt lat="47.53473" lon="6.70873">
        <ele>454</ele>
        <time>2014-04-13T07:28:45.976Z</time>
      </trkpt>
      <trkpt lat="47.53492" lon="6.70869">
        <ele>455</ele>
        <time>2014-04-13T07:28:51.042Z</time>
      </trkpt>
      <trkpt lat="47.53507" lon="6.70866">
        <ele>457</ele>
        <time>2014-04-13T07:28:55.961Z</time>
      </trkpt>
      <trkpt lat="47.5354" lon="6.70852">
        <ele>459</ele>
        <time>2014-04-13T07:29:05.951Z</time>
      </trkpt>
      <trkpt lat="47.53556" lon="6.70844">
        <ele>461</ele>
        <time>2014-04-13T07:29:10.967Z</time>
      </trkpt>
      <trkpt lat="47.53567" lon="6.70835">
        <ele>461</ele>
        <time>2014-04-13T07:29:16.056Z</time>
      </trkpt>
      <trkpt lat="47.53581" lon="6.70826">
        <ele>460</ele>
        <time>2014-04-13T07:29:20.964Z</time>
      </trkpt>
      <trkpt lat="47.53593" lon="6.70814">
        <ele>460</ele>
        <time>2014-04-13T07:29:26.043Z</time>
      </trkpt>
      <trkpt lat="47.53601" lon="6.70799">
        <ele>460</ele>
        <time>2014-04-13T07:29:30.965Z</time>
      </trkpt>
      <trkpt lat="47.53611" lon="6.70785">
        <ele>460</ele>
        <time>2014-04-13T07:29:36.047Z</time>
      </trkpt>
      <trkpt lat="47.53623" lon="6.70771">
        <ele>459</ele>
        <time>2014-04-13T07:29:40.968Z</time>
      </trkpt>
      <trkpt lat="47.53634" lon="6.70765">
        <ele>456</ele>
        <time>2014-04-13T07:29:46.038Z</time>
      </trkpt>
      <trkpt lat="47.53643" lon="6.70763">
        <ele>457</ele>
        <time>2014-04-13T07:29:51.000Z</time>
      </trkpt>
      <trkpt lat="47.53652" lon="6.70766">
        <ele>458</ele>
        <time>2014-04-13T07:29:56.036Z</time>
      </trkpt>
      <trkpt lat="47.53689" lon="6.70796">
        <ele>460</ele>
        <time>2014-04-13T07:30:22.306Z</time>
      </trkpt>
      <trkpt lat="47.53698" lon="6.70801">
        <ele>462</ele>
        <time>2014-04-13T07:30:26.040Z</time>
      </trkpt>
      <trkpt lat="47.53707" lon="6.70805">
        <ele>464</ele>
        <time>2014-04-13T07:30:30.970Z</time>
      </trkpt>
      <trkpt lat="47.5371" lon="6.70804">
        <ele>465</ele>
        <time>2014-04-13T07:30:36.022Z</time>
      </trkpt>
      <trkpt lat="47.53715" lon="6.70806">
        <ele>465</ele>
        <time>2014-04-13T07:30:40.981Z</time>
      </trkpt>
      <trkpt lat="47.53722" lon="6.70815">
        <ele>466</ele>
        <time>2014-04-13T07:30:46.023Z</time>
      </trkpt>
      <trkpt lat="47.5373" lon="6.70824">
        <ele>468</ele>
        <time>2014-04-13T07:30:50.981Z</time>
      </trkpt>
      <trkpt lat="47.53738" lon="6.70835">
        <ele>468</ele>
        <time>2014-04-13T07:30:56.055Z</time>
      </trkpt>
      <trkpt lat="47.53769" lon="6.70858">
        <ele>473</ele>
        <time>2014-04-13T07:31:10.984Z</time>
      </trkpt>
      <trkpt lat="47.53777" lon="6.70859">
        <ele>473</ele>
        <time>2014-04-13T07:31:16.047Z</time>
      </trkpt>
      <trkpt lat="47.53786" lon="6.70865">
        <ele>473</ele>
        <time>2014-04-13T07:31:20.988Z</time>
      </trkpt>
      <trkpt lat="47.53798" lon="6.70877">
        <ele>473</ele>
        <time>2014-04-13T07:31:26.038Z</time>
      </trkpt>
      <trkpt lat="47.53803" lon="6.70879">
        <ele>474</ele>
        <time>2014-04-13T07:31:30.973Z</time>
      </trkpt>
      <trkpt lat="47.53814" lon="6.70887">
        <ele>473</ele>
        <time>2014-04-13T07:31:36.298Z</time>
      </trkpt>
      <trkpt lat="47.53824" lon="6.70891">
        <ele>475</ele>
        <time>2014-04-13T07:31:40.980Z</time>
      </trkpt>
      <trkpt lat="47.53834" lon="6.70895">
        <ele>477</ele>
        <time>2014-04-13T07:31:46.041Z</time>
      </trkpt>
      <trkpt lat="47.5385" lon="6.70902">
        <ele>477</ele>
        <time>2014-04-13T07:31:50.980Z</time>
      </trkpt>
      <trkpt lat="47.53865" lon="6.70904">
        <ele>477</ele>
        <time>2014-04-13T07:31:56.046Z</time>
      </trkpt>
      <trkpt lat="47.53942" lon="6.7091">
        <ele>473</ele>
        <time>2014-04-13T07:32:15.986Z</time>
      </trkpt>
      <trkpt lat="47.53967" lon="6.70891">
        <ele>472</ele>
        <time>2014-04-13T07:32:21.059Z</time>
      </trkpt>
      <trkpt lat="47.53995" lon="6.70867">
        <ele>470</ele>
        <time>2014-04-13T07:32:25.983Z</time>
      </trkpt>
      <trkpt lat="47.54022" lon="6.70833">
        <ele>467</ele>
        <time>2014-04-13T07:32:31.039Z</time>
      </trkpt>
      <trkpt lat="47.54053" lon="6.70821">
        <ele>464</ele>
        <time>2014-04-13T07:32:35.971Z</time>
      </trkpt>
      <trkpt lat="47.54089" lon="6.70816">
        <ele>461</ele>
        <time>2014-04-13T07:32:41.003Z</time>
      </trkpt>
      <trkpt lat="47.54121" lon="6.70801">
        <ele>459</ele>
        <time>2014-04-13T07:32:45.965Z</time>
      </trkpt>
      <trkpt lat="47.54143" lon="6.70788">
        <ele>457</ele>
        <time>2014-04-13T07:32:51.024Z</time>
      </trkpt>
      <trkpt lat="47.54166" lon="6.70779">
        <ele>458</ele>
        <time>2014-04-13T07:32:55.982Z</time>
      </trkpt>
      <trkpt lat="47.54191" lon="6.70771">
        <ele>458</ele>
        <time>2014-04-13T07:33:01.049Z</time>
      </trkpt>
      <trkpt lat="47.54216" lon="6.70758">
        <ele>458</ele>
        <time>2014-04-13T07:33:05.970Z</time>
      </trkpt>
      <trkpt lat="47.54241" lon="6.70746">
        <ele>455</ele>
        <time>2014-04-13T07:33:11.024Z</time>
      </trkpt>
      <trkpt lat="47.54263" lon="6.70733">
        <ele>451</ele>
        <time>2014-04-13T07:33:16.190Z</time>
      </trkpt>
      <trkpt lat="47.54281" lon="6.7072">
        <ele>451</ele>
        <time>2014-04-13T07:33:21.020Z</time>
      </trkpt>
      <trkpt lat="47.543" lon="6.70705">
        <ele>452</ele>
        <time>2014-04-13T07:33:25.968Z</time>
      </trkpt>
      <trkpt lat="47.54318" lon="6.7071">
        <ele>450</ele>
        <time>2014-04-13T07:33:31.044Z</time>
      </trkpt>
      <trkpt lat="47.54328" lon="6.70723">
        <ele>446</ele>
        <time>2014-04-13T07:33:35.963Z</time>
      </trkpt>
      <trkpt lat="47.54331" lon="6.70732">
        <ele>444</ele>
        <time>2014-04-13T07:33:41.022Z</time>
      </trkpt>
      <trkpt lat="47.54337" lon="6.70746">
        <ele>438</ele>
        <time>2014-04-13T07:33:45.971Z</time>
      </trkpt>
      <trkpt lat="47.54355" lon="6.70758">
        <ele>438</ele>
        <time>2014-04-13T07:33:51.015Z</time>
      </trkpt>
      <trkpt lat="47.54413" lon="6.70643">
        <ele>439</ele>
        <time>2014-04-13T07:34:05.969Z</time>
      </trkpt>
      <trkpt lat="47.54446" lon="6.70618">
        <ele>441</ele>
        <time>2014-04-13T07:34:11.047Z</time>
      </trkpt>
      <trkpt lat="47.54475" lon="6.70594">
        <ele>441</ele>
        <time>2014-04-13T07:34:15.961Z</time>
      </trkpt>
      <trkpt lat="47.5451" lon="6.70579">
        <ele>443</ele>
        <time>2014-04-13T07:34:21.037Z</time>
      </trkpt>
      <trkpt lat="47.54543" lon="6.7057">
        <ele>443</ele>
        <time>2014-04-13T07:34:25.962Z</time>
      </trkpt>
      <trkpt lat="47.54573" lon="6.70557">
        <ele>443</ele>
        <time>2014-04-13T07:34:31.011Z</time>
      </trkpt>
      <trkpt lat="47.54599" lon="6.70552">
        <ele>442</ele>
        <time>2014-04-13T07:34:35.966Z</time>
      </trkpt>
      <trkpt lat="47.54627" lon="6.7054">
        <ele>438</ele>
        <time>2014-04-13T07:34:41.049Z</time>
      </trkpt>
      <trkpt lat="47.54652" lon="6.70531">
        <ele>436</ele>
        <time>2014-04-13T07:34:45.964Z</time>
      </trkpt>
      <trkpt lat="47.54673" lon="6.70516">
        <ele>434</ele>
        <time>2014-04-13T07:34:51.036Z</time>
      </trkpt>
      <trkpt lat="47.54696" lon="6.70497">
        <ele>432</ele>
        <time>2014-04-13T07:34:55.971Z</time>
      </trkpt>
      <trkpt lat="47.54715" lon="6.70484">
        <ele>431</ele>
        <time>2014-04-13T07:35:01.046Z</time>
      </trkpt>
      <trkpt lat="47.5473" lon="6.7048">
        <ele>432</ele>
        <time>2014-04-13T07:35:05.983Z</time>
      </trkpt>
      <trkpt lat="47.54743" lon="6.70473">
        <ele>432</ele>
        <time>2014-04-13T07:35:11.049Z</time>
      </trkpt>
      <trkpt lat="47.5476" lon="6.70449">
        <ele>431</ele>
        <time>2014-04-13T07:35:15.984Z</time>
      </trkpt>
      <trkpt lat="47.54773" lon="6.70401">
        <ele>429</ele>
        <time>2014-04-13T07:35:21.044Z</time>
      </trkpt>
      <trkpt lat="47.54773" lon="6.7037">
        <ele>427</ele>
        <time>2014-04-13T07:35:25.961Z</time>
      </trkpt>
      <trkpt lat="47.54789" lon="6.70365">
        <ele>427</ele>
        <time>2014-04-13T07:35:31.042Z</time>
      </trkpt>
      <trkpt lat="47.54806" lon="6.70358">
        <ele>426</ele>
        <time>2014-04-13T07:35:35.969Z</time>
      </trkpt>
      <trkpt lat="47.54827" lon="6.70347">
        <ele>424</ele>
        <time>2014-04-13T07:35:41.041Z</time>
      </trkpt>
      <trkpt lat="47.54844" lon="6.70332">
        <ele>424</ele>
        <time>2014-04-13T07:35:46.044Z</time>
      </trkpt>
      <trkpt lat="47.54855" lon="6.70312">
        <ele>424</ele>
        <time>2014-04-13T07:35:50.964Z</time>
      </trkpt>
      <trkpt lat="47.5486" lon="6.70284">
        <ele>423</ele>
        <time>2014-04-13T07:35:56.040Z</time>
      </trkpt>
      <trkpt lat="47.54834" lon="6.70103">
        <ele>418</ele>
        <time>2014-04-13T07:36:20.962Z</time>
      </trkpt>
      <trkpt lat="47.54836" lon="6.7007">
        <ele>417</ele>
        <time>2014-04-13T07:36:26.036Z</time>
      </trkpt>
      <trkpt lat="47.5482" lon="6.70049">
        <ele>415</ele>
        <time>2014-04-13T07:36:30.960Z</time>
      </trkpt>
      <trkpt lat="47.54809" lon="6.70012">
        <ele>414</ele>
        <time>2014-04-13T07:36:36.011Z</time>
      </trkpt>
      <trkpt lat="47.54801" lon="6.6997">
        <ele>414</ele>
        <time>2014-04-13T07:36:41.160Z</time>
      </trkpt>
      <trkpt lat="47.54798" lon="6.69932">
        <ele>414</ele>
        <time>2014-04-13T07:36:45.981Z</time>
      </trkpt>
      <trkpt lat="47.54803" lon="6.69893">
        <ele>413</ele>
        <time>2014-04-13T07:36:51.047Z</time>
      </trkpt>
      <trkpt lat="47.54806" lon="6.69855">
        <ele>414</ele>
        <time>2014-04-13T07:36:55.983Z</time>
      </trkpt>
      <trkpt lat="47.5481" lon="6.69819">
        <ele>414</ele>
        <time>2014-04-13T07:37:01.046Z</time>
      </trkpt>
      <trkpt lat="47.54813" lon="6.69785">
        <ele>414</ele>
        <time>2014-04-13T07:37:05.978Z</time>
      </trkpt>
      <trkpt lat="47.54817" lon="6.69753">
        <ele>414</ele>
        <time>2014-04-13T07:37:11.046Z</time>
      </trkpt>
      <trkpt lat="47.54821" lon="6.69721">
        <ele>414</ele>
        <time>2014-04-13T07:37:15.981Z</time>
      </trkpt>
      <trkpt lat="47.54809" lon="6.69691">
        <ele>413</ele>
        <time>2014-04-13T07:37:21.051Z</time>
      </trkpt>
      <trkpt lat="47.54812" lon="6.69659">
        <ele>413</ele>
        <time>2014-04-13T07:37:25.970Z</time>
      </trkpt>
      <trkpt lat="47.54822" lon="6.69627">
        <ele>413</ele>
        <time>2014-04-13T07:37:31.031Z</time>
      </trkpt>
      <trkpt lat="47.54835" lon="6.69599">
        <ele>414</ele>
        <time>2014-04-13T07:37:35.981Z</time>
      </trkpt>
      <trkpt lat="47.54847" lon="6.69575">
        <ele>415</ele>
        <time>2014-04-13T07:37:41.055Z</time>
      </trkpt>
      <trkpt lat="47.54856" lon="6.6956">
        <ele>415</ele>
        <time>2014-04-13T07:37:45.982Z</time>
      </trkpt>
      <trkpt lat="47.54866" lon="6.6954">
        <ele>413</ele>
        <time>2014-04-13T07:37:51.044Z</time>
      </trkpt>
      <trkpt lat="47.54875" lon="6.6952">
        <ele>414</ele>
        <time>2014-04-13T07:37:55.973Z</time>
      </trkpt>
      <trkpt lat="47.54884" lon="6.69503">
        <ele>415</ele>
        <time>2014-04-13T07:38:01.039Z</time>
      </trkpt>
      <trkpt lat="47.54896" lon="6.69491">
        <ele>417</ele>
        <time>2014-04-13T07:38:05.969Z</time>
      </trkpt>
      <trkpt lat="47.54906" lon="6.69476">
        <ele>418</ele>
        <time>2014-04-13T07:38:11.033Z</time>
      </trkpt>
      <trkpt lat="47.54914" lon="6.69457">
        <ele>419</ele>
        <time>2014-04-13T07:38:15.986Z</time>
      </trkpt>
      <trkpt lat="47.54924" lon="6.69433">
        <ele>419</ele>
        <time>2014-04-13T07:38:21.044Z</time>
      </trkpt>
      <trkpt lat="47.54931" lon="6.69415">
        <ele>418</ele>
        <time>2014-04-13T07:38:25.974Z</time>
      </trkpt>
      <trkpt lat="47.54944" lon="6.69384">
        <ele>417</ele>
        <time>2014-04-13T07:38:31.042Z</time>
      </trkpt>
      <trkpt lat="47.54958" lon="6.69346">
        <ele>417</ele>
        <time>2014-04-13T07:38:35.971Z</time>
      </trkpt>
      <trkpt lat="47.54972" lon="6.6931">
        <ele>416</ele>
        <time>2014-04-13T07:38:41.044Z</time>
      </trkpt>
      <trkpt lat="47.54984" lon="6.69277">
        <ele>417</ele>
        <time>2014-04-13T07:38:45.973Z</time>
      </trkpt>
      <trkpt lat="47.54996" lon="6.69248">
        <ele>417</ele>
        <time>2014-04-13T07:38:51.033Z</time>
      </trkpt>
      <trkpt lat="47.55038" lon="6.69157">
        <ele>418</ele>
        <time>2014-04-13T07:39:05.970Z</time>
      </trkpt>
      <trkpt lat="47.55053" lon="6.69126">
        <ele>418</ele>
        <time>2014-04-13T07:39:10.981Z</time>
      </trkpt>
      <trkpt lat="47.55066" lon="6.691">
        <ele>419</ele>
        <time>2014-04-13T07:39:16.056Z</time>
      </trkpt>
      <trkpt lat="47.55075" lon="6.69082">
        <ele>421</ele>
        <time>2014-04-13T07:39:20.969Z</time>
      </trkpt>
      <trkpt lat="47.55083" lon="6.69068">
        <ele>422</ele>
        <time>2014-04-13T07:39:26.048Z</time>
      </trkpt>
      <trkpt lat="47.5509" lon="6.69053">
        <ele>424</ele>
        <time>2014-04-13T07:39:30.986Z</time>
      </trkpt>
      <trkpt lat="47.55099" lon="6.6904">
        <ele>425</ele>
        <time>2014-04-13T07:39:36.039Z</time>
      </trkpt>
      <trkpt lat="47.55107" lon="6.69023">
        <ele>425</ele>
        <time>2014-04-13T07:39:40.978Z</time>
      </trkpt>
      <trkpt lat="47.55112" lon="6.69009">
        <ele>428</ele>
        <time>2014-04-13T07:39:46.040Z</time>
      </trkpt>
      <trkpt lat="47.55117" lon="6.68997">
        <ele>429</ele>
        <time>2014-04-13T07:39:50.983Z</time>
      </trkpt>
      <trkpt lat="47.55121" lon="6.68985">
        <ele>430</ele>
        <time>2014-04-13T07:39:56.056Z</time>
      </trkpt>
      <trkpt lat="47.55137" lon="6.68949">
        <ele>435</ele>
        <time>2014-04-13T07:40:16.044Z</time>
      </trkpt>
      <trkpt lat="47.55143" lon="6.68941">
        <ele>436</ele>
        <time>2014-04-13T07:40:20.974Z</time>
      </trkpt>
      <trkpt lat="47.55149" lon="6.68929">
        <ele>438</ele>
        <time>2014-04-13T07:40:26.053Z</time>
      </trkpt>
      <trkpt lat="47.55154" lon="6.6892">
        <ele>440</ele>
        <time>2014-04-13T07:40:30.970Z</time>
      </trkpt>
      <trkpt lat="47.55159" lon="6.68911">
        <ele>440</ele>
        <time>2014-04-13T07:40:36.038Z</time>
      </trkpt>
      <trkpt lat="47.55163" lon="6.68905">
        <ele>441</ele>
        <time>2014-04-13T07:40:40.981Z</time>
      </trkpt>
      <trkpt lat="47.55169" lon="6.68896">
        <ele>442</ele>
        <time>2014-04-13T07:40:46.054Z</time>
      </trkpt>
      <trkpt lat="47.55173" lon="6.68889">
        <ele>445</ele>
        <time>2014-04-13T07:40:50.985Z</time>
      </trkpt>
      <trkpt lat="47.55181" lon="6.68884">
        <ele>446</ele>
        <time>2014-04-13T07:40:56.046Z</time>
      </trkpt>
      <trkpt lat="47.55186" lon="6.68877">
        <ele>447</ele>
        <time>2014-04-13T07:41:02.044Z</time>
      </trkpt>
      <trkpt lat="47.55191" lon="6.68872">
        <ele>449</ele>
        <time>2014-04-13T07:41:06.045Z</time>
      </trkpt>
      <trkpt lat="47.55198" lon="6.68861">
        <ele>451</ele>
        <time>2014-04-13T07:41:10.971Z</time>
      </trkpt>
      <trkpt lat="47.55204" lon="6.68854">
        <ele>453</ele>
        <time>2014-04-13T07:41:16.035Z</time>
      </trkpt>
      <trkpt lat="47.55212" lon="6.68844">
        <ele>454</ele>
        <time>2014-04-13T07:41:20.987Z</time>
      </trkpt>
      <trkpt lat="47.5522" lon="6.68836">
        <ele>456</ele>
        <time>2014-04-13T07:41:26.061Z</time>
      </trkpt>
      <trkpt lat="47.55225" lon="6.6883">
        <ele>457</ele>
        <time>2014-04-13T07:41:30.985Z</time>
      </trkpt>
      <trkpt lat="47.55231" lon="6.68825">
        <ele>459</ele>
        <time>2014-04-13T07:41:36.050Z</time>
      </trkpt>
      <trkpt lat="47.55237" lon="6.68818">
        <ele>461</ele>
        <time>2014-04-13T07:41:40.970Z</time>
      </trkpt>
      <trkpt lat="47.55244" lon="6.68812">
        <ele>463</ele>
        <time>2014-04-13T07:41:46.051Z</time>
      </trkpt>
      <trkpt lat="47.55251" lon="6.68807">
        <ele>467</ele>
        <time>2014-04-13T07:41:51.241Z</time>
      </trkpt>
      <trkpt lat="47.55259" lon="6.68794">
        <ele>468</ele>
        <time>2014-04-13T07:41:55.999Z</time>
      </trkpt>
      <trkpt lat="47.55285" lon="6.6874">
        <ele>469</ele>
        <time>2014-04-13T07:42:16.022Z</time>
      </trkpt>
      <trkpt lat="47.55294" lon="6.68723">
        <ele>471</ele>
        <time>2014-04-13T07:42:20.959Z</time>
      </trkpt>
      <trkpt lat="47.55304" lon="6.687">
        <ele>472</ele>
        <time>2014-04-13T07:42:26.054Z</time>
      </trkpt>
      <trkpt lat="47.55312" lon="6.68678">
        <ele>474</ele>
        <time>2014-04-13T07:42:30.981Z</time>
      </trkpt>
      <trkpt lat="47.55321" lon="6.68659">
        <ele>475</ele>
        <time>2014-04-13T07:42:36.044Z</time>
      </trkpt>
      <trkpt lat="47.55332" lon="6.68639">
        <ele>476</ele>
        <time>2014-04-13T07:42:40.973Z</time>
      </trkpt>
      <trkpt lat="47.55342" lon="6.68624">
        <ele>476</ele>
        <time>2014-04-13T07:42:46.038Z</time>
      </trkpt>
      <trkpt lat="47.5535" lon="6.6861">
        <ele>476</ele>
        <time>2014-04-13T07:42:50.982Z</time>
      </trkpt>
      <trkpt lat="47.55355" lon="6.686">
        <ele>473</ele>
        <time>2014-04-13T07:42:56.045Z</time>
      </trkpt>
      <trkpt lat="47.55354" lon="6.68594">
        <ele>471</ele>
        <time>2014-04-13T07:43:03.302Z</time>
      </trkpt>
      <trkpt lat="47.55356" lon="6.68593">
        <ele>470</ele>
        <time>2014-04-13T07:43:06.054Z</time>
      </trkpt>
      <trkpt lat="47.55356" lon="6.6859">
        <ele>468</ele>
        <time>2014-04-13T07:43:10.973Z</time>
      </trkpt>
      <trkpt lat="47.55356" lon="6.68587">
        <ele>466</ele>
        <time>2014-04-13T07:43:16.029Z</time>
      </trkpt>
      <trkpt lat="47.55356" lon="6.68587">
        <ele>466</ele>
        <time>2014-04-13T07:43:20.974Z</time>
      </trkpt>
      <trkpt lat="47.55356" lon="6.68587">
        <ele>466</ele>
        <time>2014-04-13T07:43:26.044Z</time>
      </trkpt>
      <trkpt lat="47.55356" lon="6.68587">
        <ele>466</ele>
        <time>2014-04-13T07:43:30.971Z</time>
      </trkpt>
      <trkpt lat="47.55356" lon="6.68587">
        <ele>466</ele>
        <time>2014-04-13T07:43:36.015Z</time>
      </trkpt>
      <trkpt lat="47.55355" lon="6.68586">
        <ele>466</ele>
        <time>2014-04-13T07:43:40.983Z</time>
      </trkpt>
      <trkpt lat="47.55354" lon="6.6858">
        <ele>464</ele>
        <time>2014-04-13T07:43:46.055Z</time>
      </trkpt>
      <trkpt lat="47.55354" lon="6.68578">
        <ele>464</ele>
        <time>2014-04-13T07:43:50.979Z</time>
      </trkpt>
      <trkpt lat="47.55355" lon="6.68576">
        <ele>463</ele>
        <time>2014-04-13T07:43:56.039Z</time>
      </trkpt>
      <trkpt lat="47.55362" lon="6.68591">
        <ele>464</ele>
        <time>2014-04-13T07:44:01.025Z</time>
      </trkpt>
      <trkpt lat="47.5536" lon="6.68623">
        <ele>464</ele>
        <time>2014-04-13T07:44:05.982Z</time>
      </trkpt>
      <trkpt lat="47.55353" lon="6.68649">
        <ele>466</ele>
        <time>2014-04-13T07:44:11.058Z</time>
      </trkpt>
      <trkpt lat="47.55338" lon="6.6868">
        <ele>467</ele>
        <time>2014-04-13T07:44:15.972Z</time>
      </trkpt>
      <trkpt lat="47.55335" lon="6.68715">
        <ele>470</ele>
        <time>2014-04-13T07:44:21.035Z</time>
      </trkpt>
      <trkpt lat="47.5534" lon="6.68778">
        <ele>472</ele>
        <time>2014-04-13T07:44:25.969Z</time>
      </trkpt>
      <trkpt lat="47.5535" lon="6.68852">
        <ele>471</ele>
        <time>2014-04-13T07:44:31.050Z</time>
      </trkpt>
      <trkpt lat="47.5534" lon="6.68924">
        <ele>466</ele>
        <time>2014-04-13T07:44:35.969Z</time>
      </trkpt>
      <trkpt lat="47.55332" lon="6.68974">
        <ele>461</ele>
        <time>2014-04-13T07:44:41.045Z</time>
      </trkpt>
      <trkpt lat="47.55308" lon="6.6901">
        <ele>457</ele>
        <time>2014-04-13T07:44:45.981Z</time>
      </trkpt>
      <trkpt lat="47.55284" lon="6.69052">
        <ele>455</ele>
        <time>2014-04-13T07:44:51.057Z</time>
      </trkpt>
      <trkpt lat="47.55246" lon="6.69068">
        <ele>452</ele>
        <time>2014-04-13T07:44:55.978Z</time>
      </trkpt>
      <trkpt lat="47.55203" lon="6.69095">
        <ele>444</ele>
        <time>2014-04-13T07:45:01.032Z</time>
      </trkpt>
      <trkpt lat="47.55178" lon="6.69146">
        <ele>438</ele>
        <time>2014-04-13T07:45:05.967Z</time>
      </trkpt>
      <trkpt lat="47.55174" lon="6.69194">
        <ele>429</ele>
        <time>2014-04-13T07:45:11.043Z</time>
      </trkpt>
      <trkpt lat="47.5519" lon="6.69203">
        <ele>427</ele>
        <time>2014-04-13T07:45:15.980Z</time>
      </trkpt>
      <trkpt lat="47.55207" lon="6.69181">
        <ele>427</ele>
        <time>2014-04-13T07:45:21.025Z</time>
      </trkpt>
      <trkpt lat="47.55231" lon="6.69164">
        <ele>426</ele>
        <time>2014-04-13T07:45:25.982Z</time>
      </trkpt>
      <trkpt lat="47.55255" lon="6.69163">
        <ele>427</ele>
        <time>2014-04-13T07:45:31.061Z</time>
      </trkpt>
      <trkpt lat="47.55277" lon="6.69175">
        <ele>427</ele>
        <time>2014-04-13T07:45:35.972Z</time>
      </trkpt>
      <trkpt lat="47.55299" lon="6.69183">
        <ele>427</ele>
        <time>2014-04-13T07:45:41.054Z</time>
      </trkpt>
      <trkpt lat="47.5532" lon="6.69179">
        <ele>427</ele>
        <time>2014-04-13T07:45:45.974Z</time>
      </trkpt>
      <trkpt lat="47.55336" lon="6.69189">
        <ele>428</ele>
        <time>2014-04-13T07:45:51.051Z</time>
      </trkpt>
      <trkpt lat="47.55341" lon="6.692">
        <ele>428</ele>
        <time>2014-04-13T07:45:55.989Z</time>
      </trkpt>
      <trkpt lat="47.55345" lon="6.6921">
        <ele>428</ele>
        <time>2014-04-13T07:46:01.016Z</time>
      </trkpt>
      <trkpt lat="47.5535" lon="6.69223">
        <ele>430</ele>
        <time>2014-04-13T07:46:05.946Z</time>
      </trkpt>
      <trkpt lat="47.55357" lon="6.69237">
        <ele>431</ele>
        <time>2014-04-13T07:46:11.047Z</time>
      </trkpt>
      <trkpt lat="47.55363" lon="6.69249">
        <ele>432</ele>
        <time>2014-04-13T07:46:15.978Z</time>
      </trkpt>
      <trkpt lat="47.55371" lon="6.69259">
        <ele>433</ele>
        <time>2014-04-13T07:46:20.979Z</time>
      </trkpt>
      <trkpt lat="47.5538" lon="6.69267">
        <ele>433</ele>
        <time>2014-04-13T07:46:26.036Z</time>
      </trkpt>
      <trkpt lat="47.5539" lon="6.69273">
        <ele>434</ele>
        <time>2014-04-13T07:46:30.983Z</time>
      </trkpt>
      <trkpt lat="47.55401" lon="6.69277">
        <ele>435</ele>
        <time>2014-04-13T07:46:36.047Z</time>
      </trkpt>
      <trkpt lat="47.55413" lon="6.69281">
        <ele>436</ele>
        <time>2014-04-13T07:46:40.973Z</time>
      </trkpt>
      <trkpt lat="47.55425" lon="6.69285">
        <ele>437</ele>
        <time>2014-04-13T07:46:46.030Z</time>
      </trkpt>
      <trkpt lat="47.55437" lon="6.69288">
        <ele>438</ele>
        <time>2014-04-13T07:46:50.983Z</time>
      </trkpt>
      <trkpt lat="47.55504" lon="6.69325">
        <ele>443</ele>
        <time>2014-04-13T07:47:20.991Z</time>
      </trkpt>
      <trkpt lat="47.55518" lon="6.69333">
        <ele>443</ele>
        <time>2014-04-13T07:47:26.047Z</time>
      </trkpt>
      <trkpt lat="47.55533" lon="6.69342">
        <ele>445</ele>
        <time>2014-04-13T07:47:30.995Z</time>
      </trkpt>
      <trkpt lat="47.55548" lon="6.69351">
        <ele>445</ele>
        <time>2014-04-13T07:47:36.052Z</time>
      </trkpt>
      <trkpt lat="47.55563" lon="6.69361">
        <ele>446</ele>
        <time>2014-04-13T07:47:40.982Z</time>
      </trkpt>
      <trkpt lat="47.55577" lon="6.69377">
        <ele>446</ele>
        <time>2014-04-13T07:47:46.051Z</time>
      </trkpt>
      <trkpt lat="47.55588" lon="6.69396">
        <ele>447</ele>
        <time>2014-04-13T07:47:50.973Z</time>
      </trkpt>
      <trkpt lat="47.55596" lon="6.69414">
        <ele>448</ele>
        <time>2014-04-13T07:47:56.035Z</time>
      </trkpt>
      <trkpt lat="47.55605" lon="6.69426">
        <ele>449</ele>
        <time>2014-04-13T07:48:03.391Z</time>
      </trkpt>
      <trkpt lat="47.55616" lon="6.69434">
        <ele>449</ele>
        <time>2014-04-13T07:48:05.979Z</time>
      </trkpt>
      <trkpt lat="47.55628" lon="6.69437">
        <ele>449</ele>
        <time>2014-04-13T07:48:11.046Z</time>
      </trkpt>
      <trkpt lat="47.55643" lon="6.69437">
        <ele>450</ele>
        <time>2014-04-13T07:48:15.975Z</time>
      </trkpt>
      <trkpt lat="47.55658" lon="6.69436">
        <ele>451</ele>
        <time>2014-04-13T07:48:21.047Z</time>
      </trkpt>
      <trkpt lat="47.55675" lon="6.69436">
        <ele>452</ele>
        <time>2014-04-13T07:48:25.979Z</time>
      </trkpt>
      <trkpt lat="47.55691" lon="6.69443">
        <ele>452</ele>
        <time>2014-04-13T07:48:31.043Z</time>
      </trkpt>
      <trkpt lat="47.55703" lon="6.69432">
        <ele>452</ele>
        <time>2014-04-13T07:48:35.979Z</time>
      </trkpt>
      <trkpt lat="47.5571" lon="6.69415">
        <ele>454</ele>
        <time>2014-04-13T07:48:41.044Z</time>
      </trkpt>
      <trkpt lat="47.55718" lon="6.69398">
        <ele>454</ele>
        <time>2014-04-13T07:48:45.982Z</time>
      </trkpt>
      <trkpt lat="47.55725" lon="6.69381">
        <ele>455</ele>
        <time>2014-04-13T07:48:51.040Z</time>
      </trkpt>
      <trkpt lat="47.55733" lon="6.69364">
        <ele>454</ele>
        <time>2014-04-13T07:48:55.991Z</time>
      </trkpt>
      <trkpt lat="47.55775" lon="6.69309">
        <ele>456</ele>
        <time>2014-04-13T07:49:15.978Z</time>
      </trkpt>
      <trkpt lat="47.55787" lon="6.69297">
        <ele>457</ele>
        <time>2014-04-13T07:49:21.054Z</time>
      </trkpt>
      <trkpt lat="47.55797" lon="6.69283">
        <ele>457</ele>
        <time>2014-04-13T07:49:25.988Z</time>
      </trkpt>
      <trkpt lat="47.55805" lon="6.69266">
        <ele>458</ele>
        <time>2014-04-13T07:49:31.050Z</time>
      </trkpt>
      <trkpt lat="47.55814" lon="6.69249">
        <ele>458</ele>
        <time>2014-04-13T07:49:35.996Z</time>
      </trkpt>
      <trkpt lat="47.55823" lon="6.69231">
        <ele>459</ele>
        <time>2014-04-13T07:49:41.050Z</time>
      </trkpt>
      <trkpt lat="47.55834" lon="6.69214">
        <ele>459</ele>
        <time>2014-04-13T07:49:45.989Z</time>
      </trkpt>
      <trkpt lat="47.55846" lon="6.69195">
        <ele>459</ele>
        <time>2014-04-13T07:49:51.053Z</time>
      </trkpt>
      <trkpt lat="47.5586" lon="6.69178">
        <ele>460</ele>
        <time>2014-04-13T07:49:55.979Z</time>
      </trkpt>
      <trkpt lat="47.55873" lon="6.69163">
        <ele>460</ele>
        <time>2014-04-13T07:50:04.066Z</time>
      </trkpt>
      <trkpt lat="47.55887" lon="6.6915">
        <ele>461</ele>
        <time>2014-04-13T07:50:05.985Z</time>
      </trkpt>
      <trkpt lat="47.559" lon="6.69145">
        <ele>463</ele>
        <time>2014-04-13T07:50:11.037Z</time>
      </trkpt>
      <trkpt lat="47.55914" lon="6.69147">
        <ele>465</ele>
        <time>2014-04-13T07:50:15.973Z</time>
      </trkpt>
      <trkpt lat="47.55926" lon="6.69156">
        <ele>467</ele>
        <time>2014-04-13T07:50:21.043Z</time>
      </trkpt>
      <trkpt lat="47.55935" lon="6.6917">
        <ele>467</ele>
        <time>2014-04-13T07:50:25.985Z</time>
      </trkpt>
      <trkpt lat="47.55938" lon="6.69185">
        <ele>468</ele>
        <time>2014-04-13T07:50:30.975Z</time>
      </trkpt>
      <trkpt lat="47.55939" lon="6.69199">
        <ele>470</ele>
        <time>2014-04-13T07:50:36.030Z</time>
      </trkpt>
      <trkpt lat="47.55942" lon="6.69215">
        <ele>471</ele>
        <time>2014-04-13T07:50:40.985Z</time>
      </trkpt>
      <trkpt lat="47.55948" lon="6.6923">
        <ele>471</ele>
        <time>2014-04-13T07:50:46.057Z</time>
      </trkpt>
      <trkpt lat="47.55951" lon="6.69234">
        <ele>472</ele>
        <time>2014-04-13T07:50:50.985Z</time>
      </trkpt>
      <trkpt lat="47.55952" lon="6.69237">
        <ele>471</ele>
        <time>2014-04-13T07:50:56.049Z</time>
      </trkpt>
      <trkpt lat="47.55951" lon="6.69237">
        <ele>471</ele>
        <time>2014-04-13T07:51:20.983Z</time>
      </trkpt>
      <trkpt lat="47.5595" lon="6.69236">
        <ele>470</ele>
        <time>2014-04-13T07:51:26.048Z</time>
      </trkpt>
      <trkpt lat="47.55951" lon="6.69239">
        <ele>470</ele>
        <time>2014-04-13T07:51:30.975Z</time>
      </trkpt>
      <trkpt lat="47.55952" lon="6.69236">
        <ele>471</ele>
        <time>2014-04-13T07:51:36.036Z</time>
      </trkpt>
      <trkpt lat="47.55954" lon="6.69236">
        <ele>472</ele>
        <time>2014-04-13T07:51:40.984Z</time>
      </trkpt>
      <trkpt lat="47.55955" lon="6.69238">
        <ele>473</ele>
        <time>2014-04-13T07:51:46.065Z</time>
      </trkpt>
      <trkpt lat="47.55955" lon="6.69235">
        <ele>473</ele>
        <time>2014-04-13T07:51:50.971Z</time>
      </trkpt>
      <trkpt lat="47.55955" lon="6.69234">
        <ele>473</ele>
        <time>2014-04-13T07:51:56.052Z</time>
      </trkpt>
      <trkpt lat="47.55955" lon="6.69235">
        <ele>473</ele>
        <time>2014-04-13T07:52:03.532Z</time>
      </trkpt>
      <trkpt lat="47.55955" lon="6.69235">
        <ele>473</ele>
        <time>2014-04-13T07:52:06.042Z</time>
      </trkpt>
      <trkpt lat="47.55954" lon="6.69235">
        <ele>473</ele>
        <time>2014-04-13T07:52:10.989Z</time>
      </trkpt>
      <trkpt lat="47.55954" lon="6.69236">
        <ele>471</ele>
        <time>2014-04-13T07:52:16.046Z</time>
      </trkpt>
      <trkpt lat="47.55956" lon="6.69235">
        <ele>471</ele>
        <time>2014-04-13T07:52:20.985Z</time>
      </trkpt>
      <trkpt lat="47.55959" lon="6.69236">
        <ele>471</ele>
        <time>2014-04-13T07:52:26.056Z</time>
      </trkpt>
      <trkpt lat="47.55959" lon="6.69233">
        <ele>471</ele>
        <time>2014-04-13T07:52:30.989Z</time>
      </trkpt>
      <trkpt lat="47.55959" lon="6.69233">
        <ele>471</ele>
        <time>2014-04-13T07:52:35.980Z</time>
      </trkpt>
      <trkpt lat="47.55959" lon="6.69233">
        <ele>471</ele>
        <time>2014-04-13T07:52:41.052Z</time>
      </trkpt>
      <trkpt lat="47.55959" lon="6.69233">
        <ele>471</ele>
        <time>2014-04-13T07:52:45.991Z</time>
      </trkpt>
      <trkpt lat="47.55958" lon="6.69234">
        <ele>471</ele>
        <time>2014-04-13T07:52:51.068Z</time>
      </trkpt>
      <trkpt lat="47.55958" lon="6.69233">
        <ele>470</ele>
        <time>2014-04-13T07:52:55.982Z</time>
      </trkpt>
      <trkpt lat="47.55956" lon="6.69231">
        <ele>471</ele>
        <time>2014-04-13T07:53:01.050Z</time>
      </trkpt>
      <trkpt lat="47.55956" lon="6.69235">
        <ele>473</ele>
        <time>2014-04-13T07:53:05.971Z</time>
      </trkpt>
      <trkpt lat="47.55956" lon="6.69232">
        <ele>472</ele>
        <time>2014-04-13T07:53:11.038Z</time>
      </trkpt>
      <trkpt lat="47.55956" lon="6.69231">
        <ele>472</ele>
        <time>2014-04-13T07:53:15.973Z</time>
      </trkpt>
      <trkpt lat="47.55957" lon="6.69229">
        <ele>472</ele>
        <time>2014-04-13T07:53:21.037Z</time>
      </trkpt>
      <trkpt lat="47.55957" lon="6.69229">
        <ele>472</ele>
        <time>2014-04-13T07:53:25.988Z</time>
      </trkpt>
      <trkpt lat="47.55957" lon="6.69236">
        <ele>471</ele>
        <time>2014-04-13T07:53:35.982Z</time>
      </trkpt>
      <trkpt lat="47.55956" lon="6.6924">
        <ele>470</ele>
        <time>2014-04-13T07:53:41.044Z</time>
      </trkpt>
      <trkpt lat="47.55956" lon="6.69241">
        <ele>471</ele>
        <time>2014-04-13T07:53:45.982Z</time>
      </trkpt>
      <trkpt lat="47.55958" lon="6.69245">
        <ele>470</ele>
        <time>2014-04-13T07:53:51.038Z</time>
      </trkpt>
      <trkpt lat="47.5596" lon="6.69244">
        <ele>469</ele>
        <time>2014-04-13T07:53:55.982Z</time>
      </trkpt>
      <trkpt lat="47.5596" lon="6.69244">
        <ele>469</ele>
        <time>2014-04-13T07:54:01.043Z</time>
      </trkpt>
      <trkpt lat="47.5596" lon="6.69244">
        <ele>469</ele>
        <time>2014-04-13T07:54:05.986Z</time>
      </trkpt>
      <trkpt lat="47.5596" lon="6.69244">
        <ele>469</ele>
        <time>2014-04-13T07:54:11.060Z</time>
      </trkpt>
      <trkpt lat="47.5596" lon="6.69244">
        <ele>469</ele>
        <time>2014-04-13T07:54:15.975Z</time>
      </trkpt>
      <trkpt lat="47.5596" lon="6.6924">
        <ele>469</ele>
        <time>2014-04-13T07:54:21.161Z</time>
      </trkpt>
      <trkpt lat="47.55962" lon="6.69238">
        <ele>468</ele>
        <time>2014-04-13T07:54:25.988Z</time>
      </trkpt>
      <trkpt lat="47.55961" lon="6.6924">
        <ele>468</ele>
        <time>2014-04-13T07:54:31.018Z</time>
      </trkpt>
      <trkpt lat="47.55962" lon="6.69239">
        <ele>467</ele>
        <time>2014-04-13T07:54:35.976Z</time>
      </trkpt>
      <trkpt lat="47.55962" lon="6.69237">
        <ele>467</ele>
        <time>2014-04-13T07:54:41.059Z</time>
      </trkpt>
      <trkpt lat="47.55961" lon="6.69235">
        <ele>468</ele>
        <time>2014-04-13T07:54:45.992Z</time>
      </trkpt>
      <trkpt lat="47.55959" lon="6.69235">
        <ele>469</ele>
        <time>2014-04-13T07:54:51.058Z</time>
      </trkpt>
      <trkpt lat="47.55959" lon="6.69237">
        <ele>470</ele>
        <time>2014-04-13T07:54:55.977Z</time>
      </trkpt>
      <trkpt lat="47.55954" lon="6.69238">
        <ele>469</ele>
        <time>2014-04-13T07:55:16.060Z</time>
      </trkpt>
      <trkpt lat="47.55953" lon="6.69239">
        <ele>469</ele>
        <time>2014-04-13T07:55:20.978Z</time>
      </trkpt>
      <trkpt lat="47.55953" lon="6.6924">
        <ele>469</ele>
        <time>2014-04-13T07:55:26.039Z</time>
      </trkpt>
      <trkpt lat="47.55953" lon="6.69241">
        <ele>469</ele>
        <time>2014-04-13T07:55:30.975Z</time>
      </trkpt>
      <trkpt lat="47.55952" lon="6.69239">
        <ele>470</ele>
        <time>2014-04-13T07:55:36.438Z</time>
      </trkpt>
      <trkpt lat="47.55954" lon="6.69239">
        <ele>470</ele>
        <time>2014-04-13T07:55:40.974Z</time>
      </trkpt>
      <trkpt lat="47.55956" lon="6.69238">
        <ele>472</ele>
        <time>2014-04-13T07:55:46.024Z</time>
      </trkpt>
      <trkpt lat="47.55956" lon="6.69239">
        <ele>473</ele>
        <time>2014-04-13T07:55:50.981Z</time>
      </trkpt>
      <trkpt lat="47.55958" lon="6.69238">
        <ele>473</ele>
        <time>2014-04-13T07:55:56.051Z</time>
      </trkpt>
      <trkpt lat="47.55961" lon="6.69239">
        <ele>474</ele>
        <time>2014-04-13T07:56:02.706Z</time>
      </trkpt>
      <trkpt lat="47.55965" lon="6.69238">
        <ele>474</ele>
        <time>2014-04-13T07:56:06.048Z</time>
      </trkpt>
      <trkpt lat="47.55965" lon="6.69236">
        <ele>474</ele>
        <time>2014-04-13T07:56:10.983Z</time>
      </trkpt>
      <trkpt lat="47.55965" lon="6.69233">
        <ele>475</ele>
        <time>2014-04-13T07:56:16.049Z</time>
      </trkpt>
      <trkpt lat="47.55961" lon="6.69233">
        <ele>474</ele>
        <time>2014-04-13T07:56:20.974Z</time>
      </trkpt>
      <trkpt lat="47.55962" lon="6.69232">
        <ele>474</ele>
        <time>2014-04-13T07:56:26.047Z</time>
      </trkpt>
      <trkpt lat="47.55962" lon="6.69232">
        <ele>474</ele>
        <time>2014-04-13T07:56:30.985Z</time>
      </trkpt>
      <trkpt lat="47.55962" lon="6.69232">
        <ele>474</ele>
        <time>2014-04-13T07:56:36.057Z</time>
      </trkpt>
      <trkpt lat="47.55962" lon="6.69233">
        <ele>474</ele>
        <time>2014-04-13T07:56:40.976Z</time>
      </trkpt>
      <trkpt lat="47.55963" lon="6.69233">
        <ele>473</ele>
        <time>2014-04-13T07:56:46.048Z</time>
      </trkpt>
      <trkpt lat="47.55963" lon="6.69233">
        <ele>473</ele>
        <time>2014-04-13T07:56:50.981Z</time>
      </trkpt>
      <trkpt lat="47.55963" lon="6.69233">
        <ele>473</ele>
        <time>2014-04-13T07:56:56.046Z</time>
      </trkpt>
      <trkpt lat="47.5597" lon="6.6924">
        <ele>473</ele>
        <time>2014-04-13T07:57:05.978Z</time>
      </trkpt>
      <trkpt lat="47.55968" lon="6.6925">
        <ele>473</ele>
        <time>2014-04-13T07:57:11.057Z</time>
      </trkpt>
      <trkpt lat="47.55967" lon="6.69266">
        <ele>474</ele>
        <time>2014-04-13T07:57:15.980Z</time>
      </trkpt>
      <trkpt lat="47.55965" lon="6.69285">
        <ele>475</ele>
        <time>2014-04-13T07:57:21.062Z</time>
      </trkpt>
      <trkpt lat="47.55965" lon="6.6931">
        <ele>477</ele>
        <time>2014-04-13T07:57:25.986Z</time>
      </trkpt>
      <trkpt lat="47.55964" lon="6.69334">
        <ele>477</ele>
        <time>2014-04-13T07:57:31.058Z</time>
      </trkpt>
      <trkpt lat="47.55965" lon="6.69367">
        <ele>477</ele>
        <time>2014-04-13T07:57:35.980Z</time>
      </trkpt>
      <trkpt lat="47.55967" lon="6.69403">
        <ele>477</ele>
        <time>2014-04-13T07:57:41.048Z</time>
      </trkpt>
      <trkpt lat="47.55971" lon="6.69438">
        <ele>476</ele>
        <time>2014-04-13T07:57:45.980Z</time>
      </trkpt>
      <trkpt lat="47.55976" lon="6.69471">
        <ele>477</ele>
        <time>2014-04-13T07:57:51.048Z</time>
      </trkpt>
      <trkpt lat="47.55982" lon="6.69505">
        <ele>476</ele>
        <time>2014-04-13T07:57:55.982Z</time>
      </trkpt>
      <trkpt lat="47.55999" lon="6.69525">
        <ele>477</ele>
        <time>2014-04-13T07:58:01.033Z</time>
      </trkpt>
      <trkpt lat="47.56012" lon="6.69545">
        <ele>477</ele>
        <time>2014-04-13T07:58:05.995Z</time>
      </trkpt>
      <trkpt lat="47.56022" lon="6.6957">
        <ele>477</ele>
        <time>2014-04-13T07:58:11.057Z</time>
      </trkpt>
      <trkpt lat="47.56033" lon="6.69593">
        <ele>478</ele>
        <time>2014-04-13T07:58:15.975Z</time>
      </trkpt>
      <trkpt lat="47.56048" lon="6.69614">
        <ele>478</ele>
        <time>2014-04-13T07:58:21.032Z</time>
      </trkpt>
      <trkpt lat="47.56061" lon="6.69635">
        <ele>478</ele>
        <time>2014-04-13T07:58:25.971Z</time>
      </trkpt>
      <trkpt lat="47.56072" lon="6.69651">
        <ele>479</ele>
        <time>2014-04-13T07:58:30.968Z</time>
      </trkpt>
      <trkpt lat="47.5608" lon="6.69642">
        <ele>479</ele>
        <time>2014-04-13T07:58:36.031Z</time>
      </trkpt>
      <trkpt lat="47.56086" lon="6.69628">
        <ele>480</ele>
        <time>2014-04-13T07:58:40.991Z</time>
      </trkpt>
      <trkpt lat="47.56091" lon="6.69615">
        <ele>482</ele>
        <time>2014-04-13T07:58:46.059Z</time>
      </trkpt>
      <trkpt lat="47.56097" lon="6.69602">
        <ele>483</ele>
        <time>2014-04-13T07:58:50.984Z</time>
      </trkpt>
      <trkpt lat="47.56103" lon="6.69588">
        <ele>484</ele>
        <time>2014-04-13T07:58:56.048Z</time>
      </trkpt>
      <trkpt lat="47.56131" lon="6.69531">
        <ele>487</ele>
        <time>2014-04-13T07:59:16.043Z</time>
      </trkpt>
      <trkpt lat="47.56139" lon="6.69516">
        <ele>487</ele>
        <time>2014-04-13T07:59:20.983Z</time>
      </trkpt>
      <trkpt lat="47.56148" lon="6.69502">
        <ele>488</ele>
        <time>2014-04-13T07:59:26.026Z</time>
      </trkpt>
      <trkpt lat="47.56157" lon="6.69486">
        <ele>488</ele>
        <time>2014-04-13T07:59:30.992Z</time>
      </trkpt>
      <trkpt lat="47.56167" lon="6.69472">
        <ele>489</ele>
        <time>2014-04-13T07:59:36.064Z</time>
      </trkpt>
      <trkpt lat="47.56176" lon="6.69455">
        <ele>489</ele>
        <time>2014-04-13T07:59:40.975Z</time>
      </trkpt>
      <trkpt lat="47.56186" lon="6.69438">
        <ele>490</ele>
        <time>2014-04-13T07:59:45.991Z</time>
      </trkpt>
      <trkpt lat="47.562" lon="6.69441">
        <ele>492</ele>
        <time>2014-04-13T07:59:51.057Z</time>
      </trkpt>
      <trkpt lat="47.5621" lon="6.69454">
        <ele>493</ele>
        <time>2014-04-13T07:59:55.988Z</time>
      </trkpt>
      <trkpt lat="47.56222" lon="6.69464">
        <ele>495</ele>
        <time>2014-04-13T08:00:01.046Z</time>
      </trkpt>
      <trkpt lat="47.56236" lon="6.69476">
        <ele>496</ele>
        <time>2014-04-13T08:00:05.973Z</time>
      </trkpt>
      <trkpt lat="47.5625" lon="6.69492">
        <ele>498</ele>
        <time>2014-04-13T08:00:11.036Z</time>
      </trkpt>
      <trkpt lat="47.56266" lon="6.69518">
        <ele>498</ele>
        <time>2014-04-13T08:00:15.974Z</time>
      </trkpt>
      <trkpt lat="47.56282" lon="6.69546">
        <ele>498</ele>
        <time>2014-04-13T08:00:21.047Z</time>
      </trkpt>
      <trkpt lat="47.56303" lon="6.69575">
        <ele>496</ele>
        <time>2014-04-13T08:00:25.990Z</time>
      </trkpt>
      <trkpt lat="47.56334" lon="6.69605">
        <ele>492</ele>
        <time>2014-04-13T08:00:31.047Z</time>
      </trkpt>
      <trkpt lat="47.5637" lon="6.69641">
        <ele>488</ele>
        <time>2014-04-13T08:00:35.969Z</time>
      </trkpt>
      <trkpt lat="47.56404" lon="6.69698">
        <ele>480</ele>
        <time>2014-04-13T08:00:41.023Z</time>
      </trkpt>
      <trkpt lat="47.56427" lon="6.6977">
        <ele>475</ele>
        <time>2014-04-13T08:00:45.973Z</time>
      </trkpt>
      <trkpt lat="47.56449" lon="6.69842">
        <ele>469</ele>
        <time>2014-04-13T08:00:51.040Z</time>
      </trkpt>
      <trkpt lat="47.56466" lon="6.69898">
        <ele>464</ele>
        <time>2014-04-13T08:00:55.962Z</time>
      </trkpt>
      <trkpt lat="47.56477" lon="6.6991">
        <ele>463</ele>
        <time>2014-04-13T08:01:02.604Z</time>
      </trkpt>
      <trkpt lat="47.56484" lon="6.69896">
        <ele>463</ele>
        <time>2014-04-13T08:01:06.022Z</time>
      </trkpt>
      <trkpt lat="47.56493" lon="6.69884">
        <ele>463</ele>
        <time>2014-04-13T08:01:10.967Z</time>
      </trkpt>
      <trkpt lat="47.56502" lon="6.69873">
        <ele>465</ele>
        <time>2014-04-13T08:01:16.046Z</time>
      </trkpt>
      <trkpt lat="47.56512" lon="6.69862">
        <ele>465</ele>
        <time>2014-04-13T08:01:20.981Z</time>
      </trkpt>
      <trkpt lat="47.56521" lon="6.69851">
        <ele>466</ele>
        <time>2014-04-13T08:01:26.045Z</time>
      </trkpt>
      <trkpt lat="47.5653" lon="6.69841">
        <ele>467</ele>
        <time>2014-04-13T08:01:30.991Z</time>
      </trkpt>
      <trkpt lat="47.56537" lon="6.69831">
        <ele>468</ele>
        <time>2014-04-13T08:01:35.974Z</time>
      </trkpt>
      <trkpt lat="47.56544" lon="6.69818">
        <ele>469</ele>
        <time>2014-04-13T08:01:41.050Z</time>
      </trkpt>
      <trkpt lat="47.56548" lon="6.69803">
        <ele>470</ele>
        <time>2014-04-13T08:01:45.996Z</time>
      </trkpt>
      <trkpt lat="47.56552" lon="6.69788">
        <ele>470</ele>
        <time>2014-04-13T08:01:51.058Z</time>
      </trkpt>
      <trkpt lat="47.56555" lon="6.69774">
        <ele>471</ele>
        <time>2014-04-13T08:01:55.990Z</time>
      </trkpt>
      <trkpt lat="47.56571" lon="6.69739">
        <ele>473</ele>
        <time>2014-04-13T08:02:11.048Z</time>
      </trkpt>
      <trkpt lat="47.56578" lon="6.69727">
        <ele>474</ele>
        <time>2014-04-13T08:02:15.988Z</time>
      </trkpt>
      <trkpt lat="47.56583" lon="6.69716">
        <ele>475</ele>
        <time>2014-04-13T08:02:21.058Z</time>
      </trkpt>
      <trkpt lat="47.56589" lon="6.69704">
        <ele>476</ele>
        <time>2014-04-13T08:02:25.975Z</time>
      </trkpt>
      <trkpt lat="47.56593" lon="6.69691">
        <ele>477</ele>
        <time>2014-04-13T08:02:31.048Z</time>
      </trkpt>
      <trkpt lat="47.56598" lon="6.6968">
        <ele>478</ele>
        <time>2014-04-13T08:02:35.983Z</time>
      </trkpt>
      <trkpt lat="47.56602" lon="6.69668">
        <ele>479</ele>
        <time>2014-04-13T08:02:41.046Z</time>
      </trkpt>
      <trkpt lat="47.56608" lon="6.69663">
        <ele>480</ele>
        <time>2014-04-13T08:02:45.975Z</time>
      </trkpt>
      <trkpt lat="47.56618" lon="6.6967">
        <ele>481</ele>
        <time>2014-04-13T08:02:51.047Z</time>
      </trkpt>
      <trkpt lat="47.5663" lon="6.69682">
        <ele>484</ele>
        <time>2014-04-13T08:02:55.944Z</time>
      </trkpt>
      <trkpt lat="47.56644" lon="6.69695">
        <ele>486</ele>
        <time>2014-04-13T08:03:01.029Z</time>
      </trkpt>
      <trkpt lat="47.56658" lon="6.69705">
        <ele>489</ele>
        <time>2014-04-13T08:03:05.966Z</time>
      </trkpt>
      <trkpt lat="47.56671" lon="6.6972">
        <ele>493</ele>
        <time>2014-04-13T08:03:11.017Z</time>
      </trkpt>
      <trkpt lat="47.56686" lon="6.69734">
        <ele>493</ele>
        <time>2014-04-13T08:03:15.983Z</time>
      </trkpt>
      <trkpt lat="47.5671" lon="6.69763">
        <ele>493</ele>
        <time>2014-04-13T08:03:21.047Z</time>
      </trkpt>
      <trkpt lat="47.56734" lon="6.6979">
        <ele>494</ele>
        <time>2014-04-13T08:03:25.984Z</time>
      </trkpt>
      <trkpt lat="47.56752" lon="6.69813">
        <ele>494</ele>
        <time>2014-04-13T08:03:31.046Z</time>
      </trkpt>
      <trkpt lat="47.56781" lon="6.69837">
        <ele>491</ele>
        <time>2014-04-13T08:03:35.975Z</time>
      </trkpt>
      <trkpt lat="47.56803" lon="6.69872">
        <ele>489</ele>
        <time>2014-04-13T08:03:41.036Z</time>
      </trkpt>
      <trkpt lat="47.56825" lon="6.69935">
        <ele>483</ele>
        <time>2014-04-13T08:03:45.982Z</time>
      </trkpt>
      <trkpt lat="47.56846" lon="6.69995">
        <ele>477</ele>
        <time>2014-04-13T08:03:51.063Z</time>
      </trkpt>
      <trkpt lat="47.5686" lon="6.70042">
        <ele>476</ele>
        <time>2014-04-13T08:03:56.028Z</time>
      </trkpt>
      <trkpt lat="47.56872" lon="6.7008">
        <ele>475</ele>
        <time>2014-04-13T08:04:00.945Z</time>
      </trkpt>
      <trkpt lat="47.56876" lon="6.70113">
        <ele>475</ele>
        <time>2014-04-13T08:04:06.029Z</time>
      </trkpt>
      <trkpt lat="47.56857" lon="6.70129">
        <ele>474</ele>
        <time>2014-04-13T08:04:10.984Z</time>
      </trkpt>
      <trkpt lat="47.56833" lon="6.70151">
        <ele>474</ele>
        <time>2014-04-13T08:04:16.069Z</time>
      </trkpt>
      <trkpt lat="47.56809" lon="6.70178">
        <ele>473</ele>
        <time>2014-04-13T08:04:20.974Z</time>
      </trkpt>
      <trkpt lat="47.56784" lon="6.70214">
        <ele>472</ele>
        <time>2014-04-13T08:04:26.049Z</time>
      </trkpt>
      <trkpt lat="47.56761" lon="6.7026">
        <ele>469</ele>
        <time>2014-04-13T08:04:30.986Z</time>
      </trkpt>
      <trkpt lat="47.56737" lon="6.70307">
        <ele>466</ele>
        <time>2014-04-13T08:04:36.045Z</time>
      </trkpt>
      <trkpt lat="47.56711" lon="6.70349">
        <ele>465</ele>
        <time>2014-04-13T08:04:40.973Z</time>
      </trkpt>
      <trkpt lat="47.56693" lon="6.70383">
        <ele>463</ele>
        <time>2014-04-13T08:04:46.031Z</time>
      </trkpt>
      <trkpt lat="47.56712" lon="6.70405">
        <ele>462</ele>
        <time>2014-04-13T08:04:50.976Z</time>
      </trkpt>
      <trkpt lat="47.56728" lon="6.70426">
        <ele>462</ele>
        <time>2014-04-13T08:04:56.124Z</time>
      </trkpt>
      <trkpt lat="47.56799" lon="6.70505">
        <ele>465</ele>
        <time>2014-04-13T08:05:21.050Z</time>
      </trkpt>
      <trkpt lat="47.56813" lon="6.70498">
        <ele>466</ele>
        <time>2014-04-13T08:05:25.983Z</time>
      </trkpt>
      <trkpt lat="47.56825" lon="6.70492">
        <ele>468</ele>
        <time>2014-04-13T08:05:31.055Z</time>
      </trkpt>
      <trkpt lat="47.56836" lon="6.70493">
        <ele>469</ele>
        <time>2014-04-13T08:05:35.973Z</time>
      </trkpt>
      <trkpt lat="47.56845" lon="6.70499">
        <ele>471</ele>
        <time>2014-04-13T08:05:41.088Z</time>
      </trkpt>
      <trkpt lat="47.56854" lon="6.70504">
        <ele>472</ele>
        <time>2014-04-13T08:05:46.675Z</time>
      </trkpt>
      <trkpt lat="47.5686" lon="6.70508">
        <ele>474</ele>
        <time>2014-04-13T08:05:51.030Z</time>
      </trkpt>
      <trkpt lat="47.56868" lon="6.70517">
        <ele>475</ele>
        <time>2014-04-13T08:05:55.963Z</time>
      </trkpt>
      <trkpt lat="47.56876" lon="6.70523">
        <ele>478</ele>
        <time>2014-04-13T08:06:02.767Z</time>
      </trkpt>
      <trkpt lat="47.56886" lon="6.70527">
        <ele>479</ele>
        <time>2014-04-13T08:06:05.975Z</time>
      </trkpt>
      <trkpt lat="47.56893" lon="6.70535">
        <ele>481</ele>
        <time>2014-04-13T08:06:11.047Z</time>
      </trkpt>
      <trkpt lat="47.56901" lon="6.7054">
        <ele>482</ele>
        <time>2014-04-13T08:06:15.976Z</time>
      </trkpt>
      <trkpt lat="47.56911" lon="6.70547">
        <ele>484</ele>
        <time>2014-04-13T08:06:21.035Z</time>
      </trkpt>
      <trkpt lat="47.56919" lon="6.70552">
        <ele>486</ele>
        <time>2014-04-13T08:06:25.978Z</time>
      </trkpt>
      <trkpt lat="47.56927" lon="6.70559">
        <ele>488</ele>
        <time>2014-04-13T08:06:31.041Z</time>
      </trkpt>
      <trkpt lat="47.56936" lon="6.70564">
        <ele>489</ele>
        <time>2014-04-13T08:06:35.984Z</time>
      </trkpt>
      <trkpt lat="47.56945" lon="6.7057">
        <ele>491</ele>
        <time>2014-04-13T08:06:41.050Z</time>
      </trkpt>
      <trkpt lat="47.56956" lon="6.70581">
        <ele>492</ele>
        <time>2014-04-13T08:06:45.974Z</time>
      </trkpt>
      <trkpt lat="47.56965" lon="6.70589">
        <ele>493</ele>
        <time>2014-04-13T08:06:51.029Z</time>
      </trkpt>
      <trkpt lat="47.56973" lon="6.70596">
        <ele>495</ele>
        <time>2014-04-13T08:06:55.984Z</time>
      </trkpt>
      <trkpt lat="47.56983" lon="6.70605">
        <ele>496</ele>
        <time>2014-04-13T08:07:01.063Z</time>
      </trkpt>
      <trkpt lat="47.56992" lon="6.7061">
        <ele>497</ele>
        <time>2014-04-13T08:07:06.016Z</time>
      </trkpt>
      <trkpt lat="47.57001" lon="6.7062">
        <ele>498</ele>
        <time>2014-04-13T08:07:10.988Z</time>
      </trkpt>
      <trkpt lat="47.57011" lon="6.7063">
        <ele>499</ele>
        <time>2014-04-13T08:07:16.059Z</time>
      </trkpt>
      <trkpt lat="47.57021" lon="6.70637">
        <ele>501</ele>
        <time>2014-04-13T08:07:20.981Z</time>
      </trkpt>
      <trkpt lat="47.57029" lon="6.70641">
        <ele>503</ele>
        <time>2014-04-13T08:07:26.051Z</time>
      </trkpt>
      <trkpt lat="47.57037" lon="6.70647">
        <ele>504</ele>
        <time>2014-04-13T08:07:30.972Z</time>
      </trkpt>
      <trkpt lat="47.57047" lon="6.70653">
        <ele>504</ele>
        <time>2014-04-13T08:07:36.047Z</time>
      </trkpt>
      <trkpt lat="47.57057" lon="6.70659">
        <ele>505</ele>
        <time>2014-04-13T08:07:40.982Z</time>
      </trkpt>
      <trkpt lat="47.57065" lon="6.70667">
        <ele>507</ele>
        <time>2014-04-13T08:07:46.029Z</time>
      </trkpt>
      <trkpt lat="47.57073" lon="6.70676">
        <ele>509</ele>
        <time>2014-04-13T08:07:50.968Z</time>
      </trkpt>
      <trkpt lat="47.5708" lon="6.7068">
        <ele>510</ele>
        <time>2014-04-13T08:07:56.032Z</time>
      </trkpt>
      <trkpt lat="47.57119" lon="6.70711">
        <ele>516</ele>
        <time>2014-04-13T08:08:16.050Z</time>
      </trkpt>
      <trkpt lat="47.57126" lon="6.70716">
        <ele>517</ele>
        <time>2014-04-13T08:08:20.976Z</time>
      </trkpt>
      <trkpt lat="47.57135" lon="6.70719">
        <ele>517</ele>
        <time>2014-04-13T08:08:26.050Z</time>
      </trkpt>
      <trkpt lat="47.57143" lon="6.70724">
        <ele>517</ele>
        <time>2014-04-13T08:08:30.981Z</time>
      </trkpt>
      <trkpt lat="47.57152" lon="6.70734">
        <ele>517</ele>
        <time>2014-04-13T08:08:36.040Z</time>
      </trkpt>
      <trkpt lat="47.57162" lon="6.70746">
        <ele>518</ele>
        <time>2014-04-13T08:08:40.992Z</time>
      </trkpt>
      <trkpt lat="47.57172" lon="6.7076">
        <ele>519</ele>
        <time>2014-04-13T08:08:46.058Z</time>
      </trkpt>
      <trkpt lat="47.57181" lon="6.70765">
        <ele>521</ele>
        <time>2014-04-13T08:08:50.987Z</time>
      </trkpt>
      <trkpt lat="47.5719" lon="6.7077">
        <ele>521</ele>
        <time>2014-04-13T08:08:55.989Z</time>
      </trkpt>
      <trkpt lat="47.57198" lon="6.70778">
        <ele>521</ele>
        <time>2014-04-13T08:09:02.869Z</time>
      </trkpt>
      <trkpt lat="47.57206" lon="6.70789">
        <ele>522</ele>
        <time>2014-04-13T08:09:06.045Z</time>
      </trkpt>
      <trkpt lat="47.57213" lon="6.70797">
        <ele>523</ele>
        <time>2014-04-13T08:09:10.991Z</time>
      </trkpt>
      <trkpt lat="47.57224" lon="6.70812">
        <ele>523</ele>
        <time>2014-04-13T08:09:16.148Z</time>
      </trkpt>
      <trkpt lat="47.57232" lon="6.70821">
        <ele>525</ele>
        <time>2014-04-13T08:09:21.052Z</time>
      </trkpt>
      <trkpt lat="47.57241" lon="6.7083">
        <ele>528</ele>
        <time>2014-04-13T08:09:25.988Z</time>
      </trkpt>
      <trkpt lat="47.57251" lon="6.70837">
        <ele>529</ele>
        <time>2014-04-13T08:09:31.061Z</time>
      </trkpt>
      <trkpt lat="47.57262" lon="6.70846">
        <ele>530</ele>
        <time>2014-04-13T08:09:35.975Z</time>
      </trkpt>
      <trkpt lat="47.57271" lon="6.70855">
        <ele>531</ele>
        <time>2014-04-13T08:09:41.021Z</time>
      </trkpt>
      <trkpt lat="47.57281" lon="6.70862">
        <ele>532</ele>
        <time>2014-04-13T08:09:46.077Z</time>
      </trkpt>
      <trkpt lat="47.57293" lon="6.70872">
        <ele>531</ele>
        <time>2014-04-13T08:09:51.093Z</time>
      </trkpt>
      <trkpt lat="47.57304" lon="6.70887">
        <ele>532</ele>
        <time>2014-04-13T08:09:56.150Z</time>
      </trkpt>
      <trkpt lat="47.57356" lon="6.70934">
        <ele>536</ele>
        <time>2014-04-13T08:10:16.149Z</time>
      </trkpt>
      <trkpt lat="47.57373" lon="6.70958">
        <ele>537</ele>
        <time>2014-04-13T08:10:21.156Z</time>
      </trkpt>
      <trkpt lat="47.57393" lon="6.7098">
        <ele>538</ele>
        <time>2014-04-13T08:10:26.078Z</time>
      </trkpt>
      <trkpt lat="47.57423" lon="6.7101">
        <ele>537</ele>
        <time>2014-04-13T08:10:31.187Z</time>
      </trkpt>
      <trkpt lat="47.57452" lon="6.71037">
        <ele>535</ele>
        <time>2014-04-13T08:10:36.080Z</time>
      </trkpt>
      <trkpt lat="47.57467" lon="6.71069">
        <ele>534</ele>
        <time>2014-04-13T08:10:41.081Z</time>
      </trkpt>
      <trkpt lat="47.57493" lon="6.71116">
        <ele>531</ele>
        <time>2014-04-13T08:10:46.153Z</time>
      </trkpt>
      <trkpt lat="47.57494" lon="6.71146">
        <ele>530</ele>
        <time>2014-04-13T08:10:51.079Z</time>
      </trkpt>
      <trkpt lat="47.57488" lon="6.71173">
        <ele>527</ele>
        <time>2014-04-13T08:10:56.150Z</time>
      </trkpt>
      <trkpt lat="47.57471" lon="6.71211">
        <ele>525</ele>
        <time>2014-04-13T08:11:06.120Z</time>
      </trkpt>
      <trkpt lat="47.57465" lon="6.71249">
        <ele>524</ele>
        <time>2014-04-13T08:11:11.083Z</time>
      </trkpt>
      <trkpt lat="47.57474" lon="6.71289">
        <ele>524</ele>
        <time>2014-04-13T08:11:16.083Z</time>
      </trkpt>
      <trkpt lat="47.57499" lon="6.71328">
        <ele>521</ele>
        <time>2014-04-13T08:11:21.076Z</time>
      </trkpt>
      <trkpt lat="47.57514" lon="6.71374">
        <ele>520</ele>
        <time>2014-04-13T08:11:26.140Z</time>
      </trkpt>
      <trkpt lat="47.57514" lon="6.71409">
        <ele>519</ele>
        <time>2014-04-13T08:11:31.076Z</time>
      </trkpt>
      <trkpt lat="47.57514" lon="6.71429">
        <ele>516</ele>
        <time>2014-04-13T08:11:36.146Z</time>
      </trkpt>
      <trkpt lat="47.57514" lon="6.71436">
        <ele>512</ele>
        <time>2014-04-13T08:11:41.091Z</time>
      </trkpt>
      <trkpt lat="47.57516" lon="6.71444">
        <ele>507</ele>
        <time>2014-04-13T08:11:46.156Z</time>
      </trkpt>
      <trkpt lat="47.57517" lon="6.7145">
        <ele>504</ele>
        <time>2014-04-13T08:11:51.076Z</time>
      </trkpt>
      <trkpt lat="47.57516" lon="6.71452">
        <ele>502</ele>
        <time>2014-04-13T08:11:56.166Z</time>
      </trkpt>
      <trkpt lat="47.5752" lon="6.71464">
        <ele>494</ele>
        <time>2014-04-13T08:12:21.640Z</time>
      </trkpt>
      <trkpt lat="47.57519" lon="6.71472">
        <ele>494</ele>
        <time>2014-04-13T08:12:26.472Z</time>
      </trkpt>
      <trkpt lat="47.57524" lon="6.71477">
        <ele>494</ele>
        <time>2014-04-13T08:12:31.075Z</time>
      </trkpt>
      <trkpt lat="47.57534" lon="6.71483">
        <ele>494</ele>
        <time>2014-04-13T08:12:36.089Z</time>
      </trkpt>
      <trkpt lat="47.57538" lon="6.71492">
        <ele>492</ele>
        <time>2014-04-13T08:12:41.157Z</time>
      </trkpt>
      <trkpt lat="47.57545" lon="6.71502">
        <ele>494</ele>
        <time>2014-04-13T08:12:46.050Z</time>
      </trkpt>
      <trkpt lat="47.57551" lon="6.71504">
        <ele>495</ele>
        <time>2014-04-13T08:12:51.141Z</time>
      </trkpt>
      <trkpt lat="47.57588" lon="6.71511">
        <ele>499</ele>
        <time>2014-04-13T08:13:11.086Z</time>
      </trkpt>
      <trkpt lat="47.57598" lon="6.71518">
        <ele>499</ele>
        <time>2014-04-13T08:13:16.160Z</time>
      </trkpt>
      <trkpt lat="47.57608" lon="6.71521">
        <ele>498</ele>
        <time>2014-04-13T08:13:21.103Z</time>
      </trkpt>
      <trkpt lat="47.57617" lon="6.71519">
        <ele>498</ele>
        <time>2014-04-13T08:13:26.155Z</time>
      </trkpt>
      <trkpt lat="47.57627" lon="6.71521">
        <ele>500</ele>
        <time>2014-04-13T08:13:31.175Z</time>
      </trkpt>
      <trkpt lat="47.57637" lon="6.7152">
        <ele>501</ele>
        <time>2014-04-13T08:13:36.149Z</time>
      </trkpt>
      <trkpt lat="47.57647" lon="6.71519">
        <ele>501</ele>
        <time>2014-04-13T08:13:41.181Z</time>
      </trkpt>
      <trkpt lat="47.57657" lon="6.71521">
        <ele>503</ele>
        <time>2014-04-13T08:13:46.150Z</time>
      </trkpt>
      <trkpt lat="47.57666" lon="6.71522">
        <ele>506</ele>
        <time>2014-04-13T08:13:51.086Z</time>
      </trkpt>
      <trkpt lat="47.57672" lon="6.71527">
        <ele>508</ele>
        <time>2014-04-13T08:13:56.140Z</time>
      </trkpt>
      <trkpt lat="47.57685" lon="6.71544">
        <ele>509</ele>
        <time>2014-04-13T08:14:06.078Z</time>
      </trkpt>
      <trkpt lat="47.57691" lon="6.71555">
        <ele>510</ele>
        <time>2014-04-13T08:14:11.079Z</time>
      </trkpt>
      <trkpt lat="47.57697" lon="6.71567">
        <ele>511</ele>
        <time>2014-04-13T08:14:16.151Z</time>
      </trkpt>
      <trkpt lat="47.57704" lon="6.71577">
        <ele>512</ele>
        <time>2014-04-13T08:14:21.151Z</time>
      </trkpt>
      <trkpt lat="47.57708" lon="6.71586">
        <ele>512</ele>
        <time>2014-04-13T08:14:26.077Z</time>
      </trkpt>
      <trkpt lat="47.57716" lon="6.71599">
        <ele>514</ele>
        <time>2014-04-13T08:14:31.144Z</time>
      </trkpt>
      <trkpt lat="47.57722" lon="6.71611">
        <ele>514</ele>
        <time>2014-04-13T08:14:36.081Z</time>
      </trkpt>
      <trkpt lat="47.57729" lon="6.71626">
        <ele>514</ele>
        <time>2014-04-13T08:14:41.136Z</time>
      </trkpt>
      <trkpt lat="47.57735" lon="6.71642">
        <ele>514</ele>
        <time>2014-04-13T08:14:46.095Z</time>
      </trkpt>
      <trkpt lat="47.57739" lon="6.71658">
        <ele>515</ele>
        <time>2014-04-13T08:14:51.163Z</time>
      </trkpt>
      <trkpt lat="47.57743" lon="6.71672">
        <ele>516</ele>
        <time>2014-04-13T08:14:56.096Z</time>
      </trkpt>
      <trkpt lat="47.57766" lon="6.71732">
        <ele>521</ele>
        <time>2014-04-13T08:15:21.142Z</time>
      </trkpt>
      <trkpt lat="47.57772" lon="6.7174">
        <ele>523</ele>
        <time>2014-04-13T08:15:26.096Z</time>
      </trkpt>
      <trkpt lat="47.57781" lon="6.7175">
        <ele>524</ele>
        <time>2014-04-13T08:15:31.159Z</time>
      </trkpt>
      <trkpt lat="47.57786" lon="6.7176">
        <ele>525</ele>
        <time>2014-04-13T08:15:36.090Z</time>
      </trkpt>
      <trkpt lat="47.57793" lon="6.71771">
        <ele>525</ele>
        <time>2014-04-13T08:15:41.145Z</time>
      </trkpt>
      <trkpt lat="47.57798" lon="6.71782">
        <ele>525</ele>
        <time>2014-04-13T08:15:46.086Z</time>
      </trkpt>
      <trkpt lat="47.57803" lon="6.71788">
        <ele>527</ele>
        <time>2014-04-13T08:15:51.086Z</time>
      </trkpt>
      <trkpt lat="47.57811" lon="6.71797">
        <ele>528</ele>
        <time>2014-04-13T08:15:56.160Z</time>
      </trkpt>
      <trkpt lat="47.57819" lon="6.71808">
        <ele>529</ele>
        <time>2014-04-13T08:16:03.756Z</time>
      </trkpt>
      <trkpt lat="47.57826" lon="6.71819">
        <ele>531</ele>
        <time>2014-04-13T08:16:06.134Z</time>
      </trkpt>
      <trkpt lat="47.57833" lon="6.71829">
        <ele>534</ele>
        <time>2014-04-13T08:16:11.076Z</time>
      </trkpt>
      <trkpt lat="47.5784" lon="6.71842">
        <ele>535</ele>
        <time>2014-04-13T08:16:16.148Z</time>
      </trkpt>
      <trkpt lat="47.57846" lon="6.71854">
        <ele>535</ele>
        <time>2014-04-13T08:16:21.086Z</time>
      </trkpt>
      <trkpt lat="47.57852" lon="6.71866">
        <ele>536</ele>
        <time>2014-04-13T08:16:26.166Z</time>
      </trkpt>
      <trkpt lat="47.57858" lon="6.71879">
        <ele>536</ele>
        <time>2014-04-13T08:16:31.079Z</time>
      </trkpt>
      <trkpt lat="47.57868" lon="6.71887">
        <ele>536</ele>
        <time>2014-04-13T08:16:36.366Z</time>
      </trkpt>
      <trkpt lat="47.57875" lon="6.719">
        <ele>538</ele>
        <time>2014-04-13T08:16:41.079Z</time>
      </trkpt>
      <trkpt lat="47.57882" lon="6.71911">
        <ele>540</ele>
        <time>2014-04-13T08:16:46.079Z</time>
      </trkpt>
      <trkpt lat="47.57888" lon="6.71917">
        <ele>540</ele>
        <time>2014-04-13T08:16:51.152Z</time>
      </trkpt>
      <trkpt lat="47.57894" lon="6.71926">
        <ele>541</ele>
        <time>2014-04-13T08:16:56.088Z</time>
      </trkpt>
      <trkpt lat="47.57928" lon="6.71917">
        <ele>540</ele>
        <time>2014-04-13T08:17:21.161Z</time>
      </trkpt>
      <trkpt lat="47.57934" lon="6.71911">
        <ele>539</ele>
        <time>2014-04-13T08:17:26.088Z</time>
      </trkpt>
      <trkpt lat="47.57944" lon="6.71903">
        <ele>538</ele>
        <time>2014-04-13T08:17:31.150Z</time>
      </trkpt>
      <trkpt lat="47.5795" lon="6.71903">
        <ele>539</ele>
        <time>2014-04-13T08:17:36.083Z</time>
      </trkpt>
      <trkpt lat="47.57956" lon="6.71897">
        <ele>541</ele>
        <time>2014-04-13T08:17:41.195Z</time>
      </trkpt>
      <trkpt lat="47.57961" lon="6.71891">
        <ele>543</ele>
        <time>2014-04-13T08:17:46.085Z</time>
      </trkpt>
      <trkpt lat="47.57967" lon="6.71883">
        <ele>544</ele>
        <time>2014-04-13T08:17:51.148Z</time>
      </trkpt>
      <trkpt lat="47.57975" lon="6.71875">
        <ele>544</ele>
        <time>2014-04-13T08:17:56.109Z</time>
      </trkpt>
      <trkpt lat="47.57983" lon="6.71868">
        <ele>545</ele>
        <time>2014-04-13T08:18:02.190Z</time>
      </trkpt>
      <trkpt lat="47.57988" lon="6.71866">
        <ele>545</ele>
        <time>2014-04-13T08:18:06.081Z</time>
      </trkpt>
      <trkpt lat="47.57994" lon="6.71859">
        <ele>544</ele>
        <time>2014-04-13T08:18:11.148Z</time>
      </trkpt>
      <trkpt lat="47.57998" lon="6.71853">
        <ele>546</ele>
        <time>2014-04-13T08:18:16.077Z</time>
      </trkpt>
      <trkpt lat="47.58005" lon="6.71845">
        <ele>545</ele>
        <time>2014-04-13T08:18:21.138Z</time>
      </trkpt>
      <trkpt lat="47.58012" lon="6.7184">
        <ele>545</ele>
        <time>2014-04-13T08:18:26.086Z</time>
      </trkpt>
      <trkpt lat="47.58019" lon="6.71834">
        <ele>546</ele>
        <time>2014-04-13T08:18:31.160Z</time>
      </trkpt>
      <trkpt lat="47.58027" lon="6.71829">
        <ele>546</ele>
        <time>2014-04-13T08:18:36.083Z</time>
      </trkpt>
      <trkpt lat="47.58034" lon="6.71823">
        <ele>547</ele>
        <time>2014-04-13T08:18:41.142Z</time>
      </trkpt>
      <trkpt lat="47.58039" lon="6.71817">
        <ele>549</ele>
        <time>2014-04-13T08:18:46.085Z</time>
      </trkpt>
      <trkpt lat="47.58047" lon="6.71809">
        <ele>549</ele>
        <time>2014-04-13T08:18:51.152Z</time>
      </trkpt>
      <trkpt lat="47.58055" lon="6.71805">
        <ele>552</ele>
        <time>2014-04-13T08:18:56.085Z</time>
      </trkpt>
      <trkpt lat="47.58063" lon="6.71796">
        <ele>553</ele>
        <time>2014-04-13T08:19:01.158Z</time>
      </trkpt>
      <trkpt lat="47.58072" lon="6.71792">
        <ele>554</ele>
        <time>2014-04-13T08:19:06.091Z</time>
      </trkpt>
      <trkpt lat="47.58079" lon="6.7179">
        <ele>554</ele>
        <time>2014-04-13T08:19:11.158Z</time>
      </trkpt>
      <trkpt lat="47.58086" lon="6.71783">
        <ele>555</ele>
        <time>2014-04-13T08:19:16.076Z</time>
      </trkpt>
      <trkpt lat="47.58095" lon="6.71773">
        <ele>556</ele>
        <time>2014-04-13T08:19:21.128Z</time>
      </trkpt>
      <trkpt lat="47.58104" lon="6.71766">
        <ele>556</ele>
        <time>2014-04-13T08:19:26.101Z</time>
      </trkpt>
      <trkpt lat="47.58112" lon="6.7176">
        <ele>558</ele>
        <time>2014-04-13T08:19:31.159Z</time>
      </trkpt>
      <trkpt lat="47.58118" lon="6.71765">
        <ele>560</ele>
        <time>2014-04-13T08:19:36.082Z</time>
      </trkpt>
      <trkpt lat="47.58124" lon="6.71766">
        <ele>561</ele>
        <time>2014-04-13T08:19:41.081Z</time>
      </trkpt>
      <trkpt lat="47.58131" lon="6.71772">
        <ele>563</ele>
        <time>2014-04-13T08:19:46.131Z</time>
      </trkpt>
      <trkpt lat="47.58139" lon="6.71779">
        <ele>563</ele>
        <time>2014-04-13T08:19:51.089Z</time>
      </trkpt>
      <trkpt lat="47.58147" lon="6.71788">
        <ele>563</ele>
        <time>2014-04-13T08:19:56.164Z</time>
      </trkpt>
      <trkpt lat="47.58153" lon="6.71796">
        <ele>563</ele>
        <time>2014-04-13T08:20:01.079Z</time>
      </trkpt>
      <trkpt lat="47.58159" lon="6.7181">
        <ele>565</ele>
        <time>2014-04-13T08:20:06.157Z</time>
      </trkpt>
      <trkpt lat="47.58165" lon="6.71822">
        <ele>566</ele>
        <time>2014-04-13T08:20:11.088Z</time>
      </trkpt>
      <trkpt lat="47.58172" lon="6.71839">
        <ele>566</ele>
        <time>2014-04-13T08:20:16.144Z</time>
      </trkpt>
      <trkpt lat="47.5818" lon="6.71852">
        <ele>567</ele>
        <time>2014-04-13T08:20:21.079Z</time>
      </trkpt>
      <trkpt lat="47.58191" lon="6.71869">
        <ele>569</ele>
        <time>2014-04-13T08:20:26.142Z</time>
      </trkpt>
      <trkpt lat="47.58198" lon="6.71886">
        <ele>569</ele>
        <time>2014-04-13T08:20:31.096Z</time>
      </trkpt>
      <trkpt lat="47.58207" lon="6.71903">
        <ele>569</ele>
        <time>2014-04-13T08:20:36.157Z</time>
      </trkpt>
      <trkpt lat="47.58218" lon="6.71924">
        <ele>569</ele>
        <time>2014-04-13T08:20:41.087Z</time>
      </trkpt>
      <trkpt lat="47.5823" lon="6.71945">
        <ele>570</ele>
        <time>2014-04-13T08:20:46.080Z</time>
      </trkpt>
      <trkpt lat="47.58241" lon="6.71973">
        <ele>570</ele>
        <time>2014-04-13T08:20:51.079Z</time>
      </trkpt>
      <trkpt lat="47.58302" lon="6.72109">
        <ele>570</ele>
        <time>2014-04-13T08:21:21.092Z</time>
      </trkpt>
      <trkpt lat="47.58315" lon="6.72148">
        <ele>570</ele>
        <time>2014-04-13T08:21:26.153Z</time>
      </trkpt>
      <trkpt lat="47.58324" lon="6.72178">
        <ele>569</ele>
        <time>2014-04-13T08:21:31.078Z</time>
      </trkpt>
      <trkpt lat="47.58332" lon="6.72201">
        <ele>567</ele>
        <time>2014-04-13T08:21:36.149Z</time>
      </trkpt>
      <trkpt lat="47.58338" lon="6.72229">
        <ele>565</ele>
        <time>2014-04-13T08:21:41.094Z</time>
      </trkpt>
      <trkpt lat="47.58338" lon="6.72248">
        <ele>563</ele>
        <time>2014-04-13T08:21:46.144Z</time>
      </trkpt>
      <trkpt lat="47.5834" lon="6.72259">
        <ele>561</ele>
        <time>2014-04-13T08:21:51.100Z</time>
      </trkpt>
      <trkpt lat="47.58339" lon="6.72259">
        <ele>560</ele>
        <time>2014-04-13T08:21:56.160Z</time>
      </trkpt>
      <trkpt lat="47.58338" lon="6.72262">
        <ele>559</ele>
        <time>2014-04-13T08:22:06.090Z</time>
      </trkpt>
      <trkpt lat="47.58339" lon="6.72264">
        <ele>558</ele>
        <time>2014-04-13T08:22:11.159Z</time>
      </trkpt>
      <trkpt lat="47.58339" lon="6.72264">
        <ele>558</ele>
        <time>2014-04-13T08:22:16.091Z</time>
      </trkpt>
      <trkpt lat="47.58339" lon="6.72264">
        <ele>558</ele>
        <time>2014-04-13T08:22:21.148Z</time>
      </trkpt>
      <trkpt lat="47.58339" lon="6.72264">
        <ele>558</ele>
        <time>2014-04-13T08:22:26.088Z</time>
      </trkpt>
      <trkpt lat="47.58339" lon="6.72264">
        <ele>558</ele>
        <time>2014-04-13T08:22:31.141Z</time>
      </trkpt>
      <trkpt lat="47.58339" lon="6.72264">
        <ele>558</ele>
        <time>2014-04-13T08:22:36.090Z</time>
      </trkpt>
      <trkpt lat="47.58339" lon="6.72264">
        <ele>558</ele>
        <time>2014-04-13T08:22:41.156Z</time>
      </trkpt>
      <trkpt lat="47.58339" lon="6.72264">
        <ele>558</ele>
        <time>2014-04-13T08:22:46.081Z</time>
      </trkpt>
      <trkpt lat="47.58339" lon="6.72264">
        <ele>558</ele>
        <time>2014-04-13T08:22:51.148Z</time>
      </trkpt>
      <trkpt lat="47.5834" lon="6.72263">
        <ele>557</ele>
        <time>2014-04-13T08:22:56.089Z</time>
      </trkpt>
      <trkpt lat="47.5834" lon="6.72267">
        <ele>556</ele>
        <time>2014-04-13T08:23:01.087Z</time>
      </trkpt>
      <trkpt lat="47.5834" lon="6.72288">
        <ele>556</ele>
        <time>2014-04-13T08:23:06.160Z</time>
      </trkpt>
      <trkpt lat="47.58336" lon="6.72327">
        <ele>555</ele>
        <time>2014-04-13T08:23:11.082Z</time>
      </trkpt>
      <trkpt lat="47.5832" lon="6.72358">
        <ele>555</ele>
        <time>2014-04-13T08:23:16.149Z</time>
      </trkpt>
      <trkpt lat="47.58302" lon="6.72375">
        <ele>553</ele>
        <time>2014-04-13T08:23:21.087Z</time>
      </trkpt>
      <trkpt lat="47.58307" lon="6.72411">
        <ele>553</ele>
        <time>2014-04-13T08:23:26.149Z</time>
      </trkpt>
      <trkpt lat="47.58321" lon="6.72459">
        <ele>553</ele>
        <time>2014-04-13T08:23:31.089Z</time>
      </trkpt>
      <trkpt lat="47.58324" lon="6.72518">
        <ele>551</ele>
        <time>2014-04-13T08:23:36.147Z</time>
      </trkpt>
      <trkpt lat="47.58331" lon="6.72561">
        <ele>549</ele>
        <time>2014-04-13T08:23:41.088Z</time>
      </trkpt>
      <trkpt lat="47.58335" lon="6.72606">
        <ele>547</ele>
        <time>2014-04-13T08:23:46.152Z</time>
      </trkpt>
      <trkpt lat="47.58333" lon="6.72656">
        <ele>544</ele>
        <time>2014-04-13T08:23:51.081Z</time>
      </trkpt>
      <trkpt lat="47.58331" lon="6.7271">
        <ele>540</ele>
        <time>2014-04-13T08:23:56.096Z</time>
      </trkpt>
      <trkpt lat="47.58331" lon="6.7276">
        <ele>537</ele>
        <time>2014-04-13T08:24:01.101Z</time>
      </trkpt>
      <trkpt lat="47.58332" lon="6.72812">
        <ele>532</ele>
        <time>2014-04-13T08:24:06.148Z</time>
      </trkpt>
      <trkpt lat="47.58331" lon="6.72863">
        <ele>527</ele>
        <time>2014-04-13T08:24:11.082Z</time>
      </trkpt>
      <trkpt lat="47.58322" lon="6.72912">
        <ele>523</ele>
        <time>2014-04-13T08:24:16.090Z</time>
      </trkpt>
      <trkpt lat="47.58319" lon="6.7296">
        <ele>516</ele>
        <time>2014-04-13T08:24:21.082Z</time>
      </trkpt>
      <trkpt lat="47.58318" lon="6.72995">
        <ele>511</ele>
        <time>2014-04-13T08:24:26.146Z</time>
      </trkpt>
      <trkpt lat="47.58318" lon="6.73025">
        <ele>506</ele>
        <time>2014-04-13T08:24:31.083Z</time>
      </trkpt>
      <trkpt lat="47.58328" lon="6.73054">
        <ele>504</ele>
        <time>2014-04-13T08:24:36.150Z</time>
      </trkpt>
      <trkpt lat="47.5833" lon="6.73058">
        <ele>504</ele>
        <time>2014-04-13T08:24:41.092Z</time>
      </trkpt>
      <trkpt lat="47.58332" lon="6.73064">
        <ele>502</ele>
        <time>2014-04-13T08:24:46.149Z</time>
      </trkpt>
      <trkpt lat="47.58333" lon="6.73102">
        <ele>500</ele>
        <time>2014-04-13T08:24:51.096Z</time>
      </trkpt>
      <trkpt lat="47.58336" lon="6.73157">
        <ele>498</ele>
        <time>2014-04-13T08:24:56.160Z</time>
      </trkpt>
      <trkpt lat="47.58331" lon="6.73229">
        <ele>495</ele>
        <time>2014-04-13T08:25:01.079Z</time>
      </trkpt>
      <trkpt lat="47.58327" lon="6.73289">
        <ele>491</ele>
        <time>2014-04-13T08:25:06.090Z</time>
      </trkpt>
      <trkpt lat="47.58332" lon="6.7334">
        <ele>482</ele>
        <time>2014-04-13T08:25:11.179Z</time>
      </trkpt>
      <trkpt lat="47.58333" lon="6.73364">
        <ele>475</ele>
        <time>2014-04-13T08:25:16.082Z</time>
      </trkpt>
      <trkpt lat="47.58327" lon="6.73398">
        <ele>469</ele>
        <time>2014-04-13T08:25:21.148Z</time>
      </trkpt>
      <trkpt lat="47.58328" lon="6.73431">
        <ele>464</ele>
        <time>2014-04-13T08:25:26.086Z</time>
      </trkpt>
      <trkpt lat="47.58329" lon="6.73459">
        <ele>460</ele>
        <time>2014-04-13T08:25:31.153Z</time>
      </trkpt>
      <trkpt lat="47.58322" lon="6.73499">
        <ele>455</ele>
        <time>2014-04-13T08:25:36.147Z</time>
      </trkpt>
      <trkpt lat="47.58308" lon="6.73533">
        <ele>449</ele>
        <time>2014-04-13T08:25:41.092Z</time>
      </trkpt>
      <trkpt lat="47.58298" lon="6.73564">
        <ele>445</ele>
        <time>2014-04-13T08:25:46.149Z</time>
      </trkpt>
      <trkpt lat="47.58299" lon="6.73581">
        <ele>444</ele>
        <time>2014-04-13T08:25:51.103Z</time>
      </trkpt>
      <trkpt lat="47.58301" lon="6.73586">
        <ele>441</ele>
        <time>2014-04-13T08:26:01.090Z</time>
      </trkpt>
      <trkpt lat="47.58313" lon="6.73614">
        <ele>439</ele>
        <time>2014-04-13T08:26:06.166Z</time>
      </trkpt>
      <trkpt lat="47.5834" lon="6.73641">
        <ele>436</ele>
        <time>2014-04-13T08:26:11.082Z</time>
      </trkpt>
      <trkpt lat="47.58352" lon="6.73642">
        <ele>434</ele>
        <time>2014-04-13T08:26:16.092Z</time>
      </trkpt>
      <trkpt lat="47.58363" lon="6.73652">
        <ele>432</ele>
        <time>2014-04-13T08:26:21.148Z</time>
      </trkpt>
      <trkpt lat="47.58366" lon="6.73663">
        <ele>430</ele>
        <time>2014-04-13T08:26:26.084Z</time>
      </trkpt>
      <trkpt lat="47.58366" lon="6.73667">
        <ele>431</ele>
        <time>2014-04-13T08:26:31.160Z</time>
      </trkpt>
      <trkpt lat="47.58365" lon="6.73677">
        <ele>430</ele>
        <time>2014-04-13T08:26:36.086Z</time>
      </trkpt>
      <trkpt lat="47.58362" lon="6.73685">
        <ele>429</ele>
        <time>2014-04-13T08:26:41.152Z</time>
      </trkpt>
      <trkpt lat="47.58356" lon="6.73695">
        <ele>429</ele>
        <time>2014-04-13T08:26:46.079Z</time>
      </trkpt>
      <trkpt lat="47.58353" lon="6.73711">
        <ele>428</ele>
        <time>2014-04-13T08:26:51.149Z</time>
      </trkpt>
      <trkpt lat="47.58349" lon="6.73728">
        <ele>427</ele>
        <time>2014-04-13T08:26:56.091Z</time>
      </trkpt>
      <trkpt lat="47.58341" lon="6.7374">
        <ele>424</ele>
        <time>2014-04-13T08:27:01.162Z</time>
      </trkpt>
      <trkpt lat="47.58333" lon="6.73752">
        <ele>422</ele>
        <time>2014-04-13T08:27:06.080Z</time>
      </trkpt>
      <trkpt lat="47.58326" lon="6.73766">
        <ele>423</ele>
        <time>2014-04-13T08:27:11.150Z</time>
      </trkpt>
      <trkpt lat="47.58319" lon="6.73778">
        <ele>423</ele>
        <time>2014-04-13T08:27:16.082Z</time>
      </trkpt>
      <trkpt lat="47.58313" lon="6.7379">
        <ele>425</ele>
        <time>2014-04-13T08:27:21.083Z</time>
      </trkpt>
      <trkpt lat="47.58307" lon="6.73805">
        <ele>427</ele>
        <time>2014-04-13T08:27:26.155Z</time>
      </trkpt>
      <trkpt lat="47.58301" lon="6.7382">
        <ele>428</ele>
        <time>2014-04-13T08:27:31.080Z</time>
      </trkpt>
      <trkpt lat="47.58298" lon="6.73838">
        <ele>429</ele>
        <time>2014-04-13T08:27:36.157Z</time>
      </trkpt>
      <trkpt lat="47.58297" lon="6.73856">
        <ele>430</ele>
        <time>2014-04-13T08:27:41.081Z</time>
      </trkpt>
      <trkpt lat="47.58294" lon="6.73875">
        <ele>429</ele>
        <time>2014-04-13T08:27:46.148Z</time>
      </trkpt>
      <trkpt lat="47.58295" lon="6.73894">
        <ele>429</ele>
        <time>2014-04-13T08:27:51.097Z</time>
      </trkpt>
      <trkpt lat="47.58297" lon="6.73914">
        <ele>430</ele>
        <time>2014-04-13T08:27:56.156Z</time>
      </trkpt>
      <trkpt lat="47.583" lon="6.73935">
        <ele>430</ele>
        <time>2014-04-13T08:28:01.052Z</time>
      </trkpt>
      <trkpt lat="47.58305" lon="6.73952">
        <ele>428</ele>
        <time>2014-04-13T08:28:06.146Z</time>
      </trkpt>
      <trkpt lat="47.5831" lon="6.73971">
        <ele>427</ele>
        <time>2014-04-13T08:28:11.091Z</time>
      </trkpt>
      <trkpt lat="47.58319" lon="6.73986">
        <ele>427</ele>
        <time>2014-04-13T08:28:16.148Z</time>
      </trkpt>
      <trkpt lat="47.58334" lon="6.73987">
        <ele>425</ele>
        <time>2014-04-13T08:28:21.080Z</time>
      </trkpt>
      <trkpt lat="47.58348" lon="6.73982">
        <ele>423</ele>
        <time>2014-04-13T08:28:26.148Z</time>
      </trkpt>
      <trkpt lat="47.58363" lon="6.73976">
        <ele>421</ele>
        <time>2014-04-13T08:28:31.099Z</time>
      </trkpt>
      <trkpt lat="47.58377" lon="6.73969">
        <ele>421</ele>
        <time>2014-04-13T08:28:36.163Z</time>
      </trkpt>
      <trkpt lat="47.58388" lon="6.7396">
        <ele>420</ele>
        <time>2014-04-13T08:28:41.082Z</time>
      </trkpt>
      <trkpt lat="47.58398" lon="6.7394">
        <ele>419</ele>
        <time>2014-04-13T08:28:46.145Z</time>
      </trkpt>
      <trkpt lat="47.58411" lon="6.73931">
        <ele>417</ele>
        <time>2014-04-13T08:28:51.078Z</time>
      </trkpt>
      <trkpt lat="47.58423" lon="6.73943">
        <ele>416</ele>
        <time>2014-04-13T08:28:56.150Z</time>
      </trkpt>
      <trkpt lat="47.58473" lon="6.74007">
        <ele>408</ele>
        <time>2014-04-13T08:29:16.095Z</time>
      </trkpt>
      <trkpt lat="47.58479" lon="6.73984">
        <ele>407</ele>
        <time>2014-04-13T08:29:21.076Z</time>
      </trkpt>
      <trkpt lat="47.58482" lon="6.73952">
        <ele>405</ele>
        <time>2014-04-13T08:29:26.148Z</time>
      </trkpt>
      <trkpt lat="47.58487" lon="6.73919">
        <ele>405</ele>
        <time>2014-04-13T08:29:31.085Z</time>
      </trkpt>
      <trkpt lat="47.58494" lon="6.73889">
        <ele>405</ele>
        <time>2014-04-13T08:29:36.149Z</time>
      </trkpt>
      <trkpt lat="47.58494" lon="6.73861">
        <ele>406</ele>
        <time>2014-04-13T08:29:41.073Z</time>
      </trkpt>
      <trkpt lat="47.58492" lon="6.73833">
        <ele>406</ele>
        <time>2014-04-13T08:29:46.148Z</time>
      </trkpt>
      <trkpt lat="47.58492" lon="6.73806">
        <ele>405</ele>
        <time>2014-04-13T08:29:51.087Z</time>
      </trkpt>
      <trkpt lat="47.58496" lon="6.73779">
        <ele>405</ele>
        <time>2014-04-13T08:29:56.158Z</time>
      </trkpt>
      <trkpt lat="47.58501" lon="6.73748">
        <ele>403</ele>
        <time>2014-04-13T08:30:01.079Z</time>
      </trkpt>
      <trkpt lat="47.58504" lon="6.73719">
        <ele>403</ele>
        <time>2014-04-13T08:30:06.159Z</time>
      </trkpt>
      <trkpt lat="47.58512" lon="6.73693">
        <ele>402</ele>
        <time>2014-04-13T08:30:11.087Z</time>
      </trkpt>
      <trkpt lat="47.58522" lon="6.73669">
        <ele>401</ele>
        <time>2014-04-13T08:30:16.152Z</time>
      </trkpt>
      <trkpt lat="47.58537" lon="6.73649">
        <ele>399</ele>
        <time>2014-04-13T08:30:21.069Z</time>
      </trkpt>
      <trkpt lat="47.58561" lon="6.7364">
        <ele>397</ele>
        <time>2014-04-13T08:30:26.139Z</time>
      </trkpt>
      <trkpt lat="47.5859" lon="6.73632">
        <ele>396</ele>
        <time>2014-04-13T08:30:31.048Z</time>
      </trkpt>
      <trkpt lat="47.58644" lon="6.73621">
        <ele>396</ele>
        <time>2014-04-13T08:30:41.082Z</time>
      </trkpt>
      <trkpt lat="47.58669" lon="6.73615">
        <ele>396</ele>
        <time>2014-04-13T08:30:46.153Z</time>
      </trkpt>
      <trkpt lat="47.58693" lon="6.73611">
        <ele>397</ele>
        <time>2014-04-13T08:30:51.077Z</time>
      </trkpt>
      <trkpt lat="47.587" lon="6.7363">
        <ele>396</ele>
        <time>2014-04-13T08:30:56.154Z</time>
      </trkpt>
      <trkpt lat="47.58666" lon="6.73689">
        <ele>395</ele>
        <time>2014-04-13T08:31:09.666Z</time>
      </trkpt>
      <trkpt lat="47.58651" lon="6.73725">
        <ele>394</ele>
        <time>2014-04-13T08:31:11.080Z</time>
      </trkpt>
      <trkpt lat="47.58641" lon="6.73761">
        <ele>394</ele>
        <time>2014-04-13T08:31:16.151Z</time>
      </trkpt>
      <trkpt lat="47.58632" lon="6.73793">
        <ele>393</ele>
        <time>2014-04-13T08:31:21.086Z</time>
      </trkpt>
      <trkpt lat="47.58622" lon="6.73824">
        <ele>393</ele>
        <time>2014-04-13T08:31:26.085Z</time>
      </trkpt>
      <trkpt lat="47.58615" lon="6.73855">
        <ele>393</ele>
        <time>2014-04-13T08:31:31.087Z</time>
      </trkpt>
      <trkpt lat="47.58608" lon="6.73885">
        <ele>394</ele>
        <time>2014-04-13T08:31:36.159Z</time>
      </trkpt>
      <trkpt lat="47.58601" lon="6.73911">
        <ele>395</ele>
        <time>2014-04-13T08:31:41.149Z</time>
      </trkpt>
      <trkpt lat="47.58593" lon="6.73939">
        <ele>395</ele>
        <time>2014-04-13T08:31:46.096Z</time>
      </trkpt>
      <trkpt lat="47.58581" lon="6.73968">
        <ele>395</ele>
        <time>2014-04-13T08:31:51.152Z</time>
      </trkpt>
      <trkpt lat="47.58553" lon="6.73989">
        <ele>393</ele>
        <time>2014-04-13T08:32:06.067Z</time>
      </trkpt>
      <trkpt lat="47.58568" lon="6.73961">
        <ele>393</ele>
        <time>2014-04-13T08:32:11.151Z</time>
      </trkpt>
      <trkpt lat="47.58587" lon="6.73942">
        <ele>393</ele>
        <time>2014-04-13T08:32:16.089Z</time>
      </trkpt>
      <trkpt lat="47.58596" lon="6.73936">
        <ele>393</ele>
        <time>2014-04-13T08:32:21.136Z</time>
      </trkpt>
      <trkpt lat="47.58605" lon="6.73942">
        <ele>393</ele>
        <time>2014-04-13T08:32:26.148Z</time>
      </trkpt>
      <trkpt lat="47.58621" lon="6.73983">
        <ele>394</ele>
        <time>2014-04-13T08:32:31.078Z</time>
      </trkpt>
      <trkpt lat="47.58626" lon="6.74021">
        <ele>393</ele>
        <time>2014-04-13T08:32:36.160Z</time>
      </trkpt>
      <trkpt lat="47.58622" lon="6.7406">
        <ele>392</ele>
        <time>2014-04-13T08:32:41.087Z</time>
      </trkpt>
      <trkpt lat="47.58615" lon="6.74096">
        <ele>391</ele>
        <time>2014-04-13T08:32:46.088Z</time>
      </trkpt>
      <trkpt lat="47.58605" lon="6.7413">
        <ele>391</ele>
        <time>2014-04-13T08:32:51.158Z</time>
      </trkpt>
      <trkpt lat="47.58593" lon="6.7416">
        <ele>391</ele>
        <time>2014-04-13T08:32:56.096Z</time>
      </trkpt>
      <trkpt lat="47.58574" lon="6.7423">
        <ele>390</ele>
        <time>2014-04-13T08:33:06.055Z</time>
      </trkpt>
      <trkpt lat="47.58568" lon="6.74266">
        <ele>390</ele>
        <time>2014-04-13T08:33:11.149Z</time>
      </trkpt>
      <trkpt lat="47.58561" lon="6.74289">
        <ele>391</ele>
        <time>2014-04-13T08:33:16.111Z</time>
      </trkpt>
      <trkpt lat="47.58553" lon="6.7432">
        <ele>393</ele>
        <time>2014-04-13T08:33:26.053Z</time>
      </trkpt>
      <trkpt lat="47.58549" lon="6.74336">
        <ele>394</ele>
        <time>2014-04-13T08:33:31.161Z</time>
      </trkpt>
      <trkpt lat="47.58547" lon="6.74349">
        <ele>395</ele>
        <time>2014-04-13T08:33:36.088Z</time>
      </trkpt>
      <trkpt lat="47.58545" lon="6.74362">
        <ele>397</ele>
        <time>2014-04-13T08:33:41.098Z</time>
      </trkpt>
      <trkpt lat="47.58543" lon="6.74374">
        <ele>398</ele>
        <time>2014-04-13T08:33:46.164Z</time>
      </trkpt>
      <trkpt lat="47.58541" lon="6.74385">
        <ele>399</ele>
        <time>2014-04-13T08:33:51.089Z</time>
      </trkpt>
      <trkpt lat="47.58538" lon="6.74398">
        <ele>401</ele>
        <time>2014-04-13T08:33:56.160Z</time>
      </trkpt>
      <trkpt lat="47.58537" lon="6.74412">
        <ele>402</ele>
        <time>2014-04-13T08:34:01.091Z</time>
      </trkpt>
      <trkpt lat="47.58536" lon="6.74426">
        <ele>403</ele>
        <time>2014-04-13T08:34:06.091Z</time>
      </trkpt>
      <trkpt lat="47.58535" lon="6.7444">
        <ele>404</ele>
        <time>2014-04-13T08:34:11.161Z</time>
      </trkpt>
      <trkpt lat="47.58534" lon="6.74454">
        <ele>405</ele>
        <time>2014-04-13T08:34:16.081Z</time>
      </trkpt>
      <trkpt lat="47.58533" lon="6.7447">
        <ele>406</ele>
        <time>2014-04-13T08:34:21.088Z</time>
      </trkpt>
      <trkpt lat="47.58532" lon="6.74487">
        <ele>408</ele>
        <time>2014-04-13T08:34:26.151Z</time>
      </trkpt>
      <trkpt lat="47.58531" lon="6.74505">
        <ele>409</ele>
        <time>2014-04-13T08:34:31.085Z</time>
      </trkpt>
      <trkpt lat="47.5853" lon="6.74523">
        <ele>410</ele>
        <time>2014-04-13T08:34:36.237Z</time>
      </trkpt>
      <trkpt lat="47.58529" lon="6.74541">
        <ele>411</ele>
        <time>2014-04-13T08:34:41.090Z</time>
      </trkpt>
      <trkpt lat="47.58529" lon="6.74559">
        <ele>412</ele>
        <time>2014-04-13T08:34:46.156Z</time>
      </trkpt>
      <trkpt lat="47.58529" lon="6.74577">
        <ele>413</ele>
        <time>2014-04-13T08:34:51.085Z</time>
      </trkpt>
      <trkpt lat="47.58529" lon="6.74595">
        <ele>414</ele>
        <time>2014-04-13T08:34:56.152Z</time>
      </trkpt>
      <trkpt lat="47.58529" lon="6.74613">
        <ele>415</ele>
        <time>2014-04-13T08:35:01.072Z</time>
      </trkpt>
      <trkpt lat="47.58529" lon="6.74632">
        <ele>416</ele>
        <time>2014-04-13T08:35:06.160Z</time>
      </trkpt>
      <trkpt lat="47.58529" lon="6.7465">
        <ele>417</ele>
        <time>2014-04-13T08:35:11.076Z</time>
      </trkpt>
      <trkpt lat="47.58529" lon="6.74669">
        <ele>418</ele>
        <time>2014-04-13T08:35:16.155Z</time>
      </trkpt>
      <trkpt lat="47.58529" lon="6.74687">
        <ele>418</ele>
        <time>2014-04-13T08:35:21.086Z</time>
      </trkpt>
      <trkpt lat="47.5853" lon="6.74704">
        <ele>420</ele>
        <time>2014-04-13T08:35:26.158Z</time>
      </trkpt>
      <trkpt lat="47.58536" lon="6.74719">
        <ele>420</ele>
        <time>2014-04-13T08:35:31.102Z</time>
      </trkpt>
      <trkpt lat="47.58546" lon="6.74729">
        <ele>421</ele>
        <time>2014-04-13T08:35:36.155Z</time>
      </trkpt>
      <trkpt lat="47.58558" lon="6.74742">
        <ele>420</ele>
        <time>2014-04-13T08:35:41.091Z</time>
      </trkpt>
      <trkpt lat="47.58567" lon="6.74757">
        <ele>420</ele>
        <time>2014-04-13T08:35:46.141Z</time>
      </trkpt>
      <trkpt lat="47.58574" lon="6.74776">
        <ele>421</ele>
        <time>2014-04-13T08:35:51.085Z</time>
      </trkpt>
      <trkpt lat="47.58571" lon="6.74798">
        <ele>421</ele>
        <time>2014-04-13T08:35:56.149Z</time>
      </trkpt>
      <trkpt lat="47.58567" lon="6.74821">
        <ele>421</ele>
        <time>2014-04-13T08:36:01.094Z</time>
      </trkpt>
      <trkpt lat="47.58568" lon="6.74839">
        <ele>421</ele>
        <time>2014-04-13T08:36:06.159Z</time>
      </trkpt>
      <trkpt lat="47.5857" lon="6.74845">
        <ele>422</ele>
        <time>2014-04-13T08:36:11.078Z</time>
      </trkpt>
      <trkpt lat="47.58569" lon="6.74846">
        <ele>421</ele>
        <time>2014-04-13T08:36:16.143Z</time>
      </trkpt>
      <trkpt lat="47.58569" lon="6.74846">
        <ele>421</ele>
        <time>2014-04-13T08:36:21.087Z</time>
      </trkpt>
      <trkpt lat="47.58569" lon="6.74846">
        <ele>421</ele>
        <time>2014-04-13T08:36:26.142Z</time>
      </trkpt>
      <trkpt lat="47.58569" lon="6.74846">
        <ele>421</ele>
        <time>2014-04-13T08:36:31.093Z</time>
      </trkpt>
      <trkpt lat="47.58569" lon="6.74846">
        <ele>421</ele>
        <time>2014-04-13T08:36:36.462Z</time>
      </trkpt>
      <trkpt lat="47.58568" lon="6.74847">
        <ele>421</ele>
        <time>2014-04-13T08:36:41.150Z</time>
      </trkpt>
      <trkpt lat="47.58567" lon="6.74858">
        <ele>421</ele>
        <time>2014-04-13T08:36:46.082Z</time>
      </trkpt>
      <trkpt lat="47.58569" lon="6.74868">
        <ele>422</ele>
        <time>2014-04-13T08:36:51.144Z</time>
      </trkpt>
      <trkpt lat="47.58572" lon="6.74879">
        <ele>423</ele>
        <time>2014-04-13T08:36:56.072Z</time>
      </trkpt>
      <trkpt lat="47.58574" lon="6.74892">
        <ele>423</ele>
        <time>2014-04-13T08:37:01.069Z</time>
      </trkpt>
      <trkpt lat="47.58576" lon="6.74905">
        <ele>424</ele>
        <time>2014-04-13T08:37:06.091Z</time>
      </trkpt>
      <trkpt lat="47.58577" lon="6.74917">
        <ele>425</ele>
        <time>2014-04-13T08:37:11.166Z</time>
      </trkpt>
      <trkpt lat="47.58578" lon="6.74934">
        <ele>426</ele>
        <time>2014-04-13T08:37:16.086Z</time>
      </trkpt>
      <trkpt lat="47.58579" lon="6.74952">
        <ele>426</ele>
        <time>2014-04-13T08:37:21.151Z</time>
      </trkpt>
      <trkpt lat="47.5858" lon="6.74969">
        <ele>427</ele>
        <time>2014-04-13T08:37:26.082Z</time>
      </trkpt>
      <trkpt lat="47.58579" lon="6.74985">
        <ele>427</ele>
        <time>2014-04-13T08:37:31.147Z</time>
      </trkpt>
      <trkpt lat="47.58575" lon="6.75001">
        <ele>428</ele>
        <time>2014-04-13T08:37:36.092Z</time>
      </trkpt>
      <trkpt lat="47.58569" lon="6.75018">
        <ele>429</ele>
        <time>2014-04-13T08:37:41.085Z</time>
      </trkpt>
      <trkpt lat="47.58567" lon="6.75039">
        <ele>429</ele>
        <time>2014-04-13T08:37:46.147Z</time>
      </trkpt>
      <trkpt lat="47.58571" lon="6.75056">
        <ele>430</ele>
        <time>2014-04-13T08:37:51.084Z</time>
      </trkpt>
      <trkpt lat="47.58576" lon="6.75074">
        <ele>430</ele>
        <time>2014-04-13T08:37:56.149Z</time>
      </trkpt>
      <trkpt lat="47.58581" lon="6.7509">
        <ele>431</ele>
        <time>2014-04-13T08:38:01.086Z</time>
      </trkpt>
      <trkpt lat="47.58586" lon="6.75105">
        <ele>432</ele>
        <time>2014-04-13T08:38:06.156Z</time>
      </trkpt>
      <trkpt lat="47.5859" lon="6.75119">
        <ele>433</ele>
        <time>2014-04-13T08:38:11.075Z</time>
      </trkpt>
      <trkpt lat="47.58594" lon="6.75132">
        <ele>434</ele>
        <time>2014-04-13T08:38:16.155Z</time>
      </trkpt>
      <trkpt lat="47.58598" lon="6.75145">
        <ele>435</ele>
        <time>2014-04-13T08:38:21.089Z</time>
      </trkpt>
      <trkpt lat="47.586" lon="6.75159">
        <ele>436</ele>
        <time>2014-04-13T08:38:26.141Z</time>
      </trkpt>
      <trkpt lat="47.58603" lon="6.7517">
        <ele>439</ele>
        <time>2014-04-13T08:38:31.090Z</time>
      </trkpt>
      <trkpt lat="47.58605" lon="6.75175">
        <ele>442</ele>
        <time>2014-04-13T08:38:36.163Z</time>
      </trkpt>
      <trkpt lat="47.58606" lon="6.75179">
        <ele>444</ele>
        <time>2014-04-13T08:38:41.067Z</time>
      </trkpt>
      <trkpt lat="47.58608" lon="6.75186">
        <ele>444</ele>
        <time>2014-04-13T08:38:46.161Z</time>
      </trkpt>
      <trkpt lat="47.58608" lon="6.75193">
        <ele>444</ele>
        <time>2014-04-13T08:38:51.077Z</time>
      </trkpt>
      <trkpt lat="47.58611" lon="6.75199">
        <ele>440</ele>
        <time>2014-04-13T08:38:56.149Z</time>
      </trkpt>
      <trkpt lat="47.58611" lon="6.75201">
        <ele>438</ele>
        <time>2014-04-13T08:39:01.079Z</time>
      </trkpt>
      <trkpt lat="47.58612" lon="6.75201">
        <ele>438</ele>
        <time>2014-04-13T08:39:06.151Z</time>
      </trkpt>
      <trkpt lat="47.58612" lon="6.75201">
        <ele>438</ele>
        <time>2014-04-13T08:39:11.090Z</time>
      </trkpt>
      <trkpt lat="47.58613" lon="6.752">
        <ele>438</ele>
        <time>2014-04-13T08:39:16.157Z</time>
      </trkpt>
      <trkpt lat="47.58612" lon="6.75201">
        <ele>438</ele>
        <time>2014-04-13T08:39:21.089Z</time>
      </trkpt>
      <trkpt lat="47.58612" lon="6.75203">
        <ele>437</ele>
        <time>2014-04-13T08:39:26.093Z</time>
      </trkpt>
      <trkpt lat="47.58611" lon="6.75202">
        <ele>437</ele>
        <time>2014-04-13T08:39:31.151Z</time>
      </trkpt>
      <trkpt lat="47.58612" lon="6.75202">
        <ele>437</ele>
        <time>2014-04-13T08:39:36.084Z</time>
      </trkpt>
      <trkpt lat="47.58612" lon="6.75202">
        <ele>437</ele>
        <time>2014-04-13T08:39:41.167Z</time>
      </trkpt>
      <trkpt lat="47.58613" lon="6.75203">
        <ele>437</ele>
        <time>2014-04-13T08:39:46.088Z</time>
      </trkpt>
      <trkpt lat="47.58613" lon="6.75202">
        <ele>436</ele>
        <time>2014-04-13T08:39:51.087Z</time>
      </trkpt>
      <trkpt lat="47.58614" lon="6.75204">
        <ele>436</ele>
        <time>2014-04-13T08:39:56.161Z</time>
      </trkpt>
      <trkpt lat="47.58613" lon="6.75205">
        <ele>436</ele>
        <time>2014-04-13T08:40:01.079Z</time>
      </trkpt>
      <trkpt lat="47.58613" lon="6.75205">
        <ele>436</ele>
        <time>2014-04-13T08:40:06.151Z</time>
      </trkpt>
      <trkpt lat="47.58613" lon="6.75206">
        <ele>436</ele>
        <time>2014-04-13T08:40:11.078Z</time>
      </trkpt>
      <trkpt lat="47.58615" lon="6.75202">
        <ele>436</ele>
        <time>2014-04-13T08:40:16.154Z</time>
      </trkpt>
      <trkpt lat="47.58615" lon="6.75202">
        <ele>436</ele>
        <time>2014-04-13T08:40:21.077Z</time>
      </trkpt>
      <trkpt lat="47.58615" lon="6.75202">
        <ele>436</ele>
        <time>2014-04-13T08:40:26.076Z</time>
      </trkpt>
      <trkpt lat="47.58614" lon="6.75204">
        <ele>436</ele>
        <time>2014-04-13T08:40:31.153Z</time>
      </trkpt>
      <trkpt lat="47.58614" lon="6.75204">
        <ele>436</ele>
        <time>2014-04-13T08:40:36.075Z</time>
      </trkpt>
      <trkpt lat="47.58614" lon="6.75204">
        <ele>436</ele>
        <time>2014-04-13T08:40:41.155Z</time>
      </trkpt>
      <trkpt lat="47.58614" lon="6.75204">
        <ele>436</ele>
        <time>2014-04-13T08:40:46.150Z</time>
      </trkpt>
      <trkpt lat="47.58614" lon="6.75204">
        <ele>436</ele>
        <time>2014-04-13T08:40:51.089Z</time>
      </trkpt>
      <trkpt lat="47.58614" lon="6.75204">
        <ele>436</ele>
        <time>2014-04-13T08:40:56.150Z</time>
      </trkpt>
      <trkpt lat="47.58615" lon="6.75203">
        <ele>436</ele>
        <time>2014-04-13T08:41:01.094Z</time>
      </trkpt>
      <trkpt lat="47.58615" lon="6.75203">
        <ele>436</ele>
        <time>2014-04-13T08:41:06.147Z</time>
      </trkpt>
      <trkpt lat="47.58615" lon="6.75204">
        <ele>436</ele>
        <time>2014-04-13T08:41:11.074Z</time>
      </trkpt>
      <trkpt lat="47.58615" lon="6.75204">
        <ele>436</ele>
        <time>2014-04-13T08:41:16.145Z</time>
      </trkpt>
      <trkpt lat="47.58615" lon="6.75203">
        <ele>436</ele>
        <time>2014-04-13T08:41:21.082Z</time>
      </trkpt>
      <trkpt lat="47.58615" lon="6.75203">
        <ele>436</ele>
        <time>2014-04-13T08:41:26.149Z</time>
      </trkpt>
      <trkpt lat="47.58615" lon="6.75203">
        <ele>436</ele>
        <time>2014-04-13T08:41:31.082Z</time>
      </trkpt>
      <trkpt lat="47.58615" lon="6.75203">
        <ele>436</ele>
        <time>2014-04-13T08:41:36.126Z</time>
      </trkpt>
      <trkpt lat="47.58615" lon="6.75203">
        <ele>436</ele>
        <time>2014-04-13T08:41:41.104Z</time>
      </trkpt>
      <trkpt lat="47.58615" lon="6.75203">
        <ele>436</ele>
        <time>2014-04-13T08:41:51.088Z</time>
      </trkpt>
      <trkpt lat="47.58615" lon="6.75203">
        <ele>436</ele>
        <time>2014-04-13T08:41:56.158Z</time>
      </trkpt>
      <trkpt lat="47.58615" lon="6.75204">
        <ele>436</ele>
        <time>2014-04-13T08:42:01.072Z</time>
      </trkpt>
      <trkpt lat="47.58615" lon="6.75204">
        <ele>436</ele>
        <time>2014-04-13T08:42:06.148Z</time>
      </trkpt>
      <trkpt lat="47.58614" lon="6.75207">
        <ele>437</ele>
        <time>2014-04-13T08:42:11.080Z</time>
      </trkpt>
      <trkpt lat="47.58613" lon="6.75209">
        <ele>437</ele>
        <time>2014-04-13T08:42:16.129Z</time>
      </trkpt>
      <trkpt lat="47.58612" lon="6.75214">
        <ele>438</ele>
        <time>2014-04-13T08:42:21.086Z</time>
      </trkpt>
      <trkpt lat="47.58615" lon="6.75217">
        <ele>440</ele>
        <time>2014-04-13T08:42:26.076Z</time>
      </trkpt>
      <trkpt lat="47.58613" lon="6.75221">
        <ele>441</ele>
        <time>2014-04-13T08:42:31.145Z</time>
      </trkpt>
      <trkpt lat="47.58611" lon="6.75222">
        <ele>443</ele>
        <time>2014-04-13T08:42:36.085Z</time>
      </trkpt>
      <trkpt lat="47.58611" lon="6.75222">
        <ele>443</ele>
        <time>2014-04-13T08:42:41.164Z</time>
      </trkpt>
      <trkpt lat="47.58611" lon="6.75219">
        <ele>442</ele>
        <time>2014-04-13T08:42:46.079Z</time>
      </trkpt>
      <trkpt lat="47.58612" lon="6.75217">
        <ele>442</ele>
        <time>2014-04-13T08:42:51.138Z</time>
      </trkpt>
      <trkpt lat="47.58612" lon="6.75217">
        <ele>442</ele>
        <time>2014-04-13T08:42:56.086Z</time>
      </trkpt>
      <trkpt lat="47.58612" lon="6.75217">
        <ele>442</ele>
        <time>2014-04-13T08:43:01.082Z</time>
      </trkpt>
      <trkpt lat="47.58612" lon="6.75217">
        <ele>442</ele>
        <time>2014-04-13T08:43:06.158Z</time>
      </trkpt>
      <trkpt lat="47.58612" lon="6.75216">
        <ele>442</ele>
        <time>2014-04-13T08:43:11.071Z</time>
      </trkpt>
      <trkpt lat="47.58612" lon="6.75216">
        <ele>442</ele>
        <time>2014-04-13T08:43:16.082Z</time>
      </trkpt>
      <trkpt lat="47.58612" lon="6.75216">
        <ele>442</ele>
        <time>2014-04-13T08:43:21.150Z</time>
      </trkpt>
      <trkpt lat="47.58613" lon="6.75213">
        <ele>441</ele>
        <time>2014-04-13T08:43:26.096Z</time>
      </trkpt>
      <trkpt lat="47.58613" lon="6.75213">
        <ele>441</ele>
        <time>2014-04-13T08:43:31.156Z</time>
      </trkpt>
      <trkpt lat="47.58613" lon="6.75213">
        <ele>441</ele>
        <time>2014-04-13T08:43:36.081Z</time>
      </trkpt>
      <trkpt lat="47.58613" lon="6.75213">
        <ele>441</ele>
        <time>2014-04-13T08:43:41.150Z</time>
      </trkpt>
      <trkpt lat="47.58613" lon="6.75213">
        <ele>441</ele>
        <time>2014-04-13T08:43:46.089Z</time>
      </trkpt>
      <trkpt lat="47.58613" lon="6.75214">
        <ele>441</ele>
        <time>2014-04-13T08:43:51.120Z</time>
      </trkpt>
      <trkpt lat="47.58613" lon="6.75214">
        <ele>441</ele>
        <time>2014-04-13T08:43:56.082Z</time>
      </trkpt>
      <trkpt lat="47.58613" lon="6.75214">
        <ele>441</ele>
        <time>2014-04-13T08:44:01.148Z</time>
      </trkpt>
      <trkpt lat="47.58614" lon="6.75214">
        <ele>441</ele>
        <time>2014-04-13T08:44:06.068Z</time>
      </trkpt>
      <trkpt lat="47.58614" lon="6.75214">
        <ele>442</ele>
        <time>2014-04-13T08:44:11.148Z</time>
      </trkpt>
      <trkpt lat="47.58616" lon="6.75211">
        <ele>443</ele>
        <time>2014-04-13T08:44:16.082Z</time>
      </trkpt>
      <trkpt lat="47.58616" lon="6.75211">
        <ele>443</ele>
        <time>2014-04-13T08:44:21.144Z</time>
      </trkpt>
      <trkpt lat="47.58616" lon="6.75211">
        <ele>443</ele>
        <time>2014-04-13T08:44:26.081Z</time>
      </trkpt>
      <trkpt lat="47.58615" lon="6.75211">
        <ele>443</ele>
        <time>2014-04-13T08:44:31.081Z</time>
      </trkpt>
      <trkpt lat="47.58615" lon="6.75208">
        <ele>443</ele>
        <time>2014-04-13T08:44:36.159Z</time>
      </trkpt>
      <trkpt lat="47.58615" lon="6.75206">
        <ele>443</ele>
        <time>2014-04-13T08:44:41.083Z</time>
      </trkpt>
      <trkpt lat="47.58614" lon="6.75204">
        <ele>442</ele>
        <time>2014-04-13T08:44:46.152Z</time>
      </trkpt>
      <trkpt lat="47.58613" lon="6.75204">
        <ele>442</ele>
        <time>2014-04-13T08:44:51.077Z</time>
      </trkpt>
      <trkpt lat="47.58612" lon="6.75207">
        <ele>441</ele>
        <time>2014-04-13T08:44:56.150Z</time>
      </trkpt>
      <trkpt lat="47.58611" lon="6.75207">
        <ele>442</ele>
        <time>2014-04-13T08:45:21.159Z</time>
      </trkpt>
      <trkpt lat="47.58611" lon="6.75207">
        <ele>442</ele>
        <time>2014-04-13T08:45:26.079Z</time>
      </trkpt>
      <trkpt lat="47.58611" lon="6.75207">
        <ele>442</ele>
        <time>2014-04-13T08:45:31.146Z</time>
      </trkpt>
      <trkpt lat="47.5861" lon="6.75209">
        <ele>442</ele>
        <time>2014-04-13T08:45:36.080Z</time>
      </trkpt>
      <trkpt lat="47.58609" lon="6.75209">
        <ele>442</ele>
        <time>2014-04-13T08:45:41.150Z</time>
      </trkpt>
      <trkpt lat="47.58609" lon="6.75209">
        <ele>442</ele>
        <time>2014-04-13T08:45:46.071Z</time>
      </trkpt>
      <trkpt lat="47.58609" lon="6.75209">
        <ele>442</ele>
        <time>2014-04-13T08:45:51.147Z</time>
      </trkpt>
      <trkpt lat="47.58611" lon="6.75207">
        <ele>443</ele>
        <time>2014-04-13T08:45:56.077Z</time>
      </trkpt>
      <trkpt lat="47.58615" lon="6.75204">
        <ele>441</ele>
        <time>2014-04-13T08:46:16.137Z</time>
      </trkpt>
      <trkpt lat="47.58614" lon="6.75206">
        <ele>441</ele>
        <time>2014-04-13T08:46:21.150Z</time>
      </trkpt>
      <trkpt lat="47.58614" lon="6.7521">
        <ele>439</ele>
        <time>2014-04-13T08:46:26.087Z</time>
      </trkpt>
      <trkpt lat="47.58615" lon="6.75209">
        <ele>439</ele>
        <time>2014-04-13T08:46:31.159Z</time>
      </trkpt>
      <trkpt lat="47.58616" lon="6.7521">
        <ele>438</ele>
        <time>2014-04-13T08:46:36.077Z</time>
      </trkpt>
      <trkpt lat="47.58616" lon="6.7521">
        <ele>438</ele>
        <time>2014-04-13T08:46:41.150Z</time>
      </trkpt>
      <trkpt lat="47.58617" lon="6.7521">
        <ele>439</ele>
        <time>2014-04-13T08:46:46.084Z</time>
      </trkpt>
      <trkpt lat="47.58617" lon="6.7521">
        <ele>439</ele>
        <time>2014-04-13T08:46:51.144Z</time>
      </trkpt>
      <trkpt lat="47.58617" lon="6.75211">
        <ele>439</ele>
        <time>2014-04-13T08:46:56.076Z</time>
      </trkpt>
      <trkpt lat="47.58617" lon="6.75211">
        <ele>439</ele>
        <time>2014-04-13T08:47:01.077Z</time>
      </trkpt>
      <trkpt lat="47.58619" lon="6.75211">
        <ele>439</ele>
        <time>2014-04-13T08:47:06.146Z</time>
      </trkpt>
      <trkpt lat="47.58619" lon="6.75213">
        <ele>439</ele>
        <time>2014-04-13T08:47:11.085Z</time>
      </trkpt>
      <trkpt lat="47.58621" lon="6.75213">
        <ele>441</ele>
        <time>2014-04-13T08:47:16.159Z</time>
      </trkpt>
      <trkpt lat="47.5862" lon="6.75215">
        <ele>441</ele>
        <time>2014-04-13T08:47:21.073Z</time>
      </trkpt>
      <trkpt lat="47.5862" lon="6.75215">
        <ele>441</ele>
        <time>2014-04-13T08:47:26.148Z</time>
      </trkpt>
      <trkpt lat="47.5862" lon="6.75215">
        <ele>441</ele>
        <time>2014-04-13T08:47:31.076Z</time>
      </trkpt>
      <trkpt lat="47.58618" lon="6.75214">
        <ele>441</ele>
        <time>2014-04-13T08:47:36.150Z</time>
      </trkpt>
      <trkpt lat="47.58616" lon="6.75216">
        <ele>440</ele>
        <time>2014-04-13T08:47:41.098Z</time>
      </trkpt>
      <trkpt lat="47.58616" lon="6.75215">
        <ele>440</ele>
        <time>2014-04-13T08:47:46.141Z</time>
      </trkpt>
      <trkpt lat="47.58615" lon="6.75216">
        <ele>440</ele>
        <time>2014-04-13T08:47:51.077Z</time>
      </trkpt>
      <trkpt lat="47.58615" lon="6.75216">
        <ele>440</ele>
        <time>2014-04-13T08:47:56.151Z</time>
      </trkpt>
      <trkpt lat="47.58615" lon="6.75216">
        <ele>440</ele>
        <time>2014-04-13T08:48:01.103Z</time>
      </trkpt>
      <trkpt lat="47.58615" lon="6.75216">
        <ele>440</ele>
        <time>2014-04-13T08:48:06.148Z</time>
      </trkpt>
      <trkpt lat="47.58615" lon="6.75216">
        <ele>440</ele>
        <time>2014-04-13T08:48:11.076Z</time>
      </trkpt>
      <trkpt lat="47.58614" lon="6.75216">
        <ele>440</ele>
        <time>2014-04-13T08:48:16.147Z</time>
      </trkpt>
      <trkpt lat="47.58614" lon="6.75215">
        <ele>440</ele>
        <time>2014-04-13T08:48:21.086Z</time>
      </trkpt>
      <trkpt lat="47.58614" lon="6.75215">
        <ele>440</ele>
        <time>2014-04-13T08:48:26.161Z</time>
      </trkpt>
      <trkpt lat="47.58614" lon="6.75214">
        <ele>440</ele>
        <time>2014-04-13T08:48:31.080Z</time>
      </trkpt>
      <trkpt lat="47.58614" lon="6.75215">
        <ele>440</ele>
        <time>2014-04-13T08:48:36.145Z</time>
      </trkpt>
      <trkpt lat="47.58614" lon="6.75215">
        <ele>440</ele>
        <time>2014-04-13T08:48:41.078Z</time>
      </trkpt>
      <trkpt lat="47.58614" lon="6.75215">
        <ele>440</ele>
        <time>2014-04-13T08:48:46.150Z</time>
      </trkpt>
      <trkpt lat="47.58613" lon="6.75215">
        <ele>440</ele>
        <time>2014-04-13T08:48:51.080Z</time>
      </trkpt>
      <trkpt lat="47.58613" lon="6.75215">
        <ele>440</ele>
        <time>2014-04-13T08:48:56.156Z</time>
      </trkpt>
      <trkpt lat="47.58614" lon="6.75214">
        <ele>439</ele>
        <time>2014-04-13T08:49:01.074Z</time>
      </trkpt>
      <trkpt lat="47.58615" lon="6.75222">
        <ele>440</ele>
        <time>2014-04-13T08:49:06.494Z</time>
      </trkpt>
      <trkpt lat="47.58619" lon="6.75233">
        <ele>441</ele>
        <time>2014-04-13T08:49:11.087Z</time>
      </trkpt>
      <trkpt lat="47.58625" lon="6.75245">
        <ele>442</ele>
        <time>2014-04-13T08:49:16.138Z</time>
      </trkpt>
      <trkpt lat="47.58633" lon="6.75254">
        <ele>443</ele>
        <time>2014-04-13T08:49:21.074Z</time>
      </trkpt>
      <trkpt lat="47.58643" lon="6.75256">
        <ele>443</ele>
        <time>2014-04-13T08:49:26.138Z</time>
      </trkpt>
      <trkpt lat="47.58651" lon="6.75254">
        <ele>443</ele>
        <time>2014-04-13T08:49:31.077Z</time>
      </trkpt>
      <trkpt lat="47.58655" lon="6.7525">
        <ele>443</ele>
        <time>2014-04-13T08:49:36.132Z</time>
      </trkpt>
      <trkpt lat="47.58662" lon="6.75237">
        <ele>444</ele>
        <time>2014-04-13T08:49:41.051Z</time>
      </trkpt>
      <trkpt lat="47.58664" lon="6.75213">
        <ele>447</ele>
        <time>2014-04-13T08:49:51.085Z</time>
      </trkpt>
      <trkpt lat="47.58666" lon="6.75197">
        <ele>449</ele>
        <time>2014-04-13T08:49:56.157Z</time>
      </trkpt>
      <trkpt lat="47.58663" lon="6.75185">
        <ele>449</ele>
        <time>2014-04-13T08:50:01.050Z</time>
      </trkpt>
      <trkpt lat="47.58659" lon="6.75171">
        <ele>451</ele>
        <time>2014-04-13T08:50:06.149Z</time>
      </trkpt>
      <trkpt lat="47.58659" lon="6.75171">
        <ele>451</ele>
        <time>2014-04-13T08:50:06.149Z</time>
      </trkpt>
      <trkpt lat="47.58658" lon="6.75138">
        <ele>452</ele>
        <time>2014-04-13T08:50:16.144Z</time>
      </trkpt>
      <trkpt lat="47.58657" lon="6.7512">
        <ele>452</ele>
        <time>2014-04-13T08:50:21.085Z</time>
      </trkpt>
      <trkpt lat="47.58654" lon="6.75107">
        <ele>454</ele>
        <time>2014-04-13T08:50:26.157Z</time>
      </trkpt>
      <trkpt lat="47.58651" lon="6.75095">
        <ele>456</ele>
        <time>2014-04-13T08:50:31.086Z</time>
      </trkpt>
      <trkpt lat="47.58653" lon="6.75079">
        <ele>458</ele>
        <time>2014-04-13T08:50:36.150Z</time>
      </trkpt>
      <trkpt lat="47.58652" lon="6.75066">
        <ele>459</ele>
        <time>2014-04-13T08:50:41.086Z</time>
      </trkpt>
      <trkpt lat="47.58652" lon="6.75054">
        <ele>460</ele>
        <time>2014-04-13T08:50:46.149Z</time>
      </trkpt>
      <trkpt lat="47.58655" lon="6.7504">
        <ele>461</ele>
        <time>2014-04-13T08:50:51.076Z</time>
      </trkpt>
      <trkpt lat="47.58655" lon="6.75028">
        <ele>461</ele>
        <time>2014-04-13T08:50:56.150Z</time>
      </trkpt>
      <trkpt lat="47.58657" lon="6.75014">
        <ele>462</ele>
        <time>2014-04-13T08:51:01.093Z</time>
      </trkpt>
      <trkpt lat="47.5866" lon="6.75001">
        <ele>463</ele>
        <time>2014-04-13T08:51:06.076Z</time>
      </trkpt>
      <trkpt lat="47.58662" lon="6.74986">
        <ele>462</ele>
        <time>2014-04-13T08:51:11.141Z</time>
      </trkpt>
      <trkpt lat="47.58665" lon="6.74971">
        <ele>463</ele>
        <time>2014-04-13T08:51:16.094Z</time>
      </trkpt>
      <trkpt lat="47.58668" lon="6.74959">
        <ele>463</ele>
        <time>2014-04-13T08:51:21.163Z</time>
      </trkpt>
      <trkpt lat="47.58672" lon="6.74947">
        <ele>465</ele>
        <time>2014-04-13T08:51:26.076Z</time>
      </trkpt>
      <trkpt lat="47.58676" lon="6.74932">
        <ele>466</ele>
        <time>2014-04-13T08:51:31.146Z</time>
      </trkpt>
      <trkpt lat="47.58679" lon="6.74919">
        <ele>468</ele>
        <time>2014-04-13T08:51:36.075Z</time>
      </trkpt>
      <trkpt lat="47.58683" lon="6.74907">
        <ele>469</ele>
        <time>2014-04-13T08:51:41.152Z</time>
      </trkpt>
      <trkpt lat="47.58687" lon="6.74895">
        <ele>468</ele>
        <time>2014-04-13T08:51:46.076Z</time>
      </trkpt>
      <trkpt lat="47.58691" lon="6.7488">
        <ele>469</ele>
        <time>2014-04-13T08:51:51.126Z</time>
      </trkpt>
      <trkpt lat="47.58695" lon="6.74866">
        <ele>469</ele>
        <time>2014-04-13T08:51:56.086Z</time>
      </trkpt>
      <trkpt lat="47.587" lon="6.74856">
        <ele>471</ele>
        <time>2014-04-13T08:52:01.078Z</time>
      </trkpt>
      <trkpt lat="47.58705" lon="6.74849">
        <ele>472</ele>
        <time>2014-04-13T08:52:06.150Z</time>
      </trkpt>
      <trkpt lat="47.58711" lon="6.74846">
        <ele>473</ele>
        <time>2014-04-13T08:52:11.091Z</time>
      </trkpt>
      <trkpt lat="47.58717" lon="6.74848">
        <ele>473</ele>
        <time>2014-04-13T08:52:16.096Z</time>
      </trkpt>
      <trkpt lat="47.58725" lon="6.74851">
        <ele>473</ele>
        <time>2014-04-13T08:52:21.137Z</time>
      </trkpt>
      <trkpt lat="47.58731" lon="6.74857">
        <ele>473</ele>
        <time>2014-04-13T08:52:26.097Z</time>
      </trkpt>
      <trkpt lat="47.58733" lon="6.74867">
        <ele>474</ele>
        <time>2014-04-13T08:52:31.162Z</time>
      </trkpt>
      <trkpt lat="47.58731" lon="6.74877">
        <ele>476</ele>
        <time>2014-04-13T08:52:36.076Z</time>
      </trkpt>
      <trkpt lat="47.58729" lon="6.74891">
        <ele>478</ele>
        <time>2014-04-13T08:52:41.152Z</time>
      </trkpt>
      <trkpt lat="47.58726" lon="6.74903">
        <ele>480</ele>
        <time>2014-04-13T08:52:46.084Z</time>
      </trkpt>
      <trkpt lat="47.58724" lon="6.74917">
        <ele>480</ele>
        <time>2014-04-13T08:52:51.133Z</time>
      </trkpt>
      <trkpt lat="47.58724" lon="6.74933">
        <ele>481</ele>
        <time>2014-04-13T08:52:56.096Z</time>
      </trkpt>
      <trkpt lat="47.58725" lon="6.74947">
        <ele>483</ele>
        <time>2014-04-13T08:53:02.509Z</time>
      </trkpt>
      <trkpt lat="47.58727" lon="6.74963">
        <ele>483</ele>
        <time>2014-04-13T08:53:06.074Z</time>
      </trkpt>
      <trkpt lat="47.5873" lon="6.74978">
        <ele>483</ele>
        <time>2014-04-13T08:53:11.139Z</time>
      </trkpt>
      <trkpt lat="47.58732" lon="6.74992">
        <ele>483</ele>
        <time>2014-04-13T08:53:16.536Z</time>
      </trkpt>
      <trkpt lat="47.58735" lon="6.75007">
        <ele>483</ele>
        <time>2014-04-13T08:53:21.119Z</time>
      </trkpt>
      <trkpt lat="47.58737" lon="6.75021">
        <ele>483</ele>
        <time>2014-04-13T08:53:26.092Z</time>
      </trkpt>
      <trkpt lat="47.58741" lon="6.75034">
        <ele>484</ele>
        <time>2014-04-13T08:53:31.078Z</time>
      </trkpt>
      <trkpt lat="47.58745" lon="6.75048">
        <ele>485</ele>
        <time>2014-04-13T08:53:36.151Z</time>
      </trkpt>
      <trkpt lat="47.5875" lon="6.75062">
        <ele>485</ele>
        <time>2014-04-13T08:53:41.105Z</time>
      </trkpt>
      <trkpt lat="47.58755" lon="6.75071">
        <ele>486</ele>
        <time>2014-04-13T08:53:46.160Z</time>
      </trkpt>
      <trkpt lat="47.5876" lon="6.75084">
        <ele>487</ele>
        <time>2014-04-13T08:53:51.075Z</time>
      </trkpt>
      <trkpt lat="47.58765" lon="6.75098">
        <ele>488</ele>
        <time>2014-04-13T08:53:56.093Z</time>
      </trkpt>
      <trkpt lat="47.58772" lon="6.75112">
        <ele>488</ele>
        <time>2014-04-13T08:54:02.112Z</time>
      </trkpt>
      <trkpt lat="47.58779" lon="6.75126">
        <ele>488</ele>
        <time>2014-04-13T08:54:06.151Z</time>
      </trkpt>
      <trkpt lat="47.58786" lon="6.7514">
        <ele>487</ele>
        <time>2014-04-13T08:54:11.078Z</time>
      </trkpt>
      <trkpt lat="47.58793" lon="6.75153">
        <ele>488</ele>
        <time>2014-04-13T08:54:16.147Z</time>
      </trkpt>
      <trkpt lat="47.588" lon="6.75164">
        <ele>488</ele>
        <time>2014-04-13T08:54:21.084Z</time>
      </trkpt>
      <trkpt lat="47.58807" lon="6.75174">
        <ele>488</ele>
        <time>2014-04-13T08:54:26.153Z</time>
      </trkpt>
      <trkpt lat="47.58814" lon="6.75183">
        <ele>489</ele>
        <time>2014-04-13T08:54:31.078Z</time>
      </trkpt>
      <trkpt lat="47.58821" lon="6.75192">
        <ele>489</ele>
        <time>2014-04-13T08:54:36.145Z</time>
      </trkpt>
      <trkpt lat="47.58827" lon="6.75203">
        <ele>490</ele>
        <time>2014-04-13T08:54:41.091Z</time>
      </trkpt>
      <trkpt lat="47.58835" lon="6.75211">
        <ele>489</ele>
        <time>2014-04-13T08:54:46.148Z</time>
      </trkpt>
      <trkpt lat="47.58843" lon="6.75219">
        <ele>490</ele>
        <time>2014-04-13T08:54:51.078Z</time>
      </trkpt>
      <trkpt lat="47.58851" lon="6.75227">
        <ele>490</ele>
        <time>2014-04-13T08:54:56.148Z</time>
      </trkpt>
      <trkpt lat="47.58859" lon="6.75236">
        <ele>491</ele>
        <time>2014-04-13T08:55:01.082Z</time>
      </trkpt>
      <trkpt lat="47.58868" lon="6.75245">
        <ele>491</ele>
        <time>2014-04-13T08:55:06.146Z</time>
      </trkpt>
      <trkpt lat="47.58875" lon="6.75254">
        <ele>493</ele>
        <time>2014-04-13T08:55:11.087Z</time>
      </trkpt>
      <trkpt lat="47.58883" lon="6.75264">
        <ele>493</ele>
        <time>2014-04-13T08:55:16.150Z</time>
      </trkpt>
      <trkpt lat="47.5889" lon="6.75276">
        <ele>494</ele>
        <time>2014-04-13T08:55:21.136Z</time>
      </trkpt>
      <trkpt lat="47.58895" lon="6.75289">
        <ele>495</ele>
        <time>2014-04-13T08:55:26.092Z</time>
      </trkpt>
      <trkpt lat="47.589" lon="6.75302">
        <ele>497</ele>
        <time>2014-04-13T08:55:31.153Z</time>
      </trkpt>
      <trkpt lat="47.58906" lon="6.75315">
        <ele>498</ele>
        <time>2014-04-13T08:55:36.080Z</time>
      </trkpt>
      <trkpt lat="47.58911" lon="6.75328">
        <ele>499</ele>
        <time>2014-04-13T08:55:41.050Z</time>
      </trkpt>
      <trkpt lat="47.58916" lon="6.75342">
        <ele>499</ele>
        <time>2014-04-13T08:55:46.134Z</time>
      </trkpt>
      <trkpt lat="47.58921" lon="6.75356">
        <ele>499</ele>
        <time>2014-04-13T08:55:51.071Z</time>
      </trkpt>
      <trkpt lat="47.58926" lon="6.75371">
        <ele>501</ele>
        <time>2014-04-13T08:55:56.138Z</time>
      </trkpt>
      <trkpt lat="47.58931" lon="6.75384">
        <ele>504</ele>
        <time>2014-04-13T08:56:01.068Z</time>
      </trkpt>
      <trkpt lat="47.58936" lon="6.75399">
        <ele>505</ele>
        <time>2014-04-13T08:56:06.151Z</time>
      </trkpt>
      <trkpt lat="47.58941" lon="6.75413">
        <ele>506</ele>
        <time>2014-04-13T08:56:11.076Z</time>
      </trkpt>
      <trkpt lat="47.58945" lon="6.75428">
        <ele>507</ele>
        <time>2014-04-13T08:56:16.146Z</time>
      </trkpt>
      <trkpt lat="47.5895" lon="6.75443">
        <ele>508</ele>
        <time>2014-04-13T08:56:21.153Z</time>
      </trkpt>
      <trkpt lat="47.58954" lon="6.75458">
        <ele>508</ele>
        <time>2014-04-13T08:56:26.063Z</time>
      </trkpt>
      <trkpt lat="47.58963" lon="6.7549">
        <ele>507</ele>
        <time>2014-04-13T08:56:36.082Z</time>
      </trkpt>
      <trkpt lat="47.58966" lon="6.75507">
        <ele>507</ele>
        <time>2014-04-13T08:56:41.183Z</time>
      </trkpt>
      <trkpt lat="47.58969" lon="6.75522">
        <ele>508</ele>
        <time>2014-04-13T08:56:46.077Z</time>
      </trkpt>
      <trkpt lat="47.58974" lon="6.75539">
        <ele>508</ele>
        <time>2014-04-13T08:56:51.149Z</time>
      </trkpt>
      <trkpt lat="47.58977" lon="6.75555">
        <ele>508</ele>
        <time>2014-04-13T08:56:56.078Z</time>
      </trkpt>
      <trkpt lat="47.58982" lon="6.7557">
        <ele>509</ele>
        <time>2014-04-13T08:57:01.079Z</time>
      </trkpt>
      <trkpt lat="47.58985" lon="6.75585">
        <ele>509</ele>
        <time>2014-04-13T08:57:06.150Z</time>
      </trkpt>
      <trkpt lat="47.58989" lon="6.75599">
        <ele>510</ele>
        <time>2014-04-13T08:57:11.077Z</time>
      </trkpt>
      <trkpt lat="47.58994" lon="6.75614">
        <ele>512</ele>
        <time>2014-04-13T08:57:16.155Z</time>
      </trkpt>
      <trkpt lat="47.58998" lon="6.75629">
        <ele>513</ele>
        <time>2014-04-13T08:57:21.083Z</time>
      </trkpt>
      <trkpt lat="47.59002" lon="6.75643">
        <ele>515</ele>
        <time>2014-04-13T08:57:26.087Z</time>
      </trkpt>
      <trkpt lat="47.59006" lon="6.75657">
        <ele>517</ele>
        <time>2014-04-13T08:57:31.054Z</time>
      </trkpt>
      <trkpt lat="47.5901" lon="6.75672">
        <ele>518</ele>
        <time>2014-04-13T08:57:36.159Z</time>
      </trkpt>
      <trkpt lat="47.59015" lon="6.75687">
        <ele>519</ele>
        <time>2014-04-13T08:57:41.067Z</time>
      </trkpt>
      <trkpt lat="47.59022" lon="6.75703">
        <ele>519</ele>
        <time>2014-04-13T08:57:46.146Z</time>
      </trkpt>
      <trkpt lat="47.59028" lon="6.75719">
        <ele>519</ele>
        <time>2014-04-13T08:57:51.087Z</time>
      </trkpt>
      <trkpt lat="47.59034" lon="6.75733">
        <ele>519</ele>
        <time>2014-04-13T08:57:56.164Z</time>
      </trkpt>
      <trkpt lat="47.59067" lon="6.75803">
        <ele>522</ele>
        <time>2014-04-13T08:58:21.080Z</time>
      </trkpt>
      <trkpt lat="47.59075" lon="6.75816">
        <ele>521</ele>
        <time>2014-04-13T08:58:26.160Z</time>
      </trkpt>
      <trkpt lat="47.59081" lon="6.75829">
        <ele>522</ele>
        <time>2014-04-13T08:58:31.151Z</time>
      </trkpt>
      <trkpt lat="47.59087" lon="6.75843">
        <ele>522</ele>
        <time>2014-04-13T08:58:36.157Z</time>
      </trkpt>
      <trkpt lat="47.59093" lon="6.75856">
        <ele>522</ele>
        <time>2014-04-13T08:58:41.096Z</time>
      </trkpt>
      <trkpt lat="47.591" lon="6.75869">
        <ele>523</ele>
        <time>2014-04-13T08:58:46.154Z</time>
      </trkpt>
      <trkpt lat="47.59106" lon="6.75883">
        <ele>524</ele>
        <time>2014-04-13T08:58:51.138Z</time>
      </trkpt>
      <trkpt lat="47.59113" lon="6.75896">
        <ele>524</ele>
        <time>2014-04-13T08:58:56.085Z</time>
      </trkpt>
      <trkpt lat="47.59137" lon="6.75948">
        <ele>528</ele>
        <time>2014-04-13T08:59:16.051Z</time>
      </trkpt>
      <trkpt lat="47.59143" lon="6.75962">
        <ele>529</ele>
        <time>2014-04-13T08:59:21.138Z</time>
      </trkpt>
      <trkpt lat="47.59149" lon="6.75976">
        <ele>531</ele>
        <time>2014-04-13T08:59:26.078Z</time>
      </trkpt>
      <trkpt lat="47.59155" lon="6.75991">
        <ele>532</ele>
        <time>2014-04-13T08:59:31.149Z</time>
      </trkpt>
      <trkpt lat="47.59161" lon="6.76004">
        <ele>533</ele>
        <time>2014-04-13T08:59:36.077Z</time>
      </trkpt>
      <trkpt lat="47.59167" lon="6.76017">
        <ele>535</ele>
        <time>2014-04-13T08:59:41.133Z</time>
      </trkpt>
      <trkpt lat="47.59173" lon="6.7603">
        <ele>536</ele>
        <time>2014-04-13T08:59:46.101Z</time>
      </trkpt>
      <trkpt lat="47.59177" lon="6.76044">
        <ele>537</ele>
        <time>2014-04-13T08:59:51.162Z</time>
      </trkpt>
      <trkpt lat="47.59183" lon="6.76058">
        <ele>538</ele>
        <time>2014-04-13T08:59:56.088Z</time>
      </trkpt>
      <trkpt lat="47.59214" lon="6.76125">
        <ele>540</ele>
        <time>2014-04-13T09:00:21.081Z</time>
      </trkpt>
      <trkpt lat="47.59221" lon="6.76138">
        <ele>541</ele>
        <time>2014-04-13T09:00:26.150Z</time>
      </trkpt>
      <trkpt lat="47.59229" lon="6.76145">
        <ele>543</ele>
        <time>2014-04-13T09:00:31.133Z</time>
      </trkpt>
      <trkpt lat="47.59238" lon="6.76147">
        <ele>543</ele>
        <time>2014-04-13T09:00:36.140Z</time>
      </trkpt>
      <trkpt lat="47.59247" lon="6.76139">
        <ele>544</ele>
        <time>2014-04-13T09:00:41.087Z</time>
      </trkpt>
      <trkpt lat="47.59252" lon="6.76128">
        <ele>545</ele>
        <time>2014-04-13T09:00:46.153Z</time>
      </trkpt>
      <trkpt lat="47.59256" lon="6.76113">
        <ele>547</ele>
        <time>2014-04-13T09:00:51.080Z</time>
      </trkpt>
      <trkpt lat="47.59256" lon="6.76096">
        <ele>548</ele>
        <time>2014-04-13T09:00:56.145Z</time>
      </trkpt>
      <trkpt lat="47.59255" lon="6.76079">
        <ele>549</ele>
        <time>2014-04-13T09:01:01.065Z</time>
      </trkpt>
      <trkpt lat="47.59254" lon="6.76063">
        <ele>549</ele>
        <time>2014-04-13T09:01:06.133Z</time>
      </trkpt>
      <trkpt lat="47.59255" lon="6.76047">
        <ele>549</ele>
        <time>2014-04-13T09:01:11.077Z</time>
      </trkpt>
      <trkpt lat="47.59253" lon="6.76031">
        <ele>549</ele>
        <time>2014-04-13T09:01:16.144Z</time>
      </trkpt>
      <trkpt lat="47.59253" lon="6.76015">
        <ele>551</ele>
        <time>2014-04-13T09:01:21.094Z</time>
      </trkpt>
      <trkpt lat="47.59252" lon="6.76">
        <ele>552</ele>
        <time>2014-04-13T09:01:26.159Z</time>
      </trkpt>
      <trkpt lat="47.59252" lon="6.75985">
        <ele>553</ele>
        <time>2014-04-13T09:01:31.075Z</time>
      </trkpt>
      <trkpt lat="47.59254" lon="6.75969">
        <ele>554</ele>
        <time>2014-04-13T09:01:36.144Z</time>
      </trkpt>
      <trkpt lat="47.59256" lon="6.75951">
        <ele>555</ele>
        <time>2014-04-13T09:01:41.082Z</time>
      </trkpt>
      <trkpt lat="47.5926" lon="6.75937">
        <ele>556</ele>
        <time>2014-04-13T09:01:46.151Z</time>
      </trkpt>
      <trkpt lat="47.59263" lon="6.75924">
        <ele>558</ele>
        <time>2014-04-13T09:01:51.095Z</time>
      </trkpt>
      <trkpt lat="47.59265" lon="6.75913">
        <ele>558</ele>
        <time>2014-04-13T09:01:56.160Z</time>
      </trkpt>
      <trkpt lat="47.59279" lon="6.75882">
        <ele>559</ele>
        <time>2014-04-13T09:02:06.989Z</time>
      </trkpt>
      <trkpt lat="47.59286" lon="6.75869">
        <ele>560</ele>
        <time>2014-04-13T09:02:11.166Z</time>
      </trkpt>
      <trkpt lat="47.59291" lon="6.75855">
        <ele>561</ele>
        <time>2014-04-13T09:02:16.086Z</time>
      </trkpt>
      <trkpt lat="47.59298" lon="6.75841">
        <ele>561</ele>
        <time>2014-04-13T09:02:21.141Z</time>
      </trkpt>
      <trkpt lat="47.59304" lon="6.75824">
        <ele>562</ele>
        <time>2014-04-13T09:02:26.085Z</time>
      </trkpt>
      <trkpt lat="47.5931" lon="6.75808">
        <ele>563</ele>
        <time>2014-04-13T09:02:31.148Z</time>
      </trkpt>
      <trkpt lat="47.59314" lon="6.75793">
        <ele>565</ele>
        <time>2014-04-13T09:02:36.076Z</time>
      </trkpt>
      <trkpt lat="47.59317" lon="6.75777">
        <ele>567</ele>
        <time>2014-04-13T09:02:41.158Z</time>
      </trkpt>
      <trkpt lat="47.5932" lon="6.75763">
        <ele>569</ele>
        <time>2014-04-13T09:02:46.091Z</time>
      </trkpt>
      <trkpt lat="47.59322" lon="6.75746">
        <ele>568</ele>
        <time>2014-04-13T09:02:51.078Z</time>
      </trkpt>
      <trkpt lat="47.59326" lon="6.7573">
        <ele>569</ele>
        <time>2014-04-13T09:02:56.138Z</time>
      </trkpt>
      <trkpt lat="47.59329" lon="6.75713">
        <ele>569</ele>
        <time>2014-04-13T09:03:01.401Z</time>
      </trkpt>
      <trkpt lat="47.5933" lon="6.75698">
        <ele>569</ele>
        <time>2014-04-13T09:03:06.168Z</time>
      </trkpt>
      <trkpt lat="47.59332" lon="6.75682">
        <ele>569</ele>
        <time>2014-04-13T09:03:11.077Z</time>
      </trkpt>
      <trkpt lat="47.59334" lon="6.75666">
        <ele>569</ele>
        <time>2014-04-13T09:03:16.159Z</time>
      </trkpt>
      <trkpt lat="47.59335" lon="6.75651">
        <ele>571</ele>
        <time>2014-04-13T09:03:21.084Z</time>
      </trkpt>
      <trkpt lat="47.59336" lon="6.75635">
        <ele>571</ele>
        <time>2014-04-13T09:03:26.149Z</time>
      </trkpt>
      <trkpt lat="47.59337" lon="6.75619">
        <ele>571</ele>
        <time>2014-04-13T09:03:31.078Z</time>
      </trkpt>
      <trkpt lat="47.59338" lon="6.75603">
        <ele>571</ele>
        <time>2014-04-13T09:03:36.140Z</time>
      </trkpt>
      <trkpt lat="47.59339" lon="6.75586">
        <ele>572</ele>
        <time>2014-04-13T09:03:41.086Z</time>
      </trkpt>
      <trkpt lat="47.59342" lon="6.7557">
        <ele>573</ele>
        <time>2014-04-13T09:03:46.085Z</time>
      </trkpt>
      <trkpt lat="47.59342" lon="6.75558">
        <ele>574</ele>
        <time>2014-04-13T09:03:51.150Z</time>
      </trkpt>
      <trkpt lat="47.59344" lon="6.75544">
        <ele>574</ele>
        <time>2014-04-13T09:03:56.088Z</time>
      </trkpt>
      <trkpt lat="47.59349" lon="6.75475">
        <ele>578</ele>
        <time>2014-04-13T09:04:21.149Z</time>
      </trkpt>
      <trkpt lat="47.59353" lon="6.75464">
        <ele>579</ele>
        <time>2014-04-13T09:04:26.092Z</time>
      </trkpt>
      <trkpt lat="47.59355" lon="6.75457">
        <ele>579</ele>
        <time>2014-04-13T09:04:31.130Z</time>
      </trkpt>
      <trkpt lat="47.5936" lon="6.75449">
        <ele>579</ele>
        <time>2014-04-13T09:04:36.096Z</time>
      </trkpt>
      <trkpt lat="47.59369" lon="6.75447">
        <ele>579</ele>
        <time>2014-04-13T09:04:41.153Z</time>
      </trkpt>
      <trkpt lat="47.59378" lon="6.75451">
        <ele>578</ele>
        <time>2014-04-13T09:04:46.078Z</time>
      </trkpt>
      <trkpt lat="47.59386" lon="6.75458">
        <ele>579</ele>
        <time>2014-04-13T09:04:51.144Z</time>
      </trkpt>
      <trkpt lat="47.59393" lon="6.75471">
        <ele>580</ele>
        <time>2014-04-13T09:04:56.079Z</time>
      </trkpt>
      <trkpt lat="47.59407" lon="6.755">
        <ele>582</ele>
        <time>2014-04-13T09:05:06.964Z</time>
      </trkpt>
      <trkpt lat="47.59414" lon="6.75514">
        <ele>583</ele>
        <time>2014-04-13T09:05:11.145Z</time>
      </trkpt>
      <trkpt lat="47.59422" lon="6.75529">
        <ele>582</ele>
        <time>2014-04-13T09:05:16.077Z</time>
      </trkpt>
      <trkpt lat="47.5943" lon="6.75544">
        <ele>582</ele>
        <time>2014-04-13T09:05:21.146Z</time>
      </trkpt>
      <trkpt lat="47.59438" lon="6.75559">
        <ele>583</ele>
        <time>2014-04-13T09:05:26.087Z</time>
      </trkpt>
      <trkpt lat="47.59446" lon="6.75574">
        <ele>583</ele>
        <time>2014-04-13T09:05:31.137Z</time>
      </trkpt>
      <trkpt lat="47.59454" lon="6.7559">
        <ele>583</ele>
        <time>2014-04-13T09:05:36.087Z</time>
      </trkpt>
      <trkpt lat="47.59462" lon="6.75605">
        <ele>582</ele>
        <time>2014-04-13T09:05:41.149Z</time>
      </trkpt>
      <trkpt lat="47.59469" lon="6.7562">
        <ele>583</ele>
        <time>2014-04-13T09:05:46.077Z</time>
      </trkpt>
      <trkpt lat="47.59477" lon="6.75636">
        <ele>583</ele>
        <time>2014-04-13T09:05:51.125Z</time>
      </trkpt>
      <trkpt lat="47.59485" lon="6.75651">
        <ele>583</ele>
        <time>2014-04-13T09:05:56.076Z</time>
      </trkpt>
      <trkpt lat="47.59493" lon="6.75667">
        <ele>583</ele>
        <time>2014-04-13T09:06:01.079Z</time>
      </trkpt>
      <trkpt lat="47.59501" lon="6.75683">
        <ele>583</ele>
        <time>2014-04-13T09:06:06.150Z</time>
      </trkpt>
      <trkpt lat="47.59509" lon="6.75699">
        <ele>584</ele>
        <time>2014-04-13T09:06:11.091Z</time>
      </trkpt>
      <trkpt lat="47.59516" lon="6.75715">
        <ele>584</ele>
        <time>2014-04-13T09:06:16.136Z</time>
      </trkpt>
      <trkpt lat="47.59523" lon="6.7573">
        <ele>585</ele>
        <time>2014-04-13T09:06:21.076Z</time>
      </trkpt>
      <trkpt lat="47.59529" lon="6.75736">
        <ele>586</ele>
        <time>2014-04-13T09:06:26.153Z</time>
      </trkpt>
      <trkpt lat="47.59537" lon="6.75734">
        <ele>587</ele>
        <time>2014-04-13T09:06:31.086Z</time>
      </trkpt>
      <trkpt lat="47.5954" lon="6.75734">
        <ele>587</ele>
        <time>2014-04-13T09:06:36.151Z</time>
      </trkpt>
      <trkpt lat="47.59542" lon="6.75737">
        <ele>588</ele>
        <time>2014-04-13T09:06:41.084Z</time>
      </trkpt>
      <trkpt lat="47.59543" lon="6.75737">
        <ele>587</ele>
        <time>2014-04-13T09:06:46.131Z</time>
      </trkpt>
      <trkpt lat="47.59543" lon="6.75737">
        <ele>587</ele>
        <time>2014-04-13T09:06:51.077Z</time>
      </trkpt>
      <trkpt lat="47.59544" lon="6.75737">
        <ele>586</ele>
        <time>2014-04-13T09:07:21.162Z</time>
      </trkpt>
      <trkpt lat="47.59544" lon="6.75737">
        <ele>586</ele>
        <time>2014-04-13T09:07:26.076Z</time>
      </trkpt>
      <trkpt lat="47.59546" lon="6.75739">
        <ele>586</ele>
        <time>2014-04-13T09:07:31.149Z</time>
      </trkpt>
      <trkpt lat="47.59548" lon="6.75738">
        <ele>587</ele>
        <time>2014-04-13T09:07:36.084Z</time>
      </trkpt>
      <trkpt lat="47.59546" lon="6.75737">
        <ele>586</ele>
        <time>2014-04-13T09:07:41.152Z</time>
      </trkpt>
      <trkpt lat="47.59545" lon="6.75738">
        <ele>586</ele>
        <time>2014-04-13T09:07:46.087Z</time>
      </trkpt>
      <trkpt lat="47.59541" lon="6.75743">
        <ele>586</ele>
        <time>2014-04-13T09:07:51.159Z</time>
      </trkpt>
      <trkpt lat="47.59538" lon="6.75745">
        <ele>585</ele>
        <time>2014-04-13T09:07:56.082Z</time>
      </trkpt>
      <trkpt lat="47.59532" lon="6.75753">
        <ele>584</ele>
        <time>2014-04-13T09:08:06.075Z</time>
      </trkpt>
      <trkpt lat="47.59529" lon="6.75756">
        <ele>584</ele>
        <time>2014-04-13T09:08:11.147Z</time>
      </trkpt>
      <trkpt lat="47.5953" lon="6.75756">
        <ele>583</ele>
        <time>2014-04-13T09:08:16.087Z</time>
      </trkpt>
      <trkpt lat="47.5953" lon="6.75756">
        <ele>583</ele>
        <time>2014-04-13T09:08:21.150Z</time>
      </trkpt>
      <trkpt lat="47.59532" lon="6.75756">
        <ele>583</ele>
        <time>2014-04-13T09:08:26.080Z</time>
      </trkpt>
      <trkpt lat="47.59532" lon="6.75756">
        <ele>583</ele>
        <time>2014-04-13T09:08:31.153Z</time>
      </trkpt>
      <trkpt lat="47.59532" lon="6.75756">
        <ele>583</ele>
        <time>2014-04-13T09:08:36.078Z</time>
      </trkpt>
      <trkpt lat="47.59532" lon="6.75757">
        <ele>583</ele>
        <time>2014-04-13T09:08:41.167Z</time>
      </trkpt>
      <trkpt lat="47.59532" lon="6.75758">
        <ele>583</ele>
        <time>2014-04-13T09:08:46.080Z</time>
      </trkpt>
      <trkpt lat="47.59532" lon="6.75759">
        <ele>584</ele>
        <time>2014-04-13T09:08:51.160Z</time>
      </trkpt>
      <trkpt lat="47.59532" lon="6.75758">
        <ele>584</ele>
        <time>2014-04-13T09:08:56.079Z</time>
      </trkpt>
      <trkpt lat="47.59532" lon="6.75758">
        <ele>584</ele>
        <time>2014-04-13T09:09:01.149Z</time>
      </trkpt>
      <trkpt lat="47.59532" lon="6.75758">
        <ele>584</ele>
        <time>2014-04-13T09:09:06.074Z</time>
      </trkpt>
      <trkpt lat="47.59533" lon="6.75758">
        <ele>584</ele>
        <time>2014-04-13T09:09:11.156Z</time>
      </trkpt>
      <trkpt lat="47.59534" lon="6.75759">
        <ele>584</ele>
        <time>2014-04-13T09:09:16.086Z</time>
      </trkpt>
      <trkpt lat="47.59534" lon="6.7576">
        <ele>583</ele>
        <time>2014-04-13T09:09:21.147Z</time>
      </trkpt>
      <trkpt lat="47.59534" lon="6.75761">
        <ele>583</ele>
        <time>2014-04-13T09:09:26.085Z</time>
      </trkpt>
      <trkpt lat="47.59534" lon="6.75761">
        <ele>583</ele>
        <time>2014-04-13T09:09:31.151Z</time>
      </trkpt>
      <trkpt lat="47.59534" lon="6.75761">
        <ele>583</ele>
        <time>2014-04-13T09:09:36.081Z</time>
      </trkpt>
      <trkpt lat="47.59534" lon="6.75761">
        <ele>583</ele>
        <time>2014-04-13T09:09:41.142Z</time>
      </trkpt>
      <trkpt lat="47.59528" lon="6.75757">
        <ele>583</ele>
        <time>2014-04-13T09:09:46.074Z</time>
      </trkpt>
      <trkpt lat="47.59511" lon="6.7577">
        <ele>583</ele>
        <time>2014-04-13T09:09:51.127Z</time>
      </trkpt>
      <trkpt lat="47.59512" lon="6.75782">
        <ele>584</ele>
        <time>2014-04-13T09:09:56.106Z</time>
      </trkpt>
      <trkpt lat="47.59486" lon="6.75763">
        <ele>584</ele>
        <time>2014-04-13T09:10:16.052Z</time>
      </trkpt>
      <trkpt lat="47.59477" lon="6.75771">
        <ele>584</ele>
        <time>2014-04-13T09:10:21.147Z</time>
      </trkpt>
      <trkpt lat="47.5947" lon="6.75792">
        <ele>583</ele>
        <time>2014-04-13T09:10:26.095Z</time>
      </trkpt>
      <trkpt lat="47.59457" lon="6.75803">
        <ele>583</ele>
        <time>2014-04-13T09:10:31.151Z</time>
      </trkpt>
      <trkpt lat="47.59441" lon="6.75809">
        <ele>580</ele>
        <time>2014-04-13T09:10:36.093Z</time>
      </trkpt>
      <trkpt lat="47.59439" lon="6.75824">
        <ele>580</ele>
        <time>2014-04-13T09:10:41.160Z</time>
      </trkpt>
      <trkpt lat="47.59436" lon="6.7584">
        <ele>579</ele>
        <time>2014-04-13T09:10:46.087Z</time>
      </trkpt>
      <trkpt lat="47.59422" lon="6.75858">
        <ele>579</ele>
        <time>2014-04-13T09:10:51.153Z</time>
      </trkpt>
      <trkpt lat="47.59429" lon="6.75883">
        <ele>578</ele>
        <time>2014-04-13T09:10:56.085Z</time>
      </trkpt>
      <trkpt lat="47.59446" lon="6.75922">
        <ele>578</ele>
        <time>2014-04-13T09:11:06.150Z</time>
      </trkpt>
      <trkpt lat="47.59455" lon="6.75941">
        <ele>577</ele>
        <time>2014-04-13T09:11:11.084Z</time>
      </trkpt>
      <trkpt lat="47.59463" lon="6.75959">
        <ele>577</ele>
        <time>2014-04-13T09:11:16.131Z</time>
      </trkpt>
      <trkpt lat="47.5947" lon="6.75979">
        <ele>576</ele>
        <time>2014-04-13T09:11:21.078Z</time>
      </trkpt>
      <trkpt lat="47.59473" lon="6.75998">
        <ele>577</ele>
        <time>2014-04-13T09:11:26.163Z</time>
      </trkpt>
      <trkpt lat="47.59472" lon="6.7601">
        <ele>576</ele>
        <time>2014-04-13T09:11:31.084Z</time>
      </trkpt>
      <trkpt lat="47.59472" lon="6.76036">
        <ele>576</ele>
        <time>2014-04-13T09:11:36.140Z</time>
      </trkpt>
      <trkpt lat="47.59469" lon="6.76054">
        <ele>576</ele>
        <time>2014-04-13T09:11:41.085Z</time>
      </trkpt>
      <trkpt lat="47.59463" lon="6.76084">
        <ele>576</ele>
        <time>2014-04-13T09:11:46.153Z</time>
      </trkpt>
      <trkpt lat="47.59452" lon="6.76098">
        <ele>576</ele>
        <time>2014-04-13T09:11:51.078Z</time>
      </trkpt>
      <trkpt lat="47.59451" lon="6.76123">
        <ele>575</ele>
        <time>2014-04-13T09:11:56.157Z</time>
      </trkpt>
      <trkpt lat="47.59426" lon="6.76189">
        <ele>576</ele>
        <time>2014-04-13T09:12:16.093Z</time>
      </trkpt>
      <trkpt lat="47.59412" lon="6.76213">
        <ele>576</ele>
        <time>2014-04-13T09:12:21.047Z</time>
      </trkpt>
      <trkpt lat="47.5941" lon="6.76236">
        <ele>576</ele>
        <time>2014-04-13T09:12:26.151Z</time>
      </trkpt>
      <trkpt lat="47.59413" lon="6.7626">
        <ele>576</ele>
        <time>2014-04-13T09:12:31.088Z</time>
      </trkpt>
      <trkpt lat="47.59421" lon="6.76286">
        <ele>576</ele>
        <time>2014-04-13T09:12:36.150Z</time>
      </trkpt>
      <trkpt lat="47.59428" lon="6.76309">
        <ele>575</ele>
        <time>2014-04-13T09:12:41.081Z</time>
      </trkpt>
      <trkpt lat="47.59429" lon="6.7633">
        <ele>574</ele>
        <time>2014-04-13T09:12:46.150Z</time>
      </trkpt>
      <trkpt lat="47.59436" lon="6.76351">
        <ele>573</ele>
        <time>2014-04-13T09:12:51.086Z</time>
      </trkpt>
      <trkpt lat="47.59443" lon="6.76379">
        <ele>573</ele>
        <time>2014-04-13T09:12:56.162Z</time>
      </trkpt>
      <trkpt lat="47.59449" lon="6.76404">
        <ele>574</ele>
        <time>2014-04-13T09:13:02.198Z</time>
      </trkpt>
      <trkpt lat="47.59457" lon="6.76426">
        <ele>570</ele>
        <time>2014-04-13T09:13:06.150Z</time>
      </trkpt>
      <trkpt lat="47.59466" lon="6.7644">
        <ele>567</ele>
        <time>2014-04-13T09:13:11.082Z</time>
      </trkpt>
      <trkpt lat="47.59476" lon="6.76451">
        <ele>566</ele>
        <time>2014-04-13T09:13:16.150Z</time>
      </trkpt>
      <trkpt lat="47.59485" lon="6.76459">
        <ele>564</ele>
        <time>2014-04-13T09:13:21.089Z</time>
      </trkpt>
      <trkpt lat="47.59493" lon="6.76468">
        <ele>564</ele>
        <time>2014-04-13T09:13:26.082Z</time>
      </trkpt>
      <trkpt lat="47.59503" lon="6.76476">
        <ele>564</ele>
        <time>2014-04-13T09:13:31.157Z</time>
      </trkpt>
      <trkpt lat="47.59512" lon="6.76482">
        <ele>566</ele>
        <time>2014-04-13T09:13:36.078Z</time>
      </trkpt>
      <trkpt lat="47.59523" lon="6.76487">
        <ele>566</ele>
        <time>2014-04-13T09:13:41.158Z</time>
      </trkpt>
      <trkpt lat="47.59535" lon="6.76493">
        <ele>566</ele>
        <time>2014-04-13T09:13:46.096Z</time>
      </trkpt>
      <trkpt lat="47.59546" lon="6.76496">
        <ele>566</ele>
        <time>2014-04-13T09:13:51.078Z</time>
      </trkpt>
      <trkpt lat="47.59597" lon="6.76529">
        <ele>572</ele>
        <time>2014-04-13T09:14:16.151Z</time>
      </trkpt>
      <trkpt lat="47.59609" lon="6.76533">
        <ele>573</ele>
        <time>2014-04-13T09:14:21.083Z</time>
      </trkpt>
      <trkpt lat="47.59622" lon="6.76536">
        <ele>574</ele>
        <time>2014-04-13T09:14:26.126Z</time>
      </trkpt>
      <trkpt lat="47.59637" lon="6.76546">
        <ele>575</ele>
        <time>2014-04-13T09:14:31.154Z</time>
      </trkpt>
      <trkpt lat="47.59651" lon="6.76555">
        <ele>575</ele>
        <time>2014-04-13T09:14:36.099Z</time>
      </trkpt>
      <trkpt lat="47.59662" lon="6.76563">
        <ele>576</ele>
        <time>2014-04-13T09:14:41.161Z</time>
      </trkpt>
      <trkpt lat="47.59664" lon="6.76588">
        <ele>577</ele>
        <time>2014-04-13T09:14:46.088Z</time>
      </trkpt>
      <trkpt lat="47.59658" lon="6.76627">
        <ele>579</ele>
        <time>2014-04-13T09:14:51.093Z</time>
      </trkpt>
      <trkpt lat="47.59653" lon="6.76675">
        <ele>580</ele>
        <time>2014-04-13T09:14:56.161Z</time>
      </trkpt>
      <trkpt lat="47.59645" lon="6.76725">
        <ele>582</ele>
        <time>2014-04-13T09:15:02.549Z</time>
      </trkpt>
      <trkpt lat="47.59653" lon="6.76765">
        <ele>581</ele>
        <time>2014-04-13T09:15:06.151Z</time>
      </trkpt>
      <trkpt lat="47.59646" lon="6.76779">
        <ele>581</ele>
        <time>2014-04-13T09:15:11.087Z</time>
      </trkpt>
      <trkpt lat="47.59621" lon="6.76788">
        <ele>581</ele>
        <time>2014-04-13T09:15:16.155Z</time>
      </trkpt>
      <trkpt lat="47.59607" lon="6.76807">
        <ele>579</ele>
        <time>2014-04-13T09:15:21.087Z</time>
      </trkpt>
      <trkpt lat="47.59613" lon="6.76834">
        <ele>577</ele>
        <time>2014-04-13T09:15:26.164Z</time>
      </trkpt>
      <trkpt lat="47.59615" lon="6.7687">
        <ele>576</ele>
        <time>2014-04-13T09:15:31.086Z</time>
      </trkpt>
      <trkpt lat="47.59618" lon="6.76906">
        <ele>573</ele>
        <time>2014-04-13T09:15:36.161Z</time>
      </trkpt>
      <trkpt lat="47.59619" lon="6.76939">
        <ele>569</ele>
        <time>2014-04-13T09:15:41.080Z</time>
      </trkpt>
      <trkpt lat="47.59618" lon="6.76956">
        <ele>570</ele>
        <time>2014-04-13T09:15:46.160Z</time>
      </trkpt>
      <trkpt lat="47.59613" lon="6.76977">
        <ele>567</ele>
        <time>2014-04-13T09:15:51.082Z</time>
      </trkpt>
      <trkpt lat="47.59616" lon="6.77">
        <ele>566</ele>
        <time>2014-04-13T09:15:56.137Z</time>
      </trkpt>
      <trkpt lat="47.59608" lon="6.77025">
        <ele>562</ele>
        <time>2014-04-13T09:16:01.087Z</time>
      </trkpt>
      <trkpt lat="47.596" lon="6.77039">
        <ele>560</ele>
        <time>2014-04-13T09:16:06.165Z</time>
      </trkpt>
      <trkpt lat="47.59603" lon="6.77056">
        <ele>557</ele>
        <time>2014-04-13T09:16:11.077Z</time>
      </trkpt>
      <trkpt lat="47.59605" lon="6.77089">
        <ele>557</ele>
        <time>2014-04-13T09:16:16.077Z</time>
      </trkpt>
      <trkpt lat="47.59608" lon="6.77128">
        <ele>554</ele>
        <time>2014-04-13T09:16:21.150Z</time>
      </trkpt>
      <trkpt lat="47.5961" lon="6.7715">
        <ele>551</ele>
        <time>2014-04-13T09:16:26.090Z</time>
      </trkpt>
      <trkpt lat="47.59624" lon="6.77185">
        <ele>550</ele>
        <time>2014-04-13T09:16:31.146Z</time>
      </trkpt>
      <trkpt lat="47.59628" lon="6.77237">
        <ele>548</ele>
        <time>2014-04-13T09:16:36.084Z</time>
      </trkpt>
      <trkpt lat="47.59634" lon="6.7729">
        <ele>546</ele>
        <time>2014-04-13T09:16:41.151Z</time>
      </trkpt>
      <trkpt lat="47.59633" lon="6.77343">
        <ele>544</ele>
        <time>2014-04-13T09:16:46.087Z</time>
      </trkpt>
      <trkpt lat="47.59632" lon="6.77397">
        <ele>541</ele>
        <time>2014-04-13T09:16:51.153Z</time>
      </trkpt>
      <trkpt lat="47.59645" lon="6.77453">
        <ele>540</ele>
        <time>2014-04-13T09:16:56.095Z</time>
      </trkpt>
      <trkpt lat="47.59653" lon="6.77496">
        <ele>534</ele>
        <time>2014-04-13T09:17:01.160Z</time>
      </trkpt>
      <trkpt lat="47.59648" lon="6.77518">
        <ele>529</ele>
        <time>2014-04-13T09:17:06.142Z</time>
      </trkpt>
      <trkpt lat="47.59629" lon="6.77528">
        <ele>527</ele>
        <time>2014-04-13T09:17:11.094Z</time>
      </trkpt>
      <trkpt lat="47.59602" lon="6.77533">
        <ele>526</ele>
        <time>2014-04-13T09:17:16.161Z</time>
      </trkpt>
      <trkpt lat="47.59567" lon="6.77538">
        <ele>523</ele>
        <time>2014-04-13T09:17:21.076Z</time>
      </trkpt>
      <trkpt lat="47.5953" lon="6.7755">
        <ele>521</ele>
        <time>2014-04-13T09:17:26.139Z</time>
      </trkpt>
      <trkpt lat="47.59495" lon="6.77556">
        <ele>517</ele>
        <time>2014-04-13T09:17:31.076Z</time>
      </trkpt>
      <trkpt lat="47.59459" lon="6.77567">
        <ele>514</ele>
        <time>2014-04-13T09:17:36.048Z</time>
      </trkpt>
      <trkpt lat="47.59431" lon="6.77573">
        <ele>510</ele>
        <time>2014-04-13T09:17:41.150Z</time>
      </trkpt>
      <trkpt lat="47.59436" lon="6.77603">
        <ele>506</ele>
        <time>2014-04-13T09:17:46.082Z</time>
      </trkpt>
      <trkpt lat="47.59447" lon="6.77649">
        <ele>500</ele>
        <time>2014-04-13T09:17:51.150Z</time>
      </trkpt>
      <trkpt lat="47.59522" lon="6.7783">
        <ele>482</ele>
        <time>2014-04-13T09:18:16.081Z</time>
      </trkpt>
      <trkpt lat="47.59518" lon="6.77849">
        <ele>480</ele>
        <time>2014-04-13T09:18:21.152Z</time>
      </trkpt>
      <trkpt lat="47.5952" lon="6.77895">
        <ele>475</ele>
        <time>2014-04-13T09:18:26.083Z</time>
      </trkpt>
      <trkpt lat="47.59523" lon="6.77923">
        <ele>472</ele>
        <time>2014-04-13T09:18:31.149Z</time>
      </trkpt>
      <trkpt lat="47.59523" lon="6.77925">
        <ele>471</ele>
        <time>2014-04-13T09:18:36.279Z</time>
      </trkpt>
      <trkpt lat="47.59524" lon="6.77927">
        <ele>470</ele>
        <time>2014-04-13T09:18:41.152Z</time>
      </trkpt>
      <trkpt lat="47.59524" lon="6.77927">
        <ele>470</ele>
        <time>2014-04-13T09:18:46.089Z</time>
      </trkpt>
      <trkpt lat="47.59524" lon="6.77927">
        <ele>470</ele>
        <time>2014-04-13T09:18:51.147Z</time>
      </trkpt>
      <trkpt lat="47.59524" lon="6.77927">
        <ele>470</ele>
        <time>2014-04-13T09:18:56.089Z</time>
      </trkpt>
      <trkpt lat="47.59524" lon="6.77928">
        <ele>469</ele>
        <time>2014-04-13T09:19:06.095Z</time>
      </trkpt>
      <trkpt lat="47.59525" lon="6.77928">
        <ele>468</ele>
        <time>2014-04-13T09:19:11.150Z</time>
      </trkpt>
      <trkpt lat="47.59525" lon="6.77928">
        <ele>468</ele>
        <time>2014-04-13T09:19:16.092Z</time>
      </trkpt>
      <trkpt lat="47.59525" lon="6.77928">
        <ele>468</ele>
        <time>2014-04-13T09:19:21.152Z</time>
      </trkpt>
      <trkpt lat="47.59525" lon="6.77928">
        <ele>468</ele>
        <time>2014-04-13T09:19:26.090Z</time>
      </trkpt>
      <trkpt lat="47.59526" lon="6.77928">
        <ele>467</ele>
        <time>2014-04-13T09:19:31.130Z</time>
      </trkpt>
      <trkpt lat="47.59526" lon="6.77928">
        <ele>467</ele>
        <time>2014-04-13T09:19:36.081Z</time>
      </trkpt>
      <trkpt lat="47.59526" lon="6.77928">
        <ele>467</ele>
        <time>2014-04-13T09:19:41.129Z</time>
      </trkpt>
      <trkpt lat="47.59526" lon="6.77928">
        <ele>467</ele>
        <time>2014-04-13T09:19:46.088Z</time>
      </trkpt>
      <trkpt lat="47.59526" lon="6.77928">
        <ele>467</ele>
        <time>2014-04-13T09:19:51.161Z</time>
      </trkpt>
      <trkpt lat="47.59526" lon="6.77928">
        <ele>467</ele>
        <time>2014-04-13T09:19:56.081Z</time>
      </trkpt>
      <trkpt lat="47.59526" lon="6.77928">
        <ele>467</ele>
        <time>2014-04-13T09:20:01.089Z</time>
      </trkpt>
      <trkpt lat="47.59526" lon="6.77928">
        <ele>467</ele>
        <time>2014-04-13T09:20:06.158Z</time>
      </trkpt>
      <trkpt lat="47.59526" lon="6.77927">
        <ele>467</ele>
        <time>2014-04-13T09:20:11.075Z</time>
      </trkpt>
      <trkpt lat="47.59526" lon="6.77927">
        <ele>467</ele>
        <time>2014-04-13T09:20:16.162Z</time>
      </trkpt>
      <trkpt lat="47.59527" lon="6.77927">
        <ele>467</ele>
        <time>2014-04-13T09:20:21.083Z</time>
      </trkpt>
      <trkpt lat="47.59527" lon="6.77927">
        <ele>467</ele>
        <time>2014-04-13T09:20:26.151Z</time>
      </trkpt>
      <trkpt lat="47.59527" lon="6.77927">
        <ele>467</ele>
        <time>2014-04-13T09:20:31.076Z</time>
      </trkpt>
      <trkpt lat="47.59527" lon="6.77927">
        <ele>467</ele>
        <time>2014-04-13T09:20:36.147Z</time>
      </trkpt>
      <trkpt lat="47.59528" lon="6.77928">
        <ele>467</ele>
        <time>2014-04-13T09:20:41.087Z</time>
      </trkpt>
      <trkpt lat="47.59528" lon="6.77928">
        <ele>467</ele>
        <time>2014-04-13T09:20:46.239Z</time>
      </trkpt>
      <trkpt lat="47.59528" lon="6.77928">
        <ele>467</ele>
        <time>2014-04-13T09:20:51.148Z</time>
      </trkpt>
      <trkpt lat="47.59527" lon="6.77928">
        <ele>467</ele>
        <time>2014-04-13T09:20:56.086Z</time>
      </trkpt>
      <trkpt lat="47.59527" lon="6.77928">
        <ele>467</ele>
        <time>2014-04-13T09:21:01.164Z</time>
      </trkpt>
      <trkpt lat="47.59527" lon="6.77927">
        <ele>468</ele>
        <time>2014-04-13T09:21:06.113Z</time>
      </trkpt>
      <trkpt lat="47.59527" lon="6.77927">
        <ele>468</ele>
        <time>2014-04-13T09:21:11.149Z</time>
      </trkpt>
      <trkpt lat="47.59527" lon="6.77927">
        <ele>467</ele>
        <time>2014-04-13T09:21:16.078Z</time>
      </trkpt>
      <trkpt lat="47.59527" lon="6.77927">
        <ele>467</ele>
        <time>2014-04-13T09:21:21.152Z</time>
      </trkpt>
      <trkpt lat="47.59528" lon="6.77926">
        <ele>467</ele>
        <time>2014-04-13T09:21:26.088Z</time>
      </trkpt>
      <trkpt lat="47.59529" lon="6.77926">
        <ele>467</ele>
        <time>2014-04-13T09:21:31.133Z</time>
      </trkpt>
      <trkpt lat="47.59522" lon="6.77934">
        <ele>466</ele>
        <time>2014-04-13T09:21:36.090Z</time>
      </trkpt>
      <trkpt lat="47.59502" lon="6.77947">
        <ele>466</ele>
        <time>2014-04-13T09:21:41.081Z</time>
      </trkpt>
      <trkpt lat="47.59469" lon="6.77956">
        <ele>467</ele>
        <time>2014-04-13T09:21:46.081Z</time>
      </trkpt>
      <trkpt lat="47.59428" lon="6.77964">
        <ele>466</ele>
        <time>2014-04-13T09:21:51.157Z</time>
      </trkpt>
      <trkpt lat="47.59382" lon="6.77973">
        <ele>465</ele>
        <time>2014-04-13T09:21:56.089Z</time>
      </trkpt>
      <trkpt lat="47.59334" lon="6.77985">
        <ele>462</ele>
        <time>2014-04-13T09:22:01.152Z</time>
      </trkpt>
      <trkpt lat="47.59287" lon="6.78002">
        <ele>456</ele>
        <time>2014-04-13T09:22:06.079Z</time>
      </trkpt>
      <trkpt lat="47.59246" lon="6.78042">
        <ele>450</ele>
        <time>2014-04-13T09:22:11.146Z</time>
      </trkpt>
      <trkpt lat="47.59206" lon="6.78087">
        <ele>444</ele>
        <time>2014-04-13T09:22:16.090Z</time>
      </trkpt>
      <trkpt lat="47.59169" lon="6.78126">
        <ele>439</ele>
        <time>2014-04-13T09:22:21.163Z</time>
      </trkpt>
      <trkpt lat="47.59129" lon="6.78139">
        <ele>436</ele>
        <time>2014-04-13T09:22:26.083Z</time>
      </trkpt>
      <trkpt lat="47.59105" lon="6.78184">
        <ele>435</ele>
        <time>2014-04-13T09:22:31.152Z</time>
      </trkpt>
      <trkpt lat="47.59069" lon="6.78219">
        <ele>434</ele>
        <time>2014-04-13T09:22:36.084Z</time>
      </trkpt>
      <trkpt lat="47.59033" lon="6.78254">
        <ele>432</ele>
        <time>2014-04-13T09:22:41.151Z</time>
      </trkpt>
      <trkpt lat="47.59016" lon="6.78269">
        <ele>430</ele>
        <time>2014-04-13T09:22:46.088Z</time>
      </trkpt>
      <trkpt lat="47.59014" lon="6.7828">
        <ele>429</ele>
        <time>2014-04-13T09:22:51.297Z</time>
      </trkpt>
      <trkpt lat="47.59026" lon="6.78285">
        <ele>426</ele>
        <time>2014-04-13T09:22:56.076Z</time>
      </trkpt>
      <trkpt lat="47.59036" lon="6.78287">
        <ele>423</ele>
        <time>2014-04-13T09:23:01.089Z</time>
      </trkpt>
      <trkpt lat="47.59037" lon="6.78286">
        <ele>422</ele>
        <time>2014-04-13T09:23:06.083Z</time>
      </trkpt>
      <trkpt lat="47.59037" lon="6.78286">
        <ele>422</ele>
        <time>2014-04-13T09:23:11.154Z</time>
      </trkpt>
      <trkpt lat="47.59039" lon="6.78299">
        <ele>421</ele>
        <time>2014-04-13T09:23:16.081Z</time>
      </trkpt>
      <trkpt lat="47.5904" lon="6.7833">
        <ele>419</ele>
        <time>2014-04-13T09:23:21.157Z</time>
      </trkpt>
      <trkpt lat="47.59047" lon="6.78364">
        <ele>418</ele>
        <time>2014-04-13T09:23:26.081Z</time>
      </trkpt>
      <trkpt lat="47.59049" lon="6.78409">
        <ele>417</ele>
        <time>2014-04-13T09:23:31.148Z</time>
      </trkpt>
      <trkpt lat="47.59047" lon="6.78455">
        <ele>415</ele>
        <time>2014-04-13T09:23:36.090Z</time>
      </trkpt>
      <trkpt lat="47.59031" lon="6.78499">
        <ele>414</ele>
        <time>2014-04-13T09:23:41.161Z</time>
      </trkpt>
      <trkpt lat="47.5901" lon="6.78538">
        <ele>414</ele>
        <time>2014-04-13T09:23:46.083Z</time>
      </trkpt>
      <trkpt lat="47.58983" lon="6.78567">
        <ele>414</ele>
        <time>2014-04-13T09:23:51.150Z</time>
      </trkpt>
      <trkpt lat="47.58956" lon="6.78595">
        <ele>414</ele>
        <time>2014-04-13T09:23:56.086Z</time>
      </trkpt>
      <trkpt lat="47.58922" lon="6.78593">
        <ele>415</ele>
        <time>2014-04-13T09:24:01.152Z</time>
      </trkpt>
      <trkpt lat="47.58893" lon="6.78587">
        <ele>414</ele>
        <time>2014-04-13T09:24:06.077Z</time>
      </trkpt>
      <trkpt lat="47.58865" lon="6.78579">
        <ele>415</ele>
        <time>2014-04-13T09:24:11.139Z</time>
      </trkpt>
      <trkpt lat="47.58844" lon="6.78578">
        <ele>415</ele>
        <time>2014-04-13T09:24:16.089Z</time>
      </trkpt>
      <trkpt lat="47.58822" lon="6.78569">
        <ele>415</ele>
        <time>2014-04-13T09:24:21.168Z</time>
      </trkpt>
      <trkpt lat="47.58773" lon="6.78557">
        <ele>415</ele>
        <time>2014-04-13T09:24:31.151Z</time>
      </trkpt>
      <trkpt lat="47.58749" lon="6.78562">
        <ele>416</ele>
        <time>2014-04-13T09:24:36.088Z</time>
      </trkpt>
      <trkpt lat="47.58734" lon="6.78574">
        <ele>417</ele>
        <time>2014-04-13T09:24:41.152Z</time>
      </trkpt>
      <trkpt lat="47.58717" lon="6.78584">
        <ele>417</ele>
        <time>2014-04-13T09:24:46.083Z</time>
      </trkpt>
      <trkpt lat="47.58699" lon="6.78594">
        <ele>417</ele>
        <time>2014-04-13T09:24:51.068Z</time>
      </trkpt>
      <trkpt lat="47.58684" lon="6.786">
        <ele>418</ele>
        <time>2014-04-13T09:24:56.139Z</time>
      </trkpt>
      <trkpt lat="47.58669" lon="6.78609">
        <ele>418</ele>
        <time>2014-04-13T09:25:01.092Z</time>
      </trkpt>
      <trkpt lat="47.58654" lon="6.78619">
        <ele>419</ele>
        <time>2014-04-13T09:25:06.155Z</time>
      </trkpt>
      <trkpt lat="47.58638" lon="6.78633">
        <ele>420</ele>
        <time>2014-04-13T09:25:11.089Z</time>
      </trkpt>
      <trkpt lat="47.58624" lon="6.7865">
        <ele>421</ele>
        <time>2014-04-13T09:25:16.142Z</time>
      </trkpt>
      <trkpt lat="47.58608" lon="6.78665">
        <ele>420</ele>
        <time>2014-04-13T09:25:21.080Z</time>
      </trkpt>
      <trkpt lat="47.58597" lon="6.78679">
        <ele>422</ele>
        <time>2014-04-13T09:25:26.160Z</time>
      </trkpt>
      <trkpt lat="47.58589" lon="6.78698">
        <ele>423</ele>
        <time>2014-04-13T09:25:31.086Z</time>
      </trkpt>
      <trkpt lat="47.58584" lon="6.7872">
        <ele>422</ele>
        <time>2014-04-13T09:25:36.157Z</time>
      </trkpt>
      <trkpt lat="47.5858" lon="6.78742">
        <ele>420</ele>
        <time>2014-04-13T09:25:41.081Z</time>
      </trkpt>
      <trkpt lat="47.58574" lon="6.78761">
        <ele>418</ele>
        <time>2014-04-13T09:25:46.149Z</time>
      </trkpt>
      <trkpt lat="47.58568" lon="6.78766">
        <ele>417</ele>
        <time>2014-04-13T09:25:51.090Z</time>
      </trkpt>
      <trkpt lat="47.58555" lon="6.78767">
        <ele>416</ele>
        <time>2014-04-13T09:25:56.165Z</time>
      </trkpt>
      <trkpt lat="47.58477" lon="6.78842">
        <ele>416</ele>
        <time>2014-04-13T09:26:16.163Z</time>
      </trkpt>
      <trkpt lat="47.58455" lon="6.78832">
        <ele>415</ele>
        <time>2014-04-13T09:26:21.082Z</time>
      </trkpt>
      <trkpt lat="47.58456" lon="6.78791">
        <ele>414</ele>
        <time>2014-04-13T09:26:26.150Z</time>
      </trkpt>
      <trkpt lat="47.58457" lon="6.78755">
        <ele>413</ele>
        <time>2014-04-13T09:26:31.082Z</time>
      </trkpt>
      <trkpt lat="47.58456" lon="6.78717">
        <ele>412</ele>
        <time>2014-04-13T09:26:36.155Z</time>
      </trkpt>
      <trkpt lat="47.58452" lon="6.78668">
        <ele>410</ele>
        <time>2014-04-13T09:26:41.081Z</time>
      </trkpt>
      <trkpt lat="47.58434" lon="6.78622">
        <ele>408</ele>
        <time>2014-04-13T09:26:46.151Z</time>
      </trkpt>
      <trkpt lat="47.58412" lon="6.78607">
        <ele>407</ele>
        <time>2014-04-13T09:26:51.089Z</time>
      </trkpt>
      <trkpt lat="47.58401" lon="6.78591">
        <ele>407</ele>
        <time>2014-04-13T09:26:56.159Z</time>
      </trkpt>
      <trkpt lat="47.58388" lon="6.78528">
        <ele>406</ele>
        <time>2014-04-13T09:27:06.134Z</time>
      </trkpt>
      <trkpt lat="47.58366" lon="6.78514">
        <ele>405</ele>
        <time>2014-04-13T09:27:11.090Z</time>
      </trkpt>
      <trkpt lat="47.58343" lon="6.78501">
        <ele>405</ele>
        <time>2014-04-13T09:27:16.143Z</time>
      </trkpt>
      <trkpt lat="47.58321" lon="6.78489">
        <ele>405</ele>
        <time>2014-04-13T09:27:21.091Z</time>
      </trkpt>
      <trkpt lat="47.58301" lon="6.78477">
        <ele>404</ele>
        <time>2014-04-13T09:27:26.169Z</time>
      </trkpt>
      <trkpt lat="47.58285" lon="6.78467">
        <ele>405</ele>
        <time>2014-04-13T09:27:31.085Z</time>
      </trkpt>
      <trkpt lat="47.58266" lon="6.78457">
        <ele>405</ele>
        <time>2014-04-13T09:27:36.153Z</time>
      </trkpt>
      <trkpt lat="47.58245" lon="6.78446">
        <ele>404</ele>
        <time>2014-04-13T09:27:41.093Z</time>
      </trkpt>
      <trkpt lat="47.58224" lon="6.78433">
        <ele>404</ele>
        <time>2014-04-13T09:27:46.157Z</time>
      </trkpt>
      <trkpt lat="47.58202" lon="6.78421">
        <ele>403</ele>
        <time>2014-04-13T09:27:51.082Z</time>
      </trkpt>
      <trkpt lat="47.5818" lon="6.78411">
        <ele>403</ele>
        <time>2014-04-13T09:27:56.142Z</time>
      </trkpt>
      <trkpt lat="47.58164" lon="6.78427">
        <ele>403</ele>
        <time>2014-04-13T09:28:01.093Z</time>
      </trkpt>
      <trkpt lat="47.58149" lon="6.78451">
        <ele>403</ele>
        <time>2014-04-13T09:28:06.167Z</time>
      </trkpt>
      <trkpt lat="47.58134" lon="6.7847">
        <ele>402</ele>
        <time>2014-04-13T09:28:11.084Z</time>
      </trkpt>
      <trkpt lat="47.58118" lon="6.78453">
        <ele>402</ele>
        <time>2014-04-13T09:28:16.153Z</time>
      </trkpt>
      <trkpt lat="47.58103" lon="6.78431">
        <ele>402</ele>
        <time>2014-04-13T09:28:21.092Z</time>
      </trkpt>
      <trkpt lat="47.58089" lon="6.78407">
        <ele>402</ele>
        <time>2014-04-13T09:28:26.151Z</time>
      </trkpt>
      <trkpt lat="47.58072" lon="6.78383">
        <ele>402</ele>
        <time>2014-04-13T09:28:31.080Z</time>
      </trkpt>
      <trkpt lat="47.58053" lon="6.78361">
        <ele>402</ele>
        <time>2014-04-13T09:28:36.142Z</time>
      </trkpt>
      <trkpt lat="47.58033" lon="6.78344">
        <ele>402</ele>
        <time>2014-04-13T09:28:41.093Z</time>
      </trkpt>
      <trkpt lat="47.58013" lon="6.78326">
        <ele>402</ele>
        <time>2014-04-13T09:28:46.163Z</time>
      </trkpt>
      <trkpt lat="47.57993" lon="6.78309">
        <ele>402</ele>
        <time>2014-04-13T09:28:51.083Z</time>
      </trkpt>
      <trkpt lat="47.57974" lon="6.78291">
        <ele>403</ele>
        <time>2014-04-13T09:28:56.091Z</time>
      </trkpt>
      <trkpt lat="47.57954" lon="6.78274">
        <ele>402</ele>
        <time>2014-04-13T09:29:01.081Z</time>
      </trkpt>
      <trkpt lat="47.57934" lon="6.78258">
        <ele>402</ele>
        <time>2014-04-13T09:29:06.150Z</time>
      </trkpt>
      <trkpt lat="47.57919" lon="6.7825">
        <ele>402</ele>
        <time>2014-04-13T09:29:11.086Z</time>
      </trkpt>
      <trkpt lat="47.57915" lon="6.78256">
        <ele>402</ele>
        <time>2014-04-13T09:29:16.135Z</time>
      </trkpt>
      <trkpt lat="47.57911" lon="6.78262">
        <ele>403</ele>
        <time>2014-04-13T09:29:21.096Z</time>
      </trkpt>
      <trkpt lat="47.57909" lon="6.78272">
        <ele>404</ele>
        <time>2014-04-13T09:29:26.149Z</time>
      </trkpt>
      <trkpt lat="47.57908" lon="6.78281">
        <ele>405</ele>
        <time>2014-04-13T09:29:31.087Z</time>
      </trkpt>
      <trkpt lat="47.57908" lon="6.78291">
        <ele>405</ele>
        <time>2014-04-13T09:29:36.088Z</time>
      </trkpt>
      <trkpt lat="47.57906" lon="6.78299">
        <ele>407</ele>
        <time>2014-04-13T09:29:41.162Z</time>
      </trkpt>
      <trkpt lat="47.57908" lon="6.78308">
        <ele>408</ele>
        <time>2014-04-13T09:29:46.080Z</time>
      </trkpt>
      <trkpt lat="47.57912" lon="6.78315">
        <ele>408</ele>
        <time>2014-04-13T09:29:51.156Z</time>
      </trkpt>
      <trkpt lat="47.57908" lon="6.78317">
        <ele>407</ele>
        <time>2014-04-13T09:29:56.078Z</time>
      </trkpt>
      <trkpt lat="47.57905" lon="6.78312">
        <ele>407</ele>
        <time>2014-04-13T09:30:01.155Z</time>
      </trkpt>
      <trkpt lat="47.57909" lon="6.78315">
        <ele>408</ele>
        <time>2014-04-13T09:30:06.078Z</time>
      </trkpt>
      <trkpt lat="47.57913" lon="6.78321">
        <ele>408</ele>
        <time>2014-04-13T09:30:11.142Z</time>
      </trkpt>
      <trkpt lat="47.57918" lon="6.78328">
        <ele>409</ele>
        <time>2014-04-13T09:30:16.092Z</time>
      </trkpt>
      <trkpt lat="47.57924" lon="6.78335">
        <ele>410</ele>
        <time>2014-04-13T09:30:21.156Z</time>
      </trkpt>
      <trkpt lat="47.57931" lon="6.78343">
        <ele>410</ele>
        <time>2014-04-13T09:30:26.086Z</time>
      </trkpt>
      <trkpt lat="47.57938" lon="6.78353">
        <ele>410</ele>
        <time>2014-04-13T09:30:31.151Z</time>
      </trkpt>
      <trkpt lat="47.57945" lon="6.78362">
        <ele>410</ele>
        <time>2014-04-13T09:30:36.102Z</time>
      </trkpt>
      <trkpt lat="47.57961" lon="6.78383">
        <ele>411</ele>
        <time>2014-04-13T09:30:46.083Z</time>
      </trkpt>
      <trkpt lat="47.57969" lon="6.78395">
        <ele>411</ele>
        <time>2014-04-13T09:30:51.156Z</time>
      </trkpt>
      <trkpt lat="47.57978" lon="6.78408">
        <ele>411</ele>
        <time>2014-04-13T09:30:56.100Z</time>
      </trkpt>
      <trkpt lat="47.57986" lon="6.78421">
        <ele>411</ele>
        <time>2014-04-13T09:31:01.084Z</time>
      </trkpt>
      <trkpt lat="47.57993" lon="6.78435">
        <ele>411</ele>
        <time>2014-04-13T09:31:06.151Z</time>
      </trkpt>
      <trkpt lat="47.57999" lon="6.78449">
        <ele>411</ele>
        <time>2014-04-13T09:31:11.098Z</time>
      </trkpt>
      <trkpt lat="47.58006" lon="6.78461">
        <ele>412</ele>
        <time>2014-04-13T09:31:16.151Z</time>
      </trkpt>
      <trkpt lat="47.58012" lon="6.78472">
        <ele>413</ele>
        <time>2014-04-13T09:31:21.098Z</time>
      </trkpt>
      <trkpt lat="47.58015" lon="6.78485">
        <ele>414</ele>
        <time>2014-04-13T09:31:26.169Z</time>
      </trkpt>
      <trkpt lat="47.5802" lon="6.78498">
        <ele>415</ele>
        <time>2014-04-13T09:31:31.079Z</time>
      </trkpt>
      <trkpt lat="47.58026" lon="6.78512">
        <ele>415</ele>
        <time>2014-04-13T09:31:36.160Z</time>
      </trkpt>
      <trkpt lat="47.5803" lon="6.78525">
        <ele>416</ele>
        <time>2014-04-13T09:31:41.083Z</time>
      </trkpt>
      <trkpt lat="47.58036" lon="6.7854">
        <ele>416</ele>
        <time>2014-04-13T09:31:46.158Z</time>
      </trkpt>
      <trkpt lat="47.58043" lon="6.78555">
        <ele>417</ele>
        <time>2014-04-13T09:31:51.082Z</time>
      </trkpt>
      <trkpt lat="47.5805" lon="6.78572">
        <ele>417</ele>
        <time>2014-04-13T09:31:56.154Z</time>
      </trkpt>
      <trkpt lat="47.58056" lon="6.78591">
        <ele>418</ele>
        <time>2014-04-13T09:32:01.056Z</time>
      </trkpt>
      <trkpt lat="47.58063" lon="6.78612">
        <ele>418</ele>
        <time>2014-04-13T09:32:06.161Z</time>
      </trkpt>
      <trkpt lat="47.5807" lon="6.78635">
        <ele>418</ele>
        <time>2014-04-13T09:32:11.087Z</time>
      </trkpt>
      <trkpt lat="47.58078" lon="6.78657">
        <ele>418</ele>
        <time>2014-04-13T09:32:16.153Z</time>
      </trkpt>
      <trkpt lat="47.58085" lon="6.78683">
        <ele>418</ele>
        <time>2014-04-13T09:32:21.044Z</time>
      </trkpt>
      <trkpt lat="47.58094" lon="6.78712">
        <ele>419</ele>
        <time>2014-04-13T09:32:26.145Z</time>
      </trkpt>
      <trkpt lat="47.58099" lon="6.78742">
        <ele>419</ele>
        <time>2014-04-13T09:32:31.096Z</time>
      </trkpt>
      <trkpt lat="47.58104" lon="6.7877">
        <ele>420</ele>
        <time>2014-04-13T09:32:36.168Z</time>
      </trkpt>
      <trkpt lat="47.58101" lon="6.78797">
        <ele>421</ele>
        <time>2014-04-13T09:32:41.085Z</time>
      </trkpt>
      <trkpt lat="47.58096" lon="6.78817">
        <ele>422</ele>
        <time>2014-04-13T09:32:46.150Z</time>
      </trkpt>
      <trkpt lat="47.58093" lon="6.78835">
        <ele>424</ele>
        <time>2014-04-13T09:32:51.075Z</time>
      </trkpt>
      <trkpt lat="47.5809" lon="6.78855">
        <ele>425</ele>
        <time>2014-04-13T09:32:56.151Z</time>
      </trkpt>
      <trkpt lat="47.58081" lon="6.78888">
        <ele>428</ele>
        <time>2014-04-13T09:33:06.138Z</time>
      </trkpt>
      <trkpt lat="47.58078" lon="6.78903">
        <ele>428</ele>
        <time>2014-04-13T09:33:11.084Z</time>
      </trkpt>
      <trkpt lat="47.58074" lon="6.78915">
        <ele>429</ele>
        <time>2014-04-13T09:33:16.161Z</time>
      </trkpt>
      <trkpt lat="47.58068" lon="6.78927">
        <ele>430</ele>
        <time>2014-04-13T09:33:21.079Z</time>
      </trkpt>
      <trkpt lat="47.58064" lon="6.7894">
        <ele>431</ele>
        <time>2014-04-13T09:33:26.150Z</time>
      </trkpt>
      <trkpt lat="47.58059" lon="6.78952">
        <ele>431</ele>
        <time>2014-04-13T09:33:31.085Z</time>
      </trkpt>
      <trkpt lat="47.58054" lon="6.78965">
        <ele>431</ele>
        <time>2014-04-13T09:33:36.152Z</time>
      </trkpt>
      <trkpt lat="47.58047" lon="6.78977">
        <ele>431</ele>
        <time>2014-04-13T09:33:41.076Z</time>
      </trkpt>
      <trkpt lat="47.58042" lon="6.78987">
        <ele>432</ele>
        <time>2014-04-13T09:33:46.131Z</time>
      </trkpt>
      <trkpt lat="47.58036" lon="6.78996">
        <ele>434</ele>
        <time>2014-04-13T09:33:51.093Z</time>
      </trkpt>
      <trkpt lat="47.58031" lon="6.79006">
        <ele>435</ele>
        <time>2014-04-13T09:33:56.150Z</time>
      </trkpt>
      <trkpt lat="47.58025" lon="6.79015">
        <ele>437</ele>
        <time>2014-04-13T09:34:01.091Z</time>
      </trkpt>
      <trkpt lat="47.5802" lon="6.79022">
        <ele>439</ele>
        <time>2014-04-13T09:34:06.161Z</time>
      </trkpt>
      <trkpt lat="47.58014" lon="6.7903">
        <ele>440</ele>
        <time>2014-04-13T09:34:11.078Z</time>
      </trkpt>
      <trkpt lat="47.5801" lon="6.79041">
        <ele>441</ele>
        <time>2014-04-13T09:34:16.159Z</time>
      </trkpt>
      <trkpt lat="47.58006" lon="6.79051">
        <ele>443</ele>
        <time>2014-04-13T09:34:21.080Z</time>
      </trkpt>
      <trkpt lat="47.58" lon="6.7906">
        <ele>445</ele>
        <time>2014-04-13T09:34:26.149Z</time>
      </trkpt>
      <trkpt lat="47.57996" lon="6.79069">
        <ele>446</ele>
        <time>2014-04-13T09:34:31.080Z</time>
      </trkpt>
      <trkpt lat="47.57991" lon="6.79079">
        <ele>447</ele>
        <time>2014-04-13T09:34:36.161Z</time>
      </trkpt>
      <trkpt lat="47.57985" lon="6.79089">
        <ele>447</ele>
        <time>2014-04-13T09:34:41.095Z</time>
      </trkpt>
      <trkpt lat="47.57979" lon="6.79098">
        <ele>448</ele>
        <time>2014-04-13T09:34:46.163Z</time>
      </trkpt>
      <trkpt lat="47.57971" lon="6.79102">
        <ele>448</ele>
        <time>2014-04-13T09:34:51.094Z</time>
      </trkpt>
      <trkpt lat="47.57963" lon="6.79101">
        <ele>448</ele>
        <time>2014-04-13T09:34:56.150Z</time>
      </trkpt>
      <trkpt lat="47.57955" lon="6.79102">
        <ele>450</ele>
        <time>2014-04-13T09:35:01.083Z</time>
      </trkpt>
      <trkpt lat="47.57947" lon="6.79104">
        <ele>451</ele>
        <time>2014-04-13T09:35:06.076Z</time>
      </trkpt>
      <trkpt lat="47.57936" lon="6.79108">
        <ele>452</ele>
        <time>2014-04-13T09:35:11.403Z</time>
      </trkpt>
      <trkpt lat="47.57924" lon="6.7911">
        <ele>452</ele>
        <time>2014-04-13T09:35:16.085Z</time>
      </trkpt>
      <trkpt lat="47.57912" lon="6.79107">
        <ele>454</ele>
        <time>2014-04-13T09:35:21.158Z</time>
      </trkpt>
      <trkpt lat="47.579" lon="6.79106">
        <ele>455</ele>
        <time>2014-04-13T09:35:26.088Z</time>
      </trkpt>
      <trkpt lat="47.57887" lon="6.79111">
        <ele>457</ele>
        <time>2014-04-13T09:35:31.120Z</time>
      </trkpt>
      <trkpt lat="47.5788" lon="6.7911">
        <ele>459</ele>
        <time>2014-04-13T09:35:36.097Z</time>
      </trkpt>
      <trkpt lat="47.57869" lon="6.7911">
        <ele>460</ele>
        <time>2014-04-13T09:35:41.164Z</time>
      </trkpt>
      <trkpt lat="47.57856" lon="6.79111">
        <ele>460</ele>
        <time>2014-04-13T09:35:46.082Z</time>
      </trkpt>
      <trkpt lat="47.57843" lon="6.79121">
        <ele>460</ele>
        <time>2014-04-13T09:35:51.153Z</time>
      </trkpt>
      <trkpt lat="47.57833" lon="6.7914">
        <ele>460</ele>
        <time>2014-04-13T09:35:56.083Z</time>
      </trkpt>
      <trkpt lat="47.57826" lon="6.79163">
        <ele>458</ele>
        <time>2014-04-13T09:36:01.148Z</time>
      </trkpt>
      <trkpt lat="47.5782" lon="6.79187">
        <ele>457</ele>
        <time>2014-04-13T09:36:06.096Z</time>
      </trkpt>
      <trkpt lat="47.57816" lon="6.792">
        <ele>459</ele>
        <time>2014-04-13T09:36:11.162Z</time>
      </trkpt>
      <trkpt lat="47.57812" lon="6.79209">
        <ele>459</ele>
        <time>2014-04-13T09:36:16.086Z</time>
      </trkpt>
      <trkpt lat="47.57812" lon="6.79211">
        <ele>458</ele>
        <time>2014-04-13T09:36:21.150Z</time>
      </trkpt>
      <trkpt lat="47.57812" lon="6.79211">
        <ele>458</ele>
        <time>2014-04-13T09:36:26.085Z</time>
      </trkpt>
      <trkpt lat="47.57812" lon="6.79211">
        <ele>458</ele>
        <time>2014-04-13T09:36:31.149Z</time>
      </trkpt>
      <trkpt lat="47.57812" lon="6.79211">
        <ele>458</ele>
        <time>2014-04-13T09:36:36.158Z</time>
      </trkpt>
      <trkpt lat="47.57812" lon="6.79211">
        <ele>458</ele>
        <time>2014-04-13T09:36:41.108Z</time>
      </trkpt>
      <trkpt lat="47.57812" lon="6.79211">
        <ele>458</ele>
        <time>2014-04-13T09:36:51.084Z</time>
      </trkpt>
      <trkpt lat="47.57812" lon="6.79211">
        <ele>458</ele>
        <time>2014-04-13T09:36:56.143Z</time>
      </trkpt>
      <trkpt lat="47.57812" lon="6.79211">
        <ele>458</ele>
        <time>2014-04-13T09:37:01.094Z</time>
      </trkpt>
      <trkpt lat="47.57812" lon="6.79211">
        <ele>458</ele>
        <time>2014-04-13T09:37:06.164Z</time>
      </trkpt>
      <trkpt lat="47.57812" lon="6.79211">
        <ele>458</ele>
        <time>2014-04-13T09:37:11.092Z</time>
      </trkpt>
      <trkpt lat="47.57812" lon="6.79211">
        <ele>458</ele>
        <time>2014-04-13T09:37:16.081Z</time>
      </trkpt>
      <trkpt lat="47.57812" lon="6.79211">
        <ele>458</ele>
        <time>2014-04-13T09:37:21.252Z</time>
      </trkpt>
      <trkpt lat="47.57812" lon="6.79211">
        <ele>458</ele>
        <time>2014-04-13T09:37:26.253Z</time>
      </trkpt>
      <trkpt lat="47.57812" lon="6.79211">
        <ele>458</ele>
        <time>2014-04-13T09:37:31.183Z</time>
      </trkpt>
      <trkpt lat="47.57812" lon="6.79211">
        <ele>458</ele>
        <time>2014-04-13T09:37:36.242Z</time>
      </trkpt>
      <trkpt lat="47.57812" lon="6.79211">
        <ele>458</ele>
        <time>2014-04-13T09:37:41.183Z</time>
      </trkpt>
      <trkpt lat="47.57812" lon="6.79211">
        <ele>458</ele>
        <time>2014-04-13T09:37:46.258Z</time>
      </trkpt>
      <trkpt lat="47.57812" lon="6.79211">
        <ele>458</ele>
        <time>2014-04-13T09:37:51.182Z</time>
      </trkpt>
      <trkpt lat="47.57812" lon="6.79211">
        <ele>458</ele>
        <time>2014-04-13T09:37:56.252Z</time>
      </trkpt>
      <trkpt lat="47.57812" lon="6.79211">
        <ele>458</ele>
        <time>2014-04-13T09:38:01.193Z</time>
      </trkpt>
      <trkpt lat="47.57812" lon="6.79211">
        <ele>458</ele>
        <time>2014-04-13T09:38:06.266Z</time>
      </trkpt>
      <trkpt lat="47.57812" lon="6.79211">
        <ele>458</ele>
        <time>2014-04-13T09:38:11.194Z</time>
      </trkpt>
      <trkpt lat="47.57812" lon="6.79211">
        <ele>458</ele>
        <time>2014-04-13T09:38:16.261Z</time>
      </trkpt>
      <trkpt lat="47.57812" lon="6.79211">
        <ele>458</ele>
        <time>2014-04-13T09:38:21.191Z</time>
      </trkpt>
      <trkpt lat="47.57812" lon="6.79211">
        <ele>458</ele>
        <time>2014-04-13T09:38:26.196Z</time>
      </trkpt>
      <trkpt lat="47.57811" lon="6.79211">
        <ele>458</ele>
        <time>2014-04-13T09:38:31.184Z</time>
      </trkpt>
      <trkpt lat="47.57803" lon="6.79218">
        <ele>458</ele>
        <time>2014-04-13T09:38:36.218Z</time>
      </trkpt>
      <trkpt lat="47.57789" lon="6.7923">
        <ele>457</ele>
        <time>2014-04-13T09:38:41.193Z</time>
      </trkpt>
      <trkpt lat="47.57774" lon="6.79243">
        <ele>458</ele>
        <time>2014-04-13T09:38:46.266Z</time>
      </trkpt>
      <trkpt lat="47.57756" lon="6.79257">
        <ele>458</ele>
        <time>2014-04-13T09:38:51.180Z</time>
      </trkpt>
      <trkpt lat="47.57738" lon="6.79271">
        <ele>458</ele>
        <time>2014-04-13T09:38:56.194Z</time>
      </trkpt>
      <trkpt lat="47.57719" lon="6.79287">
        <ele>458</ele>
        <time>2014-04-13T09:39:01.259Z</time>
      </trkpt>
      <trkpt lat="47.577" lon="6.79299">
        <ele>459</ele>
        <time>2014-04-13T09:39:06.195Z</time>
      </trkpt>
      <trkpt lat="47.57682" lon="6.79312">
        <ele>459</ele>
        <time>2014-04-13T09:39:11.257Z</time>
      </trkpt>
      <trkpt lat="47.57668" lon="6.79325">
        <ele>459</ele>
        <time>2014-04-13T09:39:16.189Z</time>
      </trkpt>
      <trkpt lat="47.57657" lon="6.79342">
        <ele>459</ele>
        <time>2014-04-13T09:39:21.246Z</time>
      </trkpt>
      <trkpt lat="47.57647" lon="6.79363">
        <ele>459</ele>
        <time>2014-04-13T09:39:26.261Z</time>
      </trkpt>
      <trkpt lat="47.57639" lon="6.79385">
        <ele>459</ele>
        <time>2014-04-13T09:39:31.179Z</time>
      </trkpt>
      <trkpt lat="47.57631" lon="6.79409">
        <ele>460</ele>
        <time>2014-04-13T09:39:36.254Z</time>
      </trkpt>
      <trkpt lat="47.57624" lon="6.79433">
        <ele>460</ele>
        <time>2014-04-13T09:39:41.180Z</time>
      </trkpt>
      <trkpt lat="47.57617" lon="6.79457">
        <ele>460</ele>
        <time>2014-04-13T09:39:46.245Z</time>
      </trkpt>
      <trkpt lat="47.57609" lon="6.79483">
        <ele>460</ele>
        <time>2014-04-13T09:39:51.190Z</time>
      </trkpt>
      <trkpt lat="47.576" lon="6.79508">
        <ele>460</ele>
        <time>2014-04-13T09:39:56.252Z</time>
      </trkpt>
      <trkpt lat="47.57593" lon="6.79534">
        <ele>459</ele>
        <time>2014-04-13T09:40:01.187Z</time>
      </trkpt>
      <trkpt lat="47.57585" lon="6.79559">
        <ele>459</ele>
        <time>2014-04-13T09:40:06.254Z</time>
      </trkpt>
      <trkpt lat="47.57579" lon="6.79586">
        <ele>460</ele>
        <time>2014-04-13T09:40:11.180Z</time>
      </trkpt>
      <trkpt lat="47.57576" lon="6.79616">
        <ele>460</ele>
        <time>2014-04-13T09:40:16.250Z</time>
      </trkpt>
      <trkpt lat="47.57576" lon="6.79647">
        <ele>461</ele>
        <time>2014-04-13T09:40:21.189Z</time>
      </trkpt>
      <trkpt lat="47.57578" lon="6.79675">
        <ele>461</ele>
        <time>2014-04-13T09:40:26.262Z</time>
      </trkpt>
      <trkpt lat="47.57577" lon="6.797">
        <ele>462</ele>
        <time>2014-04-13T09:40:31.192Z</time>
      </trkpt>
      <trkpt lat="47.57574" lon="6.79724">
        <ele>463</ele>
        <time>2014-04-13T09:40:36.253Z</time>
      </trkpt>
      <trkpt lat="47.57568" lon="6.79748">
        <ele>463</ele>
        <time>2014-04-13T09:40:41.141Z</time>
      </trkpt>
      <trkpt lat="47.57561" lon="6.7977">
        <ele>464</ele>
        <time>2014-04-13T09:40:46.251Z</time>
      </trkpt>
      <trkpt lat="47.57555" lon="6.79792">
        <ele>464</ele>
        <time>2014-04-13T09:40:51.192Z</time>
      </trkpt>
      <trkpt lat="47.57548" lon="6.79812">
        <ele>465</ele>
        <time>2014-04-13T09:40:56.254Z</time>
      </trkpt>
      <trkpt lat="47.5754" lon="6.79828">
        <ele>467</ele>
        <time>2014-04-13T09:41:01.253Z</time>
      </trkpt>
      <trkpt lat="47.57532" lon="6.79843">
        <ele>469</ele>
        <time>2014-04-13T09:41:06.186Z</time>
      </trkpt>
      <trkpt lat="47.57522" lon="6.79854">
        <ele>469</ele>
        <time>2014-04-13T09:41:11.245Z</time>
      </trkpt>
      <trkpt lat="47.57511" lon="6.79864">
        <ele>471</ele>
        <time>2014-04-13T09:41:16.201Z</time>
      </trkpt>
      <trkpt lat="47.57501" lon="6.7987">
        <ele>472</ele>
        <time>2014-04-13T09:41:21.262Z</time>
      </trkpt>
      <trkpt lat="47.57491" lon="6.79875">
        <ele>472</ele>
        <time>2014-04-13T09:41:26.193Z</time>
      </trkpt>
      <trkpt lat="47.57482" lon="6.79881">
        <ele>473</ele>
        <time>2014-04-13T09:41:31.258Z</time>
      </trkpt>
      <trkpt lat="47.57475" lon="6.79891">
        <ele>475</ele>
        <time>2014-04-13T09:41:36.191Z</time>
      </trkpt>
      <trkpt lat="47.57471" lon="6.79903">
        <ele>476</ele>
        <time>2014-04-13T09:41:41.259Z</time>
      </trkpt>
      <trkpt lat="47.57466" lon="6.79917">
        <ele>477</ele>
        <time>2014-04-13T09:41:46.156Z</time>
      </trkpt>
      <trkpt lat="47.57461" lon="6.79934">
        <ele>477</ele>
        <time>2014-04-13T09:41:51.257Z</time>
      </trkpt>
      <trkpt lat="47.57457" lon="6.79952">
        <ele>478</ele>
        <time>2014-04-13T09:41:56.202Z</time>
      </trkpt>
      <trkpt lat="47.57385" lon="6.80051">
        <ele>476</ele>
        <time>2014-04-13T09:42:21.237Z</time>
      </trkpt>
      <trkpt lat="47.57361" lon="6.80071">
        <ele>475</ele>
        <time>2014-04-13T09:42:26.201Z</time>
      </trkpt>
      <trkpt lat="47.57336" lon="6.80092">
        <ele>475</ele>
        <time>2014-04-13T09:42:31.192Z</time>
      </trkpt>
      <trkpt lat="47.57315" lon="6.80119">
        <ele>475</ele>
        <time>2014-04-13T09:42:36.217Z</time>
      </trkpt>
      <trkpt lat="47.57292" lon="6.80145">
        <ele>474</ele>
        <time>2014-04-13T09:42:41.265Z</time>
      </trkpt>
      <trkpt lat="47.57263" lon="6.8016">
        <ele>472</ele>
        <time>2014-04-13T09:42:46.183Z</time>
      </trkpt>
      <trkpt lat="47.57232" lon="6.80165">
        <ele>471</ele>
        <time>2014-04-13T09:42:51.241Z</time>
      </trkpt>
      <trkpt lat="47.57202" lon="6.80175">
        <ele>470</ele>
        <time>2014-04-13T09:42:56.246Z</time>
      </trkpt>
      <trkpt lat="47.57114" lon="6.80264">
        <ele>471</ele>
        <time>2014-04-13T09:43:16.260Z</time>
      </trkpt>
      <trkpt lat="47.57093" lon="6.80276">
        <ele>471</ele>
        <time>2014-04-13T09:43:21.185Z</time>
      </trkpt>
      <trkpt lat="47.5707" lon="6.80291">
        <ele>471</ele>
        <time>2014-04-13T09:43:26.253Z</time>
      </trkpt>
      <trkpt lat="47.57049" lon="6.80304">
        <ele>472</ele>
        <time>2014-04-13T09:43:31.173Z</time>
      </trkpt>
      <trkpt lat="47.57027" lon="6.80317">
        <ele>473</ele>
        <time>2014-04-13T09:43:36.242Z</time>
      </trkpt>
      <trkpt lat="47.57004" lon="6.80323">
        <ele>473</ele>
        <time>2014-04-13T09:43:41.198Z</time>
      </trkpt>
      <trkpt lat="47.56982" lon="6.80326">
        <ele>474</ele>
        <time>2014-04-13T09:43:46.241Z</time>
      </trkpt>
      <trkpt lat="47.5696" lon="6.80325">
        <ele>474</ele>
        <time>2014-04-13T09:43:51.222Z</time>
      </trkpt>
      <trkpt lat="47.56939" lon="6.80325">
        <ele>474</ele>
        <time>2014-04-13T09:43:56.259Z</time>
      </trkpt>
      <trkpt lat="47.56913" lon="6.80325">
        <ele>473</ele>
        <time>2014-04-13T09:44:01.191Z</time>
      </trkpt>
      <trkpt lat="47.56879" lon="6.80321">
        <ele>471</ele>
        <time>2014-04-13T09:44:06.252Z</time>
      </trkpt>
      <trkpt lat="47.5684" lon="6.80298">
        <ele>467</ele>
        <time>2014-04-13T09:44:11.192Z</time>
      </trkpt>
      <trkpt lat="47.56799" lon="6.80273">
        <ele>463</ele>
        <time>2014-04-13T09:44:16.231Z</time>
      </trkpt>
      <trkpt lat="47.56759" lon="6.80236">
        <ele>459</ele>
        <time>2014-04-13T09:44:21.192Z</time>
      </trkpt>
      <trkpt lat="47.56718" lon="6.80196">
        <ele>454</ele>
        <time>2014-04-13T09:44:26.264Z</time>
      </trkpt>
      <trkpt lat="47.56679" lon="6.8016">
        <ele>450</ele>
        <time>2014-04-13T09:44:31.182Z</time>
      </trkpt>
      <trkpt lat="47.56637" lon="6.80134">
        <ele>447</ele>
        <time>2014-04-13T09:44:36.256Z</time>
      </trkpt>
      <trkpt lat="47.56601" lon="6.8011">
        <ele>446</ele>
        <time>2014-04-13T09:44:41.192Z</time>
      </trkpt>
      <trkpt lat="47.5656" lon="6.80108">
        <ele>444</ele>
        <time>2014-04-13T09:44:46.254Z</time>
      </trkpt>
      <trkpt lat="47.56517" lon="6.80118">
        <ele>441</ele>
        <time>2014-04-13T09:44:51.183Z</time>
      </trkpt>
      <trkpt lat="47.56474" lon="6.80127">
        <ele>439</ele>
        <time>2014-04-13T09:44:56.245Z</time>
      </trkpt>
      <trkpt lat="47.56435" lon="6.80132">
        <ele>438</ele>
        <time>2014-04-13T09:45:01.201Z</time>
      </trkpt>
      <trkpt lat="47.56397" lon="6.80125">
        <ele>438</ele>
        <time>2014-04-13T09:45:06.249Z</time>
      </trkpt>
      <trkpt lat="47.56359" lon="6.80115">
        <ele>437</ele>
        <time>2014-04-13T09:45:11.180Z</time>
      </trkpt>
      <trkpt lat="47.56322" lon="6.80107">
        <ele>437</ele>
        <time>2014-04-13T09:45:16.252Z</time>
      </trkpt>
      <trkpt lat="47.56281" lon="6.80121">
        <ele>438</ele>
        <time>2014-04-13T09:45:21.183Z</time>
      </trkpt>
      <trkpt lat="47.56249" lon="6.80146">
        <ele>440</ele>
        <time>2014-04-13T09:45:26.246Z</time>
      </trkpt>
      <trkpt lat="47.56218" lon="6.8016">
        <ele>438</ele>
        <time>2014-04-13T09:45:31.183Z</time>
      </trkpt>
      <trkpt lat="47.56192" lon="6.80153">
        <ele>437</ele>
        <time>2014-04-13T09:45:36.262Z</time>
      </trkpt>
      <trkpt lat="47.5617" lon="6.8014">
        <ele>439</ele>
        <time>2014-04-13T09:45:41.185Z</time>
      </trkpt>
      <trkpt lat="47.56144" lon="6.80145">
        <ele>441</ele>
        <time>2014-04-13T09:45:46.242Z</time>
      </trkpt>
      <trkpt lat="47.56123" lon="6.80151">
        <ele>446</ele>
        <time>2014-04-13T09:45:51.186Z</time>
      </trkpt>
      <trkpt lat="47.56109" lon="6.80164">
        <ele>449</ele>
        <time>2014-04-13T09:45:56.254Z</time>
      </trkpt>
      <trkpt lat="47.56096" lon="6.80182">
        <ele>448</ele>
        <time>2014-04-13T09:46:01.262Z</time>
      </trkpt>
      <trkpt lat="47.56081" lon="6.80194">
        <ele>448</ele>
        <time>2014-04-13T09:46:06.194Z</time>
      </trkpt>
      <trkpt lat="47.56063" lon="6.80198">
        <ele>447</ele>
        <time>2014-04-13T09:46:11.248Z</time>
      </trkpt>
      <trkpt lat="47.56047" lon="6.80202">
        <ele>448</ele>
        <time>2014-04-13T09:46:16.187Z</time>
      </trkpt>
      <trkpt lat="47.56027" lon="6.80196">
        <ele>447</ele>
        <time>2014-04-13T09:46:21.253Z</time>
      </trkpt>
      <trkpt lat="47.56009" lon="6.80176">
        <ele>447</ele>
        <time>2014-04-13T09:46:26.197Z</time>
      </trkpt>
      <trkpt lat="47.55989" lon="6.80163">
        <ele>448</ele>
        <time>2014-04-13T09:46:31.253Z</time>
      </trkpt>
      <trkpt lat="47.55971" lon="6.80162">
        <ele>450</ele>
        <time>2014-04-13T09:46:36.186Z</time>
      </trkpt>
      <trkpt lat="47.55955" lon="6.80166">
        <ele>451</ele>
        <time>2014-04-13T09:46:41.260Z</time>
      </trkpt>
      <trkpt lat="47.5594" lon="6.8017">
        <ele>452</ele>
        <time>2014-04-13T09:46:46.180Z</time>
      </trkpt>
      <trkpt lat="47.55927" lon="6.80179">
        <ele>454</ele>
        <time>2014-04-13T09:46:51.251Z</time>
      </trkpt>
      <trkpt lat="47.55914" lon="6.80188">
        <ele>456</ele>
        <time>2014-04-13T09:46:56.180Z</time>
      </trkpt>
      <trkpt lat="47.55902" lon="6.80202">
        <ele>457</ele>
        <time>2014-04-13T09:47:01.177Z</time>
      </trkpt>
      <trkpt lat="47.55888" lon="6.80213">
        <ele>459</ele>
        <time>2014-04-13T09:47:06.252Z</time>
      </trkpt>
      <trkpt lat="47.55871" lon="6.80216">
        <ele>459</ele>
        <time>2014-04-13T09:47:11.180Z</time>
      </trkpt>
      <trkpt lat="47.55857" lon="6.80218">
        <ele>461</ele>
        <time>2014-04-13T09:47:16.251Z</time>
      </trkpt>
      <trkpt lat="47.55846" lon="6.80216">
        <ele>462</ele>
        <time>2014-04-13T09:47:21.190Z</time>
      </trkpt>
      <trkpt lat="47.55835" lon="6.80213">
        <ele>463</ele>
        <time>2014-04-13T09:47:26.262Z</time>
      </trkpt>
      <trkpt lat="47.55824" lon="6.80209">
        <ele>463</ele>
        <time>2014-04-13T09:47:31.177Z</time>
      </trkpt>
      <trkpt lat="47.55813" lon="6.80201">
        <ele>464</ele>
        <time>2014-04-13T09:47:36.251Z</time>
      </trkpt>
      <trkpt lat="47.55799" lon="6.80199">
        <ele>465</ele>
        <time>2014-04-13T09:47:41.185Z</time>
      </trkpt>
      <trkpt lat="47.55788" lon="6.80189">
        <ele>465</ele>
        <time>2014-04-13T09:47:46.193Z</time>
      </trkpt>
      <trkpt lat="47.55767" lon="6.80189">
        <ele>466</ele>
        <time>2014-04-13T09:47:51.182Z</time>
      </trkpt>
      <trkpt lat="47.55749" lon="6.80186">
        <ele>465</ele>
        <time>2014-04-13T09:47:56.256Z</time>
      </trkpt>
      <trkpt lat="47.55745" lon="6.80189">
        <ele>465</ele>
        <time>2014-04-13T09:48:01.391Z</time>
      </trkpt>
      <trkpt lat="47.55745" lon="6.80189">
        <ele>465</ele>
        <time>2014-04-13T09:48:06.191Z</time>
      </trkpt>
      <trkpt lat="47.55745" lon="6.80189">
        <ele>465</ele>
        <time>2014-04-13T09:48:11.254Z</time>
      </trkpt>
      <trkpt lat="47.55742" lon="6.80189">
        <ele>466</ele>
        <time>2014-04-13T09:48:16.197Z</time>
      </trkpt>
      <trkpt lat="47.55724" lon="6.80192">
        <ele>467</ele>
        <time>2014-04-13T09:48:21.253Z</time>
      </trkpt>
      <trkpt lat="47.55716" lon="6.80195">
        <ele>468</ele>
        <time>2014-04-13T09:48:26.186Z</time>
      </trkpt>
      <trkpt lat="47.55703" lon="6.80201">
        <ele>468</ele>
        <time>2014-04-13T09:48:31.249Z</time>
      </trkpt>
      <trkpt lat="47.55681" lon="6.80221">
        <ele>469</ele>
        <time>2014-04-13T09:48:36.179Z</time>
      </trkpt>
      <trkpt lat="47.55649" lon="6.8023">
        <ele>468</ele>
        <time>2014-04-13T09:48:41.252Z</time>
      </trkpt>
      <trkpt lat="47.55617" lon="6.80241">
        <ele>466</ele>
        <time>2014-04-13T09:48:46.179Z</time>
      </trkpt>
      <trkpt lat="47.55578" lon="6.80237">
        <ele>462</ele>
        <time>2014-04-13T09:48:51.244Z</time>
      </trkpt>
      <trkpt lat="47.55548" lon="6.8023">
        <ele>457</ele>
        <time>2014-04-13T09:48:56.194Z</time>
      </trkpt>
      <trkpt lat="47.55512" lon="6.8023">
        <ele>453</ele>
        <time>2014-04-13T09:49:01.183Z</time>
      </trkpt>
      <trkpt lat="47.55467" lon="6.80248">
        <ele>451</ele>
        <time>2014-04-13T09:49:06.260Z</time>
      </trkpt>
      <trkpt lat="47.55426" lon="6.80269">
        <ele>453</ele>
        <time>2014-04-13T09:49:11.177Z</time>
      </trkpt>
      <trkpt lat="47.55393" lon="6.8029">
        <ele>451</ele>
        <time>2014-04-13T09:49:16.242Z</time>
      </trkpt>
      <trkpt lat="47.55359" lon="6.80307">
        <ele>451</ele>
        <time>2014-04-13T09:49:21.196Z</time>
      </trkpt>
      <trkpt lat="47.55336" lon="6.80298">
        <ele>449</ele>
        <time>2014-04-13T09:49:26.252Z</time>
      </trkpt>
      <trkpt lat="47.55317" lon="6.80279">
        <ele>449</ele>
        <time>2014-04-13T09:49:31.180Z</time>
      </trkpt>
      <trkpt lat="47.5529" lon="6.80274">
        <ele>449</ele>
        <time>2014-04-13T09:49:36.249Z</time>
      </trkpt>
      <trkpt lat="47.55266" lon="6.80273">
        <ele>449</ele>
        <time>2014-04-13T09:49:41.187Z</time>
      </trkpt>
      <trkpt lat="47.55242" lon="6.80274">
        <ele>448</ele>
        <time>2014-04-13T09:49:46.238Z</time>
      </trkpt>
      <trkpt lat="47.55225" lon="6.80287">
        <ele>447</ele>
        <time>2014-04-13T09:49:51.146Z</time>
      </trkpt>
      <trkpt lat="47.55212" lon="6.80306">
        <ele>448</ele>
        <time>2014-04-13T09:49:56.237Z</time>
      </trkpt>
      <trkpt lat="47.55202" lon="6.80322">
        <ele>448</ele>
        <time>2014-04-13T09:50:01.211Z</time>
      </trkpt>
      <trkpt lat="47.55181" lon="6.80346">
        <ele>449</ele>
        <time>2014-04-13T09:50:11.186Z</time>
      </trkpt>
      <trkpt lat="47.55166" lon="6.80356">
        <ele>451</ele>
        <time>2014-04-13T09:50:16.264Z</time>
      </trkpt>
      <trkpt lat="47.55155" lon="6.80366">
        <ele>452</ele>
        <time>2014-04-13T09:50:21.181Z</time>
      </trkpt>
      <trkpt lat="47.55144" lon="6.80376">
        <ele>453</ele>
        <time>2014-04-13T09:50:26.253Z</time>
      </trkpt>
      <trkpt lat="47.55129" lon="6.80386">
        <ele>454</ele>
        <time>2014-04-13T09:50:31.179Z</time>
      </trkpt>
      <trkpt lat="47.55112" lon="6.80399">
        <ele>453</ele>
        <time>2014-04-13T09:50:36.256Z</time>
      </trkpt>
      <trkpt lat="47.55095" lon="6.80421">
        <ele>451</ele>
        <time>2014-04-13T09:50:41.201Z</time>
      </trkpt>
      <trkpt lat="47.55073" lon="6.80447">
        <ele>450</ele>
        <time>2014-04-13T09:50:46.257Z</time>
      </trkpt>
      <trkpt lat="47.55049" lon="6.80472">
        <ele>451</ele>
        <time>2014-04-13T09:50:51.182Z</time>
      </trkpt>
      <trkpt lat="47.5503" lon="6.80498">
        <ele>452</ele>
        <time>2014-04-13T09:50:56.256Z</time>
      </trkpt>
      <trkpt lat="47.5495" lon="6.80565">
        <ele>452</ele>
        <time>2014-04-13T09:51:11.254Z</time>
      </trkpt>
      <trkpt lat="47.54915" lon="6.80579">
        <ele>451</ele>
        <time>2014-04-13T09:51:16.181Z</time>
      </trkpt>
      <trkpt lat="47.54894" lon="6.80591">
        <ele>449</ele>
        <time>2014-04-13T09:51:21.241Z</time>
      </trkpt>
      <trkpt lat="47.54895" lon="6.80591">
        <ele>449</ele>
        <time>2014-04-13T09:51:26.164Z</time>
      </trkpt>
      <trkpt lat="47.54897" lon="6.80592">
        <ele>447</ele>
        <time>2014-04-13T09:51:31.237Z</time>
      </trkpt>
      <trkpt lat="47.54898" lon="6.80591">
        <ele>447</ele>
        <time>2014-04-13T09:51:36.189Z</time>
      </trkpt>
      <trkpt lat="47.54892" lon="6.80593">
        <ele>446</ele>
        <time>2014-04-13T09:51:41.234Z</time>
      </trkpt>
      <trkpt lat="47.54889" lon="6.80599">
        <ele>443</ele>
        <time>2014-04-13T09:51:46.187Z</time>
      </trkpt>
      <trkpt lat="47.54873" lon="6.80602">
        <ele>443</ele>
        <time>2014-04-13T09:51:51.251Z</time>
      </trkpt>
      <trkpt lat="47.54852" lon="6.8061">
        <ele>443</ele>
        <time>2014-04-13T09:51:56.166Z</time>
      </trkpt>
      <trkpt lat="47.54831" lon="6.80621">
        <ele>445</ele>
        <time>2014-04-13T09:52:01.167Z</time>
      </trkpt>
      <trkpt lat="47.54801" lon="6.8063">
        <ele>445</ele>
        <time>2014-04-13T09:52:06.264Z</time>
      </trkpt>
      <trkpt lat="47.54775" lon="6.80644">
        <ele>445</ele>
        <time>2014-04-13T09:52:11.186Z</time>
      </trkpt>
      <trkpt lat="47.54756" lon="6.80653">
        <ele>445</ele>
        <time>2014-04-13T09:52:16.253Z</time>
      </trkpt>
      <trkpt lat="47.54741" lon="6.80659">
        <ele>446</ele>
        <time>2014-04-13T09:52:21.182Z</time>
      </trkpt>
      <trkpt lat="47.54729" lon="6.8066">
        <ele>445</ele>
        <time>2014-04-13T09:52:26.239Z</time>
      </trkpt>
      <trkpt lat="47.54717" lon="6.80657">
        <ele>446</ele>
        <time>2014-04-13T09:52:31.181Z</time>
      </trkpt>
      <trkpt lat="47.54709" lon="6.8065">
        <ele>446</ele>
        <time>2014-04-13T09:52:36.242Z</time>
      </trkpt>
      <trkpt lat="47.5469" lon="6.80638">
        <ele>446</ele>
        <time>2014-04-13T09:52:41.191Z</time>
      </trkpt>
      <trkpt lat="47.54658" lon="6.80631">
        <ele>447</ele>
        <time>2014-04-13T09:52:46.261Z</time>
      </trkpt>
      <trkpt lat="47.5462" lon="6.80622">
        <ele>449</ele>
        <time>2014-04-13T09:52:51.177Z</time>
      </trkpt>
      <trkpt lat="47.54591" lon="6.80626">
        <ele>445</ele>
        <time>2014-04-13T09:52:56.259Z</time>
      </trkpt>
      <trkpt lat="47.54567" lon="6.80633">
        <ele>442</ele>
        <time>2014-04-13T09:53:01.186Z</time>
      </trkpt>
      <trkpt lat="47.54542" lon="6.80642">
        <ele>441</ele>
        <time>2014-04-13T09:53:06.252Z</time>
      </trkpt>
      <trkpt lat="47.54515" lon="6.80658">
        <ele>441</ele>
        <time>2014-04-13T09:53:11.187Z</time>
      </trkpt>
      <trkpt lat="47.54484" lon="6.80683">
        <ele>439</ele>
        <time>2014-04-13T09:53:16.183Z</time>
      </trkpt>
      <trkpt lat="47.54453" lon="6.80714">
        <ele>434</ele>
        <time>2014-04-13T09:53:21.252Z</time>
      </trkpt>
      <trkpt lat="47.54424" lon="6.80747">
        <ele>428</ele>
        <time>2014-04-13T09:53:26.182Z</time>
      </trkpt>
      <trkpt lat="47.54395" lon="6.80771">
        <ele>425</ele>
        <time>2014-04-13T09:53:31.255Z</time>
      </trkpt>
      <trkpt lat="47.54365" lon="6.80757">
        <ele>424</ele>
        <time>2014-04-13T09:53:36.185Z</time>
      </trkpt>
      <trkpt lat="47.54337" lon="6.80736">
        <ele>423</ele>
        <time>2014-04-13T09:53:41.238Z</time>
      </trkpt>
      <trkpt lat="47.54313" lon="6.80717">
        <ele>423</ele>
        <time>2014-04-13T09:53:46.198Z</time>
      </trkpt>
      <trkpt lat="47.54293" lon="6.80704">
        <ele>423</ele>
        <time>2014-04-13T09:53:51.180Z</time>
      </trkpt>
      <trkpt lat="47.54273" lon="6.80689">
        <ele>422</ele>
        <time>2014-04-13T09:53:56.178Z</time>
      </trkpt>
      <trkpt lat="47.54248" lon="6.80668">
        <ele>421</ele>
        <time>2014-04-13T09:54:02.951Z</time>
      </trkpt>
      <trkpt lat="47.54222" lon="6.80645">
        <ele>420</ele>
        <time>2014-04-13T09:54:06.245Z</time>
      </trkpt>
      <trkpt lat="47.54196" lon="6.80619">
        <ele>419</ele>
        <time>2014-04-13T09:54:11.170Z</time>
      </trkpt>
      <trkpt lat="47.54173" lon="6.80589">
        <ele>419</ele>
        <time>2014-04-13T09:54:16.249Z</time>
      </trkpt>
      <trkpt lat="47.54153" lon="6.8056">
        <ele>420</ele>
        <time>2014-04-13T09:54:21.184Z</time>
      </trkpt>
      <trkpt lat="47.54131" lon="6.80533">
        <ele>421</ele>
        <time>2014-04-13T09:54:26.248Z</time>
      </trkpt>
      <trkpt lat="47.54103" lon="6.80509">
        <ele>420</ele>
        <time>2014-04-13T09:54:31.189Z</time>
      </trkpt>
      <trkpt lat="47.54072" lon="6.80487">
        <ele>419</ele>
        <time>2014-04-13T09:54:36.241Z</time>
      </trkpt>
      <trkpt lat="47.54046" lon="6.80457">
        <ele>419</ele>
        <time>2014-04-13T09:54:41.201Z</time>
      </trkpt>
      <trkpt lat="47.54024" lon="6.80421">
        <ele>419</ele>
        <time>2014-04-13T09:54:46.262Z</time>
      </trkpt>
      <trkpt lat="47.54005" lon="6.80384">
        <ele>419</ele>
        <time>2014-04-13T09:54:51.268Z</time>
      </trkpt>
      <trkpt lat="47.53985" lon="6.80349">
        <ele>418</ele>
        <time>2014-04-13T09:54:56.191Z</time>
      </trkpt>
      <trkpt lat="47.53967" lon="6.80317">
        <ele>419</ele>
        <time>2014-04-13T09:55:01.681Z</time>
      </trkpt>
      <trkpt lat="47.53952" lon="6.80286">
        <ele>419</ele>
        <time>2014-04-13T09:55:06.263Z</time>
      </trkpt>
      <trkpt lat="47.53939" lon="6.80254">
        <ele>420</ele>
        <time>2014-04-13T09:55:11.183Z</time>
      </trkpt>
      <trkpt lat="47.53925" lon="6.80221">
        <ele>421</ele>
        <time>2014-04-13T09:55:16.197Z</time>
      </trkpt>
      <trkpt lat="47.53911" lon="6.80192">
        <ele>422</ele>
        <time>2014-04-13T09:55:21.253Z</time>
      </trkpt>
      <trkpt lat="47.53898" lon="6.80165">
        <ele>423</ele>
        <time>2014-04-13T09:55:26.193Z</time>
      </trkpt>
      <trkpt lat="47.53887" lon="6.80141">
        <ele>422</ele>
        <time>2014-04-13T09:55:31.189Z</time>
      </trkpt>
      <trkpt lat="47.53875" lon="6.80116">
        <ele>422</ele>
        <time>2014-04-13T09:55:36.257Z</time>
      </trkpt>
      <trkpt lat="47.53865" lon="6.80089">
        <ele>422</ele>
        <time>2014-04-13T09:55:41.193Z</time>
      </trkpt>
      <trkpt lat="47.53854" lon="6.80061">
        <ele>421</ele>
        <time>2014-04-13T09:55:46.257Z</time>
      </trkpt>
      <trkpt lat="47.53844" lon="6.80034">
        <ele>421</ele>
        <time>2014-04-13T09:55:51.182Z</time>
      </trkpt>
      <trkpt lat="47.53834" lon="6.80011">
        <ele>422</ele>
        <time>2014-04-13T09:55:56.193Z</time>
      </trkpt>
      <trkpt lat="47.53838" lon="6.79993">
        <ele>421</ele>
        <time>2014-04-13T09:56:01.255Z</time>
      </trkpt>
      <trkpt lat="47.53862" lon="6.79969">
        <ele>419</ele>
        <time>2014-04-13T09:56:06.191Z</time>
      </trkpt>
      <trkpt lat="47.53882" lon="6.79923">
        <ele>418</ele>
        <time>2014-04-13T09:56:11.263Z</time>
      </trkpt>
      <trkpt lat="47.53885" lon="6.7987">
        <ele>417</ele>
        <time>2014-04-13T09:56:16.192Z</time>
      </trkpt>
      <trkpt lat="47.53899" lon="6.79849">
        <ele>413</ele>
        <time>2014-04-13T09:56:21.642Z</time>
      </trkpt>
      <trkpt lat="47.53897" lon="6.79817">
        <ele>413</ele>
        <time>2014-04-13T09:56:26.184Z</time>
      </trkpt>
      <trkpt lat="47.53885" lon="6.79788">
        <ele>412</ele>
        <time>2014-04-13T09:56:31.182Z</time>
      </trkpt>
      <trkpt lat="47.53877" lon="6.79753">
        <ele>412</ele>
        <time>2014-04-13T09:56:36.267Z</time>
      </trkpt>
      <trkpt lat="47.53864" lon="6.79713">
        <ele>412</ele>
        <time>2014-04-13T09:56:41.188Z</time>
      </trkpt>
      <trkpt lat="47.53845" lon="6.7967">
        <ele>410</ele>
        <time>2014-04-13T09:56:46.253Z</time>
      </trkpt>
      <trkpt lat="47.53819" lon="6.79631">
        <ele>408</ele>
        <time>2014-04-13T09:56:51.180Z</time>
      </trkpt>
      <trkpt lat="47.5379" lon="6.79596">
        <ele>406</ele>
        <time>2014-04-13T09:56:56.233Z</time>
      </trkpt>
      <trkpt lat="47.53761" lon="6.79559">
        <ele>403</ele>
        <time>2014-04-13T09:57:01.193Z</time>
      </trkpt>
      <trkpt lat="47.53733" lon="6.79523">
        <ele>401</ele>
        <time>2014-04-13T09:57:06.250Z</time>
      </trkpt>
      <trkpt lat="47.53703" lon="6.7949">
        <ele>398</ele>
        <time>2014-04-13T09:57:11.183Z</time>
      </trkpt>
      <trkpt lat="47.53672" lon="6.79455">
        <ele>397</ele>
        <time>2014-04-13T09:57:16.249Z</time>
      </trkpt>
      <trkpt lat="47.53643" lon="6.79422">
        <ele>396</ele>
        <time>2014-04-13T09:57:21.188Z</time>
      </trkpt>
      <trkpt lat="47.53619" lon="6.79385">
        <ele>394</ele>
        <time>2014-04-13T09:57:26.224Z</time>
      </trkpt>
      <trkpt lat="47.53599" lon="6.79356">
        <ele>393</ele>
        <time>2014-04-13T09:57:31.259Z</time>
      </trkpt>
      <trkpt lat="47.53585" lon="6.79348">
        <ele>393</ele>
        <time>2014-04-13T09:57:36.182Z</time>
      </trkpt>
      <trkpt lat="47.5357" lon="6.7935">
        <ele>391</ele>
        <time>2014-04-13T09:57:41.246Z</time>
      </trkpt>
      <trkpt lat="47.53578" lon="6.79346">
        <ele>390</ele>
        <time>2014-04-13T09:57:46.150Z</time>
      </trkpt>
      <trkpt lat="47.5359" lon="6.7934">
        <ele>391</ele>
        <time>2014-04-13T09:57:51.235Z</time>
      </trkpt>
      <trkpt lat="47.5361" lon="6.79279">
        <ele>389</ele>
        <time>2014-04-13T09:58:01.185Z</time>
      </trkpt>
      <trkpt lat="47.53597" lon="6.79237">
        <ele>389</ele>
        <time>2014-04-13T09:58:06.235Z</time>
      </trkpt>
      <trkpt lat="47.53576" lon="6.79208">
        <ele>387</ele>
        <time>2014-04-13T09:58:11.191Z</time>
      </trkpt>
      <trkpt lat="47.53554" lon="6.79168">
        <ele>385</ele>
        <time>2014-04-13T09:58:16.263Z</time>
      </trkpt>
      <trkpt lat="47.53536" lon="6.79135">
        <ele>385</ele>
        <time>2014-04-13T09:58:21.188Z</time>
      </trkpt>
      <trkpt lat="47.5352" lon="6.79106">
        <ele>383</ele>
        <time>2014-04-13T09:58:26.250Z</time>
      </trkpt>
      <trkpt lat="47.53508" lon="6.79082">
        <ele>382</ele>
        <time>2014-04-13T09:58:31.252Z</time>
      </trkpt>
      <trkpt lat="47.535" lon="6.79076">
        <ele>382</ele>
        <time>2014-04-13T09:58:36.182Z</time>
      </trkpt>
      <trkpt lat="47.53491" lon="6.79072">
        <ele>382</ele>
        <time>2014-04-13T09:58:41.255Z</time>
      </trkpt>
      <trkpt lat="47.53477" lon="6.79068">
        <ele>383</ele>
        <time>2014-04-13T09:58:46.178Z</time>
      </trkpt>
      <trkpt lat="47.5346" lon="6.7908">
        <ele>382</ele>
        <time>2014-04-13T09:58:51.256Z</time>
      </trkpt>
      <trkpt lat="47.53444" lon="6.79091">
        <ele>382</ele>
        <time>2014-04-13T09:58:56.169Z</time>
      </trkpt>
      <trkpt lat="47.53438" lon="6.79116">
        <ele>383</ele>
        <time>2014-04-13T09:59:01.239Z</time>
      </trkpt>
      <trkpt lat="47.5345" lon="6.79139">
        <ele>383</ele>
        <time>2014-04-13T09:59:06.179Z</time>
      </trkpt>
      <trkpt lat="47.53468" lon="6.79149">
        <ele>382</ele>
        <time>2014-04-13T09:59:11.258Z</time>
      </trkpt>
      <trkpt lat="47.53483" lon="6.79167">
        <ele>382</ele>
        <time>2014-04-13T09:59:16.191Z</time>
      </trkpt>
      <trkpt lat="47.53492" lon="6.79195">
        <ele>382</ele>
        <time>2014-04-13T09:59:21.257Z</time>
      </trkpt>
      <trkpt lat="47.53506" lon="6.79218">
        <ele>381</ele>
        <time>2014-04-13T09:59:26.197Z</time>
      </trkpt>
      <trkpt lat="47.53514" lon="6.79244">
        <ele>381</ele>
        <time>2014-04-13T09:59:31.250Z</time>
      </trkpt>
      <trkpt lat="47.53507" lon="6.7927">
        <ele>382</ele>
        <time>2014-04-13T09:59:36.191Z</time>
      </trkpt>
      <trkpt lat="47.53494" lon="6.79294">
        <ele>382</ele>
        <time>2014-04-13T09:59:41.194Z</time>
      </trkpt>
      <trkpt lat="47.53477" lon="6.79309">
        <ele>382</ele>
        <time>2014-04-13T09:59:46.264Z</time>
      </trkpt>
      <trkpt lat="47.53461" lon="6.79321">
        <ele>381</ele>
        <time>2014-04-13T09:59:51.177Z</time>
      </trkpt>
      <trkpt lat="47.53443" lon="6.79309">
        <ele>382</ele>
        <time>2014-04-13T09:59:56.252Z</time>
      </trkpt>
      <trkpt lat="47.53374" lon="6.79375">
        <ele>382</ele>
        <time>2014-04-13T10:00:21.241Z</time>
      </trkpt>
      <trkpt lat="47.53362" lon="6.79398">
        <ele>383</ele>
        <time>2014-04-13T10:00:26.191Z</time>
      </trkpt>
      <trkpt lat="47.53346" lon="6.79414">
        <ele>383</ele>
        <time>2014-04-13T10:00:31.264Z</time>
      </trkpt>
      <trkpt lat="47.53326" lon="6.79421">
        <ele>382</ele>
        <time>2014-04-13T10:00:36.188Z</time>
      </trkpt>
      <trkpt lat="47.53307" lon="6.79425">
        <ele>383</ele>
        <time>2014-04-13T10:00:41.249Z</time>
      </trkpt>
      <trkpt lat="47.53288" lon="6.79429">
        <ele>383</ele>
        <time>2014-04-13T10:00:46.183Z</time>
      </trkpt>
      <trkpt lat="47.53269" lon="6.79428">
        <ele>383</ele>
        <time>2014-04-13T10:00:51.257Z</time>
      </trkpt>
      <trkpt lat="47.5325" lon="6.79429">
        <ele>383</ele>
        <time>2014-04-13T10:00:56.248Z</time>
      </trkpt>
      <trkpt lat="47.53196" lon="6.79482">
        <ele>385</ele>
        <time>2014-04-13T10:01:16.219Z</time>
      </trkpt>
      <trkpt lat="47.53181" lon="6.79496">
        <ele>387</ele>
        <time>2014-04-13T10:01:21.152Z</time>
      </trkpt>
      <trkpt lat="47.53166" lon="6.7951">
        <ele>388</ele>
        <time>2014-04-13T10:01:26.248Z</time>
      </trkpt>
      <trkpt lat="47.53152" lon="6.79513">
        <ele>388</ele>
        <time>2014-04-13T10:01:31.190Z</time>
      </trkpt>
      <trkpt lat="47.53142" lon="6.79503">
        <ele>389</ele>
        <time>2014-04-13T10:01:36.183Z</time>
      </trkpt>
      <trkpt lat="47.5313" lon="6.79475">
        <ele>390</ele>
        <time>2014-04-13T10:01:41.254Z</time>
      </trkpt>
      <trkpt lat="47.53114" lon="6.79457">
        <ele>390</ele>
        <time>2014-04-13T10:01:46.203Z</time>
      </trkpt>
      <trkpt lat="47.53099" lon="6.79438">
        <ele>390</ele>
        <time>2014-04-13T10:01:51.254Z</time>
      </trkpt>
      <trkpt lat="47.53094" lon="6.79411">
        <ele>391</ele>
        <time>2014-04-13T10:01:56.183Z</time>
      </trkpt>
      <trkpt lat="47.53097" lon="6.79387">
        <ele>391</ele>
        <time>2014-04-13T10:02:01.240Z</time>
      </trkpt>
      <trkpt lat="47.53098" lon="6.79359">
        <ele>390</ele>
        <time>2014-04-13T10:02:06.179Z</time>
      </trkpt>
      <trkpt lat="47.53098" lon="6.79336">
        <ele>389</ele>
        <time>2014-04-13T10:02:11.234Z</time>
      </trkpt>
      <trkpt lat="47.53098" lon="6.79323">
        <ele>388</ele>
        <time>2014-04-13T10:02:16.193Z</time>
      </trkpt>
      <trkpt lat="47.53097" lon="6.7932">
        <ele>388</ele>
        <time>2014-04-13T10:02:21.179Z</time>
      </trkpt>
      <trkpt lat="47.53098" lon="6.7932">
        <ele>387</ele>
        <time>2014-04-13T10:02:26.254Z</time>
      </trkpt>
      <trkpt lat="47.53097" lon="6.79317">
        <ele>387</ele>
        <time>2014-04-13T10:02:31.181Z</time>
      </trkpt>
      <trkpt lat="47.53096" lon="6.79317">
        <ele>386</ele>
        <time>2014-04-13T10:02:36.168Z</time>
      </trkpt>
      <trkpt lat="47.53096" lon="6.79316">
        <ele>386</ele>
        <time>2014-04-13T10:02:41.252Z</time>
      </trkpt>
      <trkpt lat="47.53096" lon="6.79316">
        <ele>386</ele>
        <time>2014-04-13T10:02:46.179Z</time>
      </trkpt>
      <trkpt lat="47.53096" lon="6.79316">
        <ele>386</ele>
        <time>2014-04-13T10:02:51.222Z</time>
      </trkpt>
      <trkpt lat="47.53097" lon="6.79313">
        <ele>385</ele>
        <time>2014-04-13T10:03:21.466Z</time>
      </trkpt>
      <trkpt lat="47.53096" lon="6.79313">
        <ele>385</ele>
        <time>2014-04-13T10:03:26.252Z</time>
      </trkpt>
      <trkpt lat="47.53096" lon="6.79313">
        <ele>385</ele>
        <time>2014-04-13T10:03:31.186Z</time>
      </trkpt>
      <trkpt lat="47.53096" lon="6.79314">
        <ele>384</ele>
        <time>2014-04-13T10:03:36.726Z</time>
      </trkpt>
      <trkpt lat="47.53096" lon="6.79313">
        <ele>384</ele>
        <time>2014-04-13T10:03:41.180Z</time>
      </trkpt>
      <trkpt lat="47.53096" lon="6.79313">
        <ele>384</ele>
        <time>2014-04-13T10:03:46.254Z</time>
      </trkpt>
      <trkpt lat="47.53095" lon="6.79313">
        <ele>384</ele>
        <time>2014-04-13T10:03:51.176Z</time>
      </trkpt>
      <trkpt lat="47.53095" lon="6.79312">
        <ele>384</ele>
        <time>2014-04-13T10:03:56.201Z</time>
      </trkpt>
      <trkpt lat="47.53094" lon="6.79311">
        <ele>384</ele>
        <time>2014-04-13T10:04:06.267Z</time>
      </trkpt>
      <trkpt lat="47.53093" lon="6.79311">
        <ele>384</ele>
        <time>2014-04-13T10:04:11.255Z</time>
      </trkpt>
      <trkpt lat="47.53093" lon="6.79311">
        <ele>383</ele>
        <time>2014-04-13T10:04:16.188Z</time>
      </trkpt>
      <trkpt lat="47.53094" lon="6.7931">
        <ele>383</ele>
        <time>2014-04-13T10:04:21.254Z</time>
      </trkpt>
      <trkpt lat="47.53095" lon="6.79306">
        <ele>382</ele>
        <time>2014-04-13T10:04:26.180Z</time>
      </trkpt>
      <trkpt lat="47.53095" lon="6.79305">
        <ele>382</ele>
        <time>2014-04-13T10:04:31.219Z</time>
      </trkpt>
      <trkpt lat="47.53094" lon="6.79304">
        <ele>381</ele>
        <time>2014-04-13T10:04:36.193Z</time>
      </trkpt>
      <trkpt lat="47.53094" lon="6.79304">
        <ele>381</ele>
        <time>2014-04-13T10:04:41.253Z</time>
      </trkpt>
      <trkpt lat="47.53093" lon="6.79307">
        <ele>381</ele>
        <time>2014-04-13T10:04:46.188Z</time>
      </trkpt>
      <trkpt lat="47.53093" lon="6.79307">
        <ele>381</ele>
        <time>2014-04-13T10:04:51.254Z</time>
      </trkpt>
      <trkpt lat="47.53092" lon="6.79307">
        <ele>381</ele>
        <time>2014-04-13T10:04:56.180Z</time>
      </trkpt>
      <trkpt lat="47.53092" lon="6.79307">
        <ele>381</ele>
        <time>2014-04-13T10:05:01.292Z</time>
      </trkpt>
      <trkpt lat="47.53093" lon="6.79307">
        <ele>381</ele>
        <time>2014-04-13T10:05:06.183Z</time>
      </trkpt>
      <trkpt lat="47.53093" lon="6.79307">
        <ele>381</ele>
        <time>2014-04-13T10:05:11.260Z</time>
      </trkpt>
      <trkpt lat="47.53092" lon="6.79307">
        <ele>381</ele>
        <time>2014-04-13T10:05:16.188Z</time>
      </trkpt>
      <trkpt lat="47.53093" lon="6.79307">
        <ele>381</ele>
        <time>2014-04-13T10:05:21.255Z</time>
      </trkpt>
      <trkpt lat="47.53095" lon="6.79307">
        <ele>381</ele>
        <time>2014-04-13T10:05:26.188Z</time>
      </trkpt>
      <trkpt lat="47.53095" lon="6.79307">
        <ele>381</ele>
        <time>2014-04-13T10:05:31.280Z</time>
      </trkpt>
      <trkpt lat="47.53095" lon="6.79307">
        <ele>381</ele>
        <time>2014-04-13T10:05:36.253Z</time>
      </trkpt>
      <trkpt lat="47.53095" lon="6.79307">
        <ele>381</ele>
        <time>2014-04-13T10:05:41.189Z</time>
      </trkpt>
      <trkpt lat="47.53095" lon="6.79307">
        <ele>381</ele>
        <time>2014-04-13T10:05:46.246Z</time>
      </trkpt>
      <trkpt lat="47.53095" lon="6.79307">
        <ele>381</ele>
        <time>2014-04-13T10:05:51.196Z</time>
      </trkpt>
      <trkpt lat="47.53093" lon="6.79305">
        <ele>381</ele>
        <time>2014-04-13T10:06:21.191Z</time>
      </trkpt>
      <trkpt lat="47.53093" lon="6.79306">
        <ele>381</ele>
        <time>2014-04-13T10:06:26.261Z</time>
      </trkpt>
      <trkpt lat="47.53093" lon="6.79306">
        <ele>381</ele>
        <time>2014-04-13T10:06:31.188Z</time>
      </trkpt>
      <trkpt lat="47.53093" lon="6.79306">
        <ele>381</ele>
        <time>2014-04-13T10:06:36.197Z</time>
      </trkpt>
      <trkpt lat="47.53094" lon="6.79306">
        <ele>381</ele>
        <time>2014-04-13T10:06:41.264Z</time>
      </trkpt>
      <trkpt lat="47.53094" lon="6.79306">
        <ele>381</ele>
        <time>2014-04-13T10:06:46.193Z</time>
      </trkpt>
      <trkpt lat="47.53094" lon="6.79306">
        <ele>381</ele>
        <time>2014-04-13T10:06:51.187Z</time>
      </trkpt>
      <trkpt lat="47.53094" lon="6.79306">
        <ele>381</ele>
        <time>2014-04-13T10:06:56.267Z</time>
      </trkpt>
      <trkpt lat="47.53094" lon="6.79306">
        <ele>381</ele>
        <time>2014-04-13T10:07:01.180Z</time>
      </trkpt>
      <trkpt lat="47.53094" lon="6.79306">
        <ele>381</ele>
        <time>2014-04-13T10:07:06.255Z</time>
      </trkpt>
      <trkpt lat="47.53094" lon="6.79306">
        <ele>381</ele>
        <time>2014-04-13T10:07:11.189Z</time>
      </trkpt>
      <trkpt lat="47.53094" lon="6.79306">
        <ele>381</ele>
        <time>2014-04-13T10:07:16.235Z</time>
      </trkpt>
      <trkpt lat="47.53094" lon="6.79306">
        <ele>381</ele>
        <time>2014-04-13T10:07:21.179Z</time>
      </trkpt>
      <trkpt lat="47.53094" lon="6.79306">
        <ele>381</ele>
        <time>2014-04-13T10:07:26.262Z</time>
      </trkpt>
      <trkpt lat="47.53094" lon="6.79306">
        <ele>381</ele>
        <time>2014-04-13T10:07:31.186Z</time>
      </trkpt>
      <trkpt lat="47.53095" lon="6.79306">
        <ele>381</ele>
        <time>2014-04-13T10:07:36.499Z</time>
      </trkpt>
      <trkpt lat="47.53095" lon="6.79306">
        <ele>381</ele>
        <time>2014-04-13T10:07:41.190Z</time>
      </trkpt>
      <trkpt lat="47.53095" lon="6.79306">
        <ele>381</ele>
        <time>2014-04-13T10:07:46.181Z</time>
      </trkpt>
      <trkpt lat="47.53095" lon="6.79306">
        <ele>381</ele>
        <time>2014-04-13T10:07:51.345Z</time>
      </trkpt>
      <trkpt lat="47.53095" lon="6.79306">
        <ele>381</ele>
        <time>2014-04-13T10:07:56.179Z</time>
      </trkpt>
      <trkpt lat="47.53095" lon="6.79307">
        <ele>382</ele>
        <time>2014-04-13T10:08:01.255Z</time>
      </trkpt>
      <trkpt lat="47.53094" lon="6.79306">
        <ele>381</ele>
        <time>2014-04-13T10:08:06.179Z</time>
      </trkpt>
      <trkpt lat="47.53094" lon="6.79306">
        <ele>381</ele>
        <time>2014-04-13T10:08:11.241Z</time>
      </trkpt>
      <trkpt lat="47.53094" lon="6.79306">
        <ele>381</ele>
        <time>2014-04-13T10:08:16.186Z</time>
      </trkpt>
      <trkpt lat="47.53093" lon="6.79305">
        <ele>381</ele>
        <time>2014-04-13T10:08:21.255Z</time>
      </trkpt>
      <trkpt lat="47.53093" lon="6.79305">
        <ele>381</ele>
        <time>2014-04-13T10:08:26.178Z</time>
      </trkpt>
      <trkpt lat="47.53093" lon="6.79305">
        <ele>381</ele>
        <time>2014-04-13T10:08:31.253Z</time>
      </trkpt>
      <trkpt lat="47.53093" lon="6.79305">
        <ele>381</ele>
        <time>2014-04-13T10:08:36.184Z</time>
      </trkpt>
      <trkpt lat="47.53093" lon="6.79305">
        <ele>381</ele>
        <time>2014-04-13T10:08:41.238Z</time>
      </trkpt>
      <trkpt lat="47.53093" lon="6.79305">
        <ele>381</ele>
        <time>2014-04-13T10:08:46.198Z</time>
      </trkpt>
      <trkpt lat="47.53093" lon="6.79304">
        <ele>380</ele>
        <time>2014-04-13T10:08:51.229Z</time>
      </trkpt>
      <trkpt lat="47.53093" lon="6.79304">
        <ele>380</ele>
        <time>2014-04-13T10:08:56.179Z</time>
      </trkpt>
      <trkpt lat="47.53093" lon="6.79304">
        <ele>380</ele>
        <time>2014-04-13T10:09:01.193Z</time>
      </trkpt>
      <trkpt lat="47.53093" lon="6.79304">
        <ele>380</ele>
        <time>2014-04-13T10:09:06.266Z</time>
      </trkpt>
      <trkpt lat="47.53093" lon="6.79304">
        <ele>380</ele>
        <time>2014-04-13T10:09:11.183Z</time>
      </trkpt>
      <trkpt lat="47.53093" lon="6.79303">
        <ele>379</ele>
        <time>2014-04-13T10:09:16.258Z</time>
      </trkpt>
      <trkpt lat="47.53093" lon="6.79302">
        <ele>380</ele>
        <time>2014-04-13T10:09:21.157Z</time>
      </trkpt>
      <trkpt lat="47.53095" lon="6.79302">
        <ele>380</ele>
        <time>2014-04-13T10:09:26.227Z</time>
      </trkpt>
      <trkpt lat="47.53095" lon="6.79302">
        <ele>379</ele>
        <time>2014-04-13T10:09:31.146Z</time>
      </trkpt>
      <trkpt lat="47.53094" lon="6.79303">
        <ele>379</ele>
        <time>2014-04-13T10:09:36.254Z</time>
      </trkpt>
      <trkpt lat="47.53094" lon="6.79302">
        <ele>379</ele>
        <time>2014-04-13T10:09:41.193Z</time>
      </trkpt>
      <trkpt lat="47.53094" lon="6.79302">
        <ele>379</ele>
        <time>2014-04-13T10:09:46.215Z</time>
      </trkpt>
      <trkpt lat="47.53094" lon="6.79302">
        <ele>379</ele>
        <time>2014-04-13T10:09:51.145Z</time>
      </trkpt>
      <trkpt lat="47.53094" lon="6.79302">
        <ele>379</ele>
        <time>2014-04-13T10:09:56.273Z</time>
      </trkpt>
      <trkpt lat="47.53095" lon="6.79302">
        <ele>379</ele>
        <time>2014-04-13T10:10:01.146Z</time>
      </trkpt>
      <trkpt lat="47.53095" lon="6.79302">
        <ele>379</ele>
        <time>2014-04-13T10:10:06.171Z</time>
      </trkpt>
      <trkpt lat="47.53096" lon="6.79303">
        <ele>379</ele>
        <time>2014-04-13T10:10:11.183Z</time>
      </trkpt>
      <trkpt lat="47.53095" lon="6.79303">
        <ele>379</ele>
        <time>2014-04-13T10:10:16.177Z</time>
      </trkpt>
      <trkpt lat="47.53095" lon="6.79303">
        <ele>379</ele>
        <time>2014-04-13T10:10:21.251Z</time>
      </trkpt>
      <trkpt lat="47.53094" lon="6.79303">
        <ele>379</ele>
        <time>2014-04-13T10:10:26.183Z</time>
      </trkpt>
      <trkpt lat="47.53095" lon="6.79303">
        <ele>379</ele>
        <time>2014-04-13T10:10:31.251Z</time>
      </trkpt>
      <trkpt lat="47.53096" lon="6.79302">
        <ele>379</ele>
        <time>2014-04-13T10:10:36.187Z</time>
      </trkpt>
      <trkpt lat="47.53097" lon="6.79303">
        <ele>379</ele>
        <time>2014-04-13T10:10:41.250Z</time>
      </trkpt>
      <trkpt lat="47.53097" lon="6.79303">
        <ele>379</ele>
        <time>2014-04-13T10:10:46.186Z</time>
      </trkpt>
      <trkpt lat="47.53097" lon="6.79302">
        <ele>380</ele>
        <time>2014-04-13T10:10:51.151Z</time>
      </trkpt>
      <trkpt lat="47.53095" lon="6.79304">
        <ele>380</ele>
        <time>2014-04-13T10:11:01.195Z</time>
      </trkpt>
      <trkpt lat="47.53095" lon="6.79308">
        <ele>380</ele>
        <time>2014-04-13T10:11:06.262Z</time>
      </trkpt>
      <trkpt lat="47.53095" lon="6.7931">
        <ele>380</ele>
        <time>2014-04-13T10:11:11.186Z</time>
      </trkpt>
      <trkpt lat="47.53094" lon="6.79309">
        <ele>380</ele>
        <time>2014-04-13T10:11:16.252Z</time>
      </trkpt>
      <trkpt lat="47.53094" lon="6.79309">
        <ele>380</ele>
        <time>2014-04-13T10:11:21.178Z</time>
      </trkpt>
      <trkpt lat="47.53095" lon="6.79308">
        <ele>380</ele>
        <time>2014-04-13T10:11:26.240Z</time>
      </trkpt>
      <trkpt lat="47.53094" lon="6.79309">
        <ele>380</ele>
        <time>2014-04-13T10:11:31.187Z</time>
      </trkpt>
      <trkpt lat="47.53094" lon="6.79308">
        <ele>380</ele>
        <time>2014-04-13T10:11:36.250Z</time>
      </trkpt>
      <trkpt lat="47.53095" lon="6.79309">
        <ele>381</ele>
        <time>2014-04-13T10:11:41.175Z</time>
      </trkpt>
      <trkpt lat="47.53095" lon="6.79316">
        <ele>382</ele>
        <time>2014-04-13T10:11:46.240Z</time>
      </trkpt>
      <trkpt lat="47.53095" lon="6.79327">
        <ele>382</ele>
        <time>2014-04-13T10:11:51.177Z</time>
      </trkpt>
      <trkpt lat="47.53093" lon="6.79342">
        <ele>384</ele>
        <time>2014-04-13T10:11:56.253Z</time>
      </trkpt>
      <trkpt lat="47.5309" lon="6.79376">
        <ele>387</ele>
        <time>2014-04-13T10:12:06.194Z</time>
      </trkpt>
      <trkpt lat="47.53089" lon="6.79388">
        <ele>387</ele>
        <time>2014-04-13T10:12:11.182Z</time>
      </trkpt>
      <trkpt lat="47.53088" lon="6.79399">
        <ele>387</ele>
        <time>2014-04-13T10:12:16.255Z</time>
      </trkpt>
      <trkpt lat="47.53086" lon="6.7941">
        <ele>386</ele>
        <time>2014-04-13T10:12:21.175Z</time>
      </trkpt>
      <trkpt lat="47.53087" lon="6.79423">
        <ele>386</ele>
        <time>2014-04-13T10:12:26.248Z</time>
      </trkpt>
      <trkpt lat="47.53108" lon="6.79449">
        <ele>385</ele>
        <time>2014-04-13T10:12:36.227Z</time>
      </trkpt>
      <trkpt lat="47.53118" lon="6.79463">
        <ele>386</ele>
        <time>2014-04-13T10:12:41.188Z</time>
      </trkpt>
      <trkpt lat="47.53126" lon="6.79475">
        <ele>386</ele>
        <time>2014-04-13T10:12:46.176Z</time>
      </trkpt>
      <trkpt lat="47.53126" lon="6.79485">
        <ele>386</ele>
        <time>2014-04-13T10:12:51.238Z</time>
      </trkpt>
      <trkpt lat="47.53126" lon="6.79497">
        <ele>385</ele>
        <time>2014-04-13T10:12:56.143Z</time>
      </trkpt>
      <trkpt lat="47.53125" lon="6.79499">
        <ele>384</ele>
        <time>2014-04-13T10:13:06.177Z</time>
      </trkpt>
      <trkpt lat="47.53125" lon="6.79499">
        <ele>383</ele>
        <time>2014-04-13T10:13:11.252Z</time>
      </trkpt>
      <trkpt lat="47.53118" lon="6.79498">
        <ele>383</ele>
        <time>2014-04-13T10:13:16.184Z</time>
      </trkpt>
      <trkpt lat="47.5311" lon="6.79494">
        <ele>383</ele>
        <time>2014-04-13T10:13:21.248Z</time>
      </trkpt>
      <trkpt lat="47.53105" lon="6.79476">
        <ele>384</ele>
        <time>2014-04-13T10:13:26.187Z</time>
      </trkpt>
      <trkpt lat="47.53093" lon="6.79459">
        <ele>385</ele>
        <time>2014-04-13T10:13:31.252Z</time>
      </trkpt>
      <trkpt lat="47.53078" lon="6.79456">
        <ele>385</ele>
        <time>2014-04-13T10:13:36.174Z</time>
      </trkpt>
      <trkpt lat="47.5306" lon="6.79454">
        <ele>385</ele>
        <time>2014-04-13T10:13:41.255Z</time>
      </trkpt>
      <trkpt lat="47.53043" lon="6.7944">
        <ele>389</ele>
        <time>2014-04-13T10:13:46.193Z</time>
      </trkpt>
      <trkpt lat="47.53034" lon="6.79416">
        <ele>391</ele>
        <time>2014-04-13T10:13:51.240Z</time>
      </trkpt>
      <trkpt lat="47.53032" lon="6.79388">
        <ele>392</ele>
        <time>2014-04-13T10:13:56.196Z</time>
      </trkpt>
      <trkpt lat="47.53031" lon="6.79358">
        <ele>391</ele>
        <time>2014-04-13T10:14:01.235Z</time>
      </trkpt>
      <trkpt lat="47.53028" lon="6.79332">
        <ele>392</ele>
        <time>2014-04-13T10:14:06.181Z</time>
      </trkpt>
      <trkpt lat="47.53025" lon="6.79307">
        <ele>391</ele>
        <time>2014-04-13T10:14:11.253Z</time>
      </trkpt>
      <trkpt lat="47.53023" lon="6.79283">
        <ele>392</ele>
        <time>2014-04-13T10:14:16.185Z</time>
      </trkpt>
      <trkpt lat="47.53022" lon="6.79258">
        <ele>392</ele>
        <time>2014-04-13T10:14:21.251Z</time>
      </trkpt>
      <trkpt lat="47.53021" lon="6.7923">
        <ele>392</ele>
        <time>2014-04-13T10:14:26.177Z</time>
      </trkpt>
      <trkpt lat="47.53024" lon="6.79203">
        <ele>392</ele>
        <time>2014-04-13T10:14:31.247Z</time>
      </trkpt>
      <trkpt lat="47.53028" lon="6.79175">
        <ele>392</ele>
        <time>2014-04-13T10:14:36.156Z</time>
      </trkpt>
      <trkpt lat="47.53033" lon="6.79149">
        <ele>392</ele>
        <time>2014-04-13T10:14:41.261Z</time>
      </trkpt>
      <trkpt lat="47.53029" lon="6.79107">
        <ele>390</ele>
        <time>2014-04-13T10:14:51.189Z</time>
      </trkpt>
      <trkpt lat="47.53025" lon="6.79088">
        <ele>389</ele>
        <time>2014-04-13T10:14:56.264Z</time>
      </trkpt>
      <trkpt lat="47.5302" lon="6.79073">
        <ele>391</ele>
        <time>2014-04-13T10:15:01.179Z</time>
      </trkpt>
      <trkpt lat="47.53016" lon="6.79056">
        <ele>392</ele>
        <time>2014-04-13T10:15:06.228Z</time>
      </trkpt>
      <trkpt lat="47.53012" lon="6.79037">
        <ele>393</ele>
        <time>2014-04-13T10:15:11.253Z</time>
      </trkpt>
      <trkpt lat="47.53008" lon="6.7902">
        <ele>393</ele>
        <time>2014-04-13T10:15:16.186Z</time>
      </trkpt>
      <trkpt lat="47.53003" lon="6.79003">
        <ele>394</ele>
        <time>2014-04-13T10:15:21.252Z</time>
      </trkpt>
      <trkpt lat="47.52998" lon="6.78988">
        <ele>397</ele>
        <time>2014-04-13T10:15:26.188Z</time>
      </trkpt>
      <trkpt lat="47.52994" lon="6.78971">
        <ele>398</ele>
        <time>2014-04-13T10:15:31.253Z</time>
      </trkpt>
      <trkpt lat="47.5299" lon="6.78953">
        <ele>399</ele>
        <time>2014-04-13T10:15:36.175Z</time>
      </trkpt>
      <trkpt lat="47.52985" lon="6.78935">
        <ele>399</ele>
        <time>2014-04-13T10:15:41.249Z</time>
      </trkpt>
      <trkpt lat="47.5298" lon="6.78916">
        <ele>399</ele>
        <time>2014-04-13T10:15:46.186Z</time>
      </trkpt>
      <trkpt lat="47.52976" lon="6.78899">
        <ele>400</ele>
        <time>2014-04-13T10:15:51.252Z</time>
      </trkpt>
      <trkpt lat="47.52971" lon="6.78882">
        <ele>401</ele>
        <time>2014-04-13T10:15:56.177Z</time>
      </trkpt>
      <trkpt lat="47.52966" lon="6.78865">
        <ele>402</ele>
        <time>2014-04-13T10:16:01.393Z</time>
      </trkpt>
      <trkpt lat="47.52962" lon="6.78848">
        <ele>403</ele>
        <time>2014-04-13T10:16:06.195Z</time>
      </trkpt>
      <trkpt lat="47.52959" lon="6.78833">
        <ele>404</ele>
        <time>2014-04-13T10:16:11.185Z</time>
      </trkpt>
      <trkpt lat="47.52956" lon="6.78816">
        <ele>404</ele>
        <time>2014-04-13T10:16:16.231Z</time>
      </trkpt>
      <trkpt lat="47.52955" lon="6.78797">
        <ele>405</ele>
        <time>2014-04-13T10:16:21.188Z</time>
      </trkpt>
      <trkpt lat="47.52955" lon="6.78778">
        <ele>405</ele>
        <time>2014-04-13T10:16:26.266Z</time>
      </trkpt>
      <trkpt lat="47.52957" lon="6.78759">
        <ele>406</ele>
        <time>2014-04-13T10:16:31.185Z</time>
      </trkpt>
      <trkpt lat="47.52961" lon="6.78739">
        <ele>406</ele>
        <time>2014-04-13T10:16:36.251Z</time>
      </trkpt>
      <trkpt lat="47.52965" lon="6.78719">
        <ele>404</ele>
        <time>2014-04-13T10:16:41.198Z</time>
      </trkpt>
      <trkpt lat="47.52967" lon="6.787">
        <ele>405</ele>
        <time>2014-04-13T10:16:46.240Z</time>
      </trkpt>
      <trkpt lat="47.52971" lon="6.78678">
        <ele>405</ele>
        <time>2014-04-13T10:16:51.192Z</time>
      </trkpt>
      <trkpt lat="47.52971" lon="6.78656">
        <ele>404</ele>
        <time>2014-04-13T10:16:56.170Z</time>
      </trkpt>
      <trkpt lat="47.5297" lon="6.78637">
        <ele>404</ele>
        <time>2014-04-13T10:17:01.261Z</time>
      </trkpt>
      <trkpt lat="47.52969" lon="6.78619">
        <ele>405</ele>
        <time>2014-04-13T10:17:06.145Z</time>
      </trkpt>
      <trkpt lat="47.52968" lon="6.78601">
        <ele>406</ele>
        <time>2014-04-13T10:17:11.195Z</time>
      </trkpt>
      <trkpt lat="47.52966" lon="6.78584">
        <ele>407</ele>
        <time>2014-04-13T10:17:16.238Z</time>
      </trkpt>
      <trkpt lat="47.52965" lon="6.78568">
        <ele>408</ele>
        <time>2014-04-13T10:17:21.264Z</time>
      </trkpt>
      <trkpt lat="47.52961" lon="6.78562">
        <ele>407</ele>
        <time>2014-04-13T10:17:26.188Z</time>
      </trkpt>
      <trkpt lat="47.52964" lon="6.78554">
        <ele>407</ele>
        <time>2014-04-13T10:17:31.257Z</time>
      </trkpt>
      <trkpt lat="47.52972" lon="6.78546">
        <ele>408</ele>
        <time>2014-04-13T10:17:36.176Z</time>
      </trkpt>
      <trkpt lat="47.52967" lon="6.78546">
        <ele>408</ele>
        <time>2014-04-13T10:17:41.249Z</time>
      </trkpt>
      <trkpt lat="47.52955" lon="6.78562">
        <ele>407</ele>
        <time>2014-04-13T10:17:46.179Z</time>
      </trkpt>
      <trkpt lat="47.5294" lon="6.78578">
        <ele>407</ele>
        <time>2014-04-13T10:17:51.142Z</time>
      </trkpt>
      <trkpt lat="47.52925" lon="6.78593">
        <ele>407</ele>
        <time>2014-04-13T10:17:56.190Z</time>
      </trkpt>
      <trkpt lat="47.52909" lon="6.7861">
        <ele>406</ele>
        <time>2014-04-13T10:18:01.227Z</time>
      </trkpt>
      <trkpt lat="47.52895" lon="6.78625">
        <ele>407</ele>
        <time>2014-04-13T10:18:06.193Z</time>
      </trkpt>
      <trkpt lat="47.52883" lon="6.78637">
        <ele>408</ele>
        <time>2014-04-13T10:18:11.265Z</time>
      </trkpt>
      <trkpt lat="47.52873" lon="6.78649">
        <ele>409</ele>
        <time>2014-04-13T10:18:16.184Z</time>
      </trkpt>
      <trkpt lat="47.52862" lon="6.78658">
        <ele>410</ele>
        <time>2014-04-13T10:18:21.269Z</time>
      </trkpt>
      <trkpt lat="47.52858" lon="6.78666">
        <ele>410</ele>
        <time>2014-04-13T10:18:26.193Z</time>
      </trkpt>
      <trkpt lat="47.52848" lon="6.78674">
        <ele>411</ele>
        <time>2014-04-13T10:18:31.233Z</time>
      </trkpt>
      <trkpt lat="47.52839" lon="6.78684">
        <ele>412</ele>
        <time>2014-04-13T10:18:36.180Z</time>
      </trkpt>
      <trkpt lat="47.52831" lon="6.78696">
        <ele>412</ele>
        <time>2014-04-13T10:18:41.193Z</time>
      </trkpt>
      <trkpt lat="47.52822" lon="6.7871">
        <ele>412</ele>
        <time>2014-04-13T10:18:46.186Z</time>
      </trkpt>
      <trkpt lat="47.52811" lon="6.7872">
        <ele>414</ele>
        <time>2014-04-13T10:18:51.178Z</time>
      </trkpt>
      <trkpt lat="47.528" lon="6.78731">
        <ele>414</ele>
        <time>2014-04-13T10:18:56.253Z</time>
      </trkpt>
      <trkpt lat="47.5279" lon="6.78743">
        <ele>414</ele>
        <time>2014-04-13T10:19:01.383Z</time>
      </trkpt>
      <trkpt lat="47.52774" lon="6.78757">
        <ele>415</ele>
        <time>2014-04-13T10:19:06.255Z</time>
      </trkpt>
      <trkpt lat="47.52757" lon="6.78776">
        <ele>414</ele>
        <time>2014-04-13T10:19:11.175Z</time>
      </trkpt>
      <trkpt lat="47.52739" lon="6.788">
        <ele>415</ele>
        <time>2014-04-13T10:19:16.251Z</time>
      </trkpt>
      <trkpt lat="47.52719" lon="6.78827">
        <ele>415</ele>
        <time>2014-04-13T10:19:21.188Z</time>
      </trkpt>
      <trkpt lat="47.52695" lon="6.78854">
        <ele>414</ele>
        <time>2014-04-13T10:19:26.251Z</time>
      </trkpt>
      <trkpt lat="47.52671" lon="6.78876">
        <ele>415</ele>
        <time>2014-04-13T10:19:31.185Z</time>
      </trkpt>
      <trkpt lat="47.52649" lon="6.78891">
        <ele>415</ele>
        <time>2014-04-13T10:19:36.193Z</time>
      </trkpt>
      <trkpt lat="47.52626" lon="6.78907">
        <ele>415</ele>
        <time>2014-04-13T10:19:41.262Z</time>
      </trkpt>
      <trkpt lat="47.52605" lon="6.78916">
        <ele>414</ele>
        <time>2014-04-13T10:19:46.179Z</time>
      </trkpt>
      <trkpt lat="47.52586" lon="6.78929">
        <ele>414</ele>
        <time>2014-04-13T10:19:51.261Z</time>
      </trkpt>
      <trkpt lat="47.52569" lon="6.78944">
        <ele>414</ele>
        <time>2014-04-13T10:19:56.182Z</time>
      </trkpt>
      <trkpt lat="47.52549" lon="6.78959">
        <ele>414</ele>
        <time>2014-04-13T10:20:01.245Z</time>
      </trkpt>
      <trkpt lat="47.52529" lon="6.7897">
        <ele>414</ele>
        <time>2014-04-13T10:20:06.190Z</time>
      </trkpt>
      <trkpt lat="47.5251" lon="6.78982">
        <ele>414</ele>
        <time>2014-04-13T10:20:11.180Z</time>
      </trkpt>
      <trkpt lat="47.5249" lon="6.78994">
        <ele>413</ele>
        <time>2014-04-13T10:20:16.253Z</time>
      </trkpt>
      <trkpt lat="47.52469" lon="6.79009">
        <ele>412</ele>
        <time>2014-04-13T10:20:21.180Z</time>
      </trkpt>
      <trkpt lat="47.52444" lon="6.79028">
        <ele>412</ele>
        <time>2014-04-13T10:20:26.252Z</time>
      </trkpt>
      <trkpt lat="47.52412" lon="6.79053">
        <ele>412</ele>
        <time>2014-04-13T10:20:31.181Z</time>
      </trkpt>
      <trkpt lat="47.52378" lon="6.79078">
        <ele>410</ele>
        <time>2014-04-13T10:20:36.179Z</time>
      </trkpt>
      <trkpt lat="47.52343" lon="6.79103">
        <ele>409</ele>
        <time>2014-04-13T10:20:41.254Z</time>
      </trkpt>
      <trkpt lat="47.52316" lon="6.79122">
        <ele>409</ele>
        <time>2014-04-13T10:20:46.181Z</time>
      </trkpt>
      <trkpt lat="47.52295" lon="6.79137">
        <ele>410</ele>
        <time>2014-04-13T10:20:51.259Z</time>
      </trkpt>
      <trkpt lat="47.52203" lon="6.79197">
        <ele>416</ele>
        <time>2014-04-13T10:21:21.265Z</time>
      </trkpt>
      <trkpt lat="47.52188" lon="6.79201">
        <ele>418</ele>
        <time>2014-04-13T10:21:26.189Z</time>
      </trkpt>
      <trkpt lat="47.52172" lon="6.79193">
        <ele>418</ele>
        <time>2014-04-13T10:21:31.253Z</time>
      </trkpt>
      <trkpt lat="47.52157" lon="6.79179">
        <ele>418</ele>
        <time>2014-04-13T10:21:36.181Z</time>
      </trkpt>
      <trkpt lat="47.52144" lon="6.7916">
        <ele>418</ele>
        <time>2014-04-13T10:21:41.238Z</time>
      </trkpt>
      <trkpt lat="47.52134" lon="6.79137">
        <ele>418</ele>
        <time>2014-04-13T10:21:46.191Z</time>
      </trkpt>
      <trkpt lat="47.52126" lon="6.79113">
        <ele>418</ele>
        <time>2014-04-13T10:21:51.263Z</time>
      </trkpt>
      <trkpt lat="47.52117" lon="6.79088">
        <ele>418</ele>
        <time>2014-04-13T10:21:56.191Z</time>
      </trkpt>
      <trkpt lat="47.52106" lon="6.79018">
        <ele>420</ele>
        <time>2014-04-13T10:22:11.254Z</time>
      </trkpt>
      <trkpt lat="47.52103" lon="6.78997">
        <ele>421</ele>
        <time>2014-04-13T10:22:16.188Z</time>
      </trkpt>
      <trkpt lat="47.521" lon="6.78977">
        <ele>422</ele>
        <time>2014-04-13T10:22:21.251Z</time>
      </trkpt>
      <trkpt lat="47.52098" lon="6.78955">
        <ele>422</ele>
        <time>2014-04-13T10:22:26.194Z</time>
      </trkpt>
      <trkpt lat="47.52096" lon="6.78934">
        <ele>423</ele>
        <time>2014-04-13T10:22:31.247Z</time>
      </trkpt>
      <trkpt lat="47.52094" lon="6.78914">
        <ele>424</ele>
        <time>2014-04-13T10:22:36.190Z</time>
      </trkpt>
      <trkpt lat="47.52093" lon="6.78895">
        <ele>425</ele>
        <time>2014-04-13T10:22:41.180Z</time>
      </trkpt>
      <trkpt lat="47.52091" lon="6.78877">
        <ele>426</ele>
        <time>2014-04-13T10:22:46.250Z</time>
      </trkpt>
      <trkpt lat="47.5209" lon="6.78859">
        <ele>427</ele>
        <time>2014-04-13T10:22:51.188Z</time>
      </trkpt>
      <trkpt lat="47.52089" lon="6.78841">
        <ele>428</ele>
        <time>2014-04-13T10:22:56.270Z</time>
      </trkpt>
      <trkpt lat="47.52089" lon="6.78823">
        <ele>430</ele>
        <time>2014-04-13T10:23:01.979Z</time>
      </trkpt>
      <trkpt lat="47.5209" lon="6.78805">
        <ele>431</ele>
        <time>2014-04-13T10:23:06.249Z</time>
      </trkpt>
      <trkpt lat="47.52092" lon="6.78787">
        <ele>432</ele>
        <time>2014-04-13T10:23:11.178Z</time>
      </trkpt>
      <trkpt lat="47.52094" lon="6.7877">
        <ele>433</ele>
        <time>2014-04-13T10:23:16.251Z</time>
      </trkpt>
      <trkpt lat="47.52097" lon="6.78751">
        <ele>434</ele>
        <time>2014-04-13T10:23:21.188Z</time>
      </trkpt>
      <trkpt lat="47.521" lon="6.78733">
        <ele>434</ele>
        <time>2014-04-13T10:23:26.393Z</time>
      </trkpt>
      <trkpt lat="47.52103" lon="6.78715">
        <ele>435</ele>
        <time>2014-04-13T10:23:31.253Z</time>
      </trkpt>
      <trkpt lat="47.52105" lon="6.78698">
        <ele>436</ele>
        <time>2014-04-13T10:23:36.182Z</time>
      </trkpt>
      <trkpt lat="47.52107" lon="6.78682">
        <ele>438</ele>
        <time>2014-04-13T10:23:41.236Z</time>
      </trkpt>
      <trkpt lat="47.52109" lon="6.78667">
        <ele>440</ele>
        <time>2014-04-13T10:23:46.203Z</time>
      </trkpt>
      <trkpt lat="47.52109" lon="6.78651">
        <ele>441</ele>
        <time>2014-04-13T10:23:51.441Z</time>
      </trkpt>
      <trkpt lat="47.52109" lon="6.78635">
        <ele>442</ele>
        <time>2014-04-13T10:23:56.188Z</time>
      </trkpt>
      <trkpt lat="47.52089" lon="6.78553">
        <ele>445</ele>
        <time>2014-04-13T10:24:21.265Z</time>
      </trkpt>
      <trkpt lat="47.52083" lon="6.78534">
        <ele>446</ele>
        <time>2014-04-13T10:24:26.181Z</time>
      </trkpt>
      <trkpt lat="47.52078" lon="6.78514">
        <ele>446</ele>
        <time>2014-04-13T10:24:31.249Z</time>
      </trkpt>
      <trkpt lat="47.52073" lon="6.78494">
        <ele>446</ele>
        <time>2014-04-13T10:24:36.187Z</time>
      </trkpt>
      <trkpt lat="47.52067" lon="6.78474">
        <ele>447</ele>
        <time>2014-04-13T10:24:41.256Z</time>
      </trkpt>
      <trkpt lat="47.52061" lon="6.78454">
        <ele>448</ele>
        <time>2014-04-13T10:24:46.181Z</time>
      </trkpt>
      <trkpt lat="47.52055" lon="6.78433">
        <ele>449</ele>
        <time>2014-04-13T10:24:51.239Z</time>
      </trkpt>
      <trkpt lat="47.52049" lon="6.78412">
        <ele>449</ele>
        <time>2014-04-13T10:24:56.193Z</time>
      </trkpt>
      <trkpt lat="47.52042" lon="6.78389">
        <ele>450</ele>
        <time>2014-04-13T10:25:01.258Z</time>
      </trkpt>
      <trkpt lat="47.52036" lon="6.78367">
        <ele>451</ele>
        <time>2014-04-13T10:25:06.183Z</time>
      </trkpt>
      <trkpt lat="47.5203" lon="6.78345">
        <ele>452</ele>
        <time>2014-04-13T10:25:11.252Z</time>
      </trkpt>
      <trkpt lat="47.52023" lon="6.78322">
        <ele>453</ele>
        <time>2014-04-13T10:25:16.180Z</time>
      </trkpt>
      <trkpt lat="47.52017" lon="6.78298">
        <ele>453</ele>
        <time>2014-04-13T10:25:21.242Z</time>
      </trkpt>
      <trkpt lat="47.52012" lon="6.78276">
        <ele>454</ele>
        <time>2014-04-13T10:25:26.190Z</time>
      </trkpt>
      <trkpt lat="47.52006" lon="6.78254">
        <ele>455</ele>
        <time>2014-04-13T10:25:31.261Z</time>
      </trkpt>
      <trkpt lat="47.52001" lon="6.78231">
        <ele>456</ele>
        <time>2014-04-13T10:25:36.186Z</time>
      </trkpt>
      <trkpt lat="47.51994" lon="6.78207">
        <ele>456</ele>
        <time>2014-04-13T10:25:41.247Z</time>
      </trkpt>
      <trkpt lat="47.51987" lon="6.78182">
        <ele>456</ele>
        <time>2014-04-13T10:25:46.193Z</time>
      </trkpt>
      <trkpt lat="47.51979" lon="6.78156">
        <ele>456</ele>
        <time>2014-04-13T10:25:51.254Z</time>
      </trkpt>
      <trkpt lat="47.51968" lon="6.78132">
        <ele>456</ele>
        <time>2014-04-13T10:25:56.196Z</time>
      </trkpt>
      <trkpt lat="47.51962" lon="6.78107">
        <ele>456</ele>
        <time>2014-04-13T10:26:03.627Z</time>
      </trkpt>
      <trkpt lat="47.51974" lon="6.78089">
        <ele>457</ele>
        <time>2014-04-13T10:26:06.190Z</time>
      </trkpt>
      <trkpt lat="47.51988" lon="6.78072">
        <ele>457</ele>
        <time>2014-04-13T10:26:11.197Z</time>
      </trkpt>
      <trkpt lat="47.52003" lon="6.78057">
        <ele>459</ele>
        <time>2014-04-13T10:26:16.262Z</time>
      </trkpt>
      <trkpt lat="47.52016" lon="6.7804">
        <ele>460</ele>
        <time>2014-04-13T10:26:21.177Z</time>
      </trkpt>
      <trkpt lat="47.52025" lon="6.7802">
        <ele>461</ele>
        <time>2014-04-13T10:26:26.251Z</time>
      </trkpt>
      <trkpt lat="47.52029" lon="6.77995">
        <ele>461</ele>
        <time>2014-04-13T10:26:31.180Z</time>
      </trkpt>
      <trkpt lat="47.52026" lon="6.77967">
        <ele>461</ele>
        <time>2014-04-13T10:26:36.212Z</time>
      </trkpt>
      <trkpt lat="47.52031" lon="6.77941">
        <ele>462</ele>
        <time>2014-04-13T10:26:41.263Z</time>
      </trkpt>
      <trkpt lat="47.52033" lon="6.77921">
        <ele>462</ele>
        <time>2014-04-13T10:26:46.188Z</time>
      </trkpt>
      <trkpt lat="47.52039" lon="6.77898">
        <ele>463</ele>
        <time>2014-04-13T10:26:51.251Z</time>
      </trkpt>
      <trkpt lat="47.52035" lon="6.77868">
        <ele>463</ele>
        <time>2014-04-13T10:26:56.185Z</time>
      </trkpt>
      <trkpt lat="47.52028" lon="6.77835">
        <ele>462</ele>
        <time>2014-04-13T10:27:01.246Z</time>
      </trkpt>
      <trkpt lat="47.5202" lon="6.77804">
        <ele>462</ele>
        <time>2014-04-13T10:27:06.191Z</time>
      </trkpt>
      <trkpt lat="47.5201" lon="6.7778">
        <ele>461</ele>
        <time>2014-04-13T10:27:11.262Z</time>
      </trkpt>
      <trkpt lat="47.51996" lon="6.77765">
        <ele>460</ele>
        <time>2014-04-13T10:27:16.193Z</time>
      </trkpt>
      <trkpt lat="47.51987" lon="6.77734">
        <ele>459</ele>
        <time>2014-04-13T10:27:21.254Z</time>
      </trkpt>
      <trkpt lat="47.51977" lon="6.77703">
        <ele>458</ele>
        <time>2014-04-13T10:27:26.185Z</time>
      </trkpt>
      <trkpt lat="47.51967" lon="6.77671">
        <ele>457</ele>
        <time>2014-04-13T10:27:31.249Z</time>
      </trkpt>
      <trkpt lat="47.51957" lon="6.77641">
        <ele>457</ele>
        <time>2014-04-13T10:27:36.197Z</time>
      </trkpt>
      <trkpt lat="47.51948" lon="6.77612">
        <ele>456</ele>
        <time>2014-04-13T10:27:41.265Z</time>
      </trkpt>
      <trkpt lat="47.51959" lon="6.77584">
        <ele>456</ele>
        <time>2014-04-13T10:27:46.186Z</time>
      </trkpt>
      <trkpt lat="47.51973" lon="6.7755">
        <ele>456</ele>
        <time>2014-04-13T10:27:51.255Z</time>
      </trkpt>
      <trkpt lat="47.51964" lon="6.77522">
        <ele>455</ele>
        <time>2014-04-13T10:27:56.186Z</time>
      </trkpt>
      <trkpt lat="47.51939" lon="6.77518">
        <ele>456</ele>
        <time>2014-04-13T10:28:01.253Z</time>
      </trkpt>
      <trkpt lat="47.51915" lon="6.77514">
        <ele>456</ele>
        <time>2014-04-13T10:28:06.176Z</time>
      </trkpt>
      <trkpt lat="47.51892" lon="6.77507">
        <ele>456</ele>
        <time>2014-04-13T10:28:11.238Z</time>
      </trkpt>
      <trkpt lat="47.51866" lon="6.77501">
        <ele>456</ele>
        <time>2014-04-13T10:28:16.190Z</time>
      </trkpt>
      <trkpt lat="47.51841" lon="6.775">
        <ele>455</ele>
        <time>2014-04-13T10:28:21.266Z</time>
      </trkpt>
      <trkpt lat="47.51819" lon="6.77495">
        <ele>456</ele>
        <time>2014-04-13T10:28:26.170Z</time>
      </trkpt>
      <trkpt lat="47.51812" lon="6.7747">
        <ele>455</ele>
        <time>2014-04-13T10:28:36.180Z</time>
      </trkpt>
      <trkpt lat="47.51809" lon="6.7746">
        <ele>454</ele>
        <time>2014-04-13T10:28:41.256Z</time>
      </trkpt>
      <trkpt lat="47.51805" lon="6.77451">
        <ele>454</ele>
        <time>2014-04-13T10:28:46.183Z</time>
      </trkpt>
      <trkpt lat="47.518" lon="6.77456">
        <ele>454</ele>
        <time>2014-04-13T10:28:51.256Z</time>
      </trkpt>
      <trkpt lat="47.51797" lon="6.77455">
        <ele>453</ele>
        <time>2014-04-13T10:28:56.170Z</time>
      </trkpt>
      <trkpt lat="47.51793" lon="6.77459">
        <ele>453</ele>
        <time>2014-04-13T10:29:21.276Z</time>
      </trkpt>
      <trkpt lat="47.51795" lon="6.77459">
        <ele>452</ele>
        <time>2014-04-13T10:29:26.183Z</time>
      </trkpt>
      <trkpt lat="47.51795" lon="6.77459">
        <ele>452</ele>
        <time>2014-04-13T10:29:31.254Z</time>
      </trkpt>
      <trkpt lat="47.51795" lon="6.77459">
        <ele>452</ele>
        <time>2014-04-13T10:29:36.181Z</time>
      </trkpt>
      <trkpt lat="47.51796" lon="6.77459">
        <ele>451</ele>
        <time>2014-04-13T10:29:41.241Z</time>
      </trkpt>
      <trkpt lat="47.51797" lon="6.77456">
        <ele>451</ele>
        <time>2014-04-13T10:29:46.193Z</time>
      </trkpt>
      <trkpt lat="47.51797" lon="6.77456">
        <ele>451</ele>
        <time>2014-04-13T10:29:51.263Z</time>
      </trkpt>
      <trkpt lat="47.51797" lon="6.77455">
        <ele>451</ele>
        <time>2014-04-13T10:29:56.185Z</time>
      </trkpt>
      <trkpt lat="47.51798" lon="6.77455">
        <ele>451</ele>
        <time>2014-04-13T10:30:06.192Z</time>
      </trkpt>
      <trkpt lat="47.51798" lon="6.77455">
        <ele>451</ele>
        <time>2014-04-13T10:30:11.238Z</time>
      </trkpt>
      <trkpt lat="47.51798" lon="6.77456">
        <ele>450</ele>
        <time>2014-04-13T10:30:16.197Z</time>
      </trkpt>
      <trkpt lat="47.51798" lon="6.77455">
        <ele>451</ele>
        <time>2014-04-13T10:30:21.263Z</time>
      </trkpt>
      <trkpt lat="47.51798" lon="6.77454">
        <ele>451</ele>
        <time>2014-04-13T10:30:26.180Z</time>
      </trkpt>
      <trkpt lat="47.51799" lon="6.77454">
        <ele>451</ele>
        <time>2014-04-13T10:30:31.253Z</time>
      </trkpt>
      <trkpt lat="47.51798" lon="6.77454">
        <ele>451</ele>
        <time>2014-04-13T10:30:36.181Z</time>
      </trkpt>
      <trkpt lat="47.51798" lon="6.77455">
        <ele>451</ele>
        <time>2014-04-13T10:30:41.254Z</time>
      </trkpt>
      <trkpt lat="47.51798" lon="6.77456">
        <ele>451</ele>
        <time>2014-04-13T10:30:46.149Z</time>
      </trkpt>
      <trkpt lat="47.51798" lon="6.77457">
        <ele>451</ele>
        <time>2014-04-13T10:30:51.261Z</time>
      </trkpt>
      <trkpt lat="47.51796" lon="6.77456">
        <ele>451</ele>
        <time>2014-04-13T10:30:56.150Z</time>
      </trkpt>
      <trkpt lat="47.51796" lon="6.77461">
        <ele>451</ele>
        <time>2014-04-13T10:31:16.209Z</time>
      </trkpt>
      <trkpt lat="47.51795" lon="6.77458">
        <ele>451</ele>
        <time>2014-04-13T10:31:21.227Z</time>
      </trkpt>
      <trkpt lat="47.51802" lon="6.77459">
        <ele>451</ele>
        <time>2014-04-13T10:31:31.284Z</time>
      </trkpt>
      <trkpt lat="47.5181" lon="6.77463">
        <ele>451</ele>
        <time>2014-04-13T10:31:36.201Z</time>
      </trkpt>
      <trkpt lat="47.51814" lon="6.77467">
        <ele>450</ele>
        <time>2014-04-13T10:31:41.235Z</time>
      </trkpt>
      <trkpt lat="47.51812" lon="6.77468">
        <ele>450</ele>
        <time>2014-04-13T10:31:46.178Z</time>
      </trkpt>
      <trkpt lat="47.51812" lon="6.77469">
        <ele>451</ele>
        <time>2014-04-13T10:31:51.163Z</time>
      </trkpt>
      <trkpt lat="47.51809" lon="6.7747">
        <ele>451</ele>
        <time>2014-04-13T10:31:56.200Z</time>
      </trkpt>
      <trkpt lat="47.51807" lon="6.7747">
        <ele>451</ele>
        <time>2014-04-13T10:32:01.142Z</time>
      </trkpt>
    </trkseg>
  </trk>
</gpx>